<?xml version="1.0" encoding="UTF-8" standalone="no" ?>
<gpx xmlns="http://www.topografix.com/GPX/1/1" xmlns:xsi="http://www.w3.org/2001/XMLSchema-instance" xsi:schemaLocation="http://www.topografix.com/GPX/1/1 http://www.topografix.com/GPX/1/1/gpx.xsd" version="1.1" creator="VisuGPX - https://www.visugpx.com">
  <metadata>
    <name>Sortie gravel le matin</name>
  </metadata>
  <trk>
    <name><![CDATA[Sortie gravel le matin_1]]></name>
    <trkseg>
      <trkpt lat="43.58672" lon="1.32243">
        <ele>177.2</ele>
        <time>2023-04-04T04:42:03Z</time>
      </trkpt>
      <trkpt lat="43.58675" lon="1.32238">
        <ele>187</ele>
        <time>2023-04-04T04:42:04Z</time>
      </trkpt>
      <trkpt lat="43.58677" lon="1.32238">
        <ele>188.8</ele>
        <time>2023-04-04T04:42:05Z</time>
      </trkpt>
      <trkpt lat="43.58679" lon="1.32233">
        <ele>190.4</ele>
        <time>2023-04-04T04:42:38Z</time>
      </trkpt>
      <trkpt lat="43.5868" lon="1.32236">
        <ele>190.4</ele>
        <time>2023-04-04T04:42:39Z</time>
      </trkpt>
      <trkpt lat="43.5868" lon="1.32254">
        <ele>190.2</ele>
        <time>2023-04-04T04:42:44Z</time>
      </trkpt>
      <trkpt lat="43.58681" lon="1.32277">
        <ele>189.8</ele>
        <time>2023-04-04T04:42:49Z</time>
      </trkpt>
      <trkpt lat="43.58689" lon="1.32275">
        <ele>189.8</ele>
        <time>2023-04-04T04:42:52Z</time>
      </trkpt>
      <trkpt lat="43.58711" lon="1.32257">
        <ele>190.4</ele>
        <time>2023-04-04T04:42:59Z</time>
      </trkpt>
      <trkpt lat="43.58729" lon="1.32241">
        <ele>191.4</ele>
        <time>2023-04-04T04:43:04Z</time>
      </trkpt>
      <trkpt lat="43.58736" lon="1.32235">
        <ele>191.6</ele>
        <time>2023-04-04T04:43:06Z</time>
      </trkpt>
      <trkpt lat="43.58757" lon="1.32213">
        <ele>192.4</ele>
        <time>2023-04-04T04:43:12Z</time>
      </trkpt>
      <trkpt lat="43.58785" lon="1.32183">
        <ele>193</ele>
        <time>2023-04-04T04:43:20Z</time>
      </trkpt>
      <trkpt lat="43.58789" lon="1.3218">
        <ele>193</ele>
        <time>2023-04-04T04:43:21Z</time>
      </trkpt>
      <trkpt lat="43.588" lon="1.32169">
        <ele>193.2</ele>
        <time>2023-04-04T04:43:24Z</time>
      </trkpt>
      <trkpt lat="43.58813" lon="1.32151">
        <ele>193.2</ele>
        <time>2023-04-04T04:43:29Z</time>
      </trkpt>
      <trkpt lat="43.58817" lon="1.32136">
        <ele>193.4</ele>
        <time>2023-04-04T04:43:33Z</time>
      </trkpt>
      <trkpt lat="43.5882" lon="1.32126">
        <ele>193.4</ele>
        <time>2023-04-04T04:43:35Z</time>
      </trkpt>
      <trkpt lat="43.58824" lon="1.32116">
        <ele>193.6</ele>
        <time>2023-04-04T04:43:37Z</time>
      </trkpt>
      <trkpt lat="43.58828" lon="1.32112">
        <ele>193.8</ele>
        <time>2023-04-04T04:43:38Z</time>
      </trkpt>
      <trkpt lat="43.58858" lon="1.32082">
        <ele>193.8</ele>
        <time>2023-04-04T04:43:46Z</time>
      </trkpt>
      <trkpt lat="43.58881" lon="1.32058">
        <ele>194</ele>
        <time>2023-04-04T04:43:52Z</time>
      </trkpt>
      <trkpt lat="43.58898" lon="1.32041">
        <ele>194.2</ele>
        <time>2023-04-04T04:43:56Z</time>
      </trkpt>
      <trkpt lat="43.58934" lon="1.32006">
        <ele>194.2</ele>
        <time>2023-04-04T04:44:05Z</time>
      </trkpt>
      <trkpt lat="43.58942" lon="1.32005">
        <ele>194.2</ele>
        <time>2023-04-04T04:44:08Z</time>
      </trkpt>
      <trkpt lat="43.58948" lon="1.32005">
        <ele>194.2</ele>
        <time>2023-04-04T04:44:10Z</time>
      </trkpt>
      <trkpt lat="43.58954" lon="1.32001">
        <ele>194</ele>
        <time>2023-04-04T04:44:12Z</time>
      </trkpt>
      <trkpt lat="43.58966" lon="1.31993">
        <ele>193.8</ele>
        <time>2023-04-04T04:44:15Z</time>
      </trkpt>
      <trkpt lat="43.58974" lon="1.31987">
        <ele>193.6</ele>
        <time>2023-04-04T04:44:17Z</time>
      </trkpt>
      <trkpt lat="43.58979" lon="1.31984">
        <ele>193.6</ele>
        <time>2023-04-04T04:44:18Z</time>
      </trkpt>
      <trkpt lat="43.59009" lon="1.31956">
        <ele>193.8</ele>
        <time>2023-04-04T04:44:25Z</time>
      </trkpt>
      <trkpt lat="43.5903" lon="1.31932">
        <ele>193.8</ele>
        <time>2023-04-04T04:44:30Z</time>
      </trkpt>
      <trkpt lat="43.5904" lon="1.31915">
        <ele>193.8</ele>
        <time>2023-04-04T04:44:33Z</time>
      </trkpt>
      <trkpt lat="43.59051" lon="1.31898">
        <ele>193.8</ele>
        <time>2023-04-04T04:44:36Z</time>
      </trkpt>
      <trkpt lat="43.5906" lon="1.31892">
        <ele>193.6</ele>
        <time>2023-04-04T04:44:38Z</time>
      </trkpt>
      <trkpt lat="43.59065" lon="1.31889">
        <ele>193.6</ele>
        <time>2023-04-04T04:44:39Z</time>
      </trkpt>
      <trkpt lat="43.59074" lon="1.31879">
        <ele>193.6</ele>
        <time>2023-04-04T04:44:41Z</time>
      </trkpt>
      <trkpt lat="43.59078" lon="1.31873">
        <ele>193.6</ele>
        <time>2023-04-04T04:44:42Z</time>
      </trkpt>
      <trkpt lat="43.59085" lon="1.31863">
        <ele>193.6</ele>
        <time>2023-04-04T04:44:44Z</time>
      </trkpt>
      <trkpt lat="43.59096" lon="1.3185">
        <ele>193.6</ele>
        <time>2023-04-04T04:44:47Z</time>
      </trkpt>
      <trkpt lat="43.59104" lon="1.31843">
        <ele>193.6</ele>
        <time>2023-04-04T04:44:49Z</time>
      </trkpt>
      <trkpt lat="43.59112" lon="1.31836">
        <ele>193.8</ele>
        <time>2023-04-04T04:44:52Z</time>
      </trkpt>
      <trkpt lat="43.59113" lon="1.31834">
        <ele>193.8</ele>
        <time>2023-04-04T04:44:53Z</time>
      </trkpt>
      <trkpt lat="43.59111" lon="1.31832">
        <ele>193.8</ele>
        <time>2023-04-04T04:44:55Z</time>
      </trkpt>
      <trkpt lat="43.59101" lon="1.31838">
        <ele>193.8</ele>
        <time>2023-04-04T04:44:59Z</time>
      </trkpt>
      <trkpt lat="43.59087" lon="1.31853">
        <ele>193.8</ele>
        <time>2023-04-04T04:45:03Z</time>
      </trkpt>
      <trkpt lat="43.59083" lon="1.31856">
        <ele>193.8</ele>
        <time>2023-04-04T04:45:04Z</time>
      </trkpt>
      <trkpt lat="43.59066" lon="1.31872">
        <ele>193.8</ele>
        <time>2023-04-04T04:45:08Z</time>
      </trkpt>
      <trkpt lat="43.59058" lon="1.31881">
        <ele>193.8</ele>
        <time>2023-04-04T04:45:10Z</time>
      </trkpt>
      <trkpt lat="43.59035" lon="1.31915">
        <ele>193.8</ele>
        <time>2023-04-04T04:45:16Z</time>
      </trkpt>
      <trkpt lat="43.59027" lon="1.31927">
        <ele>193.8</ele>
        <time>2023-04-04T04:45:18Z</time>
      </trkpt>
      <trkpt lat="43.59013" lon="1.31943">
        <ele>193.6</ele>
        <time>2023-04-04T04:45:21Z</time>
      </trkpt>
      <trkpt lat="43.58998" lon="1.31959">
        <ele>193.8</ele>
        <time>2023-04-04T04:45:24Z</time>
      </trkpt>
      <trkpt lat="43.58972" lon="1.31984">
        <ele>193.8</ele>
        <time>2023-04-04T04:45:29Z</time>
      </trkpt>
      <trkpt lat="43.58956" lon="1.31993">
        <ele>193.8</ele>
        <time>2023-04-04T04:45:32Z</time>
      </trkpt>
      <trkpt lat="43.58951" lon="1.31997">
        <ele>193.8</ele>
        <time>2023-04-04T04:45:33Z</time>
      </trkpt>
      <trkpt lat="43.58947" lon="1.32001">
        <ele>193.8</ele>
        <time>2023-04-04T04:45:34Z</time>
      </trkpt>
      <trkpt lat="43.58936" lon="1.32006">
        <ele>193.8</ele>
        <time>2023-04-04T04:45:36Z</time>
      </trkpt>
      <trkpt lat="43.58931" lon="1.32008">
        <ele>193.8</ele>
        <time>2023-04-04T04:45:37Z</time>
      </trkpt>
      <trkpt lat="43.58926" lon="1.32012">
        <ele>193.6</ele>
        <time>2023-04-04T04:45:38Z</time>
      </trkpt>
      <trkpt lat="43.58907" lon="1.3203">
        <ele>193.6</ele>
        <time>2023-04-04T04:45:42Z</time>
      </trkpt>
      <trkpt lat="43.58883" lon="1.32053">
        <ele>193.6</ele>
        <time>2023-04-04T04:45:47Z</time>
      </trkpt>
      <trkpt lat="43.58869" lon="1.32067">
        <ele>193.6</ele>
        <time>2023-04-04T04:45:50Z</time>
      </trkpt>
      <trkpt lat="43.58825" lon="1.32111">
        <ele>193.6</ele>
        <time>2023-04-04T04:45:59Z</time>
      </trkpt>
      <trkpt lat="43.58816" lon="1.32121">
        <ele>193.6</ele>
        <time>2023-04-04T04:46:01Z</time>
      </trkpt>
      <trkpt lat="43.58813" lon="1.32136">
        <ele>193.6</ele>
        <time>2023-04-04T04:46:04Z</time>
      </trkpt>
      <trkpt lat="43.58806" lon="1.32156">
        <ele>193.4</ele>
        <time>2023-04-04T04:46:08Z</time>
      </trkpt>
      <trkpt lat="43.58802" lon="1.32161">
        <ele>193.2</ele>
        <time>2023-04-04T04:46:09Z</time>
      </trkpt>
      <trkpt lat="43.58794" lon="1.32169">
        <ele>193.2</ele>
        <time>2023-04-04T04:46:11Z</time>
      </trkpt>
      <trkpt lat="43.58781" lon="1.32183">
        <ele>193</ele>
        <time>2023-04-04T04:46:14Z</time>
      </trkpt>
      <trkpt lat="43.58777" lon="1.32188">
        <ele>193</ele>
        <time>2023-04-04T04:46:15Z</time>
      </trkpt>
      <trkpt lat="43.58741" lon="1.32227">
        <ele>192.6</ele>
        <time>2023-04-04T04:46:23Z</time>
      </trkpt>
      <trkpt lat="43.58707" lon="1.32263">
        <ele>192.6</ele>
        <time>2023-04-04T04:46:30Z</time>
      </trkpt>
      <trkpt lat="43.58688" lon="1.32281">
        <ele>192.4</ele>
        <time>2023-04-04T04:46:34Z</time>
      </trkpt>
      <trkpt lat="43.58684" lon="1.32283">
        <ele>192.2</ele>
        <time>2023-04-04T04:46:35Z</time>
      </trkpt>
      <trkpt lat="43.5868" lon="1.32284">
        <ele>192</ele>
        <time>2023-04-04T04:46:36Z</time>
      </trkpt>
      <trkpt lat="43.58679" lon="1.32275">
        <ele>191.6</ele>
        <time>2023-04-04T04:46:38Z</time>
      </trkpt>
      <trkpt lat="43.58679" lon="1.3227">
        <ele>191.2</ele>
        <time>2023-04-04T04:46:39Z</time>
      </trkpt>
      <trkpt lat="43.5868" lon="1.32259">
        <ele>190.8</ele>
        <time>2023-04-04T04:46:41Z</time>
      </trkpt>
      <trkpt lat="43.5868" lon="1.32244">
        <ele>190.6</ele>
        <time>2023-04-04T04:46:44Z</time>
      </trkpt>
      <trkpt lat="43.58681" lon="1.3223">
        <ele>190.6</ele>
        <time>2023-04-04T04:46:49Z</time>
      </trkpt>
      <trkpt lat="43.5868" lon="1.3223">
        <ele>190.8</ele>
        <time>2023-04-04T04:46:52Z</time>
      </trkpt>
      <trkpt lat="43.5868" lon="1.32234">
        <ele>189.8</ele>
        <time>2023-04-04T04:48:18Z</time>
      </trkpt>
      <trkpt lat="43.5868" lon="1.32237">
        <ele>189.6</ele>
        <time>2023-04-04T04:48:19Z</time>
      </trkpt>
      <trkpt lat="43.58679" lon="1.32259">
        <ele>189.6</ele>
        <time>2023-04-04T04:48:24Z</time>
      </trkpt>
      <trkpt lat="43.58678" lon="1.32277">
        <ele>189.4</ele>
        <time>2023-04-04T04:48:27Z</time>
      </trkpt>
      <trkpt lat="43.5868" lon="1.3228">
        <ele>189.4</ele>
        <time>2023-04-04T04:48:28Z</time>
      </trkpt>
      <trkpt lat="43.58685" lon="1.32282">
        <ele>189.2</ele>
        <time>2023-04-04T04:48:30Z</time>
      </trkpt>
      <trkpt lat="43.58688" lon="1.32279">
        <ele>189.2</ele>
        <time>2023-04-04T04:48:31Z</time>
      </trkpt>
      <trkpt lat="43.5871" lon="1.32259">
        <ele>189</ele>
        <time>2023-04-04T04:48:38Z</time>
      </trkpt>
      <trkpt lat="43.58728" lon="1.32242">
        <ele>189.8</ele>
        <time>2023-04-04T04:48:43Z</time>
      </trkpt>
      <trkpt lat="43.58749" lon="1.32219">
        <ele>190.8</ele>
        <time>2023-04-04T04:48:49Z</time>
      </trkpt>
      <trkpt lat="43.58756" lon="1.32211">
        <ele>191</ele>
        <time>2023-04-04T04:48:51Z</time>
      </trkpt>
      <trkpt lat="43.58791" lon="1.32174">
        <ele>191.6</ele>
        <time>2023-04-04T04:49:00Z</time>
      </trkpt>
      <trkpt lat="43.58806" lon="1.32158">
        <ele>191.8</ele>
        <time>2023-04-04T04:49:04Z</time>
      </trkpt>
      <trkpt lat="43.5881" lon="1.32149">
        <ele>191.8</ele>
        <time>2023-04-04T04:49:06Z</time>
      </trkpt>
      <trkpt lat="43.58815" lon="1.3213">
        <ele>191.8</ele>
        <time>2023-04-04T04:49:10Z</time>
      </trkpt>
      <trkpt lat="43.58817" lon="1.32124">
        <ele>191.8</ele>
        <time>2023-04-04T04:49:11Z</time>
      </trkpt>
      <trkpt lat="43.58821" lon="1.32115">
        <ele>192</ele>
        <time>2023-04-04T04:49:13Z</time>
      </trkpt>
      <trkpt lat="43.58825" lon="1.32112">
        <ele>192.2</ele>
        <time>2023-04-04T04:49:14Z</time>
      </trkpt>
      <trkpt lat="43.58855" lon="1.32083">
        <ele>192.4</ele>
        <time>2023-04-04T04:49:21Z</time>
      </trkpt>
      <trkpt lat="43.58901" lon="1.32037">
        <ele>192.8</ele>
        <time>2023-04-04T04:49:32Z</time>
      </trkpt>
      <trkpt lat="43.58931" lon="1.32008">
        <ele>193</ele>
        <time>2023-04-04T04:49:39Z</time>
      </trkpt>
      <trkpt lat="43.58935" lon="1.32006">
        <ele>193</ele>
        <time>2023-04-04T04:49:40Z</time>
      </trkpt>
      <trkpt lat="43.58948" lon="1.32005">
        <ele>193</ele>
        <time>2023-04-04T04:49:43Z</time>
      </trkpt>
      <trkpt lat="43.58952" lon="1.32002">
        <ele>193</ele>
        <time>2023-04-04T04:49:44Z</time>
      </trkpt>
      <trkpt lat="43.58961" lon="1.31997">
        <ele>192.8</ele>
        <time>2023-04-04T04:49:46Z</time>
      </trkpt>
      <trkpt lat="43.58974" lon="1.3199">
        <ele>192.8</ele>
        <time>2023-04-04T04:49:49Z</time>
      </trkpt>
      <trkpt lat="43.59009" lon="1.31956">
        <ele>192.8</ele>
        <time>2023-04-04T04:49:57Z</time>
      </trkpt>
      <trkpt lat="43.59027" lon="1.31939">
        <ele>192.8</ele>
        <time>2023-04-04T04:50:01Z</time>
      </trkpt>
      <trkpt lat="43.59034" lon="1.31928">
        <ele>192.8</ele>
        <time>2023-04-04T04:50:03Z</time>
      </trkpt>
      <trkpt lat="43.59037" lon="1.31921">
        <ele>192.8</ele>
        <time>2023-04-04T04:50:04Z</time>
      </trkpt>
      <trkpt lat="43.59052" lon="1.31899">
        <ele>192.8</ele>
        <time>2023-04-04T04:50:08Z</time>
      </trkpt>
      <trkpt lat="43.59056" lon="1.31896">
        <ele>192.8</ele>
        <time>2023-04-04T04:50:09Z</time>
      </trkpt>
      <trkpt lat="43.59067" lon="1.31889">
        <ele>192.8</ele>
        <time>2023-04-04T04:50:11Z</time>
      </trkpt>
      <trkpt lat="43.59075" lon="1.31879">
        <ele>192.8</ele>
        <time>2023-04-04T04:50:13Z</time>
      </trkpt>
      <trkpt lat="43.59083" lon="1.31867">
        <ele>193</ele>
        <time>2023-04-04T04:50:15Z</time>
      </trkpt>
      <trkpt lat="43.59102" lon="1.31846">
        <ele>193</ele>
        <time>2023-04-04T04:50:19Z</time>
      </trkpt>
      <trkpt lat="43.5911" lon="1.31837">
        <ele>193</ele>
        <time>2023-04-04T04:50:21Z</time>
      </trkpt>
      <trkpt lat="43.59142" lon="1.31807">
        <ele>193</ele>
        <time>2023-04-04T04:50:28Z</time>
      </trkpt>
      <trkpt lat="43.59153" lon="1.318">
        <ele>192.8</ele>
        <time>2023-04-04T04:50:32Z</time>
      </trkpt>
      <trkpt lat="43.59169" lon="1.31789">
        <ele>192.6</ele>
        <time>2023-04-04T04:50:37Z</time>
      </trkpt>
      <trkpt lat="43.59198" lon="1.31777">
        <ele>192.4</ele>
        <time>2023-04-04T04:50:43Z</time>
      </trkpt>
      <trkpt lat="43.59237" lon="1.3176">
        <ele>192.4</ele>
        <time>2023-04-04T04:50:52Z</time>
      </trkpt>
      <trkpt lat="43.59241" lon="1.3176">
        <ele>192.2</ele>
        <time>2023-04-04T04:50:53Z</time>
      </trkpt>
      <trkpt lat="43.59254" lon="1.31763">
        <ele>192</ele>
        <time>2023-04-04T04:50:56Z</time>
      </trkpt>
      <trkpt lat="43.59258" lon="1.31765">
        <ele>192</ele>
        <time>2023-04-04T04:50:57Z</time>
      </trkpt>
      <trkpt lat="43.59275" lon="1.31769">
        <ele>191.8</ele>
        <time>2023-04-04T04:51:01Z</time>
      </trkpt>
      <trkpt lat="43.59279" lon="1.3177">
        <ele>191.8</ele>
        <time>2023-04-04T04:51:02Z</time>
      </trkpt>
      <trkpt lat="43.59289" lon="1.31774">
        <ele>191.8</ele>
        <time>2023-04-04T04:51:04Z</time>
      </trkpt>
      <trkpt lat="43.59299" lon="1.3178">
        <ele>192</ele>
        <time>2023-04-04T04:51:06Z</time>
      </trkpt>
      <trkpt lat="43.59309" lon="1.31784">
        <ele>192</ele>
        <time>2023-04-04T04:51:08Z</time>
      </trkpt>
      <trkpt lat="43.59319" lon="1.31786">
        <ele>192</ele>
        <time>2023-04-04T04:51:10Z</time>
      </trkpt>
      <trkpt lat="43.59329" lon="1.31786">
        <ele>192</ele>
        <time>2023-04-04T04:51:12Z</time>
      </trkpt>
      <trkpt lat="43.5934" lon="1.31778">
        <ele>192</ele>
        <time>2023-04-04T04:51:16Z</time>
      </trkpt>
      <trkpt lat="43.59353" lon="1.31766">
        <ele>192</ele>
        <time>2023-04-04T04:51:20Z</time>
      </trkpt>
      <trkpt lat="43.59377" lon="1.31749">
        <ele>192</ele>
        <time>2023-04-04T04:51:25Z</time>
      </trkpt>
      <trkpt lat="43.59388" lon="1.31739">
        <ele>192.2</ele>
        <time>2023-04-04T04:51:28Z</time>
      </trkpt>
      <trkpt lat="43.59397" lon="1.31735">
        <ele>192.2</ele>
        <time>2023-04-04T04:51:30Z</time>
      </trkpt>
      <trkpt lat="43.59402" lon="1.31735">
        <ele>192.2</ele>
        <time>2023-04-04T04:51:31Z</time>
      </trkpt>
      <trkpt lat="43.59413" lon="1.31735">
        <ele>192.4</ele>
        <time>2023-04-04T04:51:33Z</time>
      </trkpt>
      <trkpt lat="43.59418" lon="1.31734">
        <ele>192.4</ele>
        <time>2023-04-04T04:51:34Z</time>
      </trkpt>
      <trkpt lat="43.59428" lon="1.3173">
        <ele>192.4</ele>
        <time>2023-04-04T04:51:36Z</time>
      </trkpt>
      <trkpt lat="43.59444" lon="1.31731">
        <ele>192.6</ele>
        <time>2023-04-04T04:51:39Z</time>
      </trkpt>
      <trkpt lat="43.59476" lon="1.31734">
        <ele>192.4</ele>
        <time>2023-04-04T04:51:45Z</time>
      </trkpt>
      <trkpt lat="43.59485" lon="1.31735">
        <ele>192.6</ele>
        <time>2023-04-04T04:51:47Z</time>
      </trkpt>
      <trkpt lat="43.5949" lon="1.31743">
        <ele>192.6</ele>
        <time>2023-04-04T04:51:49Z</time>
      </trkpt>
      <trkpt lat="43.5949" lon="1.31749">
        <ele>192.4</ele>
        <time>2023-04-04T04:51:50Z</time>
      </trkpt>
      <trkpt lat="43.59489" lon="1.31795">
        <ele>192.4</ele>
        <time>2023-04-04T04:51:57Z</time>
      </trkpt>
      <trkpt lat="43.59489" lon="1.31832">
        <ele>192.4</ele>
        <time>2023-04-04T04:52:02Z</time>
      </trkpt>
      <trkpt lat="43.59488" lon="1.31885">
        <ele>192.4</ele>
        <time>2023-04-04T04:52:09Z</time>
      </trkpt>
      <trkpt lat="43.59489" lon="1.31891">
        <ele>192</ele>
        <time>2023-04-04T04:52:10Z</time>
      </trkpt>
      <trkpt lat="43.595" lon="1.31927">
        <ele>192</ele>
        <time>2023-04-04T04:52:15Z</time>
      </trkpt>
      <trkpt lat="43.59503" lon="1.31934">
        <ele>192</ele>
        <time>2023-04-04T04:52:16Z</time>
      </trkpt>
      <trkpt lat="43.59516" lon="1.31957">
        <ele>192.2</ele>
        <time>2023-04-04T04:52:20Z</time>
      </trkpt>
      <trkpt lat="43.59522" lon="1.3197">
        <ele>192</ele>
        <time>2023-04-04T04:52:22Z</time>
      </trkpt>
      <trkpt lat="43.59527" lon="1.31975">
        <ele>192</ele>
        <time>2023-04-04T04:52:23Z</time>
      </trkpt>
      <trkpt lat="43.5953" lon="1.31978">
        <ele>191.8</ele>
        <time>2023-04-04T04:52:24Z</time>
      </trkpt>
      <trkpt lat="43.59555" lon="1.31993">
        <ele>191.6</ele>
        <time>2023-04-04T04:52:29Z</time>
      </trkpt>
      <trkpt lat="43.5956" lon="1.31994">
        <ele>191.6</ele>
        <time>2023-04-04T04:52:30Z</time>
      </trkpt>
      <trkpt lat="43.59565" lon="1.31993">
        <ele>191.6</ele>
        <time>2023-04-04T04:52:31Z</time>
      </trkpt>
      <trkpt lat="43.59573" lon="1.31993">
        <ele>191.4</ele>
        <time>2023-04-04T04:52:33Z</time>
      </trkpt>
      <trkpt lat="43.59578" lon="1.31994">
        <ele>191.4</ele>
        <time>2023-04-04T04:52:34Z</time>
      </trkpt>
      <trkpt lat="43.59583" lon="1.31997">
        <ele>191.4</ele>
        <time>2023-04-04T04:52:35Z</time>
      </trkpt>
      <trkpt lat="43.59588" lon="1.32007">
        <ele>191.4</ele>
        <time>2023-04-04T04:52:37Z</time>
      </trkpt>
      <trkpt lat="43.59593" lon="1.32019">
        <ele>191.2</ele>
        <time>2023-04-04T04:52:39Z</time>
      </trkpt>
      <trkpt lat="43.596" lon="1.32028">
        <ele>191.2</ele>
        <time>2023-04-04T04:52:41Z</time>
      </trkpt>
      <trkpt lat="43.59611" lon="1.32035">
        <ele>191.2</ele>
        <time>2023-04-04T04:52:43Z</time>
      </trkpt>
      <trkpt lat="43.59642" lon="1.32058">
        <ele>191.2</ele>
        <time>2023-04-04T04:52:50Z</time>
      </trkpt>
      <trkpt lat="43.59687" lon="1.32092">
        <ele>191.2</ele>
        <time>2023-04-04T04:52:59Z</time>
      </trkpt>
      <trkpt lat="43.5974" lon="1.32132">
        <ele>191.2</ele>
        <time>2023-04-04T04:53:09Z</time>
      </trkpt>
      <trkpt lat="43.59751" lon="1.3214">
        <ele>191.2</ele>
        <time>2023-04-04T04:53:11Z</time>
      </trkpt>
      <trkpt lat="43.5976" lon="1.32146">
        <ele>191</ele>
        <time>2023-04-04T04:53:13Z</time>
      </trkpt>
      <trkpt lat="43.5977" lon="1.32148">
        <ele>191</ele>
        <time>2023-04-04T04:53:15Z</time>
      </trkpt>
      <trkpt lat="43.59778" lon="1.32146">
        <ele>191</ele>
        <time>2023-04-04T04:53:18Z</time>
      </trkpt>
      <trkpt lat="43.59784" lon="1.32152">
        <ele>191.2</ele>
        <time>2023-04-04T04:53:20Z</time>
      </trkpt>
      <trkpt lat="43.59786" lon="1.32156">
        <ele>191.2</ele>
        <time>2023-04-04T04:53:21Z</time>
      </trkpt>
      <trkpt lat="43.59791" lon="1.32167">
        <ele>191.2</ele>
        <time>2023-04-04T04:53:23Z</time>
      </trkpt>
      <trkpt lat="43.59798" lon="1.32176">
        <ele>191.2</ele>
        <time>2023-04-04T04:53:25Z</time>
      </trkpt>
      <trkpt lat="43.5981" lon="1.32187">
        <ele>191.4</ele>
        <time>2023-04-04T04:53:28Z</time>
      </trkpt>
      <trkpt lat="43.59823" lon="1.32202">
        <ele>191.4</ele>
        <time>2023-04-04T04:53:31Z</time>
      </trkpt>
      <trkpt lat="43.59833" lon="1.32209">
        <ele>191.4</ele>
        <time>2023-04-04T04:53:33Z</time>
      </trkpt>
      <trkpt lat="43.59844" lon="1.32212">
        <ele>191.2</ele>
        <time>2023-04-04T04:53:35Z</time>
      </trkpt>
      <trkpt lat="43.59886" lon="1.32218">
        <ele>191</ele>
        <time>2023-04-04T04:53:42Z</time>
      </trkpt>
      <trkpt lat="43.5994" lon="1.32226">
        <ele>191</ele>
        <time>2023-04-04T04:53:51Z</time>
      </trkpt>
      <trkpt lat="43.59945" lon="1.32227">
        <ele>191</ele>
        <time>2023-04-04T04:53:52Z</time>
      </trkpt>
      <trkpt lat="43.59956" lon="1.3223">
        <ele>191</ele>
        <time>2023-04-04T04:53:54Z</time>
      </trkpt>
      <trkpt lat="43.59967" lon="1.32237">
        <ele>191</ele>
        <time>2023-04-04T04:53:56Z</time>
      </trkpt>
      <trkpt lat="43.59971" lon="1.32241">
        <ele>191</ele>
        <time>2023-04-04T04:53:57Z</time>
      </trkpt>
      <trkpt lat="43.59975" lon="1.32245">
        <ele>191</ele>
        <time>2023-04-04T04:53:58Z</time>
      </trkpt>
      <trkpt lat="43.59991" lon="1.32265">
        <ele>191</ele>
        <time>2023-04-04T04:54:02Z</time>
      </trkpt>
      <trkpt lat="43.59994" lon="1.32269">
        <ele>191</ele>
        <time>2023-04-04T04:54:03Z</time>
      </trkpt>
      <trkpt lat="43.60003" lon="1.32273">
        <ele>191</ele>
        <time>2023-04-04T04:54:05Z</time>
      </trkpt>
      <trkpt lat="43.60028" lon="1.32268">
        <ele>190.8</ele>
        <time>2023-04-04T04:54:10Z</time>
      </trkpt>
      <trkpt lat="43.60033" lon="1.32266">
        <ele>190.8</ele>
        <time>2023-04-04T04:54:11Z</time>
      </trkpt>
      <trkpt lat="43.60037" lon="1.32264">
        <ele>190.8</ele>
        <time>2023-04-04T04:54:12Z</time>
      </trkpt>
      <trkpt lat="43.60043" lon="1.32262">
        <ele>190.8</ele>
        <time>2023-04-04T04:54:14Z</time>
      </trkpt>
      <trkpt lat="43.60046" lon="1.32264">
        <ele>191</ele>
        <time>2023-04-04T04:54:15Z</time>
      </trkpt>
      <trkpt lat="43.60048" lon="1.32273">
        <ele>191</ele>
        <time>2023-04-04T04:54:17Z</time>
      </trkpt>
      <trkpt lat="43.60049" lon="1.32306">
        <ele>191</ele>
        <time>2023-04-04T04:54:22Z</time>
      </trkpt>
      <trkpt lat="43.60053" lon="1.32333">
        <ele>191</ele>
        <time>2023-04-04T04:54:26Z</time>
      </trkpt>
      <trkpt lat="43.60056" lon="1.32339">
        <ele>191</ele>
        <time>2023-04-04T04:54:27Z</time>
      </trkpt>
      <trkpt lat="43.6006" lon="1.32346">
        <ele>191</ele>
        <time>2023-04-04T04:54:28Z</time>
      </trkpt>
      <trkpt lat="43.60073" lon="1.32361">
        <ele>191</ele>
        <time>2023-04-04T04:54:31Z</time>
      </trkpt>
      <trkpt lat="43.60096" lon="1.32387">
        <ele>190.8</ele>
        <time>2023-04-04T04:54:36Z</time>
      </trkpt>
      <trkpt lat="43.6011" lon="1.32404">
        <ele>190.6</ele>
        <time>2023-04-04T04:54:39Z</time>
      </trkpt>
      <trkpt lat="43.60153" lon="1.32454">
        <ele>190.2</ele>
        <time>2023-04-04T04:54:48Z</time>
      </trkpt>
      <trkpt lat="43.60158" lon="1.32459">
        <ele>190.2</ele>
        <time>2023-04-04T04:54:49Z</time>
      </trkpt>
      <trkpt lat="43.60203" lon="1.32511">
        <ele>190</ele>
        <time>2023-04-04T04:54:59Z</time>
      </trkpt>
      <trkpt lat="43.60247" lon="1.32563">
        <ele>190.6</ele>
        <time>2023-04-04T04:55:09Z</time>
      </trkpt>
      <trkpt lat="43.60289" lon="1.32611">
        <ele>190.8</ele>
        <time>2023-04-04T04:55:18Z</time>
      </trkpt>
      <trkpt lat="43.60294" lon="1.32616">
        <ele>190.8</ele>
        <time>2023-04-04T04:55:19Z</time>
      </trkpt>
      <trkpt lat="43.60303" lon="1.32621">
        <ele>190.8</ele>
        <time>2023-04-04T04:55:21Z</time>
      </trkpt>
      <trkpt lat="43.60309" lon="1.3262">
        <ele>190.8</ele>
        <time>2023-04-04T04:55:22Z</time>
      </trkpt>
      <trkpt lat="43.60354" lon="1.32609">
        <ele>190.8</ele>
        <time>2023-04-04T04:55:30Z</time>
      </trkpt>
      <trkpt lat="43.60358" lon="1.32605">
        <ele>190.8</ele>
        <time>2023-04-04T04:55:31Z</time>
      </trkpt>
      <trkpt lat="43.60362" lon="1.32599">
        <ele>190.8</ele>
        <time>2023-04-04T04:55:32Z</time>
      </trkpt>
      <trkpt lat="43.60377" lon="1.32571">
        <ele>190.8</ele>
        <time>2023-04-04T04:55:36Z</time>
      </trkpt>
      <trkpt lat="43.60406" lon="1.32518">
        <ele>190.6</ele>
        <time>2023-04-04T04:55:44Z</time>
      </trkpt>
      <trkpt lat="43.60415" lon="1.32499">
        <ele>190.6</ele>
        <time>2023-04-04T04:55:47Z</time>
      </trkpt>
      <trkpt lat="43.6044" lon="1.32453">
        <ele>191</ele>
        <time>2023-04-04T04:55:54Z</time>
      </trkpt>
      <trkpt lat="43.60461" lon="1.32413">
        <ele>191.2</ele>
        <time>2023-04-04T04:56:00Z</time>
      </trkpt>
      <trkpt lat="43.60466" lon="1.32407">
        <ele>191.2</ele>
        <time>2023-04-04T04:56:01Z</time>
      </trkpt>
      <trkpt lat="43.60474" lon="1.32395">
        <ele>191.2</ele>
        <time>2023-04-04T04:56:03Z</time>
      </trkpt>
      <trkpt lat="43.60484" lon="1.32386">
        <ele>191.2</ele>
        <time>2023-04-04T04:56:05Z</time>
      </trkpt>
      <trkpt lat="43.60494" lon="1.3238">
        <ele>191</ele>
        <time>2023-04-04T04:56:07Z</time>
      </trkpt>
      <trkpt lat="43.60502" lon="1.32378">
        <ele>191</ele>
        <time>2023-04-04T04:56:09Z</time>
      </trkpt>
      <trkpt lat="43.6051" lon="1.32379">
        <ele>190.8</ele>
        <time>2023-04-04T04:56:11Z</time>
      </trkpt>
      <trkpt lat="43.60518" lon="1.32383">
        <ele>190.8</ele>
        <time>2023-04-04T04:56:13Z</time>
      </trkpt>
      <trkpt lat="43.6053" lon="1.3239">
        <ele>190.8</ele>
        <time>2023-04-04T04:56:16Z</time>
      </trkpt>
      <trkpt lat="43.6054" lon="1.3239">
        <ele>190.8</ele>
        <time>2023-04-04T04:56:18Z</time>
      </trkpt>
      <trkpt lat="43.60547" lon="1.32382">
        <ele>190.8</ele>
        <time>2023-04-04T04:56:20Z</time>
      </trkpt>
      <trkpt lat="43.60551" lon="1.32377">
        <ele>190.8</ele>
        <time>2023-04-04T04:56:21Z</time>
      </trkpt>
      <trkpt lat="43.60556" lon="1.32373">
        <ele>190.8</ele>
        <time>2023-04-04T04:56:22Z</time>
      </trkpt>
      <trkpt lat="43.60567" lon="1.32368">
        <ele>190.8</ele>
        <time>2023-04-04T04:56:24Z</time>
      </trkpt>
      <trkpt lat="43.60586" lon="1.32366">
        <ele>190.6</ele>
        <time>2023-04-04T04:56:27Z</time>
      </trkpt>
      <trkpt lat="43.60595" lon="1.3237">
        <ele>190.4</ele>
        <time>2023-04-04T04:56:29Z</time>
      </trkpt>
      <trkpt lat="43.60624" lon="1.32401">
        <ele>190.2</ele>
        <time>2023-04-04T04:56:35Z</time>
      </trkpt>
      <trkpt lat="43.60652" lon="1.32431">
        <ele>190</ele>
        <time>2023-04-04T04:56:41Z</time>
      </trkpt>
      <trkpt lat="43.60658" lon="1.32434">
        <ele>190</ele>
        <time>2023-04-04T04:56:42Z</time>
      </trkpt>
      <trkpt lat="43.60664" lon="1.32435">
        <ele>189.8</ele>
        <time>2023-04-04T04:56:43Z</time>
      </trkpt>
      <trkpt lat="43.60691" lon="1.3243">
        <ele>189.8</ele>
        <time>2023-04-04T04:56:48Z</time>
      </trkpt>
      <trkpt lat="43.60734" lon="1.324">
        <ele>189.8</ele>
        <time>2023-04-04T04:56:56Z</time>
      </trkpt>
      <trkpt lat="43.60742" lon="1.32389">
        <ele>189.8</ele>
        <time>2023-04-04T04:56:58Z</time>
      </trkpt>
      <trkpt lat="43.60749" lon="1.32376">
        <ele>189.8</ele>
        <time>2023-04-04T04:57:00Z</time>
      </trkpt>
      <trkpt lat="43.60757" lon="1.32364">
        <ele>189.8</ele>
        <time>2023-04-04T04:57:02Z</time>
      </trkpt>
      <trkpt lat="43.60761" lon="1.32359">
        <ele>190</ele>
        <time>2023-04-04T04:57:03Z</time>
      </trkpt>
      <trkpt lat="43.60773" lon="1.32345">
        <ele>190</ele>
        <time>2023-04-04T04:57:06Z</time>
      </trkpt>
      <trkpt lat="43.60782" lon="1.32342">
        <ele>190</ele>
        <time>2023-04-04T04:57:08Z</time>
      </trkpt>
      <trkpt lat="43.608" lon="1.32347">
        <ele>190</ele>
        <time>2023-04-04T04:57:13Z</time>
      </trkpt>
      <trkpt lat="43.60826" lon="1.32343">
        <ele>190</ele>
        <time>2023-04-04T04:57:18Z</time>
      </trkpt>
      <trkpt lat="43.60834" lon="1.32339">
        <ele>190</ele>
        <time>2023-04-04T04:57:20Z</time>
      </trkpt>
      <trkpt lat="43.60853" lon="1.32327">
        <ele>190.6</ele>
        <time>2023-04-04T04:57:24Z</time>
      </trkpt>
      <trkpt lat="43.60869" lon="1.32318">
        <ele>190.6</ele>
        <time>2023-04-04T04:57:27Z</time>
      </trkpt>
      <trkpt lat="43.60879" lon="1.32319">
        <ele>190.8</ele>
        <time>2023-04-04T04:57:29Z</time>
      </trkpt>
      <trkpt lat="43.6089" lon="1.3232">
        <ele>190.6</ele>
        <time>2023-04-04T04:57:31Z</time>
      </trkpt>
      <trkpt lat="43.60901" lon="1.32318">
        <ele>190.6</ele>
        <time>2023-04-04T04:57:33Z</time>
      </trkpt>
      <trkpt lat="43.60907" lon="1.32315">
        <ele>190.6</ele>
        <time>2023-04-04T04:57:34Z</time>
      </trkpt>
      <trkpt lat="43.60917" lon="1.3231">
        <ele>190.6</ele>
        <time>2023-04-04T04:57:36Z</time>
      </trkpt>
      <trkpt lat="43.60926" lon="1.32305">
        <ele>190.8</ele>
        <time>2023-04-04T04:57:39Z</time>
      </trkpt>
      <trkpt lat="43.60935" lon="1.323">
        <ele>191.4</ele>
        <time>2023-04-04T04:57:42Z</time>
      </trkpt>
      <trkpt lat="43.60939" lon="1.32299">
        <ele>192.2</ele>
        <time>2023-04-04T04:57:44Z</time>
      </trkpt>
      <trkpt lat="43.6094" lon="1.323">
        <ele>192.6</ele>
        <time>2023-04-04T04:57:45Z</time>
      </trkpt>
      <trkpt lat="43.60942" lon="1.32305">
        <ele>193.6</ele>
        <time>2023-04-04T04:57:47Z</time>
      </trkpt>
      <trkpt lat="43.60943" lon="1.32309">
        <ele>194.2</ele>
        <time>2023-04-04T04:57:48Z</time>
      </trkpt>
      <trkpt lat="43.60945" lon="1.32321">
        <ele>195</ele>
        <time>2023-04-04T04:57:51Z</time>
      </trkpt>
      <trkpt lat="43.60943" lon="1.32324">
        <ele>195</ele>
        <time>2023-04-04T04:57:52Z</time>
      </trkpt>
      <trkpt lat="43.60924" lon="1.32334">
        <ele>195</ele>
        <time>2023-04-04T04:57:56Z</time>
      </trkpt>
      <trkpt lat="43.60894" lon="1.32348">
        <ele>194</ele>
        <time>2023-04-04T04:58:00Z</time>
      </trkpt>
      <trkpt lat="43.60887" lon="1.32351">
        <ele>193</ele>
        <time>2023-04-04T04:58:01Z</time>
      </trkpt>
      <trkpt lat="43.60875" lon="1.3236">
        <ele>191.6</ele>
        <time>2023-04-04T04:58:03Z</time>
      </trkpt>
      <trkpt lat="43.60872" lon="1.32366">
        <ele>191.2</ele>
        <time>2023-04-04T04:58:04Z</time>
      </trkpt>
      <trkpt lat="43.60871" lon="1.32374">
        <ele>190.6</ele>
        <time>2023-04-04T04:58:05Z</time>
      </trkpt>
      <trkpt lat="43.60872" lon="1.32382">
        <ele>190.2</ele>
        <time>2023-04-04T04:58:06Z</time>
      </trkpt>
      <trkpt lat="43.60881" lon="1.32418">
        <ele>189.4</ele>
        <time>2023-04-04T04:58:11Z</time>
      </trkpt>
      <trkpt lat="43.60884" lon="1.32425">
        <ele>189.4</ele>
        <time>2023-04-04T04:58:12Z</time>
      </trkpt>
      <trkpt lat="43.60889" lon="1.32436">
        <ele>189.4</ele>
        <time>2023-04-04T04:58:14Z</time>
      </trkpt>
      <trkpt lat="43.60891" lon="1.32443">
        <ele>189.2</ele>
        <time>2023-04-04T04:58:15Z</time>
      </trkpt>
      <trkpt lat="43.60892" lon="1.3245">
        <ele>189.2</ele>
        <time>2023-04-04T04:58:16Z</time>
      </trkpt>
      <trkpt lat="43.60893" lon="1.32457">
        <ele>189.2</ele>
        <time>2023-04-04T04:58:17Z</time>
      </trkpt>
      <trkpt lat="43.60898" lon="1.32469">
        <ele>189.2</ele>
        <time>2023-04-04T04:58:19Z</time>
      </trkpt>
      <trkpt lat="43.60907" lon="1.32481">
        <ele>189</ele>
        <time>2023-04-04T04:58:21Z</time>
      </trkpt>
      <trkpt lat="43.60915" lon="1.3249">
        <ele>189</ele>
        <time>2023-04-04T04:58:23Z</time>
      </trkpt>
      <trkpt lat="43.60919" lon="1.32501">
        <ele>189</ele>
        <time>2023-04-04T04:58:25Z</time>
      </trkpt>
      <trkpt lat="43.60916" lon="1.32513">
        <ele>189</ele>
        <time>2023-04-04T04:58:27Z</time>
      </trkpt>
      <trkpt lat="43.60914" lon="1.32519">
        <ele>189</ele>
        <time>2023-04-04T04:58:28Z</time>
      </trkpt>
      <trkpt lat="43.60912" lon="1.32525">
        <ele>188.8</ele>
        <time>2023-04-04T04:58:29Z</time>
      </trkpt>
      <trkpt lat="43.60914" lon="1.32538">
        <ele>188.8</ele>
        <time>2023-04-04T04:58:31Z</time>
      </trkpt>
      <trkpt lat="43.60927" lon="1.32553">
        <ele>188.8</ele>
        <time>2023-04-04T04:58:34Z</time>
      </trkpt>
      <trkpt lat="43.60931" lon="1.32555">
        <ele>188.6</ele>
        <time>2023-04-04T04:58:35Z</time>
      </trkpt>
      <trkpt lat="43.60945" lon="1.32565">
        <ele>188.8</ele>
        <time>2023-04-04T04:58:39Z</time>
      </trkpt>
      <trkpt lat="43.60946" lon="1.32571">
        <ele>188.8</ele>
        <time>2023-04-04T04:58:41Z</time>
      </trkpt>
      <trkpt lat="43.60944" lon="1.3258">
        <ele>188.6</ele>
        <time>2023-04-04T04:58:43Z</time>
      </trkpt>
      <trkpt lat="43.60927" lon="1.32608">
        <ele>188.6</ele>
        <time>2023-04-04T04:58:49Z</time>
      </trkpt>
      <trkpt lat="43.60913" lon="1.32627">
        <ele>188.6</ele>
        <time>2023-04-04T04:58:54Z</time>
      </trkpt>
      <trkpt lat="43.60909" lon="1.3263">
        <ele>188.6</ele>
        <time>2023-04-04T04:58:55Z</time>
      </trkpt>
      <trkpt lat="43.60895" lon="1.32637">
        <ele>188.6</ele>
        <time>2023-04-04T04:58:58Z</time>
      </trkpt>
      <trkpt lat="43.60883" lon="1.32646">
        <ele>188.6</ele>
        <time>2023-04-04T04:59:01Z</time>
      </trkpt>
      <trkpt lat="43.60874" lon="1.32656">
        <ele>188.6</ele>
        <time>2023-04-04T04:59:03Z</time>
      </trkpt>
      <trkpt lat="43.60867" lon="1.32668">
        <ele>188.6</ele>
        <time>2023-04-04T04:59:05Z</time>
      </trkpt>
      <trkpt lat="43.60864" lon="1.32674">
        <ele>188.6</ele>
        <time>2023-04-04T04:59:06Z</time>
      </trkpt>
      <trkpt lat="43.60861" lon="1.32682">
        <ele>188.6</ele>
        <time>2023-04-04T04:59:07Z</time>
      </trkpt>
      <trkpt lat="43.60859" lon="1.32697">
        <ele>188.6</ele>
        <time>2023-04-04T04:59:09Z</time>
      </trkpt>
      <trkpt lat="43.6086" lon="1.32705">
        <ele>188.8</ele>
        <time>2023-04-04T04:59:10Z</time>
      </trkpt>
      <trkpt lat="43.60861" lon="1.32713">
        <ele>188.8</ele>
        <time>2023-04-04T04:59:11Z</time>
      </trkpt>
      <trkpt lat="43.60867" lon="1.32728">
        <ele>188.8</ele>
        <time>2023-04-04T04:59:13Z</time>
      </trkpt>
      <trkpt lat="43.6087" lon="1.32735">
        <ele>188.8</ele>
        <time>2023-04-04T04:59:14Z</time>
      </trkpt>
      <trkpt lat="43.60875" lon="1.32741">
        <ele>188.8</ele>
        <time>2023-04-04T04:59:15Z</time>
      </trkpt>
      <trkpt lat="43.60886" lon="1.32748">
        <ele>188.8</ele>
        <time>2023-04-04T04:59:17Z</time>
      </trkpt>
      <trkpt lat="43.60898" lon="1.3275">
        <ele>189</ele>
        <time>2023-04-04T04:59:19Z</time>
      </trkpt>
      <trkpt lat="43.60911" lon="1.32748">
        <ele>189.2</ele>
        <time>2023-04-04T04:59:21Z</time>
      </trkpt>
      <trkpt lat="43.60917" lon="1.32748">
        <ele>189.2</ele>
        <time>2023-04-04T04:59:22Z</time>
      </trkpt>
      <trkpt lat="43.6093" lon="1.32752">
        <ele>189.2</ele>
        <time>2023-04-04T04:59:24Z</time>
      </trkpt>
      <trkpt lat="43.6094" lon="1.32762">
        <ele>189.2</ele>
        <time>2023-04-04T04:59:26Z</time>
      </trkpt>
      <trkpt lat="43.6095" lon="1.32773">
        <ele>189.2</ele>
        <time>2023-04-04T04:59:28Z</time>
      </trkpt>
      <trkpt lat="43.60992" lon="1.32827">
        <ele>189</ele>
        <time>2023-04-04T04:59:37Z</time>
      </trkpt>
      <trkpt lat="43.61027" lon="1.3287">
        <ele>189.2</ele>
        <time>2023-04-04T04:59:45Z</time>
      </trkpt>
      <trkpt lat="43.61062" lon="1.32914">
        <ele>189.4</ele>
        <time>2023-04-04T04:59:53Z</time>
      </trkpt>
      <trkpt lat="43.61066" lon="1.3292">
        <ele>189.4</ele>
        <time>2023-04-04T04:59:54Z</time>
      </trkpt>
      <trkpt lat="43.61072" lon="1.32933">
        <ele>189.4</ele>
        <time>2023-04-04T04:59:56Z</time>
      </trkpt>
      <trkpt lat="43.61081" lon="1.32944">
        <ele>189.6</ele>
        <time>2023-04-04T04:59:58Z</time>
      </trkpt>
      <trkpt lat="43.61103" lon="1.32962">
        <ele>189.4</ele>
        <time>2023-04-04T05:00:02Z</time>
      </trkpt>
      <trkpt lat="43.61108" lon="1.32968">
        <ele>189.4</ele>
        <time>2023-04-04T05:00:03Z</time>
      </trkpt>
      <trkpt lat="43.61144" lon="1.33015">
        <ele>188.2</ele>
        <time>2023-04-04T05:00:10Z</time>
      </trkpt>
      <trkpt lat="43.61189" lon="1.33068">
        <ele>187.6</ele>
        <time>2023-04-04T05:00:19Z</time>
      </trkpt>
      <trkpt lat="43.6122" lon="1.33093">
        <ele>187.4</ele>
        <time>2023-04-04T05:00:25Z</time>
      </trkpt>
      <trkpt lat="43.61225" lon="1.33095">
        <ele>187.6</ele>
        <time>2023-04-04T05:00:26Z</time>
      </trkpt>
      <trkpt lat="43.61246" lon="1.33108">
        <ele>187.8</ele>
        <time>2023-04-04T05:00:30Z</time>
      </trkpt>
      <trkpt lat="43.6125" lon="1.33113">
        <ele>187.8</ele>
        <time>2023-04-04T05:00:31Z</time>
      </trkpt>
      <trkpt lat="43.61256" lon="1.33127">
        <ele>188</ele>
        <time>2023-04-04T05:00:33Z</time>
      </trkpt>
      <trkpt lat="43.61262" lon="1.3315">
        <ele>188</ele>
        <time>2023-04-04T05:00:36Z</time>
      </trkpt>
      <trkpt lat="43.61263" lon="1.33158">
        <ele>188.2</ele>
        <time>2023-04-04T05:00:37Z</time>
      </trkpt>
      <trkpt lat="43.61268" lon="1.33171">
        <ele>188.2</ele>
        <time>2023-04-04T05:00:39Z</time>
      </trkpt>
      <trkpt lat="43.61272" lon="1.33177">
        <ele>188.6</ele>
        <time>2023-04-04T05:00:40Z</time>
      </trkpt>
      <trkpt lat="43.61276" lon="1.33183">
        <ele>188.6</ele>
        <time>2023-04-04T05:00:41Z</time>
      </trkpt>
      <trkpt lat="43.61287" lon="1.33188">
        <ele>188.4</ele>
        <time>2023-04-04T05:00:43Z</time>
      </trkpt>
      <trkpt lat="43.61299" lon="1.33188">
        <ele>188.8</ele>
        <time>2023-04-04T05:00:45Z</time>
      </trkpt>
      <trkpt lat="43.6131" lon="1.33182">
        <ele>188.8</ele>
        <time>2023-04-04T05:00:47Z</time>
      </trkpt>
      <trkpt lat="43.61319" lon="1.33171">
        <ele>188.8</ele>
        <time>2023-04-04T05:00:49Z</time>
      </trkpt>
      <trkpt lat="43.61332" lon="1.33151">
        <ele>188.6</ele>
        <time>2023-04-04T05:00:52Z</time>
      </trkpt>
      <trkpt lat="43.61335" lon="1.33147">
        <ele>188.6</ele>
        <time>2023-04-04T05:00:53Z</time>
      </trkpt>
      <trkpt lat="43.61346" lon="1.3314">
        <ele>188.6</ele>
        <time>2023-04-04T05:00:55Z</time>
      </trkpt>
      <trkpt lat="43.61358" lon="1.33139">
        <ele>188.4</ele>
        <time>2023-04-04T05:00:57Z</time>
      </trkpt>
      <trkpt lat="43.61376" lon="1.33141">
        <ele>188.6</ele>
        <time>2023-04-04T05:01:00Z</time>
      </trkpt>
      <trkpt lat="43.61423" lon="1.33157">
        <ele>188.6</ele>
        <time>2023-04-04T05:01:08Z</time>
      </trkpt>
      <trkpt lat="43.61468" lon="1.33186">
        <ele>188.8</ele>
        <time>2023-04-04T05:01:16Z</time>
      </trkpt>
      <trkpt lat="43.61505" lon="1.33211">
        <ele>188.8</ele>
        <time>2023-04-04T05:01:23Z</time>
      </trkpt>
      <trkpt lat="43.61555" lon="1.33245">
        <ele>188.8</ele>
        <time>2023-04-04T05:01:32Z</time>
      </trkpt>
      <trkpt lat="43.61561" lon="1.33247">
        <ele>188.8</ele>
        <time>2023-04-04T05:01:33Z</time>
      </trkpt>
      <trkpt lat="43.61571" lon="1.33252">
        <ele>188.6</ele>
        <time>2023-04-04T05:01:35Z</time>
      </trkpt>
      <trkpt lat="43.61575" lon="1.33256">
        <ele>188.6</ele>
        <time>2023-04-04T05:01:36Z</time>
      </trkpt>
      <trkpt lat="43.6158" lon="1.33261">
        <ele>188.6</ele>
        <time>2023-04-04T05:01:37Z</time>
      </trkpt>
      <trkpt lat="43.61588" lon="1.33275">
        <ele>188.4</ele>
        <time>2023-04-04T05:01:40Z</time>
      </trkpt>
      <trkpt lat="43.61592" lon="1.33279">
        <ele>188.4</ele>
        <time>2023-04-04T05:01:41Z</time>
      </trkpt>
      <trkpt lat="43.61599" lon="1.33284">
        <ele>188.2</ele>
        <time>2023-04-04T05:01:43Z</time>
      </trkpt>
      <trkpt lat="43.61604" lon="1.33287">
        <ele>188.2</ele>
        <time>2023-04-04T05:01:44Z</time>
      </trkpt>
      <trkpt lat="43.61609" lon="1.33289">
        <ele>188.2</ele>
        <time>2023-04-04T05:01:45Z</time>
      </trkpt>
      <trkpt lat="43.61635" lon="1.33294">
        <ele>188.2</ele>
        <time>2023-04-04T05:01:50Z</time>
      </trkpt>
      <trkpt lat="43.61645" lon="1.333">
        <ele>188.2</ele>
        <time>2023-04-04T05:01:52Z</time>
      </trkpt>
      <trkpt lat="43.61654" lon="1.3331">
        <ele>188.2</ele>
        <time>2023-04-04T05:01:54Z</time>
      </trkpt>
      <trkpt lat="43.61659" lon="1.33313">
        <ele>188.2</ele>
        <time>2023-04-04T05:01:55Z</time>
      </trkpt>
      <trkpt lat="43.61668" lon="1.33312">
        <ele>188.2</ele>
        <time>2023-04-04T05:01:57Z</time>
      </trkpt>
      <trkpt lat="43.61674" lon="1.33312">
        <ele>188.2</ele>
        <time>2023-04-04T05:01:58Z</time>
      </trkpt>
      <trkpt lat="43.61689" lon="1.33318">
        <ele>188.2</ele>
        <time>2023-04-04T05:02:01Z</time>
      </trkpt>
      <trkpt lat="43.61738" lon="1.33344">
        <ele>188.6</ele>
        <time>2023-04-04T05:02:10Z</time>
      </trkpt>
      <trkpt lat="43.61788" lon="1.33371">
        <ele>188.4</ele>
        <time>2023-04-04T05:02:19Z</time>
      </trkpt>
      <trkpt lat="43.61798" lon="1.33375">
        <ele>188.4</ele>
        <time>2023-04-04T05:02:21Z</time>
      </trkpt>
      <trkpt lat="43.61811" lon="1.33383">
        <ele>188.4</ele>
        <time>2023-04-04T05:02:24Z</time>
      </trkpt>
      <trkpt lat="43.61815" lon="1.33386">
        <ele>188.4</ele>
        <time>2023-04-04T05:02:25Z</time>
      </trkpt>
      <trkpt lat="43.61823" lon="1.33393">
        <ele>188.4</ele>
        <time>2023-04-04T05:02:27Z</time>
      </trkpt>
      <trkpt lat="43.61831" lon="1.33405">
        <ele>188.4</ele>
        <time>2023-04-04T05:02:29Z</time>
      </trkpt>
      <trkpt lat="43.61846" lon="1.33439">
        <ele>188.2</ele>
        <time>2023-04-04T05:02:34Z</time>
      </trkpt>
      <trkpt lat="43.61868" lon="1.33474">
        <ele>187.8</ele>
        <time>2023-04-04T05:02:39Z</time>
      </trkpt>
      <trkpt lat="43.61885" lon="1.33504">
        <ele>187.4</ele>
        <time>2023-04-04T05:02:43Z</time>
      </trkpt>
      <trkpt lat="43.61898" lon="1.33523">
        <ele>187.2</ele>
        <time>2023-04-04T05:02:46Z</time>
      </trkpt>
      <trkpt lat="43.61918" lon="1.33543">
        <ele>186.8</ele>
        <time>2023-04-04T05:02:50Z</time>
      </trkpt>
      <trkpt lat="43.61919" lon="1.33554">
        <ele>186.8</ele>
        <time>2023-04-04T05:02:52Z</time>
      </trkpt>
      <trkpt lat="43.61919" lon="1.33561">
        <ele>186.8</ele>
        <time>2023-04-04T05:02:53Z</time>
      </trkpt>
      <trkpt lat="43.61919" lon="1.33568">
        <ele>186.6</ele>
        <time>2023-04-04T05:02:54Z</time>
      </trkpt>
      <trkpt lat="43.61925" lon="1.33581">
        <ele>186.6</ele>
        <time>2023-04-04T05:02:56Z</time>
      </trkpt>
      <trkpt lat="43.61958" lon="1.33614">
        <ele>186.4</ele>
        <time>2023-04-04T05:03:03Z</time>
      </trkpt>
      <trkpt lat="43.61974" lon="1.33646">
        <ele>186.2</ele>
        <time>2023-04-04T05:03:09Z</time>
      </trkpt>
      <trkpt lat="43.61974" lon="1.33657">
        <ele>186.2</ele>
        <time>2023-04-04T05:03:12Z</time>
      </trkpt>
      <trkpt lat="43.61972" lon="1.33669">
        <ele>186</ele>
        <time>2023-04-04T05:03:16Z</time>
      </trkpt>
      <trkpt lat="43.61973" lon="1.33673">
        <ele>186</ele>
        <time>2023-04-04T05:03:17Z</time>
      </trkpt>
      <trkpt lat="43.61974" lon="1.33684">
        <ele>186</ele>
        <time>2023-04-04T05:03:19Z</time>
      </trkpt>
      <trkpt lat="43.61972" lon="1.33689">
        <ele>185.8</ele>
        <time>2023-04-04T05:03:20Z</time>
      </trkpt>
      <trkpt lat="43.61968" lon="1.33693">
        <ele>185.8</ele>
        <time>2023-04-04T05:03:21Z</time>
      </trkpt>
      <trkpt lat="43.61959" lon="1.337">
        <ele>185.8</ele>
        <time>2023-04-04T05:03:23Z</time>
      </trkpt>
      <trkpt lat="43.61945" lon="1.33712">
        <ele>185.8</ele>
        <time>2023-04-04T05:03:26Z</time>
      </trkpt>
      <trkpt lat="43.61939" lon="1.33723">
        <ele>185.8</ele>
        <time>2023-04-04T05:03:28Z</time>
      </trkpt>
      <trkpt lat="43.61921" lon="1.33766">
        <ele>185.8</ele>
        <time>2023-04-04T05:03:34Z</time>
      </trkpt>
      <trkpt lat="43.61905" lon="1.33801">
        <ele>185.4</ele>
        <time>2023-04-04T05:03:39Z</time>
      </trkpt>
      <trkpt lat="43.61896" lon="1.33814">
        <ele>185.4</ele>
        <time>2023-04-04T05:03:41Z</time>
      </trkpt>
      <trkpt lat="43.61856" lon="1.33868">
        <ele>185</ele>
        <time>2023-04-04T05:03:50Z</time>
      </trkpt>
      <trkpt lat="43.61854" lon="1.33874">
        <ele>185</ele>
        <time>2023-04-04T05:03:51Z</time>
      </trkpt>
      <trkpt lat="43.61845" lon="1.33897">
        <ele>184.8</ele>
        <time>2023-04-04T05:03:54Z</time>
      </trkpt>
      <trkpt lat="43.61844" lon="1.33911">
        <ele>184.6</ele>
        <time>2023-04-04T05:03:56Z</time>
      </trkpt>
      <trkpt lat="43.61843" lon="1.33919">
        <ele>184.4</ele>
        <time>2023-04-04T05:03:57Z</time>
      </trkpt>
      <trkpt lat="43.61836" lon="1.33932">
        <ele>184</ele>
        <time>2023-04-04T05:03:59Z</time>
      </trkpt>
      <trkpt lat="43.61821" lon="1.33937">
        <ele>183.8</ele>
        <time>2023-04-04T05:04:02Z</time>
      </trkpt>
      <trkpt lat="43.61814" lon="1.33945">
        <ele>183.4</ele>
        <time>2023-04-04T05:04:04Z</time>
      </trkpt>
      <trkpt lat="43.61805" lon="1.33958">
        <ele>183.2</ele>
        <time>2023-04-04T05:04:06Z</time>
      </trkpt>
      <trkpt lat="43.61781" lon="1.33983">
        <ele>182.2</ele>
        <time>2023-04-04T05:04:10Z</time>
      </trkpt>
      <trkpt lat="43.61775" lon="1.3399">
        <ele>182</ele>
        <time>2023-04-04T05:04:11Z</time>
      </trkpt>
      <trkpt lat="43.61765" lon="1.33994">
        <ele>180.8</ele>
        <time>2023-04-04T05:04:13Z</time>
      </trkpt>
      <trkpt lat="43.61761" lon="1.33997">
        <ele>179.8</ele>
        <time>2023-04-04T05:04:14Z</time>
      </trkpt>
      <trkpt lat="43.6176" lon="1.34001">
        <ele>179.2</ele>
        <time>2023-04-04T05:04:15Z</time>
      </trkpt>
      <trkpt lat="43.61761" lon="1.34006">
        <ele>178.2</ele>
        <time>2023-04-04T05:04:16Z</time>
      </trkpt>
      <trkpt lat="43.61765" lon="1.34021">
        <ele>177</ele>
        <time>2023-04-04T05:04:18Z</time>
      </trkpt>
      <trkpt lat="43.61769" lon="1.34036">
        <ele>176</ele>
        <time>2023-04-04T05:04:20Z</time>
      </trkpt>
      <trkpt lat="43.61772" lon="1.34045">
        <ele>175.4</ele>
        <time>2023-04-04T05:04:21Z</time>
      </trkpt>
      <trkpt lat="43.61775" lon="1.34055">
        <ele>175</ele>
        <time>2023-04-04T05:04:22Z</time>
      </trkpt>
      <trkpt lat="43.61784" lon="1.34087">
        <ele>173.6</ele>
        <time>2023-04-04T05:04:25Z</time>
      </trkpt>
      <trkpt lat="43.61788" lon="1.34102">
        <ele>173</ele>
        <time>2023-04-04T05:04:26Z</time>
      </trkpt>
      <trkpt lat="43.61791" lon="1.34113">
        <ele>172.2</ele>
        <time>2023-04-04T05:04:27Z</time>
      </trkpt>
      <trkpt lat="43.618" lon="1.34147">
        <ele>171.2</ele>
        <time>2023-04-04T05:04:30Z</time>
      </trkpt>
      <trkpt lat="43.61805" lon="1.34159">
        <ele>170.4</ele>
        <time>2023-04-04T05:04:31Z</time>
      </trkpt>
      <trkpt lat="43.61809" lon="1.34167">
        <ele>170</ele>
        <time>2023-04-04T05:04:32Z</time>
      </trkpt>
      <trkpt lat="43.61815" lon="1.34175">
        <ele>169.4</ele>
        <time>2023-04-04T05:04:33Z</time>
      </trkpt>
      <trkpt lat="43.61827" lon="1.34189">
        <ele>168.8</ele>
        <time>2023-04-04T05:04:35Z</time>
      </trkpt>
      <trkpt lat="43.61857" lon="1.34225">
        <ele>167.6</ele>
        <time>2023-04-04T05:04:40Z</time>
      </trkpt>
      <trkpt lat="43.6187" lon="1.34237">
        <ele>167</ele>
        <time>2023-04-04T05:04:42Z</time>
      </trkpt>
      <trkpt lat="43.61889" lon="1.34259">
        <ele>166.4</ele>
        <time>2023-04-04T05:04:45Z</time>
      </trkpt>
      <trkpt lat="43.61907" lon="1.3428">
        <ele>166</ele>
        <time>2023-04-04T05:04:48Z</time>
      </trkpt>
      <trkpt lat="43.61947" lon="1.34325">
        <ele>165.4</ele>
        <time>2023-04-04T05:04:55Z</time>
      </trkpt>
      <trkpt lat="43.6196" lon="1.34338">
        <ele>165.2</ele>
        <time>2023-04-04T05:04:57Z</time>
      </trkpt>
      <trkpt lat="43.61965" lon="1.34341">
        <ele>165</ele>
        <time>2023-04-04T05:04:58Z</time>
      </trkpt>
      <trkpt lat="43.6197" lon="1.34346">
        <ele>164.8</ele>
        <time>2023-04-04T05:04:59Z</time>
      </trkpt>
      <trkpt lat="43.61987" lon="1.34363">
        <ele>164.6</ele>
        <time>2023-04-04T05:05:02Z</time>
      </trkpt>
      <trkpt lat="43.61993" lon="1.34369">
        <ele>164.4</ele>
        <time>2023-04-04T05:05:03Z</time>
      </trkpt>
      <trkpt lat="43.62008" lon="1.34386">
        <ele>163.8</ele>
        <time>2023-04-04T05:05:06Z</time>
      </trkpt>
      <trkpt lat="43.62016" lon="1.34398">
        <ele>163.6</ele>
        <time>2023-04-04T05:05:08Z</time>
      </trkpt>
      <trkpt lat="43.62028" lon="1.34418">
        <ele>163.4</ele>
        <time>2023-04-04T05:05:11Z</time>
      </trkpt>
      <trkpt lat="43.62031" lon="1.34433">
        <ele>163.2</ele>
        <time>2023-04-04T05:05:13Z</time>
      </trkpt>
      <trkpt lat="43.62028" lon="1.34448">
        <ele>163</ele>
        <time>2023-04-04T05:05:15Z</time>
      </trkpt>
      <trkpt lat="43.62026" lon="1.34452">
        <ele>162.8</ele>
        <time>2023-04-04T05:05:16Z</time>
      </trkpt>
      <trkpt lat="43.62025" lon="1.34464">
        <ele>162.6</ele>
        <time>2023-04-04T05:05:19Z</time>
      </trkpt>
      <trkpt lat="43.62028" lon="1.34465">
        <ele>162.4</ele>
        <time>2023-04-04T05:05:20Z</time>
      </trkpt>
      <trkpt lat="43.62034" lon="1.34461">
        <ele>162</ele>
        <time>2023-04-04T05:05:22Z</time>
      </trkpt>
      <trkpt lat="43.62046" lon="1.34457">
        <ele>161.8</ele>
        <time>2023-04-04T05:05:25Z</time>
      </trkpt>
      <trkpt lat="43.6205" lon="1.34458">
        <ele>161.8</ele>
        <time>2023-04-04T05:05:26Z</time>
      </trkpt>
      <trkpt lat="43.6206" lon="1.34458">
        <ele>161.8</ele>
        <time>2023-04-04T05:05:28Z</time>
      </trkpt>
      <trkpt lat="43.62071" lon="1.34462">
        <ele>161.8</ele>
        <time>2023-04-04T05:05:30Z</time>
      </trkpt>
      <trkpt lat="43.62075" lon="1.34464">
        <ele>161.8</ele>
        <time>2023-04-04T05:05:31Z</time>
      </trkpt>
      <trkpt lat="43.62098" lon="1.34488">
        <ele>161.6</ele>
        <time>2023-04-04T05:05:37Z</time>
      </trkpt>
      <trkpt lat="43.62107" lon="1.34498">
        <ele>161.6</ele>
        <time>2023-04-04T05:05:39Z</time>
      </trkpt>
      <trkpt lat="43.6213" lon="1.34521">
        <ele>161.4</ele>
        <time>2023-04-04T05:05:44Z</time>
      </trkpt>
      <trkpt lat="43.62157" lon="1.34545">
        <ele>161.4</ele>
        <time>2023-04-04T05:05:49Z</time>
      </trkpt>
      <trkpt lat="43.62167" lon="1.34554">
        <ele>161.2</ele>
        <time>2023-04-04T05:05:51Z</time>
      </trkpt>
      <trkpt lat="43.62211" lon="1.34586">
        <ele>161</ele>
        <time>2023-04-04T05:05:59Z</time>
      </trkpt>
      <trkpt lat="43.6225" lon="1.34612">
        <ele>160.8</ele>
        <time>2023-04-04T05:06:06Z</time>
      </trkpt>
      <trkpt lat="43.62305" lon="1.3464">
        <ele>160.4</ele>
        <time>2023-04-04T05:06:15Z</time>
      </trkpt>
      <trkpt lat="43.62337" lon="1.34654">
        <ele>160.4</ele>
        <time>2023-04-04T05:06:20Z</time>
      </trkpt>
      <trkpt lat="43.62365" lon="1.34667">
        <ele>160.2</ele>
        <time>2023-04-04T05:06:25Z</time>
      </trkpt>
      <trkpt lat="43.62373" lon="1.34675">
        <ele>160.2</ele>
        <time>2023-04-04T05:06:27Z</time>
      </trkpt>
      <trkpt lat="43.62381" lon="1.34686">
        <ele>160.2</ele>
        <time>2023-04-04T05:06:29Z</time>
      </trkpt>
      <trkpt lat="43.62385" lon="1.34692">
        <ele>160.2</ele>
        <time>2023-04-04T05:06:30Z</time>
      </trkpt>
      <trkpt lat="43.62395" lon="1.34696">
        <ele>160.2</ele>
        <time>2023-04-04T05:06:32Z</time>
      </trkpt>
      <trkpt lat="43.6241" lon="1.34688">
        <ele>160.2</ele>
        <time>2023-04-04T05:06:35Z</time>
      </trkpt>
      <trkpt lat="43.62416" lon="1.34686">
        <ele>160.2</ele>
        <time>2023-04-04T05:06:36Z</time>
      </trkpt>
      <trkpt lat="43.6244" lon="1.34684">
        <ele>160.2</ele>
        <time>2023-04-04T05:06:40Z</time>
      </trkpt>
      <trkpt lat="43.62487" lon="1.34688">
        <ele>160</ele>
        <time>2023-04-04T05:06:48Z</time>
      </trkpt>
      <trkpt lat="43.62496" lon="1.34695">
        <ele>159.8</ele>
        <time>2023-04-04T05:06:50Z</time>
      </trkpt>
      <trkpt lat="43.625" lon="1.347">
        <ele>159.8</ele>
        <time>2023-04-04T05:06:51Z</time>
      </trkpt>
      <trkpt lat="43.62503" lon="1.34707">
        <ele>159.6</ele>
        <time>2023-04-04T05:06:52Z</time>
      </trkpt>
      <trkpt lat="43.62506" lon="1.34719">
        <ele>159.4</ele>
        <time>2023-04-04T05:06:54Z</time>
      </trkpt>
      <trkpt lat="43.62508" lon="1.34726">
        <ele>159.4</ele>
        <time>2023-04-04T05:06:55Z</time>
      </trkpt>
      <trkpt lat="43.62509" lon="1.34731">
        <ele>159.2</ele>
        <time>2023-04-04T05:06:56Z</time>
      </trkpt>
      <trkpt lat="43.6251" lon="1.3474">
        <ele>159</ele>
        <time>2023-04-04T05:06:59Z</time>
      </trkpt>
      <trkpt lat="43.6251" lon="1.34743">
        <ele>158.6</ele>
        <time>2023-04-04T05:07:03Z</time>
      </trkpt>
      <trkpt lat="43.6251" lon="1.34745">
        <ele>158.2</ele>
        <time>2023-04-04T05:07:17Z</time>
      </trkpt>
      <trkpt lat="43.62511" lon="1.34753">
        <ele>158.2</ele>
        <time>2023-04-04T05:07:19Z</time>
      </trkpt>
      <trkpt lat="43.6251" lon="1.34757">
        <ele>158.2</ele>
        <time>2023-04-04T05:07:20Z</time>
      </trkpt>
      <trkpt lat="43.62505" lon="1.34769">
        <ele>158.4</ele>
        <time>2023-04-04T05:07:23Z</time>
      </trkpt>
      <trkpt lat="43.62488" lon="1.34773">
        <ele>158.2</ele>
        <time>2023-04-04T05:07:27Z</time>
      </trkpt>
      <trkpt lat="43.62459" lon="1.34776">
        <ele>158.8</ele>
        <time>2023-04-04T05:07:33Z</time>
      </trkpt>
      <trkpt lat="43.62429" lon="1.34777">
        <ele>159</ele>
        <time>2023-04-04T05:07:38Z</time>
      </trkpt>
      <trkpt lat="43.62401" lon="1.34779">
        <ele>159.4</ele>
        <time>2023-04-04T05:07:43Z</time>
      </trkpt>
      <trkpt lat="43.62395" lon="1.34778">
        <ele>159.4</ele>
        <time>2023-04-04T05:07:44Z</time>
      </trkpt>
      <trkpt lat="43.62349" lon="1.34783">
        <ele>160</ele>
        <time>2023-04-04T05:07:52Z</time>
      </trkpt>
      <trkpt lat="43.62337" lon="1.34789">
        <ele>160</ele>
        <time>2023-04-04T05:07:54Z</time>
      </trkpt>
      <trkpt lat="43.62321" lon="1.34802">
        <ele>160</ele>
        <time>2023-04-04T05:07:57Z</time>
      </trkpt>
      <trkpt lat="43.62275" lon="1.3485">
        <ele>159.6</ele>
        <time>2023-04-04T05:08:06Z</time>
      </trkpt>
      <trkpt lat="43.62259" lon="1.34869">
        <ele>158.8</ele>
        <time>2023-04-04T05:08:10Z</time>
      </trkpt>
      <trkpt lat="43.62257" lon="1.34875">
        <ele>158.6</ele>
        <time>2023-04-04T05:08:11Z</time>
      </trkpt>
      <trkpt lat="43.62256" lon="1.34886">
        <ele>158.4</ele>
        <time>2023-04-04T05:08:14Z</time>
      </trkpt>
      <trkpt lat="43.62256" lon="1.349">
        <ele>158.2</ele>
        <time>2023-04-04T05:08:16Z</time>
      </trkpt>
      <trkpt lat="43.62257" lon="1.34913">
        <ele>157.8</ele>
        <time>2023-04-04T05:08:18Z</time>
      </trkpt>
      <trkpt lat="43.62258" lon="1.34966">
        <ele>157.6</ele>
        <time>2023-04-04T05:08:25Z</time>
      </trkpt>
      <trkpt lat="43.62262" lon="1.35044">
        <ele>157.4</ele>
        <time>2023-04-04T05:08:35Z</time>
      </trkpt>
      <trkpt lat="43.62262" lon="1.35088">
        <ele>157.4</ele>
        <time>2023-04-04T05:08:41Z</time>
      </trkpt>
      <trkpt lat="43.62261" lon="1.35092">
        <ele>157.4</ele>
        <time>2023-04-04T05:08:42Z</time>
      </trkpt>
      <trkpt lat="43.62261" lon="1.35105">
        <ele>157.2</ele>
        <time>2023-04-04T05:08:44Z</time>
      </trkpt>
      <trkpt lat="43.62261" lon="1.35111">
        <ele>157.2</ele>
        <time>2023-04-04T05:08:45Z</time>
      </trkpt>
      <trkpt lat="43.62262" lon="1.35117">
        <ele>157.2</ele>
        <time>2023-04-04T05:08:46Z</time>
      </trkpt>
      <trkpt lat="43.62264" lon="1.35124">
        <ele>157.2</ele>
        <time>2023-04-04T05:08:47Z</time>
      </trkpt>
      <trkpt lat="43.62269" lon="1.35154">
        <ele>157</ele>
        <time>2023-04-04T05:08:53Z</time>
      </trkpt>
      <trkpt lat="43.62272" lon="1.35155">
        <ele>156.8</ele>
        <time>2023-04-04T05:08:55Z</time>
      </trkpt>
      <trkpt lat="43.62272" lon="1.35154">
        <ele>156.8</ele>
        <time>2023-04-04T05:08:56Z</time>
      </trkpt>
      <trkpt lat="43.62272" lon="1.35154">
        <ele>156.8</ele>
        <time>2023-04-04T05:08:57Z</time>
      </trkpt>
      <trkpt lat="43.6227" lon="1.35161">
        <ele>151.6</ele>
        <time>2023-04-04T05:17:07Z</time>
      </trkpt>
      <trkpt lat="43.62269" lon="1.35167">
        <ele>155.8</ele>
        <time>2023-04-04T05:17:09Z</time>
      </trkpt>
      <trkpt lat="43.62268" lon="1.35192">
        <ele>156</ele>
        <time>2023-04-04T05:17:15Z</time>
      </trkpt>
      <trkpt lat="43.62273" lon="1.35218">
        <ele>156.2</ele>
        <time>2023-04-04T05:17:21Z</time>
      </trkpt>
      <trkpt lat="43.62283" lon="1.35231">
        <ele>156.4</ele>
        <time>2023-04-04T05:17:26Z</time>
      </trkpt>
      <trkpt lat="43.62283" lon="1.35233">
        <ele>156.4</ele>
        <time>2023-04-04T05:17:27Z</time>
      </trkpt>
      <trkpt lat="43.62284" lon="1.35236">
        <ele>156.4</ele>
        <time>2023-04-04T05:17:29Z</time>
      </trkpt>
      <trkpt lat="43.62285" lon="1.35238">
        <ele>156.2</ele>
        <time>2023-04-04T05:17:30Z</time>
      </trkpt>
      <trkpt lat="43.62286" lon="1.35243">
        <ele>156.2</ele>
        <time>2023-04-04T05:17:32Z</time>
      </trkpt>
      <trkpt lat="43.62285" lon="1.35248">
        <ele>156.2</ele>
        <time>2023-04-04T05:17:34Z</time>
      </trkpt>
      <trkpt lat="43.62285" lon="1.35251">
        <ele>156.2</ele>
        <time>2023-04-04T05:17:36Z</time>
      </trkpt>
      <trkpt lat="43.62285" lon="1.35252">
        <ele>156.2</ele>
        <time>2023-04-04T05:17:38Z</time>
      </trkpt>
      <trkpt lat="43.62285" lon="1.35252">
        <ele>144.4</ele>
        <time>2023-04-04T14:17:49Z</time>
      </trkpt>
      <trkpt lat="43.62206" lon="1.35179">
        <ele>143.4</ele>
        <time>2023-04-04T14:17:59Z</time>
      </trkpt>
      <trkpt lat="43.62206" lon="1.35175">
        <ele>143.2</ele>
        <time>2023-04-04T14:18:00Z</time>
      </trkpt>
      <trkpt lat="43.62238" lon="1.35155">
        <ele>145.6</ele>
        <time>2023-04-04T14:25:29Z</time>
      </trkpt>
      <trkpt lat="43.6224" lon="1.35147">
        <ele>146</ele>
        <time>2023-04-04T14:25:32Z</time>
      </trkpt>
      <trkpt lat="43.62245" lon="1.35117">
        <ele>146.4</ele>
        <time>2023-04-04T14:25:39Z</time>
      </trkpt>
      <trkpt lat="43.62247" lon="1.35076">
        <ele>146.6</ele>
        <time>2023-04-04T14:25:45Z</time>
      </trkpt>
      <trkpt lat="43.62248" lon="1.3505">
        <ele>147</ele>
        <time>2023-04-04T14:25:49Z</time>
      </trkpt>
      <trkpt lat="43.62248" lon="1.3503">
        <ele>147.4</ele>
        <time>2023-04-04T14:25:52Z</time>
      </trkpt>
      <trkpt lat="43.62248" lon="1.35024">
        <ele>147.4</ele>
        <time>2023-04-04T14:25:53Z</time>
      </trkpt>
      <trkpt lat="43.62248" lon="1.34989">
        <ele>147.6</ele>
        <time>2023-04-04T14:25:58Z</time>
      </trkpt>
      <trkpt lat="43.62251" lon="1.34921">
        <ele>147.8</ele>
        <time>2023-04-04T14:26:07Z</time>
      </trkpt>
      <trkpt lat="43.62251" lon="1.349">
        <ele>147.8</ele>
        <time>2023-04-04T14:26:10Z</time>
      </trkpt>
      <trkpt lat="43.62252" lon="1.34889">
        <ele>147.8</ele>
        <time>2023-04-04T14:26:12Z</time>
      </trkpt>
      <trkpt lat="43.62253" lon="1.34885">
        <ele>148</ele>
        <time>2023-04-04T14:26:13Z</time>
      </trkpt>
      <trkpt lat="43.62254" lon="1.3488">
        <ele>148.2</ele>
        <time>2023-04-04T14:26:15Z</time>
      </trkpt>
      <trkpt lat="43.62267" lon="1.34867">
        <ele>148.6</ele>
        <time>2023-04-04T14:26:20Z</time>
      </trkpt>
      <trkpt lat="43.62282" lon="1.34851">
        <ele>148.8</ele>
        <time>2023-04-04T14:26:24Z</time>
      </trkpt>
      <trkpt lat="43.62289" lon="1.34843">
        <ele>148.8</ele>
        <time>2023-04-04T14:26:26Z</time>
      </trkpt>
      <trkpt lat="43.6231" lon="1.34823">
        <ele>148.8</ele>
        <time>2023-04-04T14:26:31Z</time>
      </trkpt>
      <trkpt lat="43.62318" lon="1.34815">
        <ele>149</ele>
        <time>2023-04-04T14:26:33Z</time>
      </trkpt>
      <trkpt lat="43.62327" lon="1.34807">
        <ele>149.2</ele>
        <time>2023-04-04T14:26:35Z</time>
      </trkpt>
      <trkpt lat="43.6235" lon="1.34792">
        <ele>150.2</ele>
        <time>2023-04-04T14:26:40Z</time>
      </trkpt>
      <trkpt lat="43.62355" lon="1.3479">
        <ele>150.4</ele>
        <time>2023-04-04T14:26:41Z</time>
      </trkpt>
      <trkpt lat="43.62382" lon="1.34787">
        <ele>150.8</ele>
        <time>2023-04-04T14:26:46Z</time>
      </trkpt>
      <trkpt lat="43.6241" lon="1.34784">
        <ele>151</ele>
        <time>2023-04-04T14:26:51Z</time>
      </trkpt>
      <trkpt lat="43.6242" lon="1.34783">
        <ele>150.8</ele>
        <time>2023-04-04T14:26:53Z</time>
      </trkpt>
      <trkpt lat="43.62429" lon="1.34781">
        <ele>150.8</ele>
        <time>2023-04-04T14:26:55Z</time>
      </trkpt>
      <trkpt lat="43.62435" lon="1.34779">
        <ele>150.6</ele>
        <time>2023-04-04T14:26:57Z</time>
      </trkpt>
      <trkpt lat="43.62453" lon="1.34776">
        <ele>149.8</ele>
        <time>2023-04-04T14:27:02Z</time>
      </trkpt>
      <trkpt lat="43.62464" lon="1.34776">
        <ele>149.4</ele>
        <time>2023-04-04T14:27:04Z</time>
      </trkpt>
      <trkpt lat="43.62477" lon="1.34777">
        <ele>149.2</ele>
        <time>2023-04-04T14:27:06Z</time>
      </trkpt>
      <trkpt lat="43.62496" lon="1.34783">
        <ele>148.8</ele>
        <time>2023-04-04T14:27:09Z</time>
      </trkpt>
      <trkpt lat="43.62502" lon="1.34785">
        <ele>148.8</ele>
        <time>2023-04-04T14:27:10Z</time>
      </trkpt>
      <trkpt lat="43.62512" lon="1.34788">
        <ele>148.8</ele>
        <time>2023-04-04T14:27:12Z</time>
      </trkpt>
      <trkpt lat="43.62521" lon="1.34785">
        <ele>148.6</ele>
        <time>2023-04-04T14:27:14Z</time>
      </trkpt>
      <trkpt lat="43.62527" lon="1.34775">
        <ele>148.6</ele>
        <time>2023-04-04T14:27:16Z</time>
      </trkpt>
      <trkpt lat="43.62528" lon="1.34769">
        <ele>148.4</ele>
        <time>2023-04-04T14:27:17Z</time>
      </trkpt>
      <trkpt lat="43.62528" lon="1.34763">
        <ele>148.4</ele>
        <time>2023-04-04T14:27:18Z</time>
      </trkpt>
      <trkpt lat="43.62529" lon="1.34743">
        <ele>148.4</ele>
        <time>2023-04-04T14:27:23Z</time>
      </trkpt>
      <trkpt lat="43.62529" lon="1.34743">
        <ele>148.2</ele>
        <time>2023-04-04T14:27:26Z</time>
      </trkpt>
      <trkpt lat="43.62529" lon="1.34735">
        <ele>147.4</ele>
        <time>2023-04-04T14:27:38Z</time>
      </trkpt>
      <trkpt lat="43.62529" lon="1.34733">
        <ele>147.4</ele>
        <time>2023-04-04T14:27:39Z</time>
      </trkpt>
      <trkpt lat="43.62533" lon="1.34719">
        <ele>147.4</ele>
        <time>2023-04-04T14:27:43Z</time>
      </trkpt>
      <trkpt lat="43.62541" lon="1.3469">
        <ele>147.4</ele>
        <time>2023-04-04T14:27:49Z</time>
      </trkpt>
      <trkpt lat="43.62544" lon="1.34674">
        <ele>148</ele>
        <time>2023-04-04T14:27:54Z</time>
      </trkpt>
      <trkpt lat="43.6255" lon="1.34663">
        <ele>148.2</ele>
        <time>2023-04-04T14:27:57Z</time>
      </trkpt>
      <trkpt lat="43.62554" lon="1.34663">
        <ele>148.2</ele>
        <time>2023-04-04T14:27:58Z</time>
      </trkpt>
      <trkpt lat="43.62582" lon="1.34663">
        <ele>148.4</ele>
        <time>2023-04-04T14:28:03Z</time>
      </trkpt>
      <trkpt lat="43.62618" lon="1.34661">
        <ele>148.8</ele>
        <time>2023-04-04T14:28:09Z</time>
      </trkpt>
      <trkpt lat="43.62668" lon="1.34658">
        <ele>149</ele>
        <time>2023-04-04T14:28:17Z</time>
      </trkpt>
      <trkpt lat="43.62707" lon="1.34656">
        <ele>149</ele>
        <time>2023-04-04T14:28:24Z</time>
      </trkpt>
      <trkpt lat="43.62756" lon="1.34654">
        <ele>148.8</ele>
        <time>2023-04-04T14:28:33Z</time>
      </trkpt>
      <trkpt lat="43.62812" lon="1.3465">
        <ele>148.4</ele>
        <time>2023-04-04T14:28:43Z</time>
      </trkpt>
      <trkpt lat="43.62818" lon="1.3465">
        <ele>148.6</ele>
        <time>2023-04-04T14:28:44Z</time>
      </trkpt>
      <trkpt lat="43.62872" lon="1.34647">
        <ele>148.6</ele>
        <time>2023-04-04T14:28:54Z</time>
      </trkpt>
      <trkpt lat="43.62905" lon="1.34642">
        <ele>148.4</ele>
        <time>2023-04-04T14:29:01Z</time>
      </trkpt>
      <trkpt lat="43.6291" lon="1.34641">
        <ele>148.2</ele>
        <time>2023-04-04T14:29:02Z</time>
      </trkpt>
      <trkpt lat="43.62925" lon="1.34635">
        <ele>148.2</ele>
        <time>2023-04-04T14:29:05Z</time>
      </trkpt>
      <trkpt lat="43.62939" lon="1.34627">
        <ele>148</ele>
        <time>2023-04-04T14:29:08Z</time>
      </trkpt>
      <trkpt lat="43.62948" lon="1.3462">
        <ele>148</ele>
        <time>2023-04-04T14:29:10Z</time>
      </trkpt>
      <trkpt lat="43.62956" lon="1.34613">
        <ele>148</ele>
        <time>2023-04-04T14:29:12Z</time>
      </trkpt>
      <trkpt lat="43.62959" lon="1.34611">
        <ele>148</ele>
        <time>2023-04-04T14:29:13Z</time>
      </trkpt>
      <trkpt lat="43.62971" lon="1.34608">
        <ele>148.2</ele>
        <time>2023-04-04T14:29:17Z</time>
      </trkpt>
      <trkpt lat="43.62975" lon="1.346">
        <ele>148.2</ele>
        <time>2023-04-04T14:29:19Z</time>
      </trkpt>
      <trkpt lat="43.62976" lon="1.34594">
        <ele>148.2</ele>
        <time>2023-04-04T14:29:20Z</time>
      </trkpt>
      <trkpt lat="43.62979" lon="1.34566">
        <ele>147.6</ele>
        <time>2023-04-04T14:29:24Z</time>
      </trkpt>
      <trkpt lat="43.62979" lon="1.34559">
        <ele>147.6</ele>
        <time>2023-04-04T14:29:25Z</time>
      </trkpt>
      <trkpt lat="43.62981" lon="1.3452">
        <ele>147.4</ele>
        <time>2023-04-04T14:29:30Z</time>
      </trkpt>
      <trkpt lat="43.62986" lon="1.34459">
        <ele>148.4</ele>
        <time>2023-04-04T14:29:38Z</time>
      </trkpt>
      <trkpt lat="43.62989" lon="1.34428">
        <ele>148.6</ele>
        <time>2023-04-04T14:29:42Z</time>
      </trkpt>
      <trkpt lat="43.62991" lon="1.3442">
        <ele>148.6</ele>
        <time>2023-04-04T14:29:43Z</time>
      </trkpt>
      <trkpt lat="43.62996" lon="1.34407">
        <ele>148.8</ele>
        <time>2023-04-04T14:29:45Z</time>
      </trkpt>
      <trkpt lat="43.63004" lon="1.34396">
        <ele>148.8</ele>
        <time>2023-04-04T14:29:47Z</time>
      </trkpt>
      <trkpt lat="43.63009" lon="1.34391">
        <ele>148.8</ele>
        <time>2023-04-04T14:29:48Z</time>
      </trkpt>
      <trkpt lat="43.63014" lon="1.34388">
        <ele>149</ele>
        <time>2023-04-04T14:29:49Z</time>
      </trkpt>
      <trkpt lat="43.63025" lon="1.34384">
        <ele>149.2</ele>
        <time>2023-04-04T14:29:51Z</time>
      </trkpt>
      <trkpt lat="43.63036" lon="1.34384">
        <ele>149.2</ele>
        <time>2023-04-04T14:29:53Z</time>
      </trkpt>
      <trkpt lat="43.63074" lon="1.34385">
        <ele>150</ele>
        <time>2023-04-04T14:30:00Z</time>
      </trkpt>
      <trkpt lat="43.63085" lon="1.34385">
        <ele>150</ele>
        <time>2023-04-04T14:30:02Z</time>
      </trkpt>
      <trkpt lat="43.63142" lon="1.34388">
        <ele>150.6</ele>
        <time>2023-04-04T14:30:12Z</time>
      </trkpt>
      <trkpt lat="43.63154" lon="1.34389">
        <ele>150.8</ele>
        <time>2023-04-04T14:30:14Z</time>
      </trkpt>
      <trkpt lat="43.63212" lon="1.34392">
        <ele>150.8</ele>
        <time>2023-04-04T14:30:24Z</time>
      </trkpt>
      <trkpt lat="43.63218" lon="1.34393">
        <ele>151</ele>
        <time>2023-04-04T14:30:25Z</time>
      </trkpt>
      <trkpt lat="43.63266" lon="1.34393">
        <ele>151.2</ele>
        <time>2023-04-04T14:30:33Z</time>
      </trkpt>
      <trkpt lat="43.63321" lon="1.34396">
        <ele>151</ele>
        <time>2023-04-04T14:30:42Z</time>
      </trkpt>
      <trkpt lat="43.63327" lon="1.34397">
        <ele>151</ele>
        <time>2023-04-04T14:30:43Z</time>
      </trkpt>
      <trkpt lat="43.63379" lon="1.3441">
        <ele>151</ele>
        <time>2023-04-04T14:30:51Z</time>
      </trkpt>
      <trkpt lat="43.63435" lon="1.34438">
        <ele>151</ele>
        <time>2023-04-04T14:31:00Z</time>
      </trkpt>
      <trkpt lat="43.63465" lon="1.34457">
        <ele>150.6</ele>
        <time>2023-04-04T14:31:05Z</time>
      </trkpt>
      <trkpt lat="43.63469" lon="1.34463">
        <ele>150.6</ele>
        <time>2023-04-04T14:31:06Z</time>
      </trkpt>
      <trkpt lat="43.63473" lon="1.34471">
        <ele>150.6</ele>
        <time>2023-04-04T14:31:07Z</time>
      </trkpt>
      <trkpt lat="43.63474" lon="1.34489">
        <ele>150.4</ele>
        <time>2023-04-04T14:31:09Z</time>
      </trkpt>
      <trkpt lat="43.63473" lon="1.34498">
        <ele>150.4</ele>
        <time>2023-04-04T14:31:10Z</time>
      </trkpt>
      <trkpt lat="43.63471" lon="1.34508">
        <ele>150.4</ele>
        <time>2023-04-04T14:31:11Z</time>
      </trkpt>
      <trkpt lat="43.63464" lon="1.34526">
        <ele>150.2</ele>
        <time>2023-04-04T14:31:13Z</time>
      </trkpt>
      <trkpt lat="43.6346" lon="1.34534">
        <ele>150</ele>
        <time>2023-04-04T14:31:14Z</time>
      </trkpt>
      <trkpt lat="43.63447" lon="1.34558">
        <ele>149</ele>
        <time>2023-04-04T14:31:17Z</time>
      </trkpt>
      <trkpt lat="43.63444" lon="1.34567">
        <ele>149</ele>
        <time>2023-04-04T14:31:18Z</time>
      </trkpt>
      <trkpt lat="43.63442" lon="1.34576">
        <ele>149</ele>
        <time>2023-04-04T14:31:19Z</time>
      </trkpt>
      <trkpt lat="43.63443" lon="1.34594">
        <ele>148.6</ele>
        <time>2023-04-04T14:31:21Z</time>
      </trkpt>
      <trkpt lat="43.63449" lon="1.3461">
        <ele>148.6</ele>
        <time>2023-04-04T14:31:23Z</time>
      </trkpt>
      <trkpt lat="43.63452" lon="1.34615">
        <ele>148.6</ele>
        <time>2023-04-04T14:31:24Z</time>
      </trkpt>
      <trkpt lat="43.63458" lon="1.3462">
        <ele>148.6</ele>
        <time>2023-04-04T14:31:25Z</time>
      </trkpt>
      <trkpt lat="43.63471" lon="1.34625">
        <ele>148.4</ele>
        <time>2023-04-04T14:31:27Z</time>
      </trkpt>
      <trkpt lat="43.63513" lon="1.34623">
        <ele>148</ele>
        <time>2023-04-04T14:31:33Z</time>
      </trkpt>
      <trkpt lat="43.63519" lon="1.34623">
        <ele>148</ele>
        <time>2023-04-04T14:31:34Z</time>
      </trkpt>
      <trkpt lat="43.63579" lon="1.3462">
        <ele>147.6</ele>
        <time>2023-04-04T14:31:43Z</time>
      </trkpt>
      <trkpt lat="43.63593" lon="1.34619">
        <ele>147.4</ele>
        <time>2023-04-04T14:31:45Z</time>
      </trkpt>
      <trkpt lat="43.636" lon="1.34619">
        <ele>147.4</ele>
        <time>2023-04-04T14:31:46Z</time>
      </trkpt>
      <trkpt lat="43.63646" lon="1.3462">
        <ele>147</ele>
        <time>2023-04-04T14:31:53Z</time>
      </trkpt>
      <trkpt lat="43.63659" lon="1.34621">
        <ele>147</ele>
        <time>2023-04-04T14:31:55Z</time>
      </trkpt>
      <trkpt lat="43.63716" lon="1.34624">
        <ele>146.8</ele>
        <time>2023-04-04T14:32:04Z</time>
      </trkpt>
      <trkpt lat="43.63722" lon="1.34624">
        <ele>146.8</ele>
        <time>2023-04-04T14:32:05Z</time>
      </trkpt>
      <trkpt lat="43.63761" lon="1.34625">
        <ele>146.2</ele>
        <time>2023-04-04T14:32:12Z</time>
      </trkpt>
      <trkpt lat="43.63779" lon="1.34622">
        <ele>146.2</ele>
        <time>2023-04-04T14:32:15Z</time>
      </trkpt>
      <trkpt lat="43.63807" lon="1.34617">
        <ele>146</ele>
        <time>2023-04-04T14:32:20Z</time>
      </trkpt>
      <trkpt lat="43.63847" lon="1.34602">
        <ele>146.2</ele>
        <time>2023-04-04T14:32:28Z</time>
      </trkpt>
      <trkpt lat="43.63899" lon="1.34574">
        <ele>146.2</ele>
        <time>2023-04-04T14:32:39Z</time>
      </trkpt>
      <trkpt lat="43.63917" lon="1.34561">
        <ele>146.8</ele>
        <time>2023-04-04T14:32:43Z</time>
      </trkpt>
      <trkpt lat="43.6393" lon="1.34549">
        <ele>147.2</ele>
        <time>2023-04-04T14:32:46Z</time>
      </trkpt>
      <trkpt lat="43.63935" lon="1.34545">
        <ele>147.2</ele>
        <time>2023-04-04T14:32:47Z</time>
      </trkpt>
      <trkpt lat="43.63975" lon="1.34503">
        <ele>147</ele>
        <time>2023-04-04T14:32:56Z</time>
      </trkpt>
      <trkpt lat="43.64012" lon="1.3446">
        <ele>147.6</ele>
        <time>2023-04-04T14:33:05Z</time>
      </trkpt>
      <trkpt lat="43.64052" lon="1.34414">
        <ele>148.4</ele>
        <time>2023-04-04T14:33:15Z</time>
      </trkpt>
      <trkpt lat="43.64056" lon="1.3441">
        <ele>148.4</ele>
        <time>2023-04-04T14:33:16Z</time>
      </trkpt>
      <trkpt lat="43.64097" lon="1.34362">
        <ele>148.8</ele>
        <time>2023-04-04T14:33:26Z</time>
      </trkpt>
      <trkpt lat="43.64105" lon="1.34352">
        <ele>149</ele>
        <time>2023-04-04T14:33:28Z</time>
      </trkpt>
      <trkpt lat="43.64147" lon="1.34304">
        <ele>149.2</ele>
        <time>2023-04-04T14:33:38Z</time>
      </trkpt>
      <trkpt lat="43.64155" lon="1.34295">
        <ele>149.4</ele>
        <time>2023-04-04T14:33:40Z</time>
      </trkpt>
      <trkpt lat="43.64167" lon="1.3428">
        <ele>149.4</ele>
        <time>2023-04-04T14:33:43Z</time>
      </trkpt>
      <trkpt lat="43.64197" lon="1.34244">
        <ele>149.8</ele>
        <time>2023-04-04T14:33:50Z</time>
      </trkpt>
      <trkpt lat="43.64225" lon="1.34204">
        <ele>150.2</ele>
        <time>2023-04-04T14:33:58Z</time>
      </trkpt>
      <trkpt lat="43.64231" lon="1.34194">
        <ele>150.2</ele>
        <time>2023-04-04T14:34:00Z</time>
      </trkpt>
      <trkpt lat="43.64233" lon="1.34184">
        <ele>150.2</ele>
        <time>2023-04-04T14:34:02Z</time>
      </trkpt>
      <trkpt lat="43.64235" lon="1.34172">
        <ele>150.2</ele>
        <time>2023-04-04T14:34:04Z</time>
      </trkpt>
      <trkpt lat="43.64241" lon="1.3416">
        <ele>150.2</ele>
        <time>2023-04-04T14:34:06Z</time>
      </trkpt>
      <trkpt lat="43.64257" lon="1.34129">
        <ele>150.2</ele>
        <time>2023-04-04T14:34:11Z</time>
      </trkpt>
      <trkpt lat="43.64276" lon="1.34084">
        <ele>150.6</ele>
        <time>2023-04-04T14:34:18Z</time>
      </trkpt>
      <trkpt lat="43.6428" lon="1.34078">
        <ele>150.8</ele>
        <time>2023-04-04T14:34:19Z</time>
      </trkpt>
      <trkpt lat="43.64283" lon="1.34072">
        <ele>150.8</ele>
        <time>2023-04-04T14:34:20Z</time>
      </trkpt>
      <trkpt lat="43.64304" lon="1.34034">
        <ele>150.8</ele>
        <time>2023-04-04T14:34:27Z</time>
      </trkpt>
      <trkpt lat="43.64336" lon="1.33971">
        <ele>150.4</ele>
        <time>2023-04-04T14:34:37Z</time>
      </trkpt>
      <trkpt lat="43.6434" lon="1.33965">
        <ele>150.4</ele>
        <time>2023-04-04T14:34:38Z</time>
      </trkpt>
      <trkpt lat="43.6437" lon="1.33906">
        <ele>150.6</ele>
        <time>2023-04-04T14:34:47Z</time>
      </trkpt>
      <trkpt lat="43.64404" lon="1.33843">
        <ele>150.6</ele>
        <time>2023-04-04T14:34:57Z</time>
      </trkpt>
      <trkpt lat="43.64411" lon="1.3383">
        <ele>150.6</ele>
        <time>2023-04-04T14:34:59Z</time>
      </trkpt>
      <trkpt lat="43.64423" lon="1.33804">
        <ele>150.4</ele>
        <time>2023-04-04T14:35:03Z</time>
      </trkpt>
      <trkpt lat="43.64428" lon="1.3379">
        <ele>150.6</ele>
        <time>2023-04-04T14:35:05Z</time>
      </trkpt>
      <trkpt lat="43.64434" lon="1.33762">
        <ele>150.6</ele>
        <time>2023-04-04T14:35:09Z</time>
      </trkpt>
      <trkpt lat="43.64436" lon="1.33756">
        <ele>150.6</ele>
        <time>2023-04-04T14:35:10Z</time>
      </trkpt>
      <trkpt lat="43.64448" lon="1.33715">
        <ele>150.8</ele>
        <time>2023-04-04T14:35:16Z</time>
      </trkpt>
      <trkpt lat="43.64461" lon="1.33663">
        <ele>150.6</ele>
        <time>2023-04-04T14:35:23Z</time>
      </trkpt>
      <trkpt lat="43.64477" lon="1.33605">
        <ele>151.2</ele>
        <time>2023-04-04T14:35:31Z</time>
      </trkpt>
      <trkpt lat="43.64479" lon="1.33598">
        <ele>151.4</ele>
        <time>2023-04-04T14:35:32Z</time>
      </trkpt>
      <trkpt lat="43.64485" lon="1.33579">
        <ele>151.8</ele>
        <time>2023-04-04T14:35:35Z</time>
      </trkpt>
      <trkpt lat="43.64487" lon="1.33572">
        <ele>151.8</ele>
        <time>2023-04-04T14:35:36Z</time>
      </trkpt>
      <trkpt lat="43.64495" lon="1.33543">
        <ele>152.8</ele>
        <time>2023-04-04T14:35:41Z</time>
      </trkpt>
      <trkpt lat="43.64497" lon="1.33537">
        <ele>152.8</ele>
        <time>2023-04-04T14:35:42Z</time>
      </trkpt>
      <trkpt lat="43.64504" lon="1.3351">
        <ele>153.8</ele>
        <time>2023-04-04T14:35:47Z</time>
      </trkpt>
      <trkpt lat="43.64508" lon="1.33496">
        <ele>154.6</ele>
        <time>2023-04-04T14:35:50Z</time>
      </trkpt>
      <trkpt lat="43.64511" lon="1.33489">
        <ele>155.2</ele>
        <time>2023-04-04T14:35:52Z</time>
      </trkpt>
      <trkpt lat="43.64513" lon="1.33485">
        <ele>156.4</ele>
        <time>2023-04-04T14:35:55Z</time>
      </trkpt>
      <trkpt lat="43.64515" lon="1.33484">
        <ele>157</ele>
        <time>2023-04-04T14:35:59Z</time>
      </trkpt>
      <trkpt lat="43.64517" lon="1.33479">
        <ele>157.2</ele>
        <time>2023-04-04T14:36:01Z</time>
      </trkpt>
      <trkpt lat="43.64518" lon="1.33465">
        <ele>157.4</ele>
        <time>2023-04-04T14:36:04Z</time>
      </trkpt>
      <trkpt lat="43.64518" lon="1.3346">
        <ele>157.4</ele>
        <time>2023-04-04T14:36:05Z</time>
      </trkpt>
      <trkpt lat="43.64522" lon="1.33438">
        <ele>158.2</ele>
        <time>2023-04-04T14:36:11Z</time>
      </trkpt>
      <trkpt lat="43.64523" lon="1.33434">
        <ele>158.6</ele>
        <time>2023-04-04T14:36:12Z</time>
      </trkpt>
      <trkpt lat="43.64527" lon="1.33419">
        <ele>159.6</ele>
        <time>2023-04-04T14:36:15Z</time>
      </trkpt>
      <trkpt lat="43.6453" lon="1.33405">
        <ele>160.2</ele>
        <time>2023-04-04T14:36:18Z</time>
      </trkpt>
      <trkpt lat="43.64531" lon="1.334">
        <ele>160.8</ele>
        <time>2023-04-04T14:36:19Z</time>
      </trkpt>
      <trkpt lat="43.64536" lon="1.33377">
        <ele>162</ele>
        <time>2023-04-04T14:36:24Z</time>
      </trkpt>
      <trkpt lat="43.64537" lon="1.33372">
        <ele>162.2</ele>
        <time>2023-04-04T14:36:25Z</time>
      </trkpt>
      <trkpt lat="43.64542" lon="1.33358">
        <ele>163.2</ele>
        <time>2023-04-04T14:36:28Z</time>
      </trkpt>
      <trkpt lat="43.64551" lon="1.3334">
        <ele>164.4</ele>
        <time>2023-04-04T14:36:32Z</time>
      </trkpt>
      <trkpt lat="43.64564" lon="1.33316">
        <ele>165.6</ele>
        <time>2023-04-04T14:36:37Z</time>
      </trkpt>
      <trkpt lat="43.64566" lon="1.33312">
        <ele>165.8</ele>
        <time>2023-04-04T14:36:38Z</time>
      </trkpt>
      <trkpt lat="43.64576" lon="1.33296">
        <ele>166.6</ele>
        <time>2023-04-04T14:36:42Z</time>
      </trkpt>
      <trkpt lat="43.64586" lon="1.33278">
        <ele>167.4</ele>
        <time>2023-04-04T14:36:46Z</time>
      </trkpt>
      <trkpt lat="43.64594" lon="1.33262">
        <ele>167.8</ele>
        <time>2023-04-04T14:36:49Z</time>
      </trkpt>
      <trkpt lat="43.64605" lon="1.3324">
        <ele>168.2</ele>
        <time>2023-04-04T14:36:53Z</time>
      </trkpt>
      <trkpt lat="43.6461" lon="1.3323">
        <ele>168.4</ele>
        <time>2023-04-04T14:36:55Z</time>
      </trkpt>
      <trkpt lat="43.64621" lon="1.33206">
        <ele>168.8</ele>
        <time>2023-04-04T14:36:59Z</time>
      </trkpt>
      <trkpt lat="43.64643" lon="1.33159">
        <ele>169</ele>
        <time>2023-04-04T14:37:06Z</time>
      </trkpt>
      <trkpt lat="43.64662" lon="1.33117">
        <ele>169</ele>
        <time>2023-04-04T14:37:12Z</time>
      </trkpt>
      <trkpt lat="43.64668" lon="1.33103">
        <ele>169</ele>
        <time>2023-04-04T14:37:14Z</time>
      </trkpt>
      <trkpt lat="43.64676" lon="1.33092">
        <ele>169</ele>
        <time>2023-04-04T14:37:16Z</time>
      </trkpt>
      <trkpt lat="43.64685" lon="1.33082">
        <ele>169</ele>
        <time>2023-04-04T14:37:18Z</time>
      </trkpt>
      <trkpt lat="43.64731" lon="1.3304">
        <ele>168.4</ele>
        <time>2023-04-04T14:37:27Z</time>
      </trkpt>
      <trkpt lat="43.64747" lon="1.33025">
        <ele>168.4</ele>
        <time>2023-04-04T14:37:30Z</time>
      </trkpt>
      <trkpt lat="43.64791" lon="1.32983">
        <ele>168.2</ele>
        <time>2023-04-04T14:37:38Z</time>
      </trkpt>
      <trkpt lat="43.64819" lon="1.32939">
        <ele>168.2</ele>
        <time>2023-04-04T14:37:44Z</time>
      </trkpt>
      <trkpt lat="43.6483" lon="1.3291">
        <ele>167.8</ele>
        <time>2023-04-04T14:37:47Z</time>
      </trkpt>
      <trkpt lat="43.64833" lon="1.32899">
        <ele>167.8</ele>
        <time>2023-04-04T14:37:48Z</time>
      </trkpt>
      <trkpt lat="43.64835" lon="1.32888">
        <ele>167.4</ele>
        <time>2023-04-04T14:37:49Z</time>
      </trkpt>
      <trkpt lat="43.64843" lon="1.32849">
        <ele>166.4</ele>
        <time>2023-04-04T14:37:52Z</time>
      </trkpt>
      <trkpt lat="43.64846" lon="1.32835">
        <ele>165.4</ele>
        <time>2023-04-04T14:37:53Z</time>
      </trkpt>
      <trkpt lat="43.64848" lon="1.32821">
        <ele>164.8</ele>
        <time>2023-04-04T14:37:54Z</time>
      </trkpt>
      <trkpt lat="43.6485" lon="1.32807">
        <ele>163.8</ele>
        <time>2023-04-04T14:37:55Z</time>
      </trkpt>
      <trkpt lat="43.64854" lon="1.32779">
        <ele>162.2</ele>
        <time>2023-04-04T14:37:57Z</time>
      </trkpt>
      <trkpt lat="43.64856" lon="1.32767">
        <ele>161</ele>
        <time>2023-04-04T14:37:58Z</time>
      </trkpt>
      <trkpt lat="43.64858" lon="1.32758">
        <ele>160.2</ele>
        <time>2023-04-04T14:37:59Z</time>
      </trkpt>
      <trkpt lat="43.64859" lon="1.32744">
        <ele>158.8</ele>
        <time>2023-04-04T14:38:00Z</time>
      </trkpt>
      <trkpt lat="43.64859" lon="1.32733">
        <ele>158.2</ele>
        <time>2023-04-04T14:38:01Z</time>
      </trkpt>
      <trkpt lat="43.64857" lon="1.32724">
        <ele>156.8</ele>
        <time>2023-04-04T14:38:02Z</time>
      </trkpt>
      <trkpt lat="43.6485" lon="1.32705">
        <ele>155.6</ele>
        <time>2023-04-04T14:38:04Z</time>
      </trkpt>
      <trkpt lat="43.64847" lon="1.32696">
        <ele>154.2</ele>
        <time>2023-04-04T14:38:05Z</time>
      </trkpt>
      <trkpt lat="43.64843" lon="1.32687">
        <ele>153.4</ele>
        <time>2023-04-04T14:38:06Z</time>
      </trkpt>
      <trkpt lat="43.64839" lon="1.32676">
        <ele>152.2</ele>
        <time>2023-04-04T14:38:07Z</time>
      </trkpt>
      <trkpt lat="43.6483" lon="1.32654">
        <ele>151.4</ele>
        <time>2023-04-04T14:38:09Z</time>
      </trkpt>
      <trkpt lat="43.64826" lon="1.32643">
        <ele>151</ele>
        <time>2023-04-04T14:38:10Z</time>
      </trkpt>
      <trkpt lat="43.64816" lon="1.3262">
        <ele>149.8</ele>
        <time>2023-04-04T14:38:12Z</time>
      </trkpt>
      <trkpt lat="43.64812" lon="1.32608">
        <ele>149.4</ele>
        <time>2023-04-04T14:38:13Z</time>
      </trkpt>
      <trkpt lat="43.64807" lon="1.32595">
        <ele>148.6</ele>
        <time>2023-04-04T14:38:14Z</time>
      </trkpt>
      <trkpt lat="43.64803" lon="1.32582">
        <ele>148.4</ele>
        <time>2023-04-04T14:38:15Z</time>
      </trkpt>
      <trkpt lat="43.648" lon="1.32569">
        <ele>147.4</ele>
        <time>2023-04-04T14:38:16Z</time>
      </trkpt>
      <trkpt lat="43.64798" lon="1.32557">
        <ele>147</ele>
        <time>2023-04-04T14:38:17Z</time>
      </trkpt>
      <trkpt lat="43.64797" lon="1.32547">
        <ele>146.2</ele>
        <time>2023-04-04T14:38:18Z</time>
      </trkpt>
      <trkpt lat="43.64794" lon="1.32523">
        <ele>144.8</ele>
        <time>2023-04-04T14:38:20Z</time>
      </trkpt>
      <trkpt lat="43.64794" lon="1.32517">
        <ele>144.2</ele>
        <time>2023-04-04T14:38:21Z</time>
      </trkpt>
      <trkpt lat="43.64792" lon="1.32503">
        <ele>143.8</ele>
        <time>2023-04-04T14:38:23Z</time>
      </trkpt>
      <trkpt lat="43.6479" lon="1.32501">
        <ele>143.6</ele>
        <time>2023-04-04T14:38:24Z</time>
      </trkpt>
      <trkpt lat="43.64787" lon="1.32508">
        <ele>143</ele>
        <time>2023-04-04T14:38:26Z</time>
      </trkpt>
      <trkpt lat="43.64786" lon="1.32512">
        <ele>142.6</ele>
        <time>2023-04-04T14:38:27Z</time>
      </trkpt>
      <trkpt lat="43.64784" lon="1.32517">
        <ele>142.2</ele>
        <time>2023-04-04T14:38:28Z</time>
      </trkpt>
      <trkpt lat="43.6478" lon="1.32518">
        <ele>142.2</ele>
        <time>2023-04-04T14:38:29Z</time>
      </trkpt>
      <trkpt lat="43.64776" lon="1.32517">
        <ele>142</ele>
        <time>2023-04-04T14:38:30Z</time>
      </trkpt>
      <trkpt lat="43.64765" lon="1.32515">
        <ele>141.2</ele>
        <time>2023-04-04T14:38:32Z</time>
      </trkpt>
      <trkpt lat="43.6476" lon="1.32513">
        <ele>140.6</ele>
        <time>2023-04-04T14:38:33Z</time>
      </trkpt>
      <trkpt lat="43.64754" lon="1.32512">
        <ele>140</ele>
        <time>2023-04-04T14:38:34Z</time>
      </trkpt>
      <trkpt lat="43.64739" lon="1.32509">
        <ele>138.6</ele>
        <time>2023-04-04T14:38:37Z</time>
      </trkpt>
      <trkpt lat="43.64734" lon="1.32505">
        <ele>138.6</ele>
        <time>2023-04-04T14:38:38Z</time>
      </trkpt>
      <trkpt lat="43.64731" lon="1.32499">
        <ele>138.2</ele>
        <time>2023-04-04T14:38:39Z</time>
      </trkpt>
      <trkpt lat="43.64723" lon="1.32485">
        <ele>137.8</ele>
        <time>2023-04-04T14:38:41Z</time>
      </trkpt>
      <trkpt lat="43.64712" lon="1.32476">
        <ele>137.4</ele>
        <time>2023-04-04T14:38:43Z</time>
      </trkpt>
      <trkpt lat="43.647" lon="1.32468">
        <ele>137.2</ele>
        <time>2023-04-04T14:38:45Z</time>
      </trkpt>
      <trkpt lat="43.64655" lon="1.32437">
        <ele>136.8</ele>
        <time>2023-04-04T14:38:53Z</time>
      </trkpt>
      <trkpt lat="43.64646" lon="1.3243">
        <ele>136.8</ele>
        <time>2023-04-04T14:38:55Z</time>
      </trkpt>
      <trkpt lat="43.64635" lon="1.32422">
        <ele>136.8</ele>
        <time>2023-04-04T14:38:57Z</time>
      </trkpt>
      <trkpt lat="43.64618" lon="1.32411">
        <ele>137.2</ele>
        <time>2023-04-04T14:39:01Z</time>
      </trkpt>
      <trkpt lat="43.64595" lon="1.32389">
        <ele>137.2</ele>
        <time>2023-04-04T14:39:06Z</time>
      </trkpt>
      <trkpt lat="43.64573" lon="1.32369">
        <ele>137.2</ele>
        <time>2023-04-04T14:39:12Z</time>
      </trkpt>
      <trkpt lat="43.64571" lon="1.32369">
        <ele>137.2</ele>
        <time>2023-04-04T14:39:13Z</time>
      </trkpt>
      <trkpt lat="43.64565" lon="1.32366">
        <ele>137.2</ele>
        <time>2023-04-04T14:39:16Z</time>
      </trkpt>
      <trkpt lat="43.64552" lon="1.32359">
        <ele>137.2</ele>
        <time>2023-04-04T14:39:20Z</time>
      </trkpt>
      <trkpt lat="43.64538" lon="1.32351">
        <ele>137.2</ele>
        <time>2023-04-04T14:39:23Z</time>
      </trkpt>
      <trkpt lat="43.64524" lon="1.32345">
        <ele>137.2</ele>
        <time>2023-04-04T14:39:26Z</time>
      </trkpt>
      <trkpt lat="43.64501" lon="1.32331">
        <ele>137.2</ele>
        <time>2023-04-04T14:39:31Z</time>
      </trkpt>
      <trkpt lat="43.64467" lon="1.3231">
        <ele>137.8</ele>
        <time>2023-04-04T14:39:38Z</time>
      </trkpt>
      <trkpt lat="43.64436" lon="1.3228">
        <ele>138.4</ele>
        <time>2023-04-04T14:39:44Z</time>
      </trkpt>
      <trkpt lat="43.64432" lon="1.32273">
        <ele>138.6</ele>
        <time>2023-04-04T14:39:45Z</time>
      </trkpt>
      <trkpt lat="43.64424" lon="1.32261">
        <ele>138.8</ele>
        <time>2023-04-04T14:39:47Z</time>
      </trkpt>
      <trkpt lat="43.64421" lon="1.32256">
        <ele>138.8</ele>
        <time>2023-04-04T14:39:48Z</time>
      </trkpt>
      <trkpt lat="43.64413" lon="1.32243">
        <ele>139</ele>
        <time>2023-04-04T14:39:50Z</time>
      </trkpt>
      <trkpt lat="43.64404" lon="1.32228">
        <ele>139.2</ele>
        <time>2023-04-04T14:39:53Z</time>
      </trkpt>
      <trkpt lat="43.64389" lon="1.32199">
        <ele>139.6</ele>
        <time>2023-04-04T14:39:59Z</time>
      </trkpt>
      <trkpt lat="43.64386" lon="1.32194">
        <ele>139.8</ele>
        <time>2023-04-04T14:40:00Z</time>
      </trkpt>
      <trkpt lat="43.64376" lon="1.32175">
        <ele>140.4</ele>
        <time>2023-04-04T14:40:04Z</time>
      </trkpt>
      <trkpt lat="43.6437" lon="1.32164">
        <ele>140.8</ele>
        <time>2023-04-04T14:40:06Z</time>
      </trkpt>
      <trkpt lat="43.64367" lon="1.32159">
        <ele>141</ele>
        <time>2023-04-04T14:40:07Z</time>
      </trkpt>
      <trkpt lat="43.64352" lon="1.32132">
        <ele>142</ele>
        <time>2023-04-04T14:40:12Z</time>
      </trkpt>
      <trkpt lat="43.64339" lon="1.32108">
        <ele>142.6</ele>
        <time>2023-04-04T14:40:16Z</time>
      </trkpt>
      <trkpt lat="43.64331" lon="1.32089">
        <ele>143</ele>
        <time>2023-04-04T14:40:19Z</time>
      </trkpt>
      <trkpt lat="43.64321" lon="1.32066">
        <ele>143.4</ele>
        <time>2023-04-04T14:40:23Z</time>
      </trkpt>
      <trkpt lat="43.64316" lon="1.32053">
        <ele>143.8</ele>
        <time>2023-04-04T14:40:25Z</time>
      </trkpt>
      <trkpt lat="43.64307" lon="1.32028">
        <ele>144</ele>
        <time>2023-04-04T14:40:29Z</time>
      </trkpt>
      <trkpt lat="43.64301" lon="1.3201">
        <ele>144.4</ele>
        <time>2023-04-04T14:40:32Z</time>
      </trkpt>
      <trkpt lat="43.64293" lon="1.3199">
        <ele>144.6</ele>
        <time>2023-04-04T14:40:35Z</time>
      </trkpt>
      <trkpt lat="43.64288" lon="1.31979">
        <ele>144.6</ele>
        <time>2023-04-04T14:40:37Z</time>
      </trkpt>
      <trkpt lat="43.64285" lon="1.31972">
        <ele>144.6</ele>
        <time>2023-04-04T14:40:38Z</time>
      </trkpt>
      <trkpt lat="43.6428" lon="1.3195">
        <ele>144.6</ele>
        <time>2023-04-04T14:40:41Z</time>
      </trkpt>
      <trkpt lat="43.64274" lon="1.31938">
        <ele>144.4</ele>
        <time>2023-04-04T14:40:43Z</time>
      </trkpt>
      <trkpt lat="43.64254" lon="1.31918">
        <ele>144.4</ele>
        <time>2023-04-04T14:40:47Z</time>
      </trkpt>
      <trkpt lat="43.6422" lon="1.31894">
        <ele>143</ele>
        <time>2023-04-04T14:40:52Z</time>
      </trkpt>
      <trkpt lat="43.64199" lon="1.31878">
        <ele>142</ele>
        <time>2023-04-04T14:40:55Z</time>
      </trkpt>
      <trkpt lat="43.64183" lon="1.31867">
        <ele>141.2</ele>
        <time>2023-04-04T14:40:58Z</time>
      </trkpt>
      <trkpt lat="43.64178" lon="1.31865">
        <ele>141</ele>
        <time>2023-04-04T14:40:59Z</time>
      </trkpt>
      <trkpt lat="43.64173" lon="1.31864">
        <ele>140.8</ele>
        <time>2023-04-04T14:41:00Z</time>
      </trkpt>
      <trkpt lat="43.64169" lon="1.31863">
        <ele>140.6</ele>
        <time>2023-04-04T14:41:01Z</time>
      </trkpt>
      <trkpt lat="43.6414" lon="1.31851">
        <ele>139.6</ele>
        <time>2023-04-04T14:41:06Z</time>
      </trkpt>
      <trkpt lat="43.64094" lon="1.31826">
        <ele>139.2</ele>
        <time>2023-04-04T14:41:13Z</time>
      </trkpt>
      <trkpt lat="43.6406" lon="1.31807">
        <ele>139</ele>
        <time>2023-04-04T14:41:19Z</time>
      </trkpt>
      <trkpt lat="43.6401" lon="1.31779">
        <ele>139</ele>
        <time>2023-04-04T14:41:27Z</time>
      </trkpt>
      <trkpt lat="43.63998" lon="1.31772">
        <ele>139.2</ele>
        <time>2023-04-04T14:41:29Z</time>
      </trkpt>
      <trkpt lat="43.6398" lon="1.31764">
        <ele>139</ele>
        <time>2023-04-04T14:41:32Z</time>
      </trkpt>
      <trkpt lat="43.63974" lon="1.3176">
        <ele>139</ele>
        <time>2023-04-04T14:41:33Z</time>
      </trkpt>
      <trkpt lat="43.63939" lon="1.31735">
        <ele>139.2</ele>
        <time>2023-04-04T14:41:40Z</time>
      </trkpt>
      <trkpt lat="43.63917" lon="1.31717">
        <ele>139.4</ele>
        <time>2023-04-04T14:41:45Z</time>
      </trkpt>
      <trkpt lat="43.63897" lon="1.31702">
        <ele>139.8</ele>
        <time>2023-04-04T14:41:49Z</time>
      </trkpt>
      <trkpt lat="43.63881" lon="1.31686">
        <ele>139.8</ele>
        <time>2023-04-04T14:41:52Z</time>
      </trkpt>
      <trkpt lat="43.6385" lon="1.31654">
        <ele>139.8</ele>
        <time>2023-04-04T14:41:59Z</time>
      </trkpt>
      <trkpt lat="43.63833" lon="1.31631">
        <ele>139.6</ele>
        <time>2023-04-04T14:42:03Z</time>
      </trkpt>
      <trkpt lat="43.63823" lon="1.31612">
        <ele>139.6</ele>
        <time>2023-04-04T14:42:05Z</time>
      </trkpt>
      <trkpt lat="43.63796" lon="1.31558">
        <ele>140</ele>
        <time>2023-04-04T14:42:12Z</time>
      </trkpt>
      <trkpt lat="43.63782" lon="1.31531">
        <ele>140</ele>
        <time>2023-04-04T14:42:16Z</time>
      </trkpt>
      <trkpt lat="43.63755" lon="1.3148">
        <ele>140.2</ele>
        <time>2023-04-04T14:42:24Z</time>
      </trkpt>
      <trkpt lat="43.63732" lon="1.31432">
        <ele>140.8</ele>
        <time>2023-04-04T14:42:32Z</time>
      </trkpt>
      <trkpt lat="43.6373" lon="1.31426">
        <ele>140.8</ele>
        <time>2023-04-04T14:42:33Z</time>
      </trkpt>
      <trkpt lat="43.63715" lon="1.31386">
        <ele>141.6</ele>
        <time>2023-04-04T14:42:40Z</time>
      </trkpt>
      <trkpt lat="43.637" lon="1.31331">
        <ele>141</ele>
        <time>2023-04-04T14:42:48Z</time>
      </trkpt>
      <trkpt lat="43.63694" lon="1.31304">
        <ele>141</ele>
        <time>2023-04-04T14:42:52Z</time>
      </trkpt>
      <trkpt lat="43.63684" lon="1.31263">
        <ele>141.2</ele>
        <time>2023-04-04T14:42:58Z</time>
      </trkpt>
      <trkpt lat="43.63677" lon="1.31248">
        <ele>141.4</ele>
        <time>2023-04-04T14:43:01Z</time>
      </trkpt>
      <trkpt lat="43.63671" lon="1.31238">
        <ele>141.4</ele>
        <time>2023-04-04T14:43:03Z</time>
      </trkpt>
      <trkpt lat="43.63656" lon="1.3122">
        <ele>141.8</ele>
        <time>2023-04-04T14:43:07Z</time>
      </trkpt>
      <trkpt lat="43.6365" lon="1.3121">
        <ele>142</ele>
        <time>2023-04-04T14:43:09Z</time>
      </trkpt>
      <trkpt lat="43.63634" lon="1.31168">
        <ele>142.2</ele>
        <time>2023-04-04T14:43:16Z</time>
      </trkpt>
      <trkpt lat="43.63623" lon="1.31141">
        <ele>142.2</ele>
        <time>2023-04-04T14:43:20Z</time>
      </trkpt>
      <trkpt lat="43.63616" lon="1.31127">
        <ele>142.2</ele>
        <time>2023-04-04T14:43:22Z</time>
      </trkpt>
      <trkpt lat="43.63608" lon="1.31116">
        <ele>142.2</ele>
        <time>2023-04-04T14:43:24Z</time>
      </trkpt>
      <trkpt lat="43.636" lon="1.31108">
        <ele>142.2</ele>
        <time>2023-04-04T14:43:26Z</time>
      </trkpt>
      <trkpt lat="43.63582" lon="1.31076">
        <ele>141.8</ele>
        <time>2023-04-04T14:43:31Z</time>
      </trkpt>
      <trkpt lat="43.6356" lon="1.31038">
        <ele>141.8</ele>
        <time>2023-04-04T14:43:36Z</time>
      </trkpt>
      <trkpt lat="43.63535" lon="1.30991">
        <ele>141.6</ele>
        <time>2023-04-04T14:43:42Z</time>
      </trkpt>
      <trkpt lat="43.6353" lon="1.30983">
        <ele>141.6</ele>
        <time>2023-04-04T14:43:43Z</time>
      </trkpt>
      <trkpt lat="43.63519" lon="1.30973">
        <ele>141.8</ele>
        <time>2023-04-04T14:43:45Z</time>
      </trkpt>
      <trkpt lat="43.63513" lon="1.30968">
        <ele>141.8</ele>
        <time>2023-04-04T14:43:46Z</time>
      </trkpt>
      <trkpt lat="43.6348" lon="1.30952">
        <ele>142</ele>
        <time>2023-04-04T14:43:52Z</time>
      </trkpt>
      <trkpt lat="43.63447" lon="1.30935">
        <ele>142</ele>
        <time>2023-04-04T14:43:58Z</time>
      </trkpt>
      <trkpt lat="43.6342" lon="1.30916">
        <ele>142</ele>
        <time>2023-04-04T14:44:03Z</time>
      </trkpt>
      <trkpt lat="43.63415" lon="1.30911">
        <ele>142</ele>
        <time>2023-04-04T14:44:04Z</time>
      </trkpt>
      <trkpt lat="43.63375" lon="1.30858">
        <ele>141.6</ele>
        <time>2023-04-04T14:44:13Z</time>
      </trkpt>
      <trkpt lat="43.63337" lon="1.30803">
        <ele>141.8</ele>
        <time>2023-04-04T14:44:22Z</time>
      </trkpt>
      <trkpt lat="43.63332" lon="1.30797">
        <ele>142</ele>
        <time>2023-04-04T14:44:23Z</time>
      </trkpt>
      <trkpt lat="43.63305" lon="1.30758">
        <ele>142.8</ele>
        <time>2023-04-04T14:44:30Z</time>
      </trkpt>
      <trkpt lat="43.63299" lon="1.3075">
        <ele>143</ele>
        <time>2023-04-04T14:44:32Z</time>
      </trkpt>
      <trkpt lat="43.63294" lon="1.30743">
        <ele>143</ele>
        <time>2023-04-04T14:44:34Z</time>
      </trkpt>
      <trkpt lat="43.63293" lon="1.30737">
        <ele>143.2</ele>
        <time>2023-04-04T14:44:35Z</time>
      </trkpt>
      <trkpt lat="43.63293" lon="1.30732">
        <ele>143.2</ele>
        <time>2023-04-04T14:44:36Z</time>
      </trkpt>
      <trkpt lat="43.63292" lon="1.30718">
        <ele>143.2</ele>
        <time>2023-04-04T14:44:38Z</time>
      </trkpt>
      <trkpt lat="43.63289" lon="1.30696">
        <ele>143.2</ele>
        <time>2023-04-04T14:44:42Z</time>
      </trkpt>
      <trkpt lat="43.63286" lon="1.30684">
        <ele>143.2</ele>
        <time>2023-04-04T14:44:45Z</time>
      </trkpt>
      <trkpt lat="43.63285" lon="1.30678">
        <ele>143.4</ele>
        <time>2023-04-04T14:44:46Z</time>
      </trkpt>
      <trkpt lat="43.63283" lon="1.3066">
        <ele>143.6</ele>
        <time>2023-04-04T14:44:50Z</time>
      </trkpt>
      <trkpt lat="43.63284" lon="1.30617">
        <ele>143.8</ele>
        <time>2023-04-04T14:44:56Z</time>
      </trkpt>
      <trkpt lat="43.63289" lon="1.30593">
        <ele>143.8</ele>
        <time>2023-04-04T14:45:00Z</time>
      </trkpt>
      <trkpt lat="43.63294" lon="1.30576">
        <ele>144</ele>
        <time>2023-04-04T14:45:02Z</time>
      </trkpt>
      <trkpt lat="43.63298" lon="1.30557">
        <ele>144.2</ele>
        <time>2023-04-04T14:45:05Z</time>
      </trkpt>
      <trkpt lat="43.63308" lon="1.30515">
        <ele>144.8</ele>
        <time>2023-04-04T14:45:11Z</time>
      </trkpt>
      <trkpt lat="43.6331" lon="1.30508">
        <ele>144.8</ele>
        <time>2023-04-04T14:45:12Z</time>
      </trkpt>
      <trkpt lat="43.63313" lon="1.30499">
        <ele>145</ele>
        <time>2023-04-04T14:45:13Z</time>
      </trkpt>
      <trkpt lat="43.63318" lon="1.30483">
        <ele>145.4</ele>
        <time>2023-04-04T14:45:15Z</time>
      </trkpt>
      <trkpt lat="43.63323" lon="1.30466">
        <ele>145.6</ele>
        <time>2023-04-04T14:45:17Z</time>
      </trkpt>
      <trkpt lat="43.63325" lon="1.30444">
        <ele>145.6</ele>
        <time>2023-04-04T14:45:19Z</time>
      </trkpt>
      <trkpt lat="43.63328" lon="1.30418">
        <ele>145.6</ele>
        <time>2023-04-04T14:45:22Z</time>
      </trkpt>
      <trkpt lat="43.63333" lon="1.30395">
        <ele>145.2</ele>
        <time>2023-04-04T14:45:25Z</time>
      </trkpt>
      <trkpt lat="43.63334" lon="1.30388">
        <ele>145.2</ele>
        <time>2023-04-04T14:45:26Z</time>
      </trkpt>
      <trkpt lat="43.63335" lon="1.30374">
        <ele>145.2</ele>
        <time>2023-04-04T14:45:28Z</time>
      </trkpt>
      <trkpt lat="43.63334" lon="1.30367">
        <ele>145.2</ele>
        <time>2023-04-04T14:45:29Z</time>
      </trkpt>
      <trkpt lat="43.63332" lon="1.30357">
        <ele>145.2</ele>
        <time>2023-04-04T14:45:30Z</time>
      </trkpt>
      <trkpt lat="43.63327" lon="1.30335">
        <ele>145.2</ele>
        <time>2023-04-04T14:45:33Z</time>
      </trkpt>
      <trkpt lat="43.63325" lon="1.3033">
        <ele>145.4</ele>
        <time>2023-04-04T14:45:34Z</time>
      </trkpt>
      <trkpt lat="43.63317" lon="1.30313">
        <ele>145.8</ele>
        <time>2023-04-04T14:45:37Z</time>
      </trkpt>
      <trkpt lat="43.63315" lon="1.30307">
        <ele>145.8</ele>
        <time>2023-04-04T14:45:38Z</time>
      </trkpt>
      <trkpt lat="43.6331" lon="1.30298">
        <ele>146</ele>
        <time>2023-04-04T14:45:39Z</time>
      </trkpt>
      <trkpt lat="43.63297" lon="1.30275">
        <ele>146.2</ele>
        <time>2023-04-04T14:45:42Z</time>
      </trkpt>
      <trkpt lat="43.63281" lon="1.30251">
        <ele>146.2</ele>
        <time>2023-04-04T14:45:45Z</time>
      </trkpt>
      <trkpt lat="43.63271" lon="1.30239">
        <ele>146.2</ele>
        <time>2023-04-04T14:45:47Z</time>
      </trkpt>
      <trkpt lat="43.6324" lon="1.30217">
        <ele>146.2</ele>
        <time>2023-04-04T14:45:52Z</time>
      </trkpt>
      <trkpt lat="43.63223" lon="1.30205">
        <ele>146.2</ele>
        <time>2023-04-04T14:45:55Z</time>
      </trkpt>
      <trkpt lat="43.63212" lon="1.30197">
        <ele>146</ele>
        <time>2023-04-04T14:45:57Z</time>
      </trkpt>
      <trkpt lat="43.632" lon="1.3019">
        <ele>146.2</ele>
        <time>2023-04-04T14:45:59Z</time>
      </trkpt>
      <trkpt lat="43.63183" lon="1.30173">
        <ele>146.4</ele>
        <time>2023-04-04T14:46:02Z</time>
      </trkpt>
      <trkpt lat="43.63173" lon="1.30163">
        <ele>146.4</ele>
        <time>2023-04-04T14:46:04Z</time>
      </trkpt>
      <trkpt lat="43.63163" lon="1.30155">
        <ele>146.4</ele>
        <time>2023-04-04T14:46:06Z</time>
      </trkpt>
      <trkpt lat="43.63152" lon="1.30145">
        <ele>146.6</ele>
        <time>2023-04-04T14:46:08Z</time>
      </trkpt>
      <trkpt lat="43.63114" lon="1.30112">
        <ele>146.4</ele>
        <time>2023-04-04T14:46:14Z</time>
      </trkpt>
      <trkpt lat="43.63093" lon="1.30091">
        <ele>146.2</ele>
        <time>2023-04-04T14:46:18Z</time>
      </trkpt>
      <trkpt lat="43.63083" lon="1.30081">
        <ele>145.8</ele>
        <time>2023-04-04T14:46:20Z</time>
      </trkpt>
      <trkpt lat="43.63041" lon="1.30045">
        <ele>145</ele>
        <time>2023-04-04T14:46:27Z</time>
      </trkpt>
      <trkpt lat="43.63035" lon="1.30042">
        <ele>145</ele>
        <time>2023-04-04T14:46:28Z</time>
      </trkpt>
      <trkpt lat="43.63028" lon="1.30041">
        <ele>144.8</ele>
        <time>2023-04-04T14:46:29Z</time>
      </trkpt>
      <trkpt lat="43.63021" lon="1.30041">
        <ele>144.8</ele>
        <time>2023-04-04T14:46:30Z</time>
      </trkpt>
      <trkpt lat="43.62981" lon="1.30051">
        <ele>144.4</ele>
        <time>2023-04-04T14:46:36Z</time>
      </trkpt>
      <trkpt lat="43.62921" lon="1.30069">
        <ele>144</ele>
        <time>2023-04-04T14:46:45Z</time>
      </trkpt>
      <trkpt lat="43.62914" lon="1.30069">
        <ele>144</ele>
        <time>2023-04-04T14:46:46Z</time>
      </trkpt>
      <trkpt lat="43.62907" lon="1.30068">
        <ele>144</ele>
        <time>2023-04-04T14:46:47Z</time>
      </trkpt>
      <trkpt lat="43.62889" lon="1.30059">
        <ele>144</ele>
        <time>2023-04-04T14:46:50Z</time>
      </trkpt>
      <trkpt lat="43.62835" lon="1.30032">
        <ele>144.2</ele>
        <time>2023-04-04T14:46:59Z</time>
      </trkpt>
      <trkpt lat="43.62829" lon="1.30029">
        <ele>144.2</ele>
        <time>2023-04-04T14:47:00Z</time>
      </trkpt>
      <trkpt lat="43.62818" lon="1.30023">
        <ele>144.4</ele>
        <time>2023-04-04T14:47:02Z</time>
      </trkpt>
      <trkpt lat="43.62803" lon="1.30008">
        <ele>144.2</ele>
        <time>2023-04-04T14:47:05Z</time>
      </trkpt>
      <trkpt lat="43.62771" lon="1.29964">
        <ele>144.4</ele>
        <time>2023-04-04T14:47:13Z</time>
      </trkpt>
      <trkpt lat="43.62739" lon="1.29917">
        <ele>145.4</ele>
        <time>2023-04-04T14:47:21Z</time>
      </trkpt>
      <trkpt lat="43.62703" lon="1.29865">
        <ele>146</ele>
        <time>2023-04-04T14:47:30Z</time>
      </trkpt>
      <trkpt lat="43.62695" lon="1.29854">
        <ele>146</ele>
        <time>2023-04-04T14:47:32Z</time>
      </trkpt>
      <trkpt lat="43.62663" lon="1.29819">
        <ele>146.4</ele>
        <time>2023-04-04T14:47:39Z</time>
      </trkpt>
      <trkpt lat="43.62618" lon="1.29779">
        <ele>146.6</ele>
        <time>2023-04-04T14:47:48Z</time>
      </trkpt>
      <trkpt lat="43.62582" lon="1.29744">
        <ele>147.2</ele>
        <time>2023-04-04T14:47:56Z</time>
      </trkpt>
      <trkpt lat="43.62573" lon="1.29735">
        <ele>147.6</ele>
        <time>2023-04-04T14:47:58Z</time>
      </trkpt>
      <trkpt lat="43.62541" lon="1.29702">
        <ele>147.8</ele>
        <time>2023-04-04T14:48:05Z</time>
      </trkpt>
      <trkpt lat="43.62505" lon="1.29661">
        <ele>148.4</ele>
        <time>2023-04-04T14:48:13Z</time>
      </trkpt>
      <trkpt lat="43.625" lon="1.29655">
        <ele>148.4</ele>
        <time>2023-04-04T14:48:14Z</time>
      </trkpt>
      <trkpt lat="43.62467" lon="1.29611">
        <ele>149</ele>
        <time>2023-04-04T14:48:22Z</time>
      </trkpt>
      <trkpt lat="43.62439" lon="1.29562">
        <ele>149.2</ele>
        <time>2023-04-04T14:48:30Z</time>
      </trkpt>
      <trkpt lat="43.62436" lon="1.29556">
        <ele>149.2</ele>
        <time>2023-04-04T14:48:31Z</time>
      </trkpt>
      <trkpt lat="43.6243" lon="1.29545">
        <ele>149.6</ele>
        <time>2023-04-04T14:48:33Z</time>
      </trkpt>
      <trkpt lat="43.62418" lon="1.2952">
        <ele>150.4</ele>
        <time>2023-04-04T14:48:37Z</time>
      </trkpt>
      <trkpt lat="43.62416" lon="1.29514">
        <ele>150.6</ele>
        <time>2023-04-04T14:48:38Z</time>
      </trkpt>
      <trkpt lat="43.62397" lon="1.29466">
        <ele>151.6</ele>
        <time>2023-04-04T14:48:46Z</time>
      </trkpt>
      <trkpt lat="43.62396" lon="1.2946">
        <ele>151.8</ele>
        <time>2023-04-04T14:48:47Z</time>
      </trkpt>
      <trkpt lat="43.62393" lon="1.29437">
        <ele>152.2</ele>
        <time>2023-04-04T14:48:51Z</time>
      </trkpt>
      <trkpt lat="43.62392" lon="1.29425">
        <ele>152.6</ele>
        <time>2023-04-04T14:48:53Z</time>
      </trkpt>
      <trkpt lat="43.62392" lon="1.2942">
        <ele>152.8</ele>
        <time>2023-04-04T14:48:54Z</time>
      </trkpt>
      <trkpt lat="43.62392" lon="1.29415">
        <ele>152.8</ele>
        <time>2023-04-04T14:48:55Z</time>
      </trkpt>
      <trkpt lat="43.62391" lon="1.29409">
        <ele>152.8</ele>
        <time>2023-04-04T14:48:56Z</time>
      </trkpt>
      <trkpt lat="43.62389" lon="1.29387">
        <ele>153.2</ele>
        <time>2023-04-04T14:48:59Z</time>
      </trkpt>
      <trkpt lat="43.62386" lon="1.2937">
        <ele>153.2</ele>
        <time>2023-04-04T14:49:01Z</time>
      </trkpt>
      <trkpt lat="43.62385" lon="1.29361">
        <ele>153.2</ele>
        <time>2023-04-04T14:49:02Z</time>
      </trkpt>
      <trkpt lat="43.62383" lon="1.29346">
        <ele>153.2</ele>
        <time>2023-04-04T14:49:04Z</time>
      </trkpt>
      <trkpt lat="43.62381" lon="1.29339">
        <ele>153.2</ele>
        <time>2023-04-04T14:49:05Z</time>
      </trkpt>
      <trkpt lat="43.62378" lon="1.29314">
        <ele>152.8</ele>
        <time>2023-04-04T14:49:08Z</time>
      </trkpt>
      <trkpt lat="43.62371" lon="1.29261">
        <ele>151.6</ele>
        <time>2023-04-04T14:49:13Z</time>
      </trkpt>
      <trkpt lat="43.62354" lon="1.29206">
        <ele>150.4</ele>
        <time>2023-04-04T14:49:19Z</time>
      </trkpt>
      <trkpt lat="43.62325" lon="1.29139">
        <ele>149.8</ele>
        <time>2023-04-04T14:49:27Z</time>
      </trkpt>
      <trkpt lat="43.62308" lon="1.29111">
        <ele>149.4</ele>
        <time>2023-04-04T14:49:31Z</time>
      </trkpt>
      <trkpt lat="43.62298" lon="1.29093">
        <ele>149.2</ele>
        <time>2023-04-04T14:49:34Z</time>
      </trkpt>
      <trkpt lat="43.62275" lon="1.2905">
        <ele>149.4</ele>
        <time>2023-04-04T14:49:41Z</time>
      </trkpt>
      <trkpt lat="43.62268" lon="1.29034">
        <ele>149.4</ele>
        <time>2023-04-04T14:49:44Z</time>
      </trkpt>
      <trkpt lat="43.62262" lon="1.29023">
        <ele>149.4</ele>
        <time>2023-04-04T14:49:46Z</time>
      </trkpt>
      <trkpt lat="43.62255" lon="1.29012">
        <ele>149.4</ele>
        <time>2023-04-04T14:49:48Z</time>
      </trkpt>
      <trkpt lat="43.62248" lon="1.2899">
        <ele>149.2</ele>
        <time>2023-04-04T14:49:51Z</time>
      </trkpt>
      <trkpt lat="43.62247" lon="1.2895">
        <ele>148.8</ele>
        <time>2023-04-04T14:49:56Z</time>
      </trkpt>
      <trkpt lat="43.62249" lon="1.28898">
        <ele>148.8</ele>
        <time>2023-04-04T14:50:03Z</time>
      </trkpt>
      <trkpt lat="43.62252" lon="1.28838">
        <ele>149.2</ele>
        <time>2023-04-04T14:50:11Z</time>
      </trkpt>
      <trkpt lat="43.62253" lon="1.28808">
        <ele>149.2</ele>
        <time>2023-04-04T14:50:15Z</time>
      </trkpt>
      <trkpt lat="43.62255" lon="1.28786">
        <ele>149.4</ele>
        <time>2023-04-04T14:50:18Z</time>
      </trkpt>
      <trkpt lat="43.62255" lon="1.28769">
        <ele>149.2</ele>
        <time>2023-04-04T14:50:22Z</time>
      </trkpt>
      <trkpt lat="43.62257" lon="1.28744">
        <ele>149.2</ele>
        <time>2023-04-04T14:50:27Z</time>
      </trkpt>
      <trkpt lat="43.62257" lon="1.28724">
        <ele>149.4</ele>
        <time>2023-04-04T14:50:32Z</time>
      </trkpt>
      <trkpt lat="43.62257" lon="1.28705">
        <ele>149.2</ele>
        <time>2023-04-04T14:50:36Z</time>
      </trkpt>
      <trkpt lat="43.62258" lon="1.28698">
        <ele>149</ele>
        <time>2023-04-04T14:50:39Z</time>
      </trkpt>
      <trkpt lat="43.62258" lon="1.28698">
        <ele>148.8</ele>
        <time>2023-04-04T14:50:40Z</time>
      </trkpt>
      <trkpt lat="43.62258" lon="1.28691">
        <ele>148.4</ele>
        <time>2023-04-04T14:50:43Z</time>
      </trkpt>
      <trkpt lat="43.6226" lon="1.28683">
        <ele>148.2</ele>
        <time>2023-04-04T14:50:45Z</time>
      </trkpt>
      <trkpt lat="43.62263" lon="1.28678">
        <ele>148.2</ele>
        <time>2023-04-04T14:50:47Z</time>
      </trkpt>
      <trkpt lat="43.62264" lon="1.28672">
        <ele>148.2</ele>
        <time>2023-04-04T14:50:49Z</time>
      </trkpt>
      <trkpt lat="43.62268" lon="1.28647">
        <ele>149.6</ele>
        <time>2023-04-04T14:50:55Z</time>
      </trkpt>
      <trkpt lat="43.62265" lon="1.28611">
        <ele>150.4</ele>
        <time>2023-04-04T14:51:01Z</time>
      </trkpt>
      <trkpt lat="43.62257" lon="1.28597">
        <ele>150.4</ele>
        <time>2023-04-04T14:51:04Z</time>
      </trkpt>
      <trkpt lat="43.6225" lon="1.28588">
        <ele>150.4</ele>
        <time>2023-04-04T14:51:06Z</time>
      </trkpt>
      <trkpt lat="43.62227" lon="1.28547">
        <ele>150.8</ele>
        <time>2023-04-04T14:51:13Z</time>
      </trkpt>
      <trkpt lat="43.62218" lon="1.28526">
        <ele>151</ele>
        <time>2023-04-04T14:51:16Z</time>
      </trkpt>
      <trkpt lat="43.62213" lon="1.28503">
        <ele>150.4</ele>
        <time>2023-04-04T14:51:19Z</time>
      </trkpt>
      <trkpt lat="43.6221" lon="1.28449">
        <ele>149.8</ele>
        <time>2023-04-04T14:51:26Z</time>
      </trkpt>
      <trkpt lat="43.6221" lon="1.28382">
        <ele>149.8</ele>
        <time>2023-04-04T14:51:35Z</time>
      </trkpt>
      <trkpt lat="43.62215" lon="1.28304">
        <ele>150</ele>
        <time>2023-04-04T14:51:46Z</time>
      </trkpt>
      <trkpt lat="43.62218" lon="1.28242">
        <ele>150.6</ele>
        <time>2023-04-04T14:51:55Z</time>
      </trkpt>
      <trkpt lat="43.62226" lon="1.28165">
        <ele>151.6</ele>
        <time>2023-04-04T14:52:06Z</time>
      </trkpt>
      <trkpt lat="43.62228" lon="1.28144">
        <ele>151.6</ele>
        <time>2023-04-04T14:52:09Z</time>
      </trkpt>
      <trkpt lat="43.62226" lon="1.2813">
        <ele>151.6</ele>
        <time>2023-04-04T14:52:11Z</time>
      </trkpt>
      <trkpt lat="43.62223" lon="1.28107">
        <ele>151.6</ele>
        <time>2023-04-04T14:52:14Z</time>
      </trkpt>
      <trkpt lat="43.62224" lon="1.28087">
        <ele>151.8</ele>
        <time>2023-04-04T14:52:17Z</time>
      </trkpt>
      <trkpt lat="43.6223" lon="1.28046">
        <ele>152.4</ele>
        <time>2023-04-04T14:52:23Z</time>
      </trkpt>
      <trkpt lat="43.62231" lon="1.28025">
        <ele>152.6</ele>
        <time>2023-04-04T14:52:26Z</time>
      </trkpt>
      <trkpt lat="43.62233" lon="1.28011">
        <ele>152.8</ele>
        <time>2023-04-04T14:52:28Z</time>
      </trkpt>
      <trkpt lat="43.62234" lon="1.28004">
        <ele>152.6</ele>
        <time>2023-04-04T14:52:29Z</time>
      </trkpt>
      <trkpt lat="43.62236" lon="1.27991">
        <ele>152.6</ele>
        <time>2023-04-04T14:52:31Z</time>
      </trkpt>
      <trkpt lat="43.62244" lon="1.27971">
        <ele>152.8</ele>
        <time>2023-04-04T14:52:34Z</time>
      </trkpt>
      <trkpt lat="43.62263" lon="1.27941">
        <ele>152.8</ele>
        <time>2023-04-04T14:52:40Z</time>
      </trkpt>
      <trkpt lat="43.62278" lon="1.2793">
        <ele>153.4</ele>
        <time>2023-04-04T14:52:44Z</time>
      </trkpt>
      <trkpt lat="43.62285" lon="1.27929">
        <ele>153.8</ele>
        <time>2023-04-04T14:52:46Z</time>
      </trkpt>
      <trkpt lat="43.62289" lon="1.27927">
        <ele>154</ele>
        <time>2023-04-04T14:52:47Z</time>
      </trkpt>
      <trkpt lat="43.62291" lon="1.27923">
        <ele>154.2</ele>
        <time>2023-04-04T14:52:48Z</time>
      </trkpt>
      <trkpt lat="43.62292" lon="1.27901">
        <ele>155</ele>
        <time>2023-04-04T14:52:52Z</time>
      </trkpt>
      <trkpt lat="43.62282" lon="1.27858">
        <ele>155.8</ele>
        <time>2023-04-04T14:52:58Z</time>
      </trkpt>
      <trkpt lat="43.6228" lon="1.2785">
        <ele>156</ele>
        <time>2023-04-04T14:52:59Z</time>
      </trkpt>
      <trkpt lat="43.62263" lon="1.27785">
        <ele>156</ele>
        <time>2023-04-04T14:53:08Z</time>
      </trkpt>
      <trkpt lat="43.62246" lon="1.2772">
        <ele>156</ele>
        <time>2023-04-04T14:53:17Z</time>
      </trkpt>
      <trkpt lat="43.62234" lon="1.27668">
        <ele>156.2</ele>
        <time>2023-04-04T14:53:24Z</time>
      </trkpt>
      <trkpt lat="43.62223" lon="1.27626">
        <ele>155.8</ele>
        <time>2023-04-04T14:53:30Z</time>
      </trkpt>
      <trkpt lat="43.62211" lon="1.27586">
        <ele>155.6</ele>
        <time>2023-04-04T14:53:35Z</time>
      </trkpt>
      <trkpt lat="43.62195" lon="1.2754">
        <ele>155</ele>
        <time>2023-04-04T14:53:40Z</time>
      </trkpt>
      <trkpt lat="43.6219" lon="1.27522">
        <ele>155</ele>
        <time>2023-04-04T14:53:42Z</time>
      </trkpt>
      <trkpt lat="43.62185" lon="1.27505">
        <ele>155</ele>
        <time>2023-04-04T14:53:44Z</time>
      </trkpt>
      <trkpt lat="43.62174" lon="1.27469">
        <ele>154.8</ele>
        <time>2023-04-04T14:53:48Z</time>
      </trkpt>
      <trkpt lat="43.62155" lon="1.27414">
        <ele>154.8</ele>
        <time>2023-04-04T14:53:55Z</time>
      </trkpt>
      <trkpt lat="43.62139" lon="1.27371">
        <ele>155</ele>
        <time>2023-04-04T14:54:01Z</time>
      </trkpt>
      <trkpt lat="43.62134" lon="1.2734">
        <ele>155.2</ele>
        <time>2023-04-04T14:54:05Z</time>
      </trkpt>
      <trkpt lat="43.6213" lon="1.273">
        <ele>155.8</ele>
        <time>2023-04-04T14:54:11Z</time>
      </trkpt>
      <trkpt lat="43.62131" lon="1.27272">
        <ele>156</ele>
        <time>2023-04-04T14:54:15Z</time>
      </trkpt>
      <trkpt lat="43.62132" lon="1.2726">
        <ele>156.2</ele>
        <time>2023-04-04T14:54:17Z</time>
      </trkpt>
      <trkpt lat="43.62133" lon="1.27245">
        <ele>156.2</ele>
        <time>2023-04-04T14:54:19Z</time>
      </trkpt>
      <trkpt lat="43.62134" lon="1.2723">
        <ele>156.2</ele>
        <time>2023-04-04T14:54:21Z</time>
      </trkpt>
      <trkpt lat="43.62134" lon="1.27223">
        <ele>156.2</ele>
        <time>2023-04-04T14:54:22Z</time>
      </trkpt>
      <trkpt lat="43.62133" lon="1.27215">
        <ele>156.2</ele>
        <time>2023-04-04T14:54:23Z</time>
      </trkpt>
      <trkpt lat="43.6213" lon="1.2719">
        <ele>156.2</ele>
        <time>2023-04-04T14:54:26Z</time>
      </trkpt>
      <trkpt lat="43.62124" lon="1.27157">
        <ele>156.2</ele>
        <time>2023-04-04T14:54:30Z</time>
      </trkpt>
      <trkpt lat="43.62123" lon="1.2715">
        <ele>156.2</ele>
        <time>2023-04-04T14:54:31Z</time>
      </trkpt>
      <trkpt lat="43.6212" lon="1.27126">
        <ele>156.6</ele>
        <time>2023-04-04T14:54:34Z</time>
      </trkpt>
      <trkpt lat="43.62117" lon="1.27106">
        <ele>156.8</ele>
        <time>2023-04-04T14:54:37Z</time>
      </trkpt>
      <trkpt lat="43.62116" lon="1.27099">
        <ele>157</ele>
        <time>2023-04-04T14:54:38Z</time>
      </trkpt>
      <trkpt lat="43.62115" lon="1.27077">
        <ele>157.6</ele>
        <time>2023-04-04T14:54:42Z</time>
      </trkpt>
      <trkpt lat="43.62109" lon="1.27034">
        <ele>157.8</ele>
        <time>2023-04-04T14:54:48Z</time>
      </trkpt>
      <trkpt lat="43.62098" lon="1.26988">
        <ele>158</ele>
        <time>2023-04-04T14:54:53Z</time>
      </trkpt>
      <trkpt lat="43.62097" lon="1.26981">
        <ele>158</ele>
        <time>2023-04-04T14:54:54Z</time>
      </trkpt>
      <trkpt lat="43.62092" lon="1.2696">
        <ele>158</ele>
        <time>2023-04-04T14:54:57Z</time>
      </trkpt>
      <trkpt lat="43.62085" lon="1.26931">
        <ele>157.8</ele>
        <time>2023-04-04T14:55:00Z</time>
      </trkpt>
      <trkpt lat="43.62078" lon="1.26892">
        <ele>157.6</ele>
        <time>2023-04-04T14:55:05Z</time>
      </trkpt>
      <trkpt lat="43.62076" lon="1.26885">
        <ele>157.6</ele>
        <time>2023-04-04T14:55:06Z</time>
      </trkpt>
      <trkpt lat="43.62069" lon="1.26855">
        <ele>157.6</ele>
        <time>2023-04-04T14:55:10Z</time>
      </trkpt>
      <trkpt lat="43.62068" lon="1.26848">
        <ele>157.6</ele>
        <time>2023-04-04T14:55:11Z</time>
      </trkpt>
      <trkpt lat="43.62064" lon="1.26823">
        <ele>157.6</ele>
        <time>2023-04-04T14:55:15Z</time>
      </trkpt>
      <trkpt lat="43.62061" lon="1.26799">
        <ele>158.6</ele>
        <time>2023-04-04T14:55:19Z</time>
      </trkpt>
      <trkpt lat="43.62052" lon="1.26763">
        <ele>159</ele>
        <time>2023-04-04T14:55:24Z</time>
      </trkpt>
      <trkpt lat="43.6205" lon="1.26757">
        <ele>159</ele>
        <time>2023-04-04T14:55:25Z</time>
      </trkpt>
      <trkpt lat="43.6205" lon="1.26752">
        <ele>159.2</ele>
        <time>2023-04-04T14:55:26Z</time>
      </trkpt>
      <trkpt lat="43.62047" lon="1.26731">
        <ele>159.4</ele>
        <time>2023-04-04T14:55:30Z</time>
      </trkpt>
      <trkpt lat="43.62044" lon="1.26693">
        <ele>159.8</ele>
        <time>2023-04-04T14:55:36Z</time>
      </trkpt>
      <trkpt lat="43.62037" lon="1.26648">
        <ele>159.6</ele>
        <time>2023-04-04T14:55:41Z</time>
      </trkpt>
      <trkpt lat="43.62034" lon="1.26629">
        <ele>159.6</ele>
        <time>2023-04-04T14:55:43Z</time>
      </trkpt>
      <trkpt lat="43.62032" lon="1.26615">
        <ele>159.6</ele>
        <time>2023-04-04T14:55:45Z</time>
      </trkpt>
      <trkpt lat="43.62031" lon="1.26607">
        <ele>159.6</ele>
        <time>2023-04-04T14:55:46Z</time>
      </trkpt>
      <trkpt lat="43.62029" lon="1.26597">
        <ele>159.6</ele>
        <time>2023-04-04T14:55:47Z</time>
      </trkpt>
      <trkpt lat="43.62023" lon="1.26556">
        <ele>160</ele>
        <time>2023-04-04T14:55:52Z</time>
      </trkpt>
      <trkpt lat="43.62019" lon="1.26517">
        <ele>160.2</ele>
        <time>2023-04-04T14:55:57Z</time>
      </trkpt>
      <trkpt lat="43.62012" lon="1.26475">
        <ele>160.4</ele>
        <time>2023-04-04T14:56:02Z</time>
      </trkpt>
      <trkpt lat="43.6201" lon="1.26459">
        <ele>160</ele>
        <time>2023-04-04T14:56:04Z</time>
      </trkpt>
      <trkpt lat="43.62005" lon="1.26433">
        <ele>160.4</ele>
        <time>2023-04-04T14:56:07Z</time>
      </trkpt>
      <trkpt lat="43.62003" lon="1.26425">
        <ele>160.4</ele>
        <time>2023-04-04T14:56:08Z</time>
      </trkpt>
      <trkpt lat="43.61999" lon="1.26406">
        <ele>160.2</ele>
        <time>2023-04-04T14:56:11Z</time>
      </trkpt>
      <trkpt lat="43.61998" lon="1.26398">
        <ele>160.2</ele>
        <time>2023-04-04T14:56:12Z</time>
      </trkpt>
      <trkpt lat="43.61994" lon="1.26374">
        <ele>160.4</ele>
        <time>2023-04-04T14:56:15Z</time>
      </trkpt>
      <trkpt lat="43.61989" lon="1.26342">
        <ele>160.4</ele>
        <time>2023-04-04T14:56:20Z</time>
      </trkpt>
      <trkpt lat="43.61987" lon="1.26336">
        <ele>160.6</ele>
        <time>2023-04-04T14:56:21Z</time>
      </trkpt>
      <trkpt lat="43.61983" lon="1.26324">
        <ele>160.6</ele>
        <time>2023-04-04T14:56:23Z</time>
      </trkpt>
      <trkpt lat="43.6198" lon="1.26318">
        <ele>160.6</ele>
        <time>2023-04-04T14:56:24Z</time>
      </trkpt>
      <trkpt lat="43.61974" lon="1.26304">
        <ele>161</ele>
        <time>2023-04-04T14:56:27Z</time>
      </trkpt>
      <trkpt lat="43.61974" lon="1.26301">
        <ele>161.4</ele>
        <time>2023-04-04T14:56:28Z</time>
      </trkpt>
      <trkpt lat="43.61977" lon="1.26295">
        <ele>161.8</ele>
        <time>2023-04-04T14:56:30Z</time>
      </trkpt>
      <trkpt lat="43.61979" lon="1.26293">
        <ele>162.2</ele>
        <time>2023-04-04T14:56:31Z</time>
      </trkpt>
      <trkpt lat="43.61985" lon="1.26289">
        <ele>162.6</ele>
        <time>2023-04-04T14:56:33Z</time>
      </trkpt>
      <trkpt lat="43.61987" lon="1.26287">
        <ele>162.8</ele>
        <time>2023-04-04T14:56:34Z</time>
      </trkpt>
      <trkpt lat="43.61989" lon="1.26284">
        <ele>163.2</ele>
        <time>2023-04-04T14:56:35Z</time>
      </trkpt>
      <trkpt lat="43.61997" lon="1.26279">
        <ele>164.2</ele>
        <time>2023-04-04T14:56:38Z</time>
      </trkpt>
      <trkpt lat="43.61999" lon="1.26278">
        <ele>164.4</ele>
        <time>2023-04-04T14:56:39Z</time>
      </trkpt>
      <trkpt lat="43.62008" lon="1.26274">
        <ele>165.4</ele>
        <time>2023-04-04T14:56:43Z</time>
      </trkpt>
      <trkpt lat="43.6201" lon="1.26273">
        <ele>165.6</ele>
        <time>2023-04-04T14:56:44Z</time>
      </trkpt>
      <trkpt lat="43.62015" lon="1.26265">
        <ele>166.4</ele>
        <time>2023-04-04T14:56:48Z</time>
      </trkpt>
      <trkpt lat="43.62022" lon="1.26259">
        <ele>167.6</ele>
        <time>2023-04-04T14:56:52Z</time>
      </trkpt>
      <trkpt lat="43.62024" lon="1.26258">
        <ele>167.6</ele>
        <time>2023-04-04T14:56:53Z</time>
      </trkpt>
      <trkpt lat="43.62028" lon="1.26254">
        <ele>168.6</ele>
        <time>2023-04-04T14:56:56Z</time>
      </trkpt>
      <trkpt lat="43.62031" lon="1.26249">
        <ele>169.2</ele>
        <time>2023-04-04T14:56:59Z</time>
      </trkpt>
      <trkpt lat="43.62033" lon="1.26247">
        <ele>169.6</ele>
        <time>2023-04-04T14:57:00Z</time>
      </trkpt>
      <trkpt lat="43.62039" lon="1.26242">
        <ele>171</ele>
        <time>2023-04-04T14:57:03Z</time>
      </trkpt>
      <trkpt lat="43.62046" lon="1.26237">
        <ele>171.8</ele>
        <time>2023-04-04T14:57:07Z</time>
      </trkpt>
      <trkpt lat="43.62047" lon="1.26235">
        <ele>172.2</ele>
        <time>2023-04-04T14:57:08Z</time>
      </trkpt>
      <trkpt lat="43.62049" lon="1.26232">
        <ele>172.8</ele>
        <time>2023-04-04T14:57:10Z</time>
      </trkpt>
      <trkpt lat="43.62052" lon="1.2623">
        <ele>173.4</ele>
        <time>2023-04-04T14:57:12Z</time>
      </trkpt>
      <trkpt lat="43.62058" lon="1.26222">
        <ele>174.4</ele>
        <time>2023-04-04T14:57:17Z</time>
      </trkpt>
      <trkpt lat="43.62063" lon="1.26217">
        <ele>175.8</ele>
        <time>2023-04-04T14:57:21Z</time>
      </trkpt>
      <trkpt lat="43.62067" lon="1.26215">
        <ele>176.4</ele>
        <time>2023-04-04T14:57:24Z</time>
      </trkpt>
      <trkpt lat="43.6207" lon="1.26213">
        <ele>177</ele>
        <time>2023-04-04T14:57:26Z</time>
      </trkpt>
      <trkpt lat="43.62074" lon="1.2621">
        <ele>178.4</ele>
        <time>2023-04-04T14:57:30Z</time>
      </trkpt>
      <trkpt lat="43.62076" lon="1.26207">
        <ele>178.8</ele>
        <time>2023-04-04T14:57:32Z</time>
      </trkpt>
      <trkpt lat="43.62079" lon="1.26204">
        <ele>179.6</ele>
        <time>2023-04-04T14:57:35Z</time>
      </trkpt>
      <trkpt lat="43.62083" lon="1.26201">
        <ele>180</ele>
        <time>2023-04-04T14:57:38Z</time>
      </trkpt>
      <trkpt lat="43.62087" lon="1.26197">
        <ele>180.4</ele>
        <time>2023-04-04T14:57:41Z</time>
      </trkpt>
      <trkpt lat="43.62089" lon="1.26196">
        <ele>180.8</ele>
        <time>2023-04-04T14:57:42Z</time>
      </trkpt>
      <trkpt lat="43.62102" lon="1.26187">
        <ele>182</ele>
        <time>2023-04-04T14:57:49Z</time>
      </trkpt>
      <trkpt lat="43.62115" lon="1.26177">
        <ele>183</ele>
        <time>2023-04-04T14:57:55Z</time>
      </trkpt>
      <trkpt lat="43.6212" lon="1.26174">
        <ele>183.2</ele>
        <time>2023-04-04T14:57:57Z</time>
      </trkpt>
      <trkpt lat="43.62135" lon="1.26163">
        <ele>183.8</ele>
        <time>2023-04-04T14:58:04Z</time>
      </trkpt>
      <trkpt lat="43.6214" lon="1.2616">
        <ele>184.2</ele>
        <time>2023-04-04T14:58:06Z</time>
      </trkpt>
      <trkpt lat="43.62156" lon="1.26149">
        <ele>184.4</ele>
        <time>2023-04-04T14:58:12Z</time>
      </trkpt>
      <trkpt lat="43.62185" lon="1.26139">
        <ele>184.8</ele>
        <time>2023-04-04T14:58:20Z</time>
      </trkpt>
      <trkpt lat="43.62207" lon="1.26137">
        <ele>185.2</ele>
        <time>2023-04-04T14:58:25Z</time>
      </trkpt>
      <trkpt lat="43.62221" lon="1.26135">
        <ele>185.2</ele>
        <time>2023-04-04T14:58:28Z</time>
      </trkpt>
      <trkpt lat="43.62231" lon="1.26134">
        <ele>185.2</ele>
        <time>2023-04-04T14:58:30Z</time>
      </trkpt>
      <trkpt lat="43.62257" lon="1.26129">
        <ele>184.6</ele>
        <time>2023-04-04T14:58:35Z</time>
      </trkpt>
      <trkpt lat="43.62295" lon="1.26126">
        <ele>184.6</ele>
        <time>2023-04-04T14:58:42Z</time>
      </trkpt>
      <trkpt lat="43.62321" lon="1.26123">
        <ele>184.4</ele>
        <time>2023-04-04T14:58:47Z</time>
      </trkpt>
      <trkpt lat="43.62329" lon="1.26126">
        <ele>184.2</ele>
        <time>2023-04-04T14:58:49Z</time>
      </trkpt>
      <trkpt lat="43.62335" lon="1.26132">
        <ele>184.4</ele>
        <time>2023-04-04T14:58:52Z</time>
      </trkpt>
      <trkpt lat="43.6234" lon="1.26134">
        <ele>184.2</ele>
        <time>2023-04-04T14:58:54Z</time>
      </trkpt>
      <trkpt lat="43.62345" lon="1.26135">
        <ele>184</ele>
        <time>2023-04-04T14:58:57Z</time>
      </trkpt>
      <trkpt lat="43.62353" lon="1.26122">
        <ele>183.8</ele>
        <time>2023-04-04T14:59:02Z</time>
      </trkpt>
      <trkpt lat="43.62355" lon="1.26116">
        <ele>183.8</ele>
        <time>2023-04-04T14:59:03Z</time>
      </trkpt>
      <trkpt lat="43.62363" lon="1.26091">
        <ele>183.6</ele>
        <time>2023-04-04T14:59:07Z</time>
      </trkpt>
      <trkpt lat="43.62372" lon="1.26061">
        <ele>183.2</ele>
        <time>2023-04-04T14:59:11Z</time>
      </trkpt>
      <trkpt lat="43.62378" lon="1.26039">
        <ele>182.8</ele>
        <time>2023-04-04T14:59:14Z</time>
      </trkpt>
      <trkpt lat="43.62387" lon="1.26007">
        <ele>182.4</ele>
        <time>2023-04-04T14:59:18Z</time>
      </trkpt>
      <trkpt lat="43.62393" lon="1.25983">
        <ele>182.2</ele>
        <time>2023-04-04T14:59:21Z</time>
      </trkpt>
      <trkpt lat="43.6239" lon="1.25968">
        <ele>181.8</ele>
        <time>2023-04-04T14:59:23Z</time>
      </trkpt>
      <trkpt lat="43.62373" lon="1.25947">
        <ele>181.6</ele>
        <time>2023-04-04T14:59:27Z</time>
      </trkpt>
      <trkpt lat="43.62364" lon="1.25938">
        <ele>181.4</ele>
        <time>2023-04-04T14:59:29Z</time>
      </trkpt>
      <trkpt lat="43.62354" lon="1.25929">
        <ele>181.2</ele>
        <time>2023-04-04T14:59:31Z</time>
      </trkpt>
      <trkpt lat="43.62349" lon="1.25927">
        <ele>181.2</ele>
        <time>2023-04-04T14:59:32Z</time>
      </trkpt>
      <trkpt lat="43.62315" lon="1.25917">
        <ele>181</ele>
        <time>2023-04-04T14:59:38Z</time>
      </trkpt>
      <trkpt lat="43.62309" lon="1.25916">
        <ele>180.8</ele>
        <time>2023-04-04T14:59:39Z</time>
      </trkpt>
      <trkpt lat="43.62304" lon="1.25914">
        <ele>180.8</ele>
        <time>2023-04-04T14:59:40Z</time>
      </trkpt>
      <trkpt lat="43.62293" lon="1.25907">
        <ele>180.8</ele>
        <time>2023-04-04T14:59:42Z</time>
      </trkpt>
      <trkpt lat="43.62288" lon="1.25903">
        <ele>180.6</ele>
        <time>2023-04-04T14:59:43Z</time>
      </trkpt>
      <trkpt lat="43.62284" lon="1.25896">
        <ele>180.4</ele>
        <time>2023-04-04T14:59:44Z</time>
      </trkpt>
      <trkpt lat="43.62278" lon="1.25882">
        <ele>179.8</ele>
        <time>2023-04-04T14:59:46Z</time>
      </trkpt>
      <trkpt lat="43.62275" lon="1.25874">
        <ele>179.8</ele>
        <time>2023-04-04T14:59:47Z</time>
      </trkpt>
      <trkpt lat="43.62269" lon="1.25858">
        <ele>179</ele>
        <time>2023-04-04T14:59:49Z</time>
      </trkpt>
      <trkpt lat="43.62268" lon="1.25852">
        <ele>178.6</ele>
        <time>2023-04-04T14:59:50Z</time>
      </trkpt>
      <trkpt lat="43.62266" lon="1.25846">
        <ele>178.2</ele>
        <time>2023-04-04T14:59:51Z</time>
      </trkpt>
      <trkpt lat="43.62262" lon="1.25833">
        <ele>177.8</ele>
        <time>2023-04-04T14:59:53Z</time>
      </trkpt>
      <trkpt lat="43.62256" lon="1.25817">
        <ele>177.6</ele>
        <time>2023-04-04T14:59:55Z</time>
      </trkpt>
      <trkpt lat="43.62236" lon="1.25772">
        <ele>176.4</ele>
        <time>2023-04-04T15:00:01Z</time>
      </trkpt>
      <trkpt lat="43.62231" lon="1.25763">
        <ele>176.2</ele>
        <time>2023-04-04T15:00:02Z</time>
      </trkpt>
      <trkpt lat="43.62209" lon="1.25722">
        <ele>175.4</ele>
        <time>2023-04-04T15:00:07Z</time>
      </trkpt>
      <trkpt lat="43.62203" lon="1.25712">
        <ele>175.2</ele>
        <time>2023-04-04T15:00:08Z</time>
      </trkpt>
      <trkpt lat="43.62187" lon="1.25691">
        <ele>174.6</ele>
        <time>2023-04-04T15:00:11Z</time>
      </trkpt>
      <trkpt lat="43.62177" lon="1.25682">
        <ele>174.2</ele>
        <time>2023-04-04T15:00:13Z</time>
      </trkpt>
      <trkpt lat="43.62171" lon="1.25679">
        <ele>174</ele>
        <time>2023-04-04T15:00:14Z</time>
      </trkpt>
      <trkpt lat="43.62164" lon="1.25676">
        <ele>174</ele>
        <time>2023-04-04T15:00:15Z</time>
      </trkpt>
      <trkpt lat="43.62148" lon="1.25673">
        <ele>173.6</ele>
        <time>2023-04-04T15:00:17Z</time>
      </trkpt>
      <trkpt lat="43.62105" lon="1.25674">
        <ele>172.8</ele>
        <time>2023-04-04T15:00:23Z</time>
      </trkpt>
      <trkpt lat="43.62071" lon="1.25669">
        <ele>171.8</ele>
        <time>2023-04-04T15:00:28Z</time>
      </trkpt>
      <trkpt lat="43.62062" lon="1.25667">
        <ele>171.6</ele>
        <time>2023-04-04T15:00:29Z</time>
      </trkpt>
      <trkpt lat="43.62021" lon="1.25661">
        <ele>171</ele>
        <time>2023-04-04T15:00:35Z</time>
      </trkpt>
      <trkpt lat="43.62005" lon="1.25662">
        <ele>170.8</ele>
        <time>2023-04-04T15:00:37Z</time>
      </trkpt>
      <trkpt lat="43.61983" lon="1.2567">
        <ele>170.2</ele>
        <time>2023-04-04T15:00:40Z</time>
      </trkpt>
      <trkpt lat="43.61959" lon="1.25676">
        <ele>169.6</ele>
        <time>2023-04-04T15:00:43Z</time>
      </trkpt>
      <trkpt lat="43.61933" lon="1.25686">
        <ele>169</ele>
        <time>2023-04-04T15:00:47Z</time>
      </trkpt>
      <trkpt lat="43.61926" lon="1.25688">
        <ele>168.8</ele>
        <time>2023-04-04T15:00:48Z</time>
      </trkpt>
      <trkpt lat="43.61919" lon="1.25692">
        <ele>168.6</ele>
        <time>2023-04-04T15:00:49Z</time>
      </trkpt>
      <trkpt lat="43.619" lon="1.25705">
        <ele>167.8</ele>
        <time>2023-04-04T15:00:52Z</time>
      </trkpt>
      <trkpt lat="43.61885" lon="1.25722">
        <ele>167.4</ele>
        <time>2023-04-04T15:00:55Z</time>
      </trkpt>
      <trkpt lat="43.61876" lon="1.25733">
        <ele>167</ele>
        <time>2023-04-04T15:00:57Z</time>
      </trkpt>
      <trkpt lat="43.6187" lon="1.25738">
        <ele>166.8</ele>
        <time>2023-04-04T15:00:58Z</time>
      </trkpt>
      <trkpt lat="43.61852" lon="1.25747">
        <ele>166</ele>
        <time>2023-04-04T15:01:01Z</time>
      </trkpt>
      <trkpt lat="43.61846" lon="1.25746">
        <ele>165</ele>
        <time>2023-04-04T15:01:03Z</time>
      </trkpt>
      <trkpt lat="43.61845" lon="1.25744">
        <ele>164.6</ele>
        <time>2023-04-04T15:01:04Z</time>
      </trkpt>
      <trkpt lat="43.61841" lon="1.25733">
        <ele>164.2</ele>
        <time>2023-04-04T15:01:07Z</time>
      </trkpt>
      <trkpt lat="43.61842" lon="1.25723">
        <ele>164</ele>
        <time>2023-04-04T15:01:09Z</time>
      </trkpt>
      <trkpt lat="43.61845" lon="1.25705">
        <ele>163.6</ele>
        <time>2023-04-04T15:01:12Z</time>
      </trkpt>
      <trkpt lat="43.61846" lon="1.25699">
        <ele>163.6</ele>
        <time>2023-04-04T15:01:13Z</time>
      </trkpt>
      <trkpt lat="43.61846" lon="1.25692">
        <ele>163.4</ele>
        <time>2023-04-04T15:01:14Z</time>
      </trkpt>
      <trkpt lat="43.6185" lon="1.25646">
        <ele>163.8</ele>
        <time>2023-04-04T15:01:21Z</time>
      </trkpt>
      <trkpt lat="43.6185" lon="1.25608">
        <ele>164.4</ele>
        <time>2023-04-04T15:01:27Z</time>
      </trkpt>
      <trkpt lat="43.61851" lon="1.25603">
        <ele>164.6</ele>
        <time>2023-04-04T15:01:28Z</time>
      </trkpt>
      <trkpt lat="43.61851" lon="1.25582">
        <ele>165.4</ele>
        <time>2023-04-04T15:01:32Z</time>
      </trkpt>
      <trkpt lat="43.61852" lon="1.25577">
        <ele>165.8</ele>
        <time>2023-04-04T15:01:33Z</time>
      </trkpt>
      <trkpt lat="43.61854" lon="1.25558">
        <ele>167</ele>
        <time>2023-04-04T15:01:37Z</time>
      </trkpt>
      <trkpt lat="43.61855" lon="1.2554">
        <ele>168</ele>
        <time>2023-04-04T15:01:41Z</time>
      </trkpt>
      <trkpt lat="43.61856" lon="1.25521">
        <ele>169</ele>
        <time>2023-04-04T15:01:45Z</time>
      </trkpt>
      <trkpt lat="43.61857" lon="1.25516">
        <ele>169</ele>
        <time>2023-04-04T15:01:46Z</time>
      </trkpt>
      <trkpt lat="43.61858" lon="1.25502">
        <ele>169.6</ele>
        <time>2023-04-04T15:01:49Z</time>
      </trkpt>
      <trkpt lat="43.61858" lon="1.25498">
        <ele>169.8</ele>
        <time>2023-04-04T15:01:50Z</time>
      </trkpt>
      <trkpt lat="43.61858" lon="1.25493">
        <ele>170.2</ele>
        <time>2023-04-04T15:01:51Z</time>
      </trkpt>
      <trkpt lat="43.61861" lon="1.25469">
        <ele>171.4</ele>
        <time>2023-04-04T15:01:56Z</time>
      </trkpt>
      <trkpt lat="43.61863" lon="1.25462">
        <ele>171.8</ele>
        <time>2023-04-04T15:01:58Z</time>
      </trkpt>
      <trkpt lat="43.61866" lon="1.25446">
        <ele>172.6</ele>
        <time>2023-04-04T15:02:02Z</time>
      </trkpt>
      <trkpt lat="43.61866" lon="1.25441">
        <ele>172.8</ele>
        <time>2023-04-04T15:02:03Z</time>
      </trkpt>
      <trkpt lat="43.6187" lon="1.25418">
        <ele>173.6</ele>
        <time>2023-04-04T15:02:08Z</time>
      </trkpt>
      <trkpt lat="43.61873" lon="1.25407">
        <ele>174</ele>
        <time>2023-04-04T15:02:11Z</time>
      </trkpt>
      <trkpt lat="43.61876" lon="1.2539">
        <ele>174.8</ele>
        <time>2023-04-04T15:02:16Z</time>
      </trkpt>
      <trkpt lat="43.61878" lon="1.25379">
        <ele>175.6</ele>
        <time>2023-04-04T15:02:19Z</time>
      </trkpt>
      <trkpt lat="43.6188" lon="1.25372">
        <ele>176</ele>
        <time>2023-04-04T15:02:21Z</time>
      </trkpt>
      <trkpt lat="43.61882" lon="1.25358">
        <ele>176.6</ele>
        <time>2023-04-04T15:02:25Z</time>
      </trkpt>
      <trkpt lat="43.61884" lon="1.25349">
        <ele>177.2</ele>
        <time>2023-04-04T15:02:28Z</time>
      </trkpt>
      <trkpt lat="43.61887" lon="1.25334">
        <ele>177.8</ele>
        <time>2023-04-04T15:02:33Z</time>
      </trkpt>
      <trkpt lat="43.61888" lon="1.25332">
        <ele>178</ele>
        <time>2023-04-04T15:02:34Z</time>
      </trkpt>
      <trkpt lat="43.61892" lon="1.2533">
        <ele>178.4</ele>
        <time>2023-04-04T15:02:36Z</time>
      </trkpt>
      <trkpt lat="43.619" lon="1.25328">
        <ele>179</ele>
        <time>2023-04-04T15:02:39Z</time>
      </trkpt>
      <trkpt lat="43.61903" lon="1.25323">
        <ele>179.4</ele>
        <time>2023-04-04T15:02:41Z</time>
      </trkpt>
      <trkpt lat="43.61914" lon="1.25307">
        <ele>180.4</ele>
        <time>2023-04-04T15:02:46Z</time>
      </trkpt>
      <trkpt lat="43.61916" lon="1.25304">
        <ele>180.6</ele>
        <time>2023-04-04T15:02:47Z</time>
      </trkpt>
      <trkpt lat="43.61938" lon="1.25272">
        <ele>181.6</ele>
        <time>2023-04-04T15:02:55Z</time>
      </trkpt>
      <trkpt lat="43.61964" lon="1.25229">
        <ele>182.6</ele>
        <time>2023-04-04T15:03:05Z</time>
      </trkpt>
      <trkpt lat="43.61967" lon="1.25225">
        <ele>182.6</ele>
        <time>2023-04-04T15:03:06Z</time>
      </trkpt>
      <trkpt lat="43.61982" lon="1.25199">
        <ele>182.8</ele>
        <time>2023-04-04T15:03:12Z</time>
      </trkpt>
      <trkpt lat="43.62006" lon="1.25167">
        <ele>182.8</ele>
        <time>2023-04-04T15:03:19Z</time>
      </trkpt>
      <trkpt lat="43.62043" lon="1.25131">
        <ele>182.6</ele>
        <time>2023-04-04T15:03:28Z</time>
      </trkpt>
      <trkpt lat="43.6209" lon="1.25084">
        <ele>182.6</ele>
        <time>2023-04-04T15:03:39Z</time>
      </trkpt>
      <trkpt lat="43.62119" lon="1.25057">
        <ele>181.8</ele>
        <time>2023-04-04T15:03:46Z</time>
      </trkpt>
      <trkpt lat="43.62123" lon="1.25055">
        <ele>181.6</ele>
        <time>2023-04-04T15:03:47Z</time>
      </trkpt>
      <trkpt lat="43.62129" lon="1.25048">
        <ele>181.4</ele>
        <time>2023-04-04T15:03:49Z</time>
      </trkpt>
      <trkpt lat="43.62136" lon="1.25041">
        <ele>181.2</ele>
        <time>2023-04-04T15:03:51Z</time>
      </trkpt>
      <trkpt lat="43.62162" lon="1.25016">
        <ele>181</ele>
        <time>2023-04-04T15:03:57Z</time>
      </trkpt>
      <trkpt lat="43.62204" lon="1.24973">
        <ele>181.4</ele>
        <time>2023-04-04T15:04:07Z</time>
      </trkpt>
      <trkpt lat="43.62242" lon="1.24927">
        <ele>181.8</ele>
        <time>2023-04-04T15:04:16Z</time>
      </trkpt>
      <trkpt lat="43.62268" lon="1.24879">
        <ele>182.4</ele>
        <time>2023-04-04T15:04:24Z</time>
      </trkpt>
      <trkpt lat="43.62286" lon="1.24839">
        <ele>182.6</ele>
        <time>2023-04-04T15:04:30Z</time>
      </trkpt>
      <trkpt lat="43.62293" lon="1.24817">
        <ele>182.6</ele>
        <time>2023-04-04T15:04:33Z</time>
      </trkpt>
      <trkpt lat="43.62315" lon="1.24746">
        <ele>182.4</ele>
        <time>2023-04-04T15:04:43Z</time>
      </trkpt>
      <trkpt lat="43.6233" lon="1.24708">
        <ele>182.6</ele>
        <time>2023-04-04T15:04:49Z</time>
      </trkpt>
      <trkpt lat="43.62331" lon="1.24696">
        <ele>182.6</ele>
        <time>2023-04-04T15:04:51Z</time>
      </trkpt>
      <trkpt lat="43.62324" lon="1.24686">
        <ele>182.8</ele>
        <time>2023-04-04T15:04:54Z</time>
      </trkpt>
      <trkpt lat="43.62321" lon="1.24682">
        <ele>183</ele>
        <time>2023-04-04T15:04:58Z</time>
      </trkpt>
      <trkpt lat="43.62321" lon="1.24682">
        <ele>183</ele>
        <time>2023-04-04T15:04:59Z</time>
      </trkpt>
      <trkpt lat="43.6232" lon="1.2468">
        <ele>182.6</ele>
        <time>2023-04-04T15:05:27Z</time>
      </trkpt>
      <trkpt lat="43.62318" lon="1.24679">
        <ele>182.6</ele>
        <time>2023-04-04T15:05:28Z</time>
      </trkpt>
      <trkpt lat="43.62316" lon="1.24678">
        <ele>182.6</ele>
        <time>2023-04-04T15:05:29Z</time>
      </trkpt>
      <trkpt lat="43.62314" lon="1.24677">
        <ele>182.4</ele>
        <time>2023-04-04T15:05:32Z</time>
      </trkpt>
      <trkpt lat="43.62316" lon="1.24673">
        <ele>183</ele>
        <time>2023-04-04T15:06:18Z</time>
      </trkpt>
      <trkpt lat="43.62326" lon="1.24662">
        <ele>183</ele>
        <time>2023-04-04T15:06:25Z</time>
      </trkpt>
      <trkpt lat="43.62327" lon="1.2466">
        <ele>182.8</ele>
        <time>2023-04-04T15:06:27Z</time>
      </trkpt>
      <trkpt lat="43.6233" lon="1.24659">
        <ele>182.8</ele>
        <time>2023-04-04T15:06:30Z</time>
      </trkpt>
      <trkpt lat="43.6234" lon="1.24654">
        <ele>182.8</ele>
        <time>2023-04-04T15:06:34Z</time>
      </trkpt>
      <trkpt lat="43.62358" lon="1.24633">
        <ele>182.8</ele>
        <time>2023-04-04T15:06:39Z</time>
      </trkpt>
      <trkpt lat="43.62384" lon="1.246">
        <ele>183</ele>
        <time>2023-04-04T15:06:46Z</time>
      </trkpt>
      <trkpt lat="43.62387" lon="1.24596">
        <ele>183</ele>
        <time>2023-04-04T15:06:47Z</time>
      </trkpt>
      <trkpt lat="43.62389" lon="1.24588">
        <ele>183.2</ele>
        <time>2023-04-04T15:06:49Z</time>
      </trkpt>
      <trkpt lat="43.62387" lon="1.24578">
        <ele>183.2</ele>
        <time>2023-04-04T15:06:53Z</time>
      </trkpt>
      <trkpt lat="43.6239" lon="1.24565">
        <ele>183.2</ele>
        <time>2023-04-04T15:06:58Z</time>
      </trkpt>
      <trkpt lat="43.62399" lon="1.24544">
        <ele>182.8</ele>
        <time>2023-04-04T15:07:05Z</time>
      </trkpt>
      <trkpt lat="43.62404" lon="1.24525">
        <ele>182.6</ele>
        <time>2023-04-04T15:07:10Z</time>
      </trkpt>
      <trkpt lat="43.62402" lon="1.24521">
        <ele>182.6</ele>
        <time>2023-04-04T15:07:11Z</time>
      </trkpt>
      <trkpt lat="43.62396" lon="1.24513">
        <ele>182.6</ele>
        <time>2023-04-04T15:07:14Z</time>
      </trkpt>
      <trkpt lat="43.62372" lon="1.245">
        <ele>182.6</ele>
        <time>2023-04-04T15:07:22Z</time>
      </trkpt>
      <trkpt lat="43.62359" lon="1.24494">
        <ele>182.8</ele>
        <time>2023-04-04T15:07:27Z</time>
      </trkpt>
      <trkpt lat="43.62358" lon="1.24491">
        <ele>182.8</ele>
        <time>2023-04-04T15:07:28Z</time>
      </trkpt>
      <trkpt lat="43.62357" lon="1.24489">
        <ele>182.8</ele>
        <time>2023-04-04T15:07:29Z</time>
      </trkpt>
      <trkpt lat="43.62359" lon="1.24476">
        <ele>182.8</ele>
        <time>2023-04-04T15:07:33Z</time>
      </trkpt>
      <trkpt lat="43.62367" lon="1.24437">
        <ele>183.4</ele>
        <time>2023-04-04T15:07:42Z</time>
      </trkpt>
      <trkpt lat="43.62375" lon="1.24399">
        <ele>184</ele>
        <time>2023-04-04T15:07:50Z</time>
      </trkpt>
      <trkpt lat="43.6238" lon="1.24372">
        <ele>184.2</ele>
        <time>2023-04-04T15:07:56Z</time>
      </trkpt>
      <trkpt lat="43.62387" lon="1.24334">
        <ele>184.2</ele>
        <time>2023-04-04T15:08:05Z</time>
      </trkpt>
      <trkpt lat="43.62394" lon="1.243">
        <ele>184.8</ele>
        <time>2023-04-04T15:08:13Z</time>
      </trkpt>
      <trkpt lat="43.62399" lon="1.24269">
        <ele>185.2</ele>
        <time>2023-04-04T15:08:20Z</time>
      </trkpt>
      <trkpt lat="43.62401" lon="1.2426">
        <ele>185</ele>
        <time>2023-04-04T15:08:22Z</time>
      </trkpt>
      <trkpt lat="43.62405" lon="1.24239">
        <ele>184.2</ele>
        <time>2023-04-04T15:08:27Z</time>
      </trkpt>
      <trkpt lat="43.6241" lon="1.24216">
        <ele>184</ele>
        <time>2023-04-04T15:08:32Z</time>
      </trkpt>
      <trkpt lat="43.62418" lon="1.24171">
        <ele>184.4</ele>
        <time>2023-04-04T15:08:42Z</time>
      </trkpt>
      <trkpt lat="43.62425" lon="1.24141">
        <ele>184</ele>
        <time>2023-04-04T15:08:49Z</time>
      </trkpt>
      <trkpt lat="43.62436" lon="1.2409">
        <ele>183.2</ele>
        <time>2023-04-04T15:09:00Z</time>
      </trkpt>
      <trkpt lat="43.62438" lon="1.24076">
        <ele>183.8</ele>
        <time>2023-04-04T15:09:04Z</time>
      </trkpt>
      <trkpt lat="43.62438" lon="1.24075">
        <ele>183.6</ele>
        <time>2023-04-04T15:09:05Z</time>
      </trkpt>
      <trkpt lat="43.62438" lon="1.24075">
        <ele>183.6</ele>
        <time>2023-04-04T15:09:07Z</time>
      </trkpt>
      <trkpt lat="43.62439" lon="1.24069">
        <ele>183.2</ele>
        <time>2023-04-04T15:09:13Z</time>
      </trkpt>
      <trkpt lat="43.6244" lon="1.24063">
        <ele>183.2</ele>
        <time>2023-04-04T15:09:15Z</time>
      </trkpt>
      <trkpt lat="43.62441" lon="1.24059">
        <ele>183</ele>
        <time>2023-04-04T15:09:17Z</time>
      </trkpt>
      <trkpt lat="43.62442" lon="1.24057">
        <ele>183</ele>
        <time>2023-04-04T15:09:18Z</time>
      </trkpt>
      <trkpt lat="43.62442" lon="1.24052">
        <ele>183</ele>
        <time>2023-04-04T15:09:20Z</time>
      </trkpt>
      <trkpt lat="43.62446" lon="1.24032">
        <ele>183.6</ele>
        <time>2023-04-04T15:09:25Z</time>
      </trkpt>
      <trkpt lat="43.62453" lon="1.24005">
        <ele>183.8</ele>
        <time>2023-04-04T15:09:31Z</time>
      </trkpt>
      <trkpt lat="43.62454" lon="1.23995">
        <ele>184</ele>
        <time>2023-04-04T15:09:33Z</time>
      </trkpt>
      <trkpt lat="43.62462" lon="1.23956">
        <ele>184</ele>
        <time>2023-04-04T15:09:41Z</time>
      </trkpt>
      <trkpt lat="43.6247" lon="1.23912">
        <ele>184</ele>
        <time>2023-04-04T15:09:49Z</time>
      </trkpt>
      <trkpt lat="43.62479" lon="1.23864">
        <ele>184.8</ele>
        <time>2023-04-04T15:09:57Z</time>
      </trkpt>
      <trkpt lat="43.62481" lon="1.23859">
        <ele>184.8</ele>
        <time>2023-04-04T15:09:58Z</time>
      </trkpt>
      <trkpt lat="43.62483" lon="1.23847">
        <ele>184.6</ele>
        <time>2023-04-04T15:10:00Z</time>
      </trkpt>
      <trkpt lat="43.62488" lon="1.23824">
        <ele>184.6</ele>
        <time>2023-04-04T15:10:04Z</time>
      </trkpt>
      <trkpt lat="43.62499" lon="1.23775">
        <ele>184</ele>
        <time>2023-04-04T15:10:13Z</time>
      </trkpt>
      <trkpt lat="43.62502" lon="1.23758">
        <ele>184</ele>
        <time>2023-04-04T15:10:16Z</time>
      </trkpt>
      <trkpt lat="43.62508" lon="1.23734">
        <ele>183.8</ele>
        <time>2023-04-04T15:10:20Z</time>
      </trkpt>
      <trkpt lat="43.62517" lon="1.23678">
        <ele>184.2</ele>
        <time>2023-04-04T15:10:29Z</time>
      </trkpt>
      <trkpt lat="43.62525" lon="1.23629">
        <ele>184.6</ele>
        <time>2023-04-04T15:10:37Z</time>
      </trkpt>
      <trkpt lat="43.62533" lon="1.23589">
        <ele>185</ele>
        <time>2023-04-04T15:10:45Z</time>
      </trkpt>
      <trkpt lat="43.62533" lon="1.23578">
        <ele>184.8</ele>
        <time>2023-04-04T15:10:50Z</time>
      </trkpt>
      <trkpt lat="43.62533" lon="1.23578">
        <ele>184.8</ele>
        <time>2023-04-04T15:10:51Z</time>
      </trkpt>
      <trkpt lat="43.62535" lon="1.23576">
        <ele>184.4</ele>
        <time>2023-04-04T15:11:13Z</time>
      </trkpt>
      <trkpt lat="43.62541" lon="1.23574">
        <ele>184.4</ele>
        <time>2023-04-04T15:11:15Z</time>
      </trkpt>
      <trkpt lat="43.6256" lon="1.23564">
        <ele>184.6</ele>
        <time>2023-04-04T15:11:20Z</time>
      </trkpt>
      <trkpt lat="43.62568" lon="1.23558">
        <ele>184.8</ele>
        <time>2023-04-04T15:11:22Z</time>
      </trkpt>
      <trkpt lat="43.62576" lon="1.23555">
        <ele>185</ele>
        <time>2023-04-04T15:11:24Z</time>
      </trkpt>
      <trkpt lat="43.62586" lon="1.23548">
        <ele>185.2</ele>
        <time>2023-04-04T15:11:27Z</time>
      </trkpt>
      <trkpt lat="43.62588" lon="1.23543">
        <ele>185.2</ele>
        <time>2023-04-04T15:11:28Z</time>
      </trkpt>
      <trkpt lat="43.62596" lon="1.23521">
        <ele>185.4</ele>
        <time>2023-04-04T15:11:33Z</time>
      </trkpt>
      <trkpt lat="43.62601" lon="1.23512">
        <ele>185.6</ele>
        <time>2023-04-04T15:11:35Z</time>
      </trkpt>
      <trkpt lat="43.62614" lon="1.2348">
        <ele>186.6</ele>
        <time>2023-04-04T15:11:41Z</time>
      </trkpt>
      <trkpt lat="43.62624" lon="1.23453">
        <ele>187.6</ele>
        <time>2023-04-04T15:11:46Z</time>
      </trkpt>
      <trkpt lat="43.62632" lon="1.23431">
        <ele>188.2</ele>
        <time>2023-04-04T15:11:50Z</time>
      </trkpt>
      <trkpt lat="43.62648" lon="1.23389">
        <ele>188.6</ele>
        <time>2023-04-04T15:11:58Z</time>
      </trkpt>
      <trkpt lat="43.62653" lon="1.23374">
        <ele>188.8</ele>
        <time>2023-04-04T15:12:01Z</time>
      </trkpt>
      <trkpt lat="43.62667" lon="1.23335">
        <ele>189.4</ele>
        <time>2023-04-04T15:12:09Z</time>
      </trkpt>
      <trkpt lat="43.62671" lon="1.23327">
        <ele>189.6</ele>
        <time>2023-04-04T15:12:11Z</time>
      </trkpt>
      <trkpt lat="43.62685" lon="1.23292">
        <ele>190.8</ele>
        <time>2023-04-04T15:12:19Z</time>
      </trkpt>
      <trkpt lat="43.62686" lon="1.23288">
        <ele>190.8</ele>
        <time>2023-04-04T15:12:20Z</time>
      </trkpt>
      <trkpt lat="43.62695" lon="1.23261">
        <ele>192.2</ele>
        <time>2023-04-04T15:12:27Z</time>
      </trkpt>
      <trkpt lat="43.62696" lon="1.23258">
        <ele>192.4</ele>
        <time>2023-04-04T15:12:28Z</time>
      </trkpt>
      <trkpt lat="43.62699" lon="1.23244">
        <ele>193.4</ele>
        <time>2023-04-04T15:12:32Z</time>
      </trkpt>
      <trkpt lat="43.627" lon="1.23232">
        <ele>194</ele>
        <time>2023-04-04T15:12:36Z</time>
      </trkpt>
      <trkpt lat="43.62702" lon="1.23224">
        <ele>194.4</ele>
        <time>2023-04-04T15:12:39Z</time>
      </trkpt>
      <trkpt lat="43.62704" lon="1.23217">
        <ele>195.2</ele>
        <time>2023-04-04T15:12:42Z</time>
      </trkpt>
      <trkpt lat="43.62704" lon="1.23215">
        <ele>195.6</ele>
        <time>2023-04-04T15:12:43Z</time>
      </trkpt>
      <trkpt lat="43.62704" lon="1.23207">
        <ele>196.4</ele>
        <time>2023-04-04T15:12:46Z</time>
      </trkpt>
      <trkpt lat="43.62707" lon="1.23202">
        <ele>196.8</ele>
        <time>2023-04-04T15:12:48Z</time>
      </trkpt>
      <trkpt lat="43.62709" lon="1.23192">
        <ele>197.8</ele>
        <time>2023-04-04T15:12:52Z</time>
      </trkpt>
      <trkpt lat="43.6271" lon="1.23189">
        <ele>198.4</ele>
        <time>2023-04-04T15:12:53Z</time>
      </trkpt>
      <trkpt lat="43.62711" lon="1.23185">
        <ele>199.2</ele>
        <time>2023-04-04T15:12:55Z</time>
      </trkpt>
      <trkpt lat="43.62712" lon="1.23182">
        <ele>199.4</ele>
        <time>2023-04-04T15:12:56Z</time>
      </trkpt>
      <trkpt lat="43.62713" lon="1.23175">
        <ele>200</ele>
        <time>2023-04-04T15:12:59Z</time>
      </trkpt>
      <trkpt lat="43.62714" lon="1.23172">
        <ele>200.2</ele>
        <time>2023-04-04T15:13:00Z</time>
      </trkpt>
      <trkpt lat="43.62718" lon="1.2316">
        <ele>201.6</ele>
        <time>2023-04-04T15:13:05Z</time>
      </trkpt>
      <trkpt lat="43.62719" lon="1.23153">
        <ele>202</ele>
        <time>2023-04-04T15:13:07Z</time>
      </trkpt>
      <trkpt lat="43.6272" lon="1.23147">
        <ele>203</ele>
        <time>2023-04-04T15:13:09Z</time>
      </trkpt>
      <trkpt lat="43.6272" lon="1.23144">
        <ele>203.2</ele>
        <time>2023-04-04T15:13:10Z</time>
      </trkpt>
      <trkpt lat="43.62721" lon="1.2314">
        <ele>203.6</ele>
        <time>2023-04-04T15:13:12Z</time>
      </trkpt>
      <trkpt lat="43.62722" lon="1.23138">
        <ele>204</ele>
        <time>2023-04-04T15:13:16Z</time>
      </trkpt>
      <trkpt lat="43.62723" lon="1.23132">
        <ele>204.4</ele>
        <time>2023-04-04T15:13:32Z</time>
      </trkpt>
      <trkpt lat="43.62723" lon="1.23122">
        <ele>204.8</ele>
        <time>2023-04-04T15:13:36Z</time>
      </trkpt>
      <trkpt lat="43.62724" lon="1.23116">
        <ele>205</ele>
        <time>2023-04-04T15:13:38Z</time>
      </trkpt>
      <trkpt lat="43.62724" lon="1.2311">
        <ele>205.2</ele>
        <time>2023-04-04T15:13:40Z</time>
      </trkpt>
      <trkpt lat="43.62725" lon="1.23098">
        <ele>206</ele>
        <time>2023-04-04T15:13:44Z</time>
      </trkpt>
      <trkpt lat="43.62726" lon="1.23095">
        <ele>206.2</ele>
        <time>2023-04-04T15:13:45Z</time>
      </trkpt>
      <trkpt lat="43.62727" lon="1.23084">
        <ele>207.2</ele>
        <time>2023-04-04T15:13:48Z</time>
      </trkpt>
      <trkpt lat="43.62727" lon="1.23081">
        <ele>207.4</ele>
        <time>2023-04-04T15:13:49Z</time>
      </trkpt>
      <trkpt lat="43.62729" lon="1.2306">
        <ele>208.6</ele>
        <time>2023-04-04T15:13:54Z</time>
      </trkpt>
      <trkpt lat="43.6273" lon="1.23047">
        <ele>209.4</ele>
        <time>2023-04-04T15:13:57Z</time>
      </trkpt>
      <trkpt lat="43.62731" lon="1.23037">
        <ele>209.8</ele>
        <time>2023-04-04T15:13:59Z</time>
      </trkpt>
      <trkpt lat="43.62731" lon="1.23015">
        <ele>210.6</ele>
        <time>2023-04-04T15:14:04Z</time>
      </trkpt>
      <trkpt lat="43.6273" lon="1.23006">
        <ele>210.8</ele>
        <time>2023-04-04T15:14:06Z</time>
      </trkpt>
      <trkpt lat="43.62727" lon="1.22984">
        <ele>211.6</ele>
        <time>2023-04-04T15:14:11Z</time>
      </trkpt>
      <trkpt lat="43.62726" lon="1.22979">
        <ele>212</ele>
        <time>2023-04-04T15:14:12Z</time>
      </trkpt>
      <trkpt lat="43.62722" lon="1.22963">
        <ele>212.8</ele>
        <time>2023-04-04T15:14:16Z</time>
      </trkpt>
      <trkpt lat="43.62719" lon="1.22949">
        <ele>213</ele>
        <time>2023-04-04T15:14:19Z</time>
      </trkpt>
      <trkpt lat="43.62717" lon="1.22932">
        <ele>213.6</ele>
        <time>2023-04-04T15:14:23Z</time>
      </trkpt>
      <trkpt lat="43.6272" lon="1.22912">
        <ele>214.2</ele>
        <time>2023-04-04T15:14:28Z</time>
      </trkpt>
      <trkpt lat="43.62721" lon="1.22909">
        <ele>214.4</ele>
        <time>2023-04-04T15:14:29Z</time>
      </trkpt>
      <trkpt lat="43.6273" lon="1.2289">
        <ele>215.2</ele>
        <time>2023-04-04T15:14:35Z</time>
      </trkpt>
      <trkpt lat="43.62733" lon="1.22885">
        <ele>215.6</ele>
        <time>2023-04-04T15:14:37Z</time>
      </trkpt>
      <trkpt lat="43.62734" lon="1.22883">
        <ele>216</ele>
        <time>2023-04-04T15:14:38Z</time>
      </trkpt>
      <trkpt lat="43.62735" lon="1.22878">
        <ele>216.2</ele>
        <time>2023-04-04T15:14:40Z</time>
      </trkpt>
      <trkpt lat="43.62735" lon="1.22875">
        <ele>216.4</ele>
        <time>2023-04-04T15:14:41Z</time>
      </trkpt>
      <trkpt lat="43.62734" lon="1.22871">
        <ele>216.6</ele>
        <time>2023-04-04T15:14:43Z</time>
      </trkpt>
      <trkpt lat="43.6273" lon="1.22866">
        <ele>217</ele>
        <time>2023-04-04T15:14:45Z</time>
      </trkpt>
      <trkpt lat="43.62727" lon="1.2286">
        <ele>217.2</ele>
        <time>2023-04-04T15:14:47Z</time>
      </trkpt>
      <trkpt lat="43.62714" lon="1.22842">
        <ele>217.8</ele>
        <time>2023-04-04T15:14:53Z</time>
      </trkpt>
      <trkpt lat="43.62708" lon="1.22831">
        <ele>218.2</ele>
        <time>2023-04-04T15:14:56Z</time>
      </trkpt>
      <trkpt lat="43.627" lon="1.22811">
        <ele>218.6</ele>
        <time>2023-04-04T15:15:00Z</time>
      </trkpt>
      <trkpt lat="43.62683" lon="1.22776">
        <ele>219</ele>
        <time>2023-04-04T15:15:07Z</time>
      </trkpt>
      <trkpt lat="43.62674" lon="1.22756">
        <ele>219</ele>
        <time>2023-04-04T15:15:12Z</time>
      </trkpt>
      <trkpt lat="43.62669" lon="1.22734">
        <ele>218.6</ele>
        <time>2023-04-04T15:15:18Z</time>
      </trkpt>
      <trkpt lat="43.62668" lon="1.22728">
        <ele>217.6</ele>
        <time>2023-04-04T15:15:23Z</time>
      </trkpt>
      <trkpt lat="43.62667" lon="1.22723">
        <ele>216.4</ele>
        <time>2023-04-04T15:15:43Z</time>
      </trkpt>
      <trkpt lat="43.62666" lon="1.22714">
        <ele>216.4</ele>
        <time>2023-04-04T15:15:45Z</time>
      </trkpt>
      <trkpt lat="43.62666" lon="1.2268">
        <ele>215.6</ele>
        <time>2023-04-04T15:15:51Z</time>
      </trkpt>
      <trkpt lat="43.62667" lon="1.22673">
        <ele>215.2</ele>
        <time>2023-04-04T15:15:53Z</time>
      </trkpt>
      <trkpt lat="43.62667" lon="1.22669">
        <ele>214.8</ele>
        <time>2023-04-04T15:15:55Z</time>
      </trkpt>
      <trkpt lat="43.6267" lon="1.22662">
        <ele>214.8</ele>
        <time>2023-04-04T15:16:00Z</time>
      </trkpt>
      <trkpt lat="43.62673" lon="1.22657">
        <ele>214.6</ele>
        <time>2023-04-04T15:16:02Z</time>
      </trkpt>
      <trkpt lat="43.62676" lon="1.22652">
        <ele>214.8</ele>
        <time>2023-04-04T15:16:04Z</time>
      </trkpt>
      <trkpt lat="43.62678" lon="1.22643">
        <ele>214.4</ele>
        <time>2023-04-04T15:16:08Z</time>
      </trkpt>
      <trkpt lat="43.62678" lon="1.22643">
        <ele>214.2</ele>
        <time>2023-04-04T15:16:09Z</time>
      </trkpt>
      <trkpt lat="43.62679" lon="1.22637">
        <ele>212.6</ele>
        <time>2023-04-04T15:16:20Z</time>
      </trkpt>
      <trkpt lat="43.62683" lon="1.22635">
        <ele>212.6</ele>
        <time>2023-04-04T15:16:22Z</time>
      </trkpt>
      <trkpt lat="43.62684" lon="1.22637">
        <ele>212.6</ele>
        <time>2023-04-04T15:16:23Z</time>
      </trkpt>
      <trkpt lat="43.62689" lon="1.22645">
        <ele>212.8</ele>
        <time>2023-04-04T15:16:26Z</time>
      </trkpt>
      <trkpt lat="43.62707" lon="1.22661">
        <ele>213.4</ele>
        <time>2023-04-04T15:16:32Z</time>
      </trkpt>
      <trkpt lat="43.62714" lon="1.22667">
        <ele>213.6</ele>
        <time>2023-04-04T15:16:34Z</time>
      </trkpt>
      <trkpt lat="43.62736" lon="1.22684">
        <ele>214</ele>
        <time>2023-04-04T15:16:40Z</time>
      </trkpt>
      <trkpt lat="43.62752" lon="1.22697">
        <ele>213.2</ele>
        <time>2023-04-04T15:16:44Z</time>
      </trkpt>
      <trkpt lat="43.62756" lon="1.22699">
        <ele>212.6</ele>
        <time>2023-04-04T15:16:45Z</time>
      </trkpt>
      <trkpt lat="43.6276" lon="1.22701">
        <ele>212.2</ele>
        <time>2023-04-04T15:16:46Z</time>
      </trkpt>
      <trkpt lat="43.62766" lon="1.22705">
        <ele>211.2</ele>
        <time>2023-04-04T15:16:48Z</time>
      </trkpt>
      <trkpt lat="43.62769" lon="1.2271">
        <ele>210.8</ele>
        <time>2023-04-04T15:16:50Z</time>
      </trkpt>
      <trkpt lat="43.6277" lon="1.22713">
        <ele>210.8</ele>
        <time>2023-04-04T15:16:51Z</time>
      </trkpt>
      <trkpt lat="43.62768" lon="1.22724">
        <ele>210.4</ele>
        <time>2023-04-04T15:16:54Z</time>
      </trkpt>
      <trkpt lat="43.62763" lon="1.22735">
        <ele>210.4</ele>
        <time>2023-04-04T15:16:58Z</time>
      </trkpt>
      <trkpt lat="43.62754" lon="1.22747">
        <ele>211.4</ele>
        <time>2023-04-04T15:17:04Z</time>
      </trkpt>
      <trkpt lat="43.6275" lon="1.22756">
        <ele>212.4</ele>
        <time>2023-04-04T15:17:08Z</time>
      </trkpt>
      <trkpt lat="43.62746" lon="1.22761">
        <ele>213.4</ele>
        <time>2023-04-04T15:17:11Z</time>
      </trkpt>
      <trkpt lat="43.62746" lon="1.22761">
        <ele>213.6</ele>
        <time>2023-04-04T15:17:12Z</time>
      </trkpt>
      <trkpt lat="43.62746" lon="1.22761">
        <ele>214.2</ele>
        <time>2023-04-04T15:17:14Z</time>
      </trkpt>
      <trkpt lat="43.62739" lon="1.22783">
        <ele>216</ele>
        <time>2023-04-04T15:17:35Z</time>
      </trkpt>
      <trkpt lat="43.62741" lon="1.22786">
        <ele>216</ele>
        <time>2023-04-04T15:17:36Z</time>
      </trkpt>
      <trkpt lat="43.6275" lon="1.228">
        <ele>216.2</ele>
        <time>2023-04-04T15:17:41Z</time>
      </trkpt>
      <trkpt lat="43.62754" lon="1.22806">
        <ele>216.2</ele>
        <time>2023-04-04T15:17:43Z</time>
      </trkpt>
      <trkpt lat="43.62759" lon="1.22816">
        <ele>216.2</ele>
        <time>2023-04-04T15:17:46Z</time>
      </trkpt>
      <trkpt lat="43.62768" lon="1.22823">
        <ele>216.2</ele>
        <time>2023-04-04T15:17:50Z</time>
      </trkpt>
      <trkpt lat="43.62776" lon="1.22824">
        <ele>216</ele>
        <time>2023-04-04T15:17:53Z</time>
      </trkpt>
      <trkpt lat="43.62778" lon="1.22822">
        <ele>215.8</ele>
        <time>2023-04-04T15:17:54Z</time>
      </trkpt>
      <trkpt lat="43.62791" lon="1.2281">
        <ele>215.2</ele>
        <time>2023-04-04T15:17:59Z</time>
      </trkpt>
      <trkpt lat="43.62793" lon="1.22809">
        <ele>214.8</ele>
        <time>2023-04-04T15:18:00Z</time>
      </trkpt>
      <trkpt lat="43.62798" lon="1.22806">
        <ele>214</ele>
        <time>2023-04-04T15:18:03Z</time>
      </trkpt>
      <trkpt lat="43.62798" lon="1.22805">
        <ele>213.6</ele>
        <time>2023-04-04T15:18:04Z</time>
      </trkpt>
      <trkpt lat="43.62799" lon="1.22805">
        <ele>212.8</ele>
        <time>2023-04-04T15:18:06Z</time>
      </trkpt>
      <trkpt lat="43.62793" lon="1.22809">
        <ele>211.8</ele>
        <time>2023-04-04T15:18:15Z</time>
      </trkpt>
      <trkpt lat="43.62791" lon="1.22811">
        <ele>211.8</ele>
        <time>2023-04-04T15:18:16Z</time>
      </trkpt>
      <trkpt lat="43.62782" lon="1.22823">
        <ele>212.6</ele>
        <time>2023-04-04T15:18:22Z</time>
      </trkpt>
      <trkpt lat="43.6278" lon="1.22825">
        <ele>213.2</ele>
        <time>2023-04-04T15:18:23Z</time>
      </trkpt>
      <trkpt lat="43.62768" lon="1.22825">
        <ele>214.4</ele>
        <time>2023-04-04T15:18:28Z</time>
      </trkpt>
      <trkpt lat="43.62762" lon="1.2282">
        <ele>214.8</ele>
        <time>2023-04-04T15:18:31Z</time>
      </trkpt>
      <trkpt lat="43.62756" lon="1.2281">
        <ele>215.2</ele>
        <time>2023-04-04T15:18:34Z</time>
      </trkpt>
      <trkpt lat="43.62741" lon="1.22794">
        <ele>216</ele>
        <time>2023-04-04T15:18:41Z</time>
      </trkpt>
      <trkpt lat="43.62734" lon="1.22796">
        <ele>216.4</ele>
        <time>2023-04-04T15:18:44Z</time>
      </trkpt>
      <trkpt lat="43.62732" lon="1.22798">
        <ele>216.4</ele>
        <time>2023-04-04T15:18:45Z</time>
      </trkpt>
      <trkpt lat="43.62716" lon="1.22804">
        <ele>217.4</ele>
        <time>2023-04-04T15:18:51Z</time>
      </trkpt>
      <trkpt lat="43.62705" lon="1.22818">
        <ele>218</ele>
        <time>2023-04-04T15:18:56Z</time>
      </trkpt>
      <trkpt lat="43.62713" lon="1.22836">
        <ele>218.4</ele>
        <time>2023-04-04T15:19:00Z</time>
      </trkpt>
      <trkpt lat="43.62716" lon="1.2284">
        <ele>218.4</ele>
        <time>2023-04-04T15:19:01Z</time>
      </trkpt>
      <trkpt lat="43.62739" lon="1.22872">
        <ele>218.4</ele>
        <time>2023-04-04T15:19:08Z</time>
      </trkpt>
      <trkpt lat="43.62743" lon="1.22875">
        <ele>218.4</ele>
        <time>2023-04-04T15:19:09Z</time>
      </trkpt>
      <trkpt lat="43.62753" lon="1.22886">
        <ele>218.2</ele>
        <time>2023-04-04T15:19:12Z</time>
      </trkpt>
      <trkpt lat="43.62757" lon="1.2289">
        <ele>218</ele>
        <time>2023-04-04T15:19:13Z</time>
      </trkpt>
      <trkpt lat="43.6279" lon="1.22925">
        <ele>217.8</ele>
        <time>2023-04-04T15:19:21Z</time>
      </trkpt>
      <trkpt lat="43.6281" lon="1.22957">
        <ele>217.8</ele>
        <time>2023-04-04T15:19:28Z</time>
      </trkpt>
      <trkpt lat="43.62825" lon="1.22983">
        <ele>217.8</ele>
        <time>2023-04-04T15:19:34Z</time>
      </trkpt>
      <trkpt lat="43.62842" lon="1.23014">
        <ele>218</ele>
        <time>2023-04-04T15:19:40Z</time>
      </trkpt>
      <trkpt lat="43.62851" lon="1.23032">
        <ele>218</ele>
        <time>2023-04-04T15:19:43Z</time>
      </trkpt>
      <trkpt lat="43.62857" lon="1.23045">
        <ele>218</ele>
        <time>2023-04-04T15:19:45Z</time>
      </trkpt>
      <trkpt lat="43.62861" lon="1.2305">
        <ele>218</ele>
        <time>2023-04-04T15:19:46Z</time>
      </trkpt>
      <trkpt lat="43.62879" lon="1.23078">
        <ele>218.6</ele>
        <time>2023-04-04T15:19:51Z</time>
      </trkpt>
      <trkpt lat="43.62883" lon="1.23083">
        <ele>218.6</ele>
        <time>2023-04-04T15:19:52Z</time>
      </trkpt>
      <trkpt lat="43.62896" lon="1.23096">
        <ele>218.6</ele>
        <time>2023-04-04T15:19:55Z</time>
      </trkpt>
      <trkpt lat="43.62906" lon="1.23102">
        <ele>218.6</ele>
        <time>2023-04-04T15:19:57Z</time>
      </trkpt>
      <trkpt lat="43.6294" lon="1.23115">
        <ele>219.2</ele>
        <time>2023-04-04T15:20:03Z</time>
      </trkpt>
      <trkpt lat="43.62982" lon="1.23136">
        <ele>219.4</ele>
        <time>2023-04-04T15:20:11Z</time>
      </trkpt>
      <trkpt lat="43.62992" lon="1.2314">
        <ele>219.4</ele>
        <time>2023-04-04T15:20:13Z</time>
      </trkpt>
      <trkpt lat="43.63001" lon="1.23139">
        <ele>219.4</ele>
        <time>2023-04-04T15:20:15Z</time>
      </trkpt>
      <trkpt lat="43.63011" lon="1.23135">
        <ele>219.4</ele>
        <time>2023-04-04T15:20:17Z</time>
      </trkpt>
      <trkpt lat="43.63021" lon="1.23128">
        <ele>219.4</ele>
        <time>2023-04-04T15:20:19Z</time>
      </trkpt>
      <trkpt lat="43.63027" lon="1.23125">
        <ele>219.4</ele>
        <time>2023-04-04T15:20:20Z</time>
      </trkpt>
      <trkpt lat="43.63045" lon="1.2312">
        <ele>219.2</ele>
        <time>2023-04-04T15:20:23Z</time>
      </trkpt>
      <trkpt lat="43.63056" lon="1.2312">
        <ele>219</ele>
        <time>2023-04-04T15:20:25Z</time>
      </trkpt>
      <trkpt lat="43.63068" lon="1.23122">
        <ele>218.8</ele>
        <time>2023-04-04T15:20:27Z</time>
      </trkpt>
      <trkpt lat="43.63078" lon="1.23127">
        <ele>218.6</ele>
        <time>2023-04-04T15:20:29Z</time>
      </trkpt>
      <trkpt lat="43.63095" lon="1.23137">
        <ele>218.6</ele>
        <time>2023-04-04T15:20:32Z</time>
      </trkpt>
      <trkpt lat="43.63107" lon="1.23144">
        <ele>218.4</ele>
        <time>2023-04-04T15:20:34Z</time>
      </trkpt>
      <trkpt lat="43.63118" lon="1.23147">
        <ele>218.2</ele>
        <time>2023-04-04T15:20:36Z</time>
      </trkpt>
      <trkpt lat="43.63128" lon="1.23147">
        <ele>218</ele>
        <time>2023-04-04T15:20:38Z</time>
      </trkpt>
      <trkpt lat="43.63135" lon="1.23149">
        <ele>217.8</ele>
        <time>2023-04-04T15:20:39Z</time>
      </trkpt>
      <trkpt lat="43.6314" lon="1.23153">
        <ele>217.6</ele>
        <time>2023-04-04T15:20:40Z</time>
      </trkpt>
      <trkpt lat="43.63146" lon="1.23158">
        <ele>217.4</ele>
        <time>2023-04-04T15:20:41Z</time>
      </trkpt>
      <trkpt lat="43.6316" lon="1.23169">
        <ele>217.2</ele>
        <time>2023-04-04T15:20:43Z</time>
      </trkpt>
      <trkpt lat="43.63168" lon="1.23176">
        <ele>216.6</ele>
        <time>2023-04-04T15:20:44Z</time>
      </trkpt>
      <trkpt lat="43.63174" lon="1.23184">
        <ele>216.4</ele>
        <time>2023-04-04T15:20:45Z</time>
      </trkpt>
      <trkpt lat="43.63181" lon="1.23193">
        <ele>215.4</ele>
        <time>2023-04-04T15:20:46Z</time>
      </trkpt>
      <trkpt lat="43.63186" lon="1.23202">
        <ele>215</ele>
        <time>2023-04-04T15:20:47Z</time>
      </trkpt>
      <trkpt lat="43.63191" lon="1.23212">
        <ele>214.4</ele>
        <time>2023-04-04T15:20:48Z</time>
      </trkpt>
      <trkpt lat="43.63195" lon="1.23223">
        <ele>214</ele>
        <time>2023-04-04T15:20:49Z</time>
      </trkpt>
      <trkpt lat="43.63199" lon="1.23236">
        <ele>213.4</ele>
        <time>2023-04-04T15:20:50Z</time>
      </trkpt>
      <trkpt lat="43.63204" lon="1.23247">
        <ele>212.4</ele>
        <time>2023-04-04T15:20:51Z</time>
      </trkpt>
      <trkpt lat="43.6321" lon="1.23258">
        <ele>212</ele>
        <time>2023-04-04T15:20:52Z</time>
      </trkpt>
      <trkpt lat="43.63218" lon="1.23267">
        <ele>211.4</ele>
        <time>2023-04-04T15:20:53Z</time>
      </trkpt>
      <trkpt lat="43.63226" lon="1.23275">
        <ele>211</ele>
        <time>2023-04-04T15:20:54Z</time>
      </trkpt>
      <trkpt lat="43.63241" lon="1.23291">
        <ele>209.8</ele>
        <time>2023-04-04T15:20:56Z</time>
      </trkpt>
      <trkpt lat="43.6326" lon="1.23312">
        <ele>208.8</ele>
        <time>2023-04-04T15:20:59Z</time>
      </trkpt>
      <trkpt lat="43.63267" lon="1.23321">
        <ele>208.2</ele>
        <time>2023-04-04T15:21:00Z</time>
      </trkpt>
      <trkpt lat="43.63281" lon="1.23337">
        <ele>207</ele>
        <time>2023-04-04T15:21:02Z</time>
      </trkpt>
      <trkpt lat="43.63294" lon="1.23351">
        <ele>205.8</ele>
        <time>2023-04-04T15:21:04Z</time>
      </trkpt>
      <trkpt lat="43.63299" lon="1.23357">
        <ele>205</ele>
        <time>2023-04-04T15:21:05Z</time>
      </trkpt>
      <trkpt lat="43.63309" lon="1.23369">
        <ele>204.4</ele>
        <time>2023-04-04T15:21:07Z</time>
      </trkpt>
      <trkpt lat="43.63332" lon="1.23392">
        <ele>203.4</ele>
        <time>2023-04-04T15:21:12Z</time>
      </trkpt>
      <trkpt lat="43.63338" lon="1.23397">
        <ele>203</ele>
        <time>2023-04-04T15:21:15Z</time>
      </trkpt>
      <trkpt lat="43.63341" lon="1.23397">
        <ele>202.8</ele>
        <time>2023-04-04T15:21:16Z</time>
      </trkpt>
      <trkpt lat="43.63348" lon="1.23391">
        <ele>202.6</ele>
        <time>2023-04-04T15:21:18Z</time>
      </trkpt>
      <trkpt lat="43.63355" lon="1.23383">
        <ele>202.4</ele>
        <time>2023-04-04T15:21:20Z</time>
      </trkpt>
      <trkpt lat="43.6337" lon="1.23361">
        <ele>202.2</ele>
        <time>2023-04-04T15:21:24Z</time>
      </trkpt>
      <trkpt lat="43.63409" lon="1.23308">
        <ele>202.2</ele>
        <time>2023-04-04T15:21:33Z</time>
      </trkpt>
      <trkpt lat="43.6345" lon="1.23248">
        <ele>201.4</ele>
        <time>2023-04-04T15:21:42Z</time>
      </trkpt>
      <trkpt lat="43.63455" lon="1.23242">
        <ele>201.2</ele>
        <time>2023-04-04T15:21:43Z</time>
      </trkpt>
      <trkpt lat="43.6346" lon="1.23235">
        <ele>201</ele>
        <time>2023-04-04T15:21:44Z</time>
      </trkpt>
      <trkpt lat="43.63469" lon="1.23221">
        <ele>200</ele>
        <time>2023-04-04T15:21:46Z</time>
      </trkpt>
      <trkpt lat="43.63489" lon="1.23192">
        <ele>199.6</ele>
        <time>2023-04-04T15:21:51Z</time>
      </trkpt>
      <trkpt lat="43.63512" lon="1.23157">
        <ele>199</ele>
        <time>2023-04-04T15:21:57Z</time>
      </trkpt>
      <trkpt lat="43.6352" lon="1.23146">
        <ele>199</ele>
        <time>2023-04-04T15:21:59Z</time>
      </trkpt>
      <trkpt lat="43.63537" lon="1.2312">
        <ele>198.6</ele>
        <time>2023-04-04T15:22:04Z</time>
      </trkpt>
      <trkpt lat="43.6354" lon="1.23115">
        <ele>198.6</ele>
        <time>2023-04-04T15:22:05Z</time>
      </trkpt>
      <trkpt lat="43.63542" lon="1.23105">
        <ele>198.4</ele>
        <time>2023-04-04T15:22:07Z</time>
      </trkpt>
      <trkpt lat="43.63539" lon="1.23097">
        <ele>198.4</ele>
        <time>2023-04-04T15:22:09Z</time>
      </trkpt>
      <trkpt lat="43.63533" lon="1.23087">
        <ele>198.2</ele>
        <time>2023-04-04T15:22:11Z</time>
      </trkpt>
      <trkpt lat="43.63526" lon="1.23079">
        <ele>197.8</ele>
        <time>2023-04-04T15:22:13Z</time>
      </trkpt>
      <trkpt lat="43.63518" lon="1.23067">
        <ele>196.8</ele>
        <time>2023-04-04T15:22:16Z</time>
      </trkpt>
      <trkpt lat="43.63515" lon="1.23064">
        <ele>196.4</ele>
        <time>2023-04-04T15:22:17Z</time>
      </trkpt>
      <trkpt lat="43.63514" lon="1.23062">
        <ele>196.4</ele>
        <time>2023-04-04T15:22:18Z</time>
      </trkpt>
      <trkpt lat="43.63513" lon="1.23056">
        <ele>196</ele>
        <time>2023-04-04T15:22:20Z</time>
      </trkpt>
      <trkpt lat="43.63515" lon="1.23045">
        <ele>195.8</ele>
        <time>2023-04-04T15:22:23Z</time>
      </trkpt>
      <trkpt lat="43.63516" lon="1.23042">
        <ele>195.8</ele>
        <time>2023-04-04T15:22:24Z</time>
      </trkpt>
      <trkpt lat="43.63519" lon="1.23036">
        <ele>195.8</ele>
        <time>2023-04-04T15:22:26Z</time>
      </trkpt>
      <trkpt lat="43.63521" lon="1.23026">
        <ele>195.8</ele>
        <time>2023-04-04T15:22:28Z</time>
      </trkpt>
      <trkpt lat="43.63524" lon="1.23013">
        <ele>196.2</ele>
        <time>2023-04-04T15:22:31Z</time>
      </trkpt>
      <trkpt lat="43.63527" lon="1.23006">
        <ele>196.6</ele>
        <time>2023-04-04T15:22:33Z</time>
      </trkpt>
      <trkpt lat="43.63529" lon="1.23001">
        <ele>196.8</ele>
        <time>2023-04-04T15:22:34Z</time>
      </trkpt>
      <trkpt lat="43.63539" lon="1.22984">
        <ele>197.6</ele>
        <time>2023-04-04T15:22:38Z</time>
      </trkpt>
      <trkpt lat="43.63549" lon="1.2298">
        <ele>198</ele>
        <time>2023-04-04T15:22:40Z</time>
      </trkpt>
      <trkpt lat="43.63554" lon="1.2298">
        <ele>198</ele>
        <time>2023-04-04T15:22:41Z</time>
      </trkpt>
      <trkpt lat="43.63559" lon="1.2298">
        <ele>198.2</ele>
        <time>2023-04-04T15:22:42Z</time>
      </trkpt>
      <trkpt lat="43.63571" lon="1.22972">
        <ele>198.6</ele>
        <time>2023-04-04T15:22:45Z</time>
      </trkpt>
      <trkpt lat="43.63582" lon="1.22958">
        <ele>198.8</ele>
        <time>2023-04-04T15:22:48Z</time>
      </trkpt>
      <trkpt lat="43.63587" lon="1.22954">
        <ele>198.8</ele>
        <time>2023-04-04T15:22:49Z</time>
      </trkpt>
      <trkpt lat="43.63604" lon="1.22931">
        <ele>199</ele>
        <time>2023-04-04T15:22:54Z</time>
      </trkpt>
      <trkpt lat="43.63614" lon="1.22925">
        <ele>199.4</ele>
        <time>2023-04-04T15:22:57Z</time>
      </trkpt>
      <trkpt lat="43.63619" lon="1.22921">
        <ele>199.6</ele>
        <time>2023-04-04T15:22:58Z</time>
      </trkpt>
      <trkpt lat="43.63639" lon="1.22914">
        <ele>199.4</ele>
        <time>2023-04-04T15:23:02Z</time>
      </trkpt>
      <trkpt lat="43.63644" lon="1.2291">
        <ele>199.6</ele>
        <time>2023-04-04T15:23:04Z</time>
      </trkpt>
      <trkpt lat="43.63649" lon="1.22898">
        <ele>199.6</ele>
        <time>2023-04-04T15:23:06Z</time>
      </trkpt>
      <trkpt lat="43.63656" lon="1.2289">
        <ele>199.6</ele>
        <time>2023-04-04T15:23:08Z</time>
      </trkpt>
      <trkpt lat="43.63663" lon="1.22881">
        <ele>199.8</ele>
        <time>2023-04-04T15:23:10Z</time>
      </trkpt>
      <trkpt lat="43.63678" lon="1.22859">
        <ele>200.2</ele>
        <time>2023-04-04T15:23:15Z</time>
      </trkpt>
      <trkpt lat="43.63679" lon="1.22854">
        <ele>200.2</ele>
        <time>2023-04-04T15:23:16Z</time>
      </trkpt>
      <trkpt lat="43.63677" lon="1.22846">
        <ele>200.2</ele>
        <time>2023-04-04T15:23:18Z</time>
      </trkpt>
      <trkpt lat="43.63666" lon="1.22833">
        <ele>200.8</ele>
        <time>2023-04-04T15:23:22Z</time>
      </trkpt>
      <trkpt lat="43.63661" lon="1.22829">
        <ele>200.8</ele>
        <time>2023-04-04T15:23:23Z</time>
      </trkpt>
      <trkpt lat="43.63657" lon="1.22825">
        <ele>200.8</ele>
        <time>2023-04-04T15:23:24Z</time>
      </trkpt>
      <trkpt lat="43.63646" lon="1.22814">
        <ele>201</ele>
        <time>2023-04-04T15:23:28Z</time>
      </trkpt>
      <trkpt lat="43.6362" lon="1.22793">
        <ele>201</ele>
        <time>2023-04-04T15:23:34Z</time>
      </trkpt>
      <trkpt lat="43.63605" lon="1.2278">
        <ele>201.6</ele>
        <time>2023-04-04T15:23:38Z</time>
      </trkpt>
      <trkpt lat="43.63602" lon="1.22777">
        <ele>201.6</ele>
        <time>2023-04-04T15:23:39Z</time>
      </trkpt>
      <trkpt lat="43.63585" lon="1.22763">
        <ele>202</ele>
        <time>2023-04-04T15:23:43Z</time>
      </trkpt>
      <trkpt lat="43.63581" lon="1.2276">
        <ele>202</ele>
        <time>2023-04-04T15:23:44Z</time>
      </trkpt>
      <trkpt lat="43.63552" lon="1.22736">
        <ele>202</ele>
        <time>2023-04-04T15:23:50Z</time>
      </trkpt>
      <trkpt lat="43.63523" lon="1.22711">
        <ele>201.8</ele>
        <time>2023-04-04T15:23:56Z</time>
      </trkpt>
      <trkpt lat="43.63504" lon="1.22693">
        <ele>201.6</ele>
        <time>2023-04-04T15:24:00Z</time>
      </trkpt>
      <trkpt lat="43.63495" lon="1.22686">
        <ele>201.6</ele>
        <time>2023-04-04T15:24:02Z</time>
      </trkpt>
      <trkpt lat="43.63474" lon="1.22671">
        <ele>201.6</ele>
        <time>2023-04-04T15:24:06Z</time>
      </trkpt>
      <trkpt lat="43.63459" lon="1.22658">
        <ele>202</ele>
        <time>2023-04-04T15:24:09Z</time>
      </trkpt>
      <trkpt lat="43.63455" lon="1.22654">
        <ele>202.2</ele>
        <time>2023-04-04T15:24:10Z</time>
      </trkpt>
      <trkpt lat="43.63438" lon="1.22638">
        <ele>202.6</ele>
        <time>2023-04-04T15:24:14Z</time>
      </trkpt>
      <trkpt lat="43.6342" lon="1.22625">
        <ele>202.8</ele>
        <time>2023-04-04T15:24:18Z</time>
      </trkpt>
      <trkpt lat="43.63409" lon="1.22616">
        <ele>202.8</ele>
        <time>2023-04-04T15:24:21Z</time>
      </trkpt>
      <trkpt lat="43.63395" lon="1.22604">
        <ele>203</ele>
        <time>2023-04-04T15:24:25Z</time>
      </trkpt>
      <trkpt lat="43.63392" lon="1.22601">
        <ele>203</ele>
        <time>2023-04-04T15:24:26Z</time>
      </trkpt>
      <trkpt lat="43.63379" lon="1.22589">
        <ele>203.2</ele>
        <time>2023-04-04T15:24:29Z</time>
      </trkpt>
      <trkpt lat="43.63368" lon="1.22577">
        <ele>203.2</ele>
        <time>2023-04-04T15:24:32Z</time>
      </trkpt>
      <trkpt lat="43.63351" lon="1.2257">
        <ele>203.8</ele>
        <time>2023-04-04T15:24:36Z</time>
      </trkpt>
      <trkpt lat="43.63346" lon="1.22566">
        <ele>204</ele>
        <time>2023-04-04T15:24:38Z</time>
      </trkpt>
      <trkpt lat="43.63343" lon="1.22564">
        <ele>204</ele>
        <time>2023-04-04T15:24:39Z</time>
      </trkpt>
      <trkpt lat="43.63326" lon="1.22546">
        <ele>204</ele>
        <time>2023-04-04T15:24:43Z</time>
      </trkpt>
      <trkpt lat="43.63314" lon="1.22539">
        <ele>204</ele>
        <time>2023-04-04T15:24:45Z</time>
      </trkpt>
      <trkpt lat="43.63298" lon="1.22527">
        <ele>204</ele>
        <time>2023-04-04T15:24:48Z</time>
      </trkpt>
      <trkpt lat="43.63279" lon="1.22509">
        <ele>204</ele>
        <time>2023-04-04T15:24:52Z</time>
      </trkpt>
      <trkpt lat="43.63269" lon="1.22501">
        <ele>204.2</ele>
        <time>2023-04-04T15:24:54Z</time>
      </trkpt>
      <trkpt lat="43.63245" lon="1.2248">
        <ele>204.6</ele>
        <time>2023-04-04T15:24:59Z</time>
      </trkpt>
      <trkpt lat="43.6324" lon="1.22475">
        <ele>204.8</ele>
        <time>2023-04-04T15:25:00Z</time>
      </trkpt>
      <trkpt lat="43.63236" lon="1.2247">
        <ele>204.8</ele>
        <time>2023-04-04T15:25:01Z</time>
      </trkpt>
      <trkpt lat="43.63203" lon="1.22443">
        <ele>205</ele>
        <time>2023-04-04T15:25:07Z</time>
      </trkpt>
      <trkpt lat="43.63188" lon="1.22431">
        <ele>205</ele>
        <time>2023-04-04T15:25:10Z</time>
      </trkpt>
      <trkpt lat="43.63183" lon="1.22426">
        <ele>204.8</ele>
        <time>2023-04-04T15:25:11Z</time>
      </trkpt>
      <trkpt lat="43.63146" lon="1.22397">
        <ele>204.2</ele>
        <time>2023-04-04T15:25:17Z</time>
      </trkpt>
      <trkpt lat="43.63132" lon="1.22385">
        <ele>203.8</ele>
        <time>2023-04-04T15:25:20Z</time>
      </trkpt>
      <trkpt lat="43.63121" lon="1.22376">
        <ele>204</ele>
        <time>2023-04-04T15:25:22Z</time>
      </trkpt>
      <trkpt lat="43.63093" lon="1.22351">
        <ele>203.6</ele>
        <time>2023-04-04T15:25:28Z</time>
      </trkpt>
      <trkpt lat="43.63074" lon="1.22336">
        <ele>203.6</ele>
        <time>2023-04-04T15:25:32Z</time>
      </trkpt>
      <trkpt lat="43.63068" lon="1.22333">
        <ele>203.6</ele>
        <time>2023-04-04T15:25:34Z</time>
      </trkpt>
      <trkpt lat="43.63066" lon="1.22334">
        <ele>203.4</ele>
        <time>2023-04-04T15:25:35Z</time>
      </trkpt>
      <trkpt lat="43.63057" lon="1.22337">
        <ele>203.4</ele>
        <time>2023-04-04T15:25:38Z</time>
      </trkpt>
      <trkpt lat="43.63039" lon="1.22344">
        <ele>203.4</ele>
        <time>2023-04-04T15:25:43Z</time>
      </trkpt>
      <trkpt lat="43.6302" lon="1.22357">
        <ele>203.6</ele>
        <time>2023-04-04T15:25:48Z</time>
      </trkpt>
      <trkpt lat="43.62996" lon="1.22359">
        <ele>203.8</ele>
        <time>2023-04-04T15:25:54Z</time>
      </trkpt>
      <trkpt lat="43.62972" lon="1.22366">
        <ele>203.6</ele>
        <time>2023-04-04T15:25:59Z</time>
      </trkpt>
      <trkpt lat="43.62963" lon="1.22368">
        <ele>203.4</ele>
        <time>2023-04-04T15:26:01Z</time>
      </trkpt>
      <trkpt lat="43.62958" lon="1.22374">
        <ele>203.2</ele>
        <time>2023-04-04T15:26:03Z</time>
      </trkpt>
      <trkpt lat="43.62951" lon="1.22377">
        <ele>203</ele>
        <time>2023-04-04T15:26:05Z</time>
      </trkpt>
      <trkpt lat="43.62948" lon="1.22376">
        <ele>202.8</ele>
        <time>2023-04-04T15:26:06Z</time>
      </trkpt>
      <trkpt lat="43.62947" lon="1.22374">
        <ele>202.8</ele>
        <time>2023-04-04T15:26:07Z</time>
      </trkpt>
      <trkpt lat="43.62949" lon="1.22371">
        <ele>202.6</ele>
        <time>2023-04-04T15:26:09Z</time>
      </trkpt>
      <trkpt lat="43.62956" lon="1.22344">
        <ele>202.4</ele>
        <time>2023-04-04T15:26:15Z</time>
      </trkpt>
      <trkpt lat="43.62966" lon="1.22319">
        <ele>202.6</ele>
        <time>2023-04-04T15:26:20Z</time>
      </trkpt>
      <trkpt lat="43.62976" lon="1.22302">
        <ele>202.8</ele>
        <time>2023-04-04T15:26:24Z</time>
      </trkpt>
      <trkpt lat="43.62989" lon="1.22293">
        <ele>203</ele>
        <time>2023-04-04T15:26:28Z</time>
      </trkpt>
      <trkpt lat="43.63006" lon="1.22281">
        <ele>203.6</ele>
        <time>2023-04-04T15:26:32Z</time>
      </trkpt>
      <trkpt lat="43.6301" lon="1.22279">
        <ele>203.6</ele>
        <time>2023-04-04T15:26:33Z</time>
      </trkpt>
      <trkpt lat="43.63019" lon="1.22273">
        <ele>203.8</ele>
        <time>2023-04-04T15:26:35Z</time>
      </trkpt>
      <trkpt lat="43.63028" lon="1.22259">
        <ele>204</ele>
        <time>2023-04-04T15:26:38Z</time>
      </trkpt>
      <trkpt lat="43.63032" lon="1.22254">
        <ele>204</ele>
        <time>2023-04-04T15:26:39Z</time>
      </trkpt>
      <trkpt lat="43.63049" lon="1.22232">
        <ele>204.6</ele>
        <time>2023-04-04T15:26:44Z</time>
      </trkpt>
      <trkpt lat="43.63053" lon="1.22229">
        <ele>204.6</ele>
        <time>2023-04-04T15:26:45Z</time>
      </trkpt>
      <trkpt lat="43.63063" lon="1.22223">
        <ele>204.8</ele>
        <time>2023-04-04T15:26:48Z</time>
      </trkpt>
      <trkpt lat="43.63065" lon="1.2222">
        <ele>205</ele>
        <time>2023-04-04T15:26:49Z</time>
      </trkpt>
      <trkpt lat="43.6307" lon="1.22207">
        <ele>205.4</ele>
        <time>2023-04-04T15:26:52Z</time>
      </trkpt>
      <trkpt lat="43.63072" lon="1.22203">
        <ele>205.6</ele>
        <time>2023-04-04T15:26:53Z</time>
      </trkpt>
      <trkpt lat="43.63077" lon="1.22192">
        <ele>206.6</ele>
        <time>2023-04-04T15:26:56Z</time>
      </trkpt>
      <trkpt lat="43.63078" lon="1.22188">
        <ele>206.8</ele>
        <time>2023-04-04T15:26:57Z</time>
      </trkpt>
      <trkpt lat="43.63086" lon="1.2217">
        <ele>207.8</ele>
        <time>2023-04-04T15:27:02Z</time>
      </trkpt>
      <trkpt lat="43.63088" lon="1.22168">
        <ele>208.2</ele>
        <time>2023-04-04T15:27:03Z</time>
      </trkpt>
      <trkpt lat="43.6309" lon="1.22168">
        <ele>208.4</ele>
        <time>2023-04-04T15:27:04Z</time>
      </trkpt>
      <trkpt lat="43.63095" lon="1.22164">
        <ele>209</ele>
        <time>2023-04-04T15:27:06Z</time>
      </trkpt>
      <trkpt lat="43.63103" lon="1.22155">
        <ele>209.8</ele>
        <time>2023-04-04T15:27:10Z</time>
      </trkpt>
      <trkpt lat="43.63105" lon="1.22152">
        <ele>210</ele>
        <time>2023-04-04T15:27:11Z</time>
      </trkpt>
      <trkpt lat="43.63111" lon="1.22138">
        <ele>211</ele>
        <time>2023-04-04T15:27:15Z</time>
      </trkpt>
      <trkpt lat="43.63114" lon="1.22133">
        <ele>212</ele>
        <time>2023-04-04T15:27:17Z</time>
      </trkpt>
      <trkpt lat="43.63116" lon="1.22128">
        <ele>212.4</ele>
        <time>2023-04-04T15:27:19Z</time>
      </trkpt>
      <trkpt lat="43.63119" lon="1.22123">
        <ele>213</ele>
        <time>2023-04-04T15:27:21Z</time>
      </trkpt>
      <trkpt lat="43.63123" lon="1.22121">
        <ele>213.6</ele>
        <time>2023-04-04T15:27:23Z</time>
      </trkpt>
      <trkpt lat="43.63129" lon="1.22119">
        <ele>215</ele>
        <time>2023-04-04T15:27:26Z</time>
      </trkpt>
      <trkpt lat="43.63136" lon="1.22117">
        <ele>215.2</ele>
        <time>2023-04-04T15:27:29Z</time>
      </trkpt>
      <trkpt lat="43.63144" lon="1.22114">
        <ele>216</ele>
        <time>2023-04-04T15:27:32Z</time>
      </trkpt>
      <trkpt lat="43.63157" lon="1.22105">
        <ele>217.2</ele>
        <time>2023-04-04T15:27:37Z</time>
      </trkpt>
      <trkpt lat="43.63167" lon="1.22091">
        <ele>218.2</ele>
        <time>2023-04-04T15:27:42Z</time>
      </trkpt>
      <trkpt lat="43.63171" lon="1.22086">
        <ele>218.6</ele>
        <time>2023-04-04T15:27:44Z</time>
      </trkpt>
      <trkpt lat="43.63182" lon="1.22066">
        <ele>219.2</ele>
        <time>2023-04-04T15:27:50Z</time>
      </trkpt>
      <trkpt lat="43.63184" lon="1.22063">
        <ele>219.6</ele>
        <time>2023-04-04T15:27:51Z</time>
      </trkpt>
      <trkpt lat="43.63195" lon="1.22038">
        <ele>220.4</ele>
        <time>2023-04-04T15:27:57Z</time>
      </trkpt>
      <trkpt lat="43.63209" lon="1.22009">
        <ele>220.4</ele>
        <time>2023-04-04T15:28:03Z</time>
      </trkpt>
      <trkpt lat="43.6322" lon="1.21979">
        <ele>220.6</ele>
        <time>2023-04-04T15:28:08Z</time>
      </trkpt>
      <trkpt lat="43.63223" lon="1.21974">
        <ele>220.4</ele>
        <time>2023-04-04T15:28:09Z</time>
      </trkpt>
      <trkpt lat="43.63225" lon="1.2197">
        <ele>220.4</ele>
        <time>2023-04-04T15:28:10Z</time>
      </trkpt>
      <trkpt lat="43.6323" lon="1.21955">
        <ele>220.4</ele>
        <time>2023-04-04T15:28:13Z</time>
      </trkpt>
      <trkpt lat="43.6323" lon="1.21952">
        <ele>220.4</ele>
        <time>2023-04-04T15:28:14Z</time>
      </trkpt>
      <trkpt lat="43.63227" lon="1.21949">
        <ele>220.4</ele>
        <time>2023-04-04T15:28:16Z</time>
      </trkpt>
      <trkpt lat="43.63213" lon="1.21953">
        <ele>220.4</ele>
        <time>2023-04-04T15:28:20Z</time>
      </trkpt>
      <trkpt lat="43.63204" lon="1.21957">
        <ele>220.4</ele>
        <time>2023-04-04T15:28:22Z</time>
      </trkpt>
      <trkpt lat="43.63196" lon="1.21963">
        <ele>220.4</ele>
        <time>2023-04-04T15:28:24Z</time>
      </trkpt>
      <trkpt lat="43.63172" lon="1.21984">
        <ele>220.4</ele>
        <time>2023-04-04T15:28:30Z</time>
      </trkpt>
      <trkpt lat="43.6314" lon="1.22009">
        <ele>220.4</ele>
        <time>2023-04-04T15:28:37Z</time>
      </trkpt>
      <trkpt lat="43.6311" lon="1.22029">
        <ele>219.8</ele>
        <time>2023-04-04T15:28:43Z</time>
      </trkpt>
      <trkpt lat="43.63077" lon="1.22046">
        <ele>219</ele>
        <time>2023-04-04T15:28:49Z</time>
      </trkpt>
      <trkpt lat="43.63073" lon="1.2205">
        <ele>218.8</ele>
        <time>2023-04-04T15:28:50Z</time>
      </trkpt>
      <trkpt lat="43.63055" lon="1.22069">
        <ele>217.8</ele>
        <time>2023-04-04T15:28:54Z</time>
      </trkpt>
      <trkpt lat="43.63046" lon="1.22078">
        <ele>217.4</ele>
        <time>2023-04-04T15:28:56Z</time>
      </trkpt>
      <trkpt lat="43.63035" lon="1.22081">
        <ele>216.6</ele>
        <time>2023-04-04T15:28:58Z</time>
      </trkpt>
      <trkpt lat="43.63028" lon="1.22081">
        <ele>215.2</ele>
        <time>2023-04-04T15:28:59Z</time>
      </trkpt>
      <trkpt lat="43.63013" lon="1.22081">
        <ele>213.8</ele>
        <time>2023-04-04T15:29:01Z</time>
      </trkpt>
      <trkpt lat="43.63006" lon="1.2208">
        <ele>213.4</ele>
        <time>2023-04-04T15:29:02Z</time>
      </trkpt>
      <trkpt lat="43.62992" lon="1.22084">
        <ele>212.8</ele>
        <time>2023-04-04T15:29:04Z</time>
      </trkpt>
      <trkpt lat="43.62982" lon="1.22092">
        <ele>211.8</ele>
        <time>2023-04-04T15:29:06Z</time>
      </trkpt>
      <trkpt lat="43.62979" lon="1.22093">
        <ele>210.6</ele>
        <time>2023-04-04T15:29:07Z</time>
      </trkpt>
      <trkpt lat="43.62977" lon="1.22095">
        <ele>209.6</ele>
        <time>2023-04-04T15:29:08Z</time>
      </trkpt>
      <trkpt lat="43.62976" lon="1.22096">
        <ele>209.2</ele>
        <time>2023-04-04T15:29:09Z</time>
      </trkpt>
      <trkpt lat="43.62976" lon="1.22096">
        <ele>208.6</ele>
        <time>2023-04-04T15:29:10Z</time>
      </trkpt>
      <trkpt lat="43.62973" lon="1.22097">
        <ele>208.2</ele>
        <time>2023-04-04T15:29:12Z</time>
      </trkpt>
      <trkpt lat="43.62957" lon="1.22106">
        <ele>207.8</ele>
        <time>2023-04-04T15:29:17Z</time>
      </trkpt>
      <trkpt lat="43.6293" lon="1.22112">
        <ele>207.2</ele>
        <time>2023-04-04T15:29:22Z</time>
      </trkpt>
      <trkpt lat="43.62925" lon="1.22113">
        <ele>207.2</ele>
        <time>2023-04-04T15:29:23Z</time>
      </trkpt>
      <trkpt lat="43.62919" lon="1.22114">
        <ele>206.8</ele>
        <time>2023-04-04T15:29:24Z</time>
      </trkpt>
      <trkpt lat="43.62903" lon="1.22115">
        <ele>206.8</ele>
        <time>2023-04-04T15:29:27Z</time>
      </trkpt>
      <trkpt lat="43.62898" lon="1.22112">
        <ele>206.6</ele>
        <time>2023-04-04T15:29:28Z</time>
      </trkpt>
      <trkpt lat="43.62869" lon="1.22094">
        <ele>206</ele>
        <time>2023-04-04T15:29:33Z</time>
      </trkpt>
      <trkpt lat="43.62863" lon="1.22091">
        <ele>206</ele>
        <time>2023-04-04T15:29:34Z</time>
      </trkpt>
      <trkpt lat="43.62858" lon="1.22089">
        <ele>205.8</ele>
        <time>2023-04-04T15:29:35Z</time>
      </trkpt>
      <trkpt lat="43.62848" lon="1.22085">
        <ele>205.4</ele>
        <time>2023-04-04T15:29:37Z</time>
      </trkpt>
      <trkpt lat="43.62844" lon="1.22082">
        <ele>205.4</ele>
        <time>2023-04-04T15:29:38Z</time>
      </trkpt>
      <trkpt lat="43.62839" lon="1.22079">
        <ele>205.2</ele>
        <time>2023-04-04T15:29:39Z</time>
      </trkpt>
      <trkpt lat="43.62826" lon="1.22064">
        <ele>205.2</ele>
        <time>2023-04-04T15:29:42Z</time>
      </trkpt>
      <trkpt lat="43.62822" lon="1.2206">
        <ele>205.2</ele>
        <time>2023-04-04T15:29:43Z</time>
      </trkpt>
      <trkpt lat="43.62813" lon="1.22055">
        <ele>205</ele>
        <time>2023-04-04T15:29:45Z</time>
      </trkpt>
      <trkpt lat="43.62807" lon="1.22053">
        <ele>204.8</ele>
        <time>2023-04-04T15:29:46Z</time>
      </trkpt>
      <trkpt lat="43.62803" lon="1.22053">
        <ele>204.8</ele>
        <time>2023-04-04T15:29:47Z</time>
      </trkpt>
      <trkpt lat="43.62792" lon="1.22053">
        <ele>204.4</ele>
        <time>2023-04-04T15:29:49Z</time>
      </trkpt>
      <trkpt lat="43.62783" lon="1.22054">
        <ele>204.2</ele>
        <time>2023-04-04T15:29:51Z</time>
      </trkpt>
      <trkpt lat="43.62775" lon="1.22052">
        <ele>204</ele>
        <time>2023-04-04T15:29:53Z</time>
      </trkpt>
      <trkpt lat="43.62771" lon="1.22048">
        <ele>204</ele>
        <time>2023-04-04T15:29:54Z</time>
      </trkpt>
      <trkpt lat="43.62762" lon="1.22041">
        <ele>203.8</ele>
        <time>2023-04-04T15:29:56Z</time>
      </trkpt>
      <trkpt lat="43.62752" lon="1.22036">
        <ele>203.6</ele>
        <time>2023-04-04T15:29:58Z</time>
      </trkpt>
      <trkpt lat="43.62746" lon="1.22035">
        <ele>203.6</ele>
        <time>2023-04-04T15:29:59Z</time>
      </trkpt>
      <trkpt lat="43.62735" lon="1.22033">
        <ele>203.6</ele>
        <time>2023-04-04T15:30:01Z</time>
      </trkpt>
      <trkpt lat="43.62723" lon="1.22031">
        <ele>203.4</ele>
        <time>2023-04-04T15:30:03Z</time>
      </trkpt>
      <trkpt lat="43.62717" lon="1.2203">
        <ele>203.4</ele>
        <time>2023-04-04T15:30:04Z</time>
      </trkpt>
      <trkpt lat="43.62707" lon="1.22034">
        <ele>203.2</ele>
        <time>2023-04-04T15:30:06Z</time>
      </trkpt>
      <trkpt lat="43.62697" lon="1.22053">
        <ele>203</ele>
        <time>2023-04-04T15:30:09Z</time>
      </trkpt>
      <trkpt lat="43.62693" lon="1.22059">
        <ele>203</ele>
        <time>2023-04-04T15:30:10Z</time>
      </trkpt>
      <trkpt lat="43.62677" lon="1.2208">
        <ele>202.8</ele>
        <time>2023-04-04T15:30:15Z</time>
      </trkpt>
      <trkpt lat="43.62666" lon="1.22084">
        <ele>202.4</ele>
        <time>2023-04-04T15:30:17Z</time>
      </trkpt>
      <trkpt lat="43.62653" lon="1.22086">
        <ele>202.2</ele>
        <time>2023-04-04T15:30:19Z</time>
      </trkpt>
      <trkpt lat="43.62635" lon="1.22087">
        <ele>201.6</ele>
        <time>2023-04-04T15:30:22Z</time>
      </trkpt>
      <trkpt lat="43.6262" lon="1.22085">
        <ele>201</ele>
        <time>2023-04-04T15:30:25Z</time>
      </trkpt>
      <trkpt lat="43.62609" lon="1.22079">
        <ele>200.8</ele>
        <time>2023-04-04T15:30:27Z</time>
      </trkpt>
      <trkpt lat="43.62601" lon="1.2207">
        <ele>200.6</ele>
        <time>2023-04-04T15:30:29Z</time>
      </trkpt>
      <trkpt lat="43.62589" lon="1.22057">
        <ele>200.2</ele>
        <time>2023-04-04T15:30:32Z</time>
      </trkpt>
      <trkpt lat="43.62579" lon="1.22051">
        <ele>200</ele>
        <time>2023-04-04T15:30:34Z</time>
      </trkpt>
      <trkpt lat="43.62569" lon="1.22046">
        <ele>199.8</ele>
        <time>2023-04-04T15:30:36Z</time>
      </trkpt>
      <trkpt lat="43.62556" lon="1.22043">
        <ele>199.6</ele>
        <time>2023-04-04T15:30:38Z</time>
      </trkpt>
      <trkpt lat="43.62549" lon="1.22043">
        <ele>199.6</ele>
        <time>2023-04-04T15:30:39Z</time>
      </trkpt>
      <trkpt lat="43.62535" lon="1.2204">
        <ele>199</ele>
        <time>2023-04-04T15:30:41Z</time>
      </trkpt>
      <trkpt lat="43.6252" lon="1.22036">
        <ele>198.4</ele>
        <time>2023-04-04T15:30:43Z</time>
      </trkpt>
      <trkpt lat="43.62506" lon="1.22028">
        <ele>197.6</ele>
        <time>2023-04-04T15:30:45Z</time>
      </trkpt>
      <trkpt lat="43.625" lon="1.22024">
        <ele>197.2</ele>
        <time>2023-04-04T15:30:46Z</time>
      </trkpt>
      <trkpt lat="43.62493" lon="1.22021">
        <ele>196.6</ele>
        <time>2023-04-04T15:30:47Z</time>
      </trkpt>
      <trkpt lat="43.62487" lon="1.22018">
        <ele>196.6</ele>
        <time>2023-04-04T15:30:48Z</time>
      </trkpt>
      <trkpt lat="43.62474" lon="1.22014">
        <ele>195.8</ele>
        <time>2023-04-04T15:30:50Z</time>
      </trkpt>
      <trkpt lat="43.62469" lon="1.22013">
        <ele>195.6</ele>
        <time>2023-04-04T15:30:51Z</time>
      </trkpt>
      <trkpt lat="43.62449" lon="1.22009">
        <ele>194.8</ele>
        <time>2023-04-04T15:30:54Z</time>
      </trkpt>
      <trkpt lat="43.62431" lon="1.22002">
        <ele>194.6</ele>
        <time>2023-04-04T15:30:57Z</time>
      </trkpt>
      <trkpt lat="43.62419" lon="1.21998">
        <ele>194.6</ele>
        <time>2023-04-04T15:30:59Z</time>
      </trkpt>
      <trkpt lat="43.62406" lon="1.21998">
        <ele>194.2</ele>
        <time>2023-04-04T15:31:01Z</time>
      </trkpt>
      <trkpt lat="43.62382" lon="1.22003">
        <ele>193.4</ele>
        <time>2023-04-04T15:31:05Z</time>
      </trkpt>
      <trkpt lat="43.62371" lon="1.22005">
        <ele>193</ele>
        <time>2023-04-04T15:31:07Z</time>
      </trkpt>
      <trkpt lat="43.6236" lon="1.2201">
        <ele>193</ele>
        <time>2023-04-04T15:31:09Z</time>
      </trkpt>
      <trkpt lat="43.62339" lon="1.22022">
        <ele>192.6</ele>
        <time>2023-04-04T15:31:13Z</time>
      </trkpt>
      <trkpt lat="43.62319" lon="1.2203">
        <ele>192.4</ele>
        <time>2023-04-04T15:31:17Z</time>
      </trkpt>
      <trkpt lat="43.62304" lon="1.22037">
        <ele>192.2</ele>
        <time>2023-04-04T15:31:20Z</time>
      </trkpt>
      <trkpt lat="43.62265" lon="1.22052">
        <ele>191.8</ele>
        <time>2023-04-04T15:31:27Z</time>
      </trkpt>
      <trkpt lat="43.62258" lon="1.22053">
        <ele>191.4</ele>
        <time>2023-04-04T15:31:30Z</time>
      </trkpt>
      <trkpt lat="43.62249" lon="1.22054">
        <ele>190.6</ele>
        <time>2023-04-04T15:31:35Z</time>
      </trkpt>
      <trkpt lat="43.62244" lon="1.22055">
        <ele>190.4</ele>
        <time>2023-04-04T15:31:37Z</time>
      </trkpt>
      <trkpt lat="43.62242" lon="1.22055">
        <ele>190</ele>
        <time>2023-04-04T15:31:40Z</time>
      </trkpt>
      <trkpt lat="43.62242" lon="1.22055">
        <ele>190</ele>
        <time>2023-04-04T15:31:42Z</time>
      </trkpt>
      <trkpt lat="43.62229" lon="1.22051">
        <ele>189.2</ele>
        <time>2023-04-04T15:31:53Z</time>
      </trkpt>
      <trkpt lat="43.62224" lon="1.22048">
        <ele>189</ele>
        <time>2023-04-04T15:31:55Z</time>
      </trkpt>
      <trkpt lat="43.62217" lon="1.22037">
        <ele>189</ele>
        <time>2023-04-04T15:32:00Z</time>
      </trkpt>
      <trkpt lat="43.62215" lon="1.22032">
        <ele>189.2</ele>
        <time>2023-04-04T15:32:03Z</time>
      </trkpt>
      <trkpt lat="43.62212" lon="1.22029">
        <ele>189.2</ele>
        <time>2023-04-04T15:32:05Z</time>
      </trkpt>
      <trkpt lat="43.62211" lon="1.22028">
        <ele>189.2</ele>
        <time>2023-04-04T15:32:06Z</time>
      </trkpt>
      <trkpt lat="43.6221" lon="1.22026">
        <ele>189.2</ele>
        <time>2023-04-04T15:32:08Z</time>
      </trkpt>
      <trkpt lat="43.62209" lon="1.22024">
        <ele>189.2</ele>
        <time>2023-04-04T15:32:10Z</time>
      </trkpt>
      <trkpt lat="43.62209" lon="1.22022">
        <ele>189.2</ele>
        <time>2023-04-04T15:32:12Z</time>
      </trkpt>
      <trkpt lat="43.62208" lon="1.22019">
        <ele>189.4</ele>
        <time>2023-04-04T15:32:14Z</time>
      </trkpt>
      <trkpt lat="43.62207" lon="1.22015">
        <ele>189.4</ele>
        <time>2023-04-04T15:32:16Z</time>
      </trkpt>
      <trkpt lat="43.62205" lon="1.22004">
        <ele>189.8</ele>
        <time>2023-04-04T15:32:20Z</time>
      </trkpt>
      <trkpt lat="43.62202" lon="1.21999">
        <ele>189.8</ele>
        <time>2023-04-04T15:32:22Z</time>
      </trkpt>
      <trkpt lat="43.62201" lon="1.21996">
        <ele>189.8</ele>
        <time>2023-04-04T15:32:23Z</time>
      </trkpt>
      <trkpt lat="43.62198" lon="1.21994">
        <ele>189.8</ele>
        <time>2023-04-04T15:32:25Z</time>
      </trkpt>
      <trkpt lat="43.62198" lon="1.21994">
        <ele>189.8</ele>
        <time>2023-04-04T15:32:26Z</time>
      </trkpt>
      <trkpt lat="43.62197" lon="1.21995">
        <ele>190.2</ele>
        <time>2023-04-04T15:32:29Z</time>
      </trkpt>
      <trkpt lat="43.62182" lon="1.21989">
        <ele>191.4</ele>
        <time>2023-04-04T15:32:57Z</time>
      </trkpt>
      <trkpt lat="43.62179" lon="1.21988">
        <ele>191.4</ele>
        <time>2023-04-04T15:32:58Z</time>
      </trkpt>
      <trkpt lat="43.62176" lon="1.21988">
        <ele>191.2</ele>
        <time>2023-04-04T15:32:59Z</time>
      </trkpt>
      <trkpt lat="43.62168" lon="1.21993">
        <ele>190.8</ele>
        <time>2023-04-04T15:33:02Z</time>
      </trkpt>
      <trkpt lat="43.6216" lon="1.22005">
        <ele>190.2</ele>
        <time>2023-04-04T15:33:06Z</time>
      </trkpt>
      <trkpt lat="43.62155" lon="1.22014">
        <ele>190.2</ele>
        <time>2023-04-04T15:33:08Z</time>
      </trkpt>
      <trkpt lat="43.62135" lon="1.22045">
        <ele>189.6</ele>
        <time>2023-04-04T15:33:14Z</time>
      </trkpt>
      <trkpt lat="43.62116" lon="1.22083">
        <ele>189.2</ele>
        <time>2023-04-04T15:33:20Z</time>
      </trkpt>
      <trkpt lat="43.6211" lon="1.22098">
        <ele>189</ele>
        <time>2023-04-04T15:33:22Z</time>
      </trkpt>
      <trkpt lat="43.62089" lon="1.22152">
        <ele>188.4</ele>
        <time>2023-04-04T15:33:30Z</time>
      </trkpt>
      <trkpt lat="43.62061" lon="1.22221">
        <ele>188.2</ele>
        <time>2023-04-04T15:33:39Z</time>
      </trkpt>
      <trkpt lat="43.62058" lon="1.22229">
        <ele>188.2</ele>
        <time>2023-04-04T15:33:40Z</time>
      </trkpt>
      <trkpt lat="43.62052" lon="1.22244">
        <ele>188</ele>
        <time>2023-04-04T15:33:42Z</time>
      </trkpt>
      <trkpt lat="43.62025" lon="1.22312">
        <ele>187.4</ele>
        <time>2023-04-04T15:33:50Z</time>
      </trkpt>
      <trkpt lat="43.62022" lon="1.2232">
        <ele>187.6</ele>
        <time>2023-04-04T15:33:51Z</time>
      </trkpt>
      <trkpt lat="43.61995" lon="1.22386">
        <ele>187.6</ele>
        <time>2023-04-04T15:33:58Z</time>
      </trkpt>
      <trkpt lat="43.61978" lon="1.22428">
        <ele>187.4</ele>
        <time>2023-04-04T15:34:03Z</time>
      </trkpt>
      <trkpt lat="43.61965" lon="1.2246">
        <ele>187.2</ele>
        <time>2023-04-04T15:34:07Z</time>
      </trkpt>
      <trkpt lat="43.61946" lon="1.2251">
        <ele>187</ele>
        <time>2023-04-04T15:34:13Z</time>
      </trkpt>
      <trkpt lat="43.61918" lon="1.22576">
        <ele>186.6</ele>
        <time>2023-04-04T15:34:21Z</time>
      </trkpt>
      <trkpt lat="43.61894" lon="1.22638">
        <ele>186.4</ele>
        <time>2023-04-04T15:34:29Z</time>
      </trkpt>
      <trkpt lat="43.6189" lon="1.22644">
        <ele>186.4</ele>
        <time>2023-04-04T15:34:30Z</time>
      </trkpt>
      <trkpt lat="43.61885" lon="1.22647">
        <ele>186.2</ele>
        <time>2023-04-04T15:34:31Z</time>
      </trkpt>
      <trkpt lat="43.6188" lon="1.22649">
        <ele>186</ele>
        <time>2023-04-04T15:34:33Z</time>
      </trkpt>
      <trkpt lat="43.61868" lon="1.2265">
        <ele>185.8</ele>
        <time>2023-04-04T15:34:34Z</time>
      </trkpt>
      <trkpt lat="43.61849" lon="1.22651">
        <ele>185.8</ele>
        <time>2023-04-04T15:34:37Z</time>
      </trkpt>
      <trkpt lat="43.61788" lon="1.22655">
        <ele>185.4</ele>
        <time>2023-04-04T15:34:47Z</time>
      </trkpt>
      <trkpt lat="43.61775" lon="1.22655">
        <ele>185.2</ele>
        <time>2023-04-04T15:34:48Z</time>
      </trkpt>
      <trkpt lat="43.61715" lon="1.22659">
        <ele>185</ele>
        <time>2023-04-04T15:34:57Z</time>
      </trkpt>
      <trkpt lat="43.61702" lon="1.2266">
        <ele>185.2</ele>
        <time>2023-04-04T15:34:59Z</time>
      </trkpt>
      <trkpt lat="43.61688" lon="1.22673">
        <ele>185.2</ele>
        <time>2023-04-04T15:35:02Z</time>
      </trkpt>
      <trkpt lat="43.61663" lon="1.22721">
        <ele>185.4</ele>
        <time>2023-04-04T15:35:09Z</time>
      </trkpt>
      <trkpt lat="43.61652" lon="1.2273">
        <ele>185.4</ele>
        <time>2023-04-04T15:35:11Z</time>
      </trkpt>
      <trkpt lat="43.61646" lon="1.22731">
        <ele>185.4</ele>
        <time>2023-04-04T15:35:12Z</time>
      </trkpt>
      <trkpt lat="43.6164" lon="1.22732">
        <ele>185.4</ele>
        <time>2023-04-04T15:35:13Z</time>
      </trkpt>
      <trkpt lat="43.61616" lon="1.2273">
        <ele>185</ele>
        <time>2023-04-04T15:35:17Z</time>
      </trkpt>
      <trkpt lat="43.61559" lon="1.22726">
        <ele>185</ele>
        <time>2023-04-04T15:35:26Z</time>
      </trkpt>
      <trkpt lat="43.61553" lon="1.22725">
        <ele>185</ele>
        <time>2023-04-04T15:35:27Z</time>
      </trkpt>
      <trkpt lat="43.61493" lon="1.22722">
        <ele>185.2</ele>
        <time>2023-04-04T15:35:36Z</time>
      </trkpt>
      <trkpt lat="43.61467" lon="1.2272">
        <ele>185.2</ele>
        <time>2023-04-04T15:35:40Z</time>
      </trkpt>
      <trkpt lat="43.61408" lon="1.22718">
        <ele>185.2</ele>
        <time>2023-04-04T15:35:49Z</time>
      </trkpt>
      <trkpt lat="43.61383" lon="1.22717">
        <ele>185.2</ele>
        <time>2023-04-04T15:35:54Z</time>
      </trkpt>
      <trkpt lat="43.61379" lon="1.22713">
        <ele>185.2</ele>
        <time>2023-04-04T15:35:56Z</time>
      </trkpt>
      <trkpt lat="43.61378" lon="1.2271">
        <ele>185</ele>
        <time>2023-04-04T15:35:57Z</time>
      </trkpt>
      <trkpt lat="43.61379" lon="1.22685">
        <ele>184.8</ele>
        <time>2023-04-04T15:36:02Z</time>
      </trkpt>
      <trkpt lat="43.61379" lon="1.2266">
        <ele>184.8</ele>
        <time>2023-04-04T15:36:07Z</time>
      </trkpt>
      <trkpt lat="43.61376" lon="1.22632">
        <ele>185.2</ele>
        <time>2023-04-04T15:36:10Z</time>
      </trkpt>
      <trkpt lat="43.61376" lon="1.22611">
        <ele>185.2</ele>
        <time>2023-04-04T15:36:13Z</time>
      </trkpt>
      <trkpt lat="43.61381" lon="1.22566">
        <ele>185.4</ele>
        <time>2023-04-04T15:36:20Z</time>
      </trkpt>
      <trkpt lat="43.61386" lon="1.22534">
        <ele>185.6</ele>
        <time>2023-04-04T15:36:24Z</time>
      </trkpt>
      <trkpt lat="43.61389" lon="1.22529">
        <ele>185.4</ele>
        <time>2023-04-04T15:36:26Z</time>
      </trkpt>
      <trkpt lat="43.61395" lon="1.22521">
        <ele>185.2</ele>
        <time>2023-04-04T15:36:27Z</time>
      </trkpt>
      <trkpt lat="43.61404" lon="1.22515">
        <ele>185.2</ele>
        <time>2023-04-04T15:36:29Z</time>
      </trkpt>
      <trkpt lat="43.61408" lon="1.22512">
        <ele>185.4</ele>
        <time>2023-04-04T15:36:30Z</time>
      </trkpt>
      <trkpt lat="43.61454" lon="1.22485">
        <ele>185.6</ele>
        <time>2023-04-04T15:36:40Z</time>
      </trkpt>
      <trkpt lat="43.61458" lon="1.22481">
        <ele>185.6</ele>
        <time>2023-04-04T15:36:41Z</time>
      </trkpt>
      <trkpt lat="43.61465" lon="1.22473">
        <ele>185.6</ele>
        <time>2023-04-04T15:36:43Z</time>
      </trkpt>
      <trkpt lat="43.61468" lon="1.22467">
        <ele>185.8</ele>
        <time>2023-04-04T15:36:45Z</time>
      </trkpt>
      <trkpt lat="43.61478" lon="1.22449">
        <ele>186.2</ele>
        <time>2023-04-04T15:36:49Z</time>
      </trkpt>
      <trkpt lat="43.61485" lon="1.22429">
        <ele>186</ele>
        <time>2023-04-04T15:36:54Z</time>
      </trkpt>
      <trkpt lat="43.61496" lon="1.22406">
        <ele>185.8</ele>
        <time>2023-04-04T15:37:00Z</time>
      </trkpt>
      <trkpt lat="43.6151" lon="1.22372">
        <ele>186</ele>
        <time>2023-04-04T15:37:05Z</time>
      </trkpt>
      <trkpt lat="43.61511" lon="1.22365">
        <ele>186</ele>
        <time>2023-04-04T15:37:06Z</time>
      </trkpt>
      <trkpt lat="43.61515" lon="1.22352">
        <ele>186</ele>
        <time>2023-04-04T15:37:08Z</time>
      </trkpt>
      <trkpt lat="43.61525" lon="1.22327">
        <ele>186.4</ele>
        <time>2023-04-04T15:37:12Z</time>
      </trkpt>
      <trkpt lat="43.61534" lon="1.22305">
        <ele>186.6</ele>
        <time>2023-04-04T15:37:16Z</time>
      </trkpt>
      <trkpt lat="43.6154" lon="1.22291">
        <ele>186.6</ele>
        <time>2023-04-04T15:37:19Z</time>
      </trkpt>
      <trkpt lat="43.61557" lon="1.22271">
        <ele>186.4</ele>
        <time>2023-04-04T15:37:25Z</time>
      </trkpt>
      <trkpt lat="43.61579" lon="1.22271">
        <ele>186</ele>
        <time>2023-04-04T15:37:31Z</time>
      </trkpt>
      <trkpt lat="43.61592" lon="1.22272">
        <ele>185.8</ele>
        <time>2023-04-04T15:37:35Z</time>
      </trkpt>
      <trkpt lat="43.61595" lon="1.22267">
        <ele>186</ele>
        <time>2023-04-04T15:37:37Z</time>
      </trkpt>
      <trkpt lat="43.61598" lon="1.22251">
        <ele>185.8</ele>
        <time>2023-04-04T15:37:42Z</time>
      </trkpt>
      <trkpt lat="43.61599" lon="1.22236">
        <ele>186</ele>
        <time>2023-04-04T15:37:46Z</time>
      </trkpt>
      <trkpt lat="43.61602" lon="1.22214">
        <ele>186.4</ele>
        <time>2023-04-04T15:37:53Z</time>
      </trkpt>
      <trkpt lat="43.61603" lon="1.22208">
        <ele>186.8</ele>
        <time>2023-04-04T15:37:57Z</time>
      </trkpt>
      <trkpt lat="43.61601" lon="1.22213">
        <ele>186.8</ele>
        <time>2023-04-04T15:38:04Z</time>
      </trkpt>
      <trkpt lat="43.61601" lon="1.22219">
        <ele>186.8</ele>
        <time>2023-04-04T15:38:07Z</time>
      </trkpt>
      <trkpt lat="43.61601" lon="1.22241">
        <ele>186.8</ele>
        <time>2023-04-04T15:38:13Z</time>
      </trkpt>
      <trkpt lat="43.616" lon="1.22268">
        <ele>186.6</ele>
        <time>2023-04-04T15:38:20Z</time>
      </trkpt>
      <trkpt lat="43.61601" lon="1.22271">
        <ele>186.4</ele>
        <time>2023-04-04T15:38:21Z</time>
      </trkpt>
      <trkpt lat="43.61604" lon="1.22272">
        <ele>186.4</ele>
        <time>2023-04-04T15:38:25Z</time>
      </trkpt>
      <trkpt lat="43.61596" lon="1.2227">
        <ele>185.8</ele>
        <time>2023-04-04T15:38:38Z</time>
      </trkpt>
      <trkpt lat="43.61592" lon="1.22271">
        <ele>186</ele>
        <time>2023-04-04T15:38:40Z</time>
      </trkpt>
      <trkpt lat="43.61578" lon="1.2227">
        <ele>185.6</ele>
        <time>2023-04-04T15:38:45Z</time>
      </trkpt>
      <trkpt lat="43.61558" lon="1.22273">
        <ele>185.8</ele>
        <time>2023-04-04T15:38:51Z</time>
      </trkpt>
      <trkpt lat="43.61547" lon="1.22285">
        <ele>185.4</ele>
        <time>2023-04-04T15:38:55Z</time>
      </trkpt>
      <trkpt lat="43.61547" lon="1.22285">
        <ele>185.2</ele>
        <time>2023-04-04T15:38:56Z</time>
      </trkpt>
      <trkpt lat="43.61541" lon="1.22297">
        <ele>185.2</ele>
        <time>2023-04-04T15:38:59Z</time>
      </trkpt>
      <trkpt lat="43.61534" lon="1.22314">
        <ele>185.4</ele>
        <time>2023-04-04T15:39:02Z</time>
      </trkpt>
      <trkpt lat="43.61518" lon="1.22349">
        <ele>186</ele>
        <time>2023-04-04T15:39:09Z</time>
      </trkpt>
      <trkpt lat="43.61504" lon="1.22381">
        <ele>186.2</ele>
        <time>2023-04-04T15:39:15Z</time>
      </trkpt>
      <trkpt lat="43.61486" lon="1.22424">
        <ele>186</ele>
        <time>2023-04-04T15:39:22Z</time>
      </trkpt>
      <trkpt lat="43.61484" lon="1.22428">
        <ele>186</ele>
        <time>2023-04-04T15:39:23Z</time>
      </trkpt>
      <trkpt lat="43.61481" lon="1.22439">
        <ele>186</ele>
        <time>2023-04-04T15:39:25Z</time>
      </trkpt>
      <trkpt lat="43.61477" lon="1.22449">
        <ele>186</ele>
        <time>2023-04-04T15:39:27Z</time>
      </trkpt>
      <trkpt lat="43.61467" lon="1.2247">
        <ele>186</ele>
        <time>2023-04-04T15:39:31Z</time>
      </trkpt>
      <trkpt lat="43.6146" lon="1.22478">
        <ele>186</ele>
        <time>2023-04-04T15:39:33Z</time>
      </trkpt>
      <trkpt lat="43.61456" lon="1.22482">
        <ele>185.8</ele>
        <time>2023-04-04T15:39:34Z</time>
      </trkpt>
      <trkpt lat="43.61437" lon="1.22494">
        <ele>185.8</ele>
        <time>2023-04-04T15:39:38Z</time>
      </trkpt>
      <trkpt lat="43.61416" lon="1.22505">
        <ele>185.8</ele>
        <time>2023-04-04T15:39:42Z</time>
      </trkpt>
      <trkpt lat="43.61406" lon="1.2251">
        <ele>185.8</ele>
        <time>2023-04-04T15:39:44Z</time>
      </trkpt>
      <trkpt lat="43.61401" lon="1.22514">
        <ele>185.8</ele>
        <time>2023-04-04T15:39:45Z</time>
      </trkpt>
      <trkpt lat="43.61393" lon="1.22524">
        <ele>186</ele>
        <time>2023-04-04T15:39:47Z</time>
      </trkpt>
      <trkpt lat="43.61391" lon="1.22531">
        <ele>185.8</ele>
        <time>2023-04-04T15:39:48Z</time>
      </trkpt>
      <trkpt lat="43.61389" lon="1.22537">
        <ele>185.6</ele>
        <time>2023-04-04T15:39:49Z</time>
      </trkpt>
      <trkpt lat="43.61385" lon="1.22568">
        <ele>186.2</ele>
        <time>2023-04-04T15:39:53Z</time>
      </trkpt>
      <trkpt lat="43.6138" lon="1.22631">
        <ele>185.8</ele>
        <time>2023-04-04T15:40:01Z</time>
      </trkpt>
      <trkpt lat="43.6138" lon="1.22647">
        <ele>185.8</ele>
        <time>2023-04-04T15:40:03Z</time>
      </trkpt>
      <trkpt lat="43.61382" lon="1.22687">
        <ele>185.8</ele>
        <time>2023-04-04T15:40:08Z</time>
      </trkpt>
      <trkpt lat="43.61379" lon="1.22716">
        <ele>186.2</ele>
        <time>2023-04-04T15:40:12Z</time>
      </trkpt>
      <trkpt lat="43.61375" lon="1.22731">
        <ele>186.4</ele>
        <time>2023-04-04T15:40:14Z</time>
      </trkpt>
      <trkpt lat="43.61354" lon="1.22798">
        <ele>185.8</ele>
        <time>2023-04-04T15:40:23Z</time>
      </trkpt>
      <trkpt lat="43.61332" lon="1.22868">
        <ele>185.6</ele>
        <time>2023-04-04T15:40:32Z</time>
      </trkpt>
      <trkpt lat="43.61321" lon="1.22926">
        <ele>185.8</ele>
        <time>2023-04-04T15:40:39Z</time>
      </trkpt>
      <trkpt lat="43.61318" lon="1.22934">
        <ele>185.8</ele>
        <time>2023-04-04T15:40:40Z</time>
      </trkpt>
      <trkpt lat="43.61305" lon="1.22964">
        <ele>185.6</ele>
        <time>2023-04-04T15:40:44Z</time>
      </trkpt>
      <trkpt lat="43.61301" lon="1.2298">
        <ele>185.4</ele>
        <time>2023-04-04T15:40:46Z</time>
      </trkpt>
      <trkpt lat="43.61299" lon="1.22988">
        <ele>185.4</ele>
        <time>2023-04-04T15:40:47Z</time>
      </trkpt>
      <trkpt lat="43.61295" lon="1.23069">
        <ele>185.6</ele>
        <time>2023-04-04T15:40:56Z</time>
      </trkpt>
      <trkpt lat="43.61295" lon="1.23148">
        <ele>185.6</ele>
        <time>2023-04-04T15:41:05Z</time>
      </trkpt>
      <trkpt lat="43.61295" lon="1.23228">
        <ele>185.4</ele>
        <time>2023-04-04T15:41:14Z</time>
      </trkpt>
      <trkpt lat="43.61299" lon="1.23286">
        <ele>185.2</ele>
        <time>2023-04-04T15:41:21Z</time>
      </trkpt>
      <trkpt lat="43.61296" lon="1.23302">
        <ele>185.2</ele>
        <time>2023-04-04T15:41:23Z</time>
      </trkpt>
      <trkpt lat="43.61288" lon="1.23311">
        <ele>185</ele>
        <time>2023-04-04T15:41:25Z</time>
      </trkpt>
      <trkpt lat="43.61282" lon="1.23313">
        <ele>185</ele>
        <time>2023-04-04T15:41:26Z</time>
      </trkpt>
      <trkpt lat="43.61269" lon="1.23313">
        <ele>184.8</ele>
        <time>2023-04-04T15:41:28Z</time>
      </trkpt>
      <trkpt lat="43.61243" lon="1.23311">
        <ele>184.8</ele>
        <time>2023-04-04T15:41:32Z</time>
      </trkpt>
      <trkpt lat="43.61178" lon="1.2331">
        <ele>184.6</ele>
        <time>2023-04-04T15:41:42Z</time>
      </trkpt>
      <trkpt lat="43.61153" lon="1.2331">
        <ele>184.8</ele>
        <time>2023-04-04T15:41:46Z</time>
      </trkpt>
      <trkpt lat="43.61144" lon="1.23316">
        <ele>184.8</ele>
        <time>2023-04-04T15:41:48Z</time>
      </trkpt>
      <trkpt lat="43.61138" lon="1.23329">
        <ele>184.8</ele>
        <time>2023-04-04T15:41:50Z</time>
      </trkpt>
      <trkpt lat="43.61137" lon="1.23337">
        <ele>184.8</ele>
        <time>2023-04-04T15:41:51Z</time>
      </trkpt>
      <trkpt lat="43.61135" lon="1.23354">
        <ele>184.8</ele>
        <time>2023-04-04T15:41:53Z</time>
      </trkpt>
      <trkpt lat="43.61132" lon="1.23398">
        <ele>184.8</ele>
        <time>2023-04-04T15:41:58Z</time>
      </trkpt>
      <trkpt lat="43.61127" lon="1.2345">
        <ele>184.8</ele>
        <time>2023-04-04T15:42:04Z</time>
      </trkpt>
      <trkpt lat="43.61124" lon="1.23485">
        <ele>184.8</ele>
        <time>2023-04-04T15:42:09Z</time>
      </trkpt>
      <trkpt lat="43.61118" lon="1.23552">
        <ele>184.6</ele>
        <time>2023-04-04T15:42:16Z</time>
      </trkpt>
      <trkpt lat="43.61113" lon="1.23614">
        <ele>184.6</ele>
        <time>2023-04-04T15:42:23Z</time>
      </trkpt>
      <trkpt lat="43.61109" lon="1.23656">
        <ele>185</ele>
        <time>2023-04-04T15:42:28Z</time>
      </trkpt>
      <trkpt lat="43.61107" lon="1.23663">
        <ele>185</ele>
        <time>2023-04-04T15:42:29Z</time>
      </trkpt>
      <trkpt lat="43.61105" lon="1.23668">
        <ele>185</ele>
        <time>2023-04-04T15:42:30Z</time>
      </trkpt>
      <trkpt lat="43.61099" lon="1.23674">
        <ele>185</ele>
        <time>2023-04-04T15:42:32Z</time>
      </trkpt>
      <trkpt lat="43.61084" lon="1.23669">
        <ele>184.6</ele>
        <time>2023-04-04T15:42:36Z</time>
      </trkpt>
      <trkpt lat="43.61073" lon="1.23655">
        <ele>184.4</ele>
        <time>2023-04-04T15:42:39Z</time>
      </trkpt>
      <trkpt lat="43.61066" lon="1.23646">
        <ele>184.2</ele>
        <time>2023-04-04T15:42:41Z</time>
      </trkpt>
      <trkpt lat="43.61036" lon="1.2361">
        <ele>184.4</ele>
        <time>2023-04-04T15:42:48Z</time>
      </trkpt>
      <trkpt lat="43.60989" lon="1.23558">
        <ele>184.6</ele>
        <time>2023-04-04T15:42:58Z</time>
      </trkpt>
      <trkpt lat="43.60949" lon="1.23513">
        <ele>185</ele>
        <time>2023-04-04T15:43:06Z</time>
      </trkpt>
      <trkpt lat="43.60941" lon="1.23501">
        <ele>185</ele>
        <time>2023-04-04T15:43:08Z</time>
      </trkpt>
      <trkpt lat="43.60925" lon="1.23488">
        <ele>185</ele>
        <time>2023-04-04T15:43:11Z</time>
      </trkpt>
      <trkpt lat="43.60883" lon="1.2346">
        <ele>185</ele>
        <time>2023-04-04T15:43:19Z</time>
      </trkpt>
      <trkpt lat="43.60874" lon="1.23456">
        <ele>184.8</ele>
        <time>2023-04-04T15:43:21Z</time>
      </trkpt>
      <trkpt lat="43.60866" lon="1.23455">
        <ele>184.8</ele>
        <time>2023-04-04T15:43:23Z</time>
      </trkpt>
      <trkpt lat="43.60851" lon="1.2345">
        <ele>184.6</ele>
        <time>2023-04-04T15:43:28Z</time>
      </trkpt>
      <trkpt lat="43.60843" lon="1.23451">
        <ele>184.4</ele>
        <time>2023-04-04T15:43:32Z</time>
      </trkpt>
      <trkpt lat="43.60841" lon="1.23454">
        <ele>184.4</ele>
        <time>2023-04-04T15:43:33Z</time>
      </trkpt>
      <trkpt lat="43.60839" lon="1.23464">
        <ele>184.2</ele>
        <time>2023-04-04T15:43:35Z</time>
      </trkpt>
      <trkpt lat="43.6083" lon="1.23508">
        <ele>184.2</ele>
        <time>2023-04-04T15:43:42Z</time>
      </trkpt>
      <trkpt lat="43.60818" lon="1.23564">
        <ele>184.6</ele>
        <time>2023-04-04T15:43:49Z</time>
      </trkpt>
      <trkpt lat="43.60805" lon="1.23639">
        <ele>184.8</ele>
        <time>2023-04-04T15:43:58Z</time>
      </trkpt>
      <trkpt lat="43.60797" lon="1.23686">
        <ele>185.6</ele>
        <time>2023-04-04T15:44:04Z</time>
      </trkpt>
      <trkpt lat="43.60794" lon="1.23702">
        <ele>185.8</ele>
        <time>2023-04-04T15:44:06Z</time>
      </trkpt>
      <trkpt lat="43.60782" lon="1.23755">
        <ele>186.2</ele>
        <time>2023-04-04T15:44:13Z</time>
      </trkpt>
      <trkpt lat="43.60778" lon="1.23769">
        <ele>186.2</ele>
        <time>2023-04-04T15:44:15Z</time>
      </trkpt>
      <trkpt lat="43.60768" lon="1.23811">
        <ele>186.2</ele>
        <time>2023-04-04T15:44:20Z</time>
      </trkpt>
      <trkpt lat="43.60755" lon="1.23867">
        <ele>185.8</ele>
        <time>2023-04-04T15:44:26Z</time>
      </trkpt>
      <trkpt lat="43.6074" lon="1.23935">
        <ele>184.6</ele>
        <time>2023-04-04T15:44:33Z</time>
      </trkpt>
      <trkpt lat="43.60735" lon="1.23954">
        <ele>184.2</ele>
        <time>2023-04-04T15:44:35Z</time>
      </trkpt>
      <trkpt lat="43.60715" lon="1.24027">
        <ele>183.8</ele>
        <time>2023-04-04T15:44:43Z</time>
      </trkpt>
      <trkpt lat="43.60706" lon="1.24062">
        <ele>184</ele>
        <time>2023-04-04T15:44:47Z</time>
      </trkpt>
      <trkpt lat="43.60697" lon="1.24099">
        <ele>184.2</ele>
        <time>2023-04-04T15:44:51Z</time>
      </trkpt>
      <trkpt lat="43.60677" lon="1.24171">
        <ele>184.4</ele>
        <time>2023-04-04T15:44:59Z</time>
      </trkpt>
      <trkpt lat="43.60662" lon="1.24233">
        <ele>184.8</ele>
        <time>2023-04-04T15:45:06Z</time>
      </trkpt>
      <trkpt lat="43.60644" lon="1.24304">
        <ele>185</ele>
        <time>2023-04-04T15:45:14Z</time>
      </trkpt>
      <trkpt lat="43.6064" lon="1.2433">
        <ele>185.2</ele>
        <time>2023-04-04T15:45:17Z</time>
      </trkpt>
      <trkpt lat="43.6064" lon="1.24348">
        <ele>185</ele>
        <time>2023-04-04T15:45:19Z</time>
      </trkpt>
      <trkpt lat="43.6064" lon="1.24356">
        <ele>185</ele>
        <time>2023-04-04T15:45:20Z</time>
      </trkpt>
      <trkpt lat="43.60644" lon="1.24371">
        <ele>185</ele>
        <time>2023-04-04T15:45:22Z</time>
      </trkpt>
      <trkpt lat="43.60646" lon="1.24377">
        <ele>184.8</ele>
        <time>2023-04-04T15:45:23Z</time>
      </trkpt>
      <trkpt lat="43.60648" lon="1.24384">
        <ele>184.6</ele>
        <time>2023-04-04T15:45:25Z</time>
      </trkpt>
      <trkpt lat="43.60648" lon="1.24386">
        <ele>184.6</ele>
        <time>2023-04-04T15:45:26Z</time>
      </trkpt>
      <trkpt lat="43.60645" lon="1.24397">
        <ele>184.4</ele>
        <time>2023-04-04T15:45:30Z</time>
      </trkpt>
      <trkpt lat="43.60645" lon="1.24401">
        <ele>184.4</ele>
        <time>2023-04-04T15:45:31Z</time>
      </trkpt>
      <trkpt lat="43.60645" lon="1.24405">
        <ele>184.4</ele>
        <time>2023-04-04T15:45:32Z</time>
      </trkpt>
      <trkpt lat="43.60642" lon="1.24407">
        <ele>184.2</ele>
        <time>2023-04-04T15:45:34Z</time>
      </trkpt>
      <trkpt lat="43.60636" lon="1.24409">
        <ele>183.6</ele>
        <time>2023-04-04T15:45:37Z</time>
      </trkpt>
      <trkpt lat="43.60634" lon="1.2441">
        <ele>183.6</ele>
        <time>2023-04-04T15:45:38Z</time>
      </trkpt>
      <trkpt lat="43.60632" lon="1.24412">
        <ele>183</ele>
        <time>2023-04-04T15:45:39Z</time>
      </trkpt>
      <trkpt lat="43.60631" lon="1.24416">
        <ele>182.6</ele>
        <time>2023-04-04T15:45:40Z</time>
      </trkpt>
      <trkpt lat="43.60629" lon="1.2442">
        <ele>182.2</ele>
        <time>2023-04-04T15:45:41Z</time>
      </trkpt>
      <trkpt lat="43.60627" lon="1.24423">
        <ele>181.8</ele>
        <time>2023-04-04T15:45:42Z</time>
      </trkpt>
      <trkpt lat="43.60626" lon="1.24425">
        <ele>181.6</ele>
        <time>2023-04-04T15:45:43Z</time>
      </trkpt>
      <trkpt lat="43.60624" lon="1.24427">
        <ele>181.2</ele>
        <time>2023-04-04T15:45:44Z</time>
      </trkpt>
      <trkpt lat="43.60621" lon="1.24434">
        <ele>179.8</ele>
        <time>2023-04-04T15:45:46Z</time>
      </trkpt>
      <trkpt lat="43.6062" lon="1.24438">
        <ele>179</ele>
        <time>2023-04-04T15:45:47Z</time>
      </trkpt>
      <trkpt lat="43.60618" lon="1.24442">
        <ele>177.8</ele>
        <time>2023-04-04T15:45:48Z</time>
      </trkpt>
      <trkpt lat="43.60616" lon="1.24446">
        <ele>176.8</ele>
        <time>2023-04-04T15:45:49Z</time>
      </trkpt>
      <trkpt lat="43.60607" lon="1.24453">
        <ele>175.2</ele>
        <time>2023-04-04T15:45:51Z</time>
      </trkpt>
      <trkpt lat="43.60599" lon="1.24453">
        <ele>173.4</ele>
        <time>2023-04-04T15:45:53Z</time>
      </trkpt>
      <trkpt lat="43.60597" lon="1.24452">
        <ele>172.8</ele>
        <time>2023-04-04T15:45:54Z</time>
      </trkpt>
      <trkpt lat="43.60595" lon="1.24448">
        <ele>172</ele>
        <time>2023-04-04T15:45:55Z</time>
      </trkpt>
      <trkpt lat="43.60591" lon="1.2444">
        <ele>171</ele>
        <time>2023-04-04T15:45:57Z</time>
      </trkpt>
      <trkpt lat="43.60583" lon="1.24427">
        <ele>169.8</ele>
        <time>2023-04-04T15:46:00Z</time>
      </trkpt>
      <trkpt lat="43.60567" lon="1.24397">
        <ele>169.2</ele>
        <time>2023-04-04T15:46:05Z</time>
      </trkpt>
      <trkpt lat="43.60556" lon="1.24377">
        <ele>168.6</ele>
        <time>2023-04-04T15:46:08Z</time>
      </trkpt>
      <trkpt lat="43.60542" lon="1.24347">
        <ele>168.2</ele>
        <time>2023-04-04T15:46:12Z</time>
      </trkpt>
      <trkpt lat="43.60521" lon="1.24306">
        <ele>168</ele>
        <time>2023-04-04T15:46:18Z</time>
      </trkpt>
      <trkpt lat="43.60514" lon="1.24292">
        <ele>167.8</ele>
        <time>2023-04-04T15:46:20Z</time>
      </trkpt>
      <trkpt lat="43.60511" lon="1.24285">
        <ele>167.8</ele>
        <time>2023-04-04T15:46:21Z</time>
      </trkpt>
      <trkpt lat="43.60504" lon="1.2427">
        <ele>167.6</ele>
        <time>2023-04-04T15:46:24Z</time>
      </trkpt>
      <trkpt lat="43.60497" lon="1.24253">
        <ele>167.6</ele>
        <time>2023-04-04T15:46:29Z</time>
      </trkpt>
      <trkpt lat="43.60491" lon="1.24237">
        <ele>167.8</ele>
        <time>2023-04-04T15:46:32Z</time>
      </trkpt>
      <trkpt lat="43.60485" lon="1.24227">
        <ele>167.8</ele>
        <time>2023-04-04T15:46:34Z</time>
      </trkpt>
      <trkpt lat="43.60477" lon="1.2421">
        <ele>167.8</ele>
        <time>2023-04-04T15:46:37Z</time>
      </trkpt>
      <trkpt lat="43.60472" lon="1.24198">
        <ele>167.6</ele>
        <time>2023-04-04T15:46:39Z</time>
      </trkpt>
      <trkpt lat="43.60467" lon="1.24185">
        <ele>167.6</ele>
        <time>2023-04-04T15:46:41Z</time>
      </trkpt>
      <trkpt lat="43.60461" lon="1.24172">
        <ele>167.4</ele>
        <time>2023-04-04T15:46:43Z</time>
      </trkpt>
      <trkpt lat="43.60458" lon="1.24165">
        <ele>167.4</ele>
        <time>2023-04-04T15:46:44Z</time>
      </trkpt>
      <trkpt lat="43.60452" lon="1.24154">
        <ele>167.4</ele>
        <time>2023-04-04T15:46:46Z</time>
      </trkpt>
      <trkpt lat="43.60448" lon="1.24142">
        <ele>167.8</ele>
        <time>2023-04-04T15:46:48Z</time>
      </trkpt>
      <trkpt lat="43.60434" lon="1.24118">
        <ele>167.6</ele>
        <time>2023-04-04T15:46:52Z</time>
      </trkpt>
      <trkpt lat="43.60426" lon="1.24106">
        <ele>167.8</ele>
        <time>2023-04-04T15:46:54Z</time>
      </trkpt>
      <trkpt lat="43.60393" lon="1.24062">
        <ele>168.2</ele>
        <time>2023-04-04T15:47:02Z</time>
      </trkpt>
      <trkpt lat="43.60365" lon="1.24034">
        <ele>168.2</ele>
        <time>2023-04-04T15:47:08Z</time>
      </trkpt>
      <trkpt lat="43.60356" lon="1.24025">
        <ele>168.4</ele>
        <time>2023-04-04T15:47:10Z</time>
      </trkpt>
      <trkpt lat="43.60347" lon="1.24015">
        <ele>168.4</ele>
        <time>2023-04-04T15:47:12Z</time>
      </trkpt>
      <trkpt lat="43.6033" lon="1.23997">
        <ele>168.6</ele>
        <time>2023-04-04T15:47:16Z</time>
      </trkpt>
      <trkpt lat="43.60323" lon="1.23991">
        <ele>168.6</ele>
        <time>2023-04-04T15:47:17Z</time>
      </trkpt>
      <trkpt lat="43.60316" lon="1.23986">
        <ele>168.6</ele>
        <time>2023-04-04T15:47:19Z</time>
      </trkpt>
      <trkpt lat="43.60307" lon="1.23986">
        <ele>168.6</ele>
        <time>2023-04-04T15:47:21Z</time>
      </trkpt>
      <trkpt lat="43.60295" lon="1.23998">
        <ele>168.6</ele>
        <time>2023-04-04T15:47:25Z</time>
      </trkpt>
      <trkpt lat="43.6028" lon="1.24015">
        <ele>168.6</ele>
        <time>2023-04-04T15:47:30Z</time>
      </trkpt>
      <trkpt lat="43.60276" lon="1.24017">
        <ele>168.6</ele>
        <time>2023-04-04T15:47:31Z</time>
      </trkpt>
      <trkpt lat="43.60272" lon="1.24013">
        <ele>168.6</ele>
        <time>2023-04-04T15:47:33Z</time>
      </trkpt>
      <trkpt lat="43.60269" lon="1.23987">
        <ele>168.6</ele>
        <time>2023-04-04T15:47:38Z</time>
      </trkpt>
      <trkpt lat="43.60267" lon="1.23982">
        <ele>168.6</ele>
        <time>2023-04-04T15:47:39Z</time>
      </trkpt>
      <trkpt lat="43.60261" lon="1.23971">
        <ele>168.6</ele>
        <time>2023-04-04T15:47:41Z</time>
      </trkpt>
      <trkpt lat="43.60254" lon="1.23961">
        <ele>168.6</ele>
        <time>2023-04-04T15:47:43Z</time>
      </trkpt>
      <trkpt lat="43.60226" lon="1.2393">
        <ele>169.2</ele>
        <time>2023-04-04T15:47:50Z</time>
      </trkpt>
      <trkpt lat="43.60222" lon="1.23926">
        <ele>169.2</ele>
        <time>2023-04-04T15:47:51Z</time>
      </trkpt>
      <trkpt lat="43.60211" lon="1.23921">
        <ele>169.4</ele>
        <time>2023-04-04T15:47:53Z</time>
      </trkpt>
      <trkpt lat="43.60196" lon="1.23913">
        <ele>169.8</ele>
        <time>2023-04-04T15:47:56Z</time>
      </trkpt>
      <trkpt lat="43.60186" lon="1.23908">
        <ele>169.8</ele>
        <time>2023-04-04T15:47:58Z</time>
      </trkpt>
      <trkpt lat="43.60168" lon="1.23895">
        <ele>170.4</ele>
        <time>2023-04-04T15:48:02Z</time>
      </trkpt>
      <trkpt lat="43.60163" lon="1.23892">
        <ele>170.6</ele>
        <time>2023-04-04T15:48:03Z</time>
      </trkpt>
      <trkpt lat="43.60153" lon="1.23889">
        <ele>170.8</ele>
        <time>2023-04-04T15:48:05Z</time>
      </trkpt>
      <trkpt lat="43.60143" lon="1.23889">
        <ele>170.8</ele>
        <time>2023-04-04T15:48:07Z</time>
      </trkpt>
      <trkpt lat="43.60123" lon="1.23897">
        <ele>170.4</ele>
        <time>2023-04-04T15:48:11Z</time>
      </trkpt>
      <trkpt lat="43.60118" lon="1.23898">
        <ele>170.2</ele>
        <time>2023-04-04T15:48:12Z</time>
      </trkpt>
      <trkpt lat="43.60109" lon="1.23895">
        <ele>170</ele>
        <time>2023-04-04T15:48:14Z</time>
      </trkpt>
      <trkpt lat="43.60104" lon="1.23894">
        <ele>170</ele>
        <time>2023-04-04T15:48:15Z</time>
      </trkpt>
      <trkpt lat="43.60099" lon="1.23893">
        <ele>169.8</ele>
        <time>2023-04-04T15:48:16Z</time>
      </trkpt>
      <trkpt lat="43.60091" lon="1.23897">
        <ele>170</ele>
        <time>2023-04-04T15:48:18Z</time>
      </trkpt>
      <trkpt lat="43.60083" lon="1.23906">
        <ele>170.2</ele>
        <time>2023-04-04T15:48:20Z</time>
      </trkpt>
      <trkpt lat="43.60075" lon="1.23915">
        <ele>170.6</ele>
        <time>2023-04-04T15:48:23Z</time>
      </trkpt>
      <trkpt lat="43.60071" lon="1.2392">
        <ele>171.6</ele>
        <time>2023-04-04T15:48:26Z</time>
      </trkpt>
      <trkpt lat="43.60069" lon="1.23921">
        <ele>172</ele>
        <time>2023-04-04T15:48:27Z</time>
      </trkpt>
      <trkpt lat="43.60063" lon="1.23923">
        <ele>173</ele>
        <time>2023-04-04T15:48:29Z</time>
      </trkpt>
      <trkpt lat="43.60054" lon="1.23927">
        <ele>174</ele>
        <time>2023-04-04T15:48:32Z</time>
      </trkpt>
      <trkpt lat="43.6005" lon="1.23928">
        <ele>174.2</ele>
        <time>2023-04-04T15:48:33Z</time>
      </trkpt>
      <trkpt lat="43.60036" lon="1.23941">
        <ele>174.6</ele>
        <time>2023-04-04T15:48:38Z</time>
      </trkpt>
      <trkpt lat="43.60036" lon="1.23963">
        <ele>175</ele>
        <time>2023-04-04T15:48:42Z</time>
      </trkpt>
      <trkpt lat="43.60036" lon="1.23966">
        <ele>175</ele>
        <time>2023-04-04T15:48:43Z</time>
      </trkpt>
      <trkpt lat="43.60035" lon="1.23996">
        <ele>176.2</ele>
        <time>2023-04-04T15:48:49Z</time>
      </trkpt>
      <trkpt lat="43.60035" lon="1.24006">
        <ele>176.8</ele>
        <time>2023-04-04T15:48:51Z</time>
      </trkpt>
      <trkpt lat="43.60036" lon="1.2402">
        <ele>177.6</ele>
        <time>2023-04-04T15:48:54Z</time>
      </trkpt>
      <trkpt lat="43.60037" lon="1.24051">
        <ele>178.6</ele>
        <time>2023-04-04T15:49:00Z</time>
      </trkpt>
      <trkpt lat="43.60036" lon="1.24071">
        <ele>179.8</ele>
        <time>2023-04-04T15:49:04Z</time>
      </trkpt>
      <trkpt lat="43.60036" lon="1.24093">
        <ele>180.8</ele>
        <time>2023-04-04T15:49:08Z</time>
      </trkpt>
      <trkpt lat="43.60036" lon="1.24128">
        <ele>181.8</ele>
        <time>2023-04-04T15:49:15Z</time>
      </trkpt>
      <trkpt lat="43.60036" lon="1.24132">
        <ele>182.2</ele>
        <time>2023-04-04T15:49:16Z</time>
      </trkpt>
      <trkpt lat="43.60035" lon="1.24142">
        <ele>183</ele>
        <time>2023-04-04T15:49:19Z</time>
      </trkpt>
      <trkpt lat="43.60033" lon="1.24143">
        <ele>183.2</ele>
        <time>2023-04-04T15:49:20Z</time>
      </trkpt>
      <trkpt lat="43.60026" lon="1.24144">
        <ele>183.8</ele>
        <time>2023-04-04T15:49:23Z</time>
      </trkpt>
      <trkpt lat="43.60024" lon="1.24147">
        <ele>183.8</ele>
        <time>2023-04-04T15:49:24Z</time>
      </trkpt>
      <trkpt lat="43.60021" lon="1.24153">
        <ele>184</ele>
        <time>2023-04-04T15:49:26Z</time>
      </trkpt>
      <trkpt lat="43.60014" lon="1.24155">
        <ele>184.2</ele>
        <time>2023-04-04T15:49:28Z</time>
      </trkpt>
      <trkpt lat="43.60004" lon="1.24156">
        <ele>184.4</ele>
        <time>2023-04-04T15:49:30Z</time>
      </trkpt>
      <trkpt lat="43.59996" lon="1.24159">
        <ele>184.4</ele>
        <time>2023-04-04T15:49:32Z</time>
      </trkpt>
      <trkpt lat="43.59991" lon="1.24161">
        <ele>184.6</ele>
        <time>2023-04-04T15:49:33Z</time>
      </trkpt>
      <trkpt lat="43.59987" lon="1.24164">
        <ele>184.6</ele>
        <time>2023-04-04T15:49:34Z</time>
      </trkpt>
      <trkpt lat="43.5998" lon="1.24172">
        <ele>184.8</ele>
        <time>2023-04-04T15:49:36Z</time>
      </trkpt>
      <trkpt lat="43.59973" lon="1.24182">
        <ele>184.8</ele>
        <time>2023-04-04T15:49:38Z</time>
      </trkpt>
      <trkpt lat="43.59946" lon="1.24218">
        <ele>185.2</ele>
        <time>2023-04-04T15:49:45Z</time>
      </trkpt>
      <trkpt lat="43.59942" lon="1.24224">
        <ele>185.2</ele>
        <time>2023-04-04T15:49:46Z</time>
      </trkpt>
      <trkpt lat="43.59911" lon="1.24271">
        <ele>185.6</ele>
        <time>2023-04-04T15:49:54Z</time>
      </trkpt>
      <trkpt lat="43.59878" lon="1.24324">
        <ele>185.6</ele>
        <time>2023-04-04T15:50:02Z</time>
      </trkpt>
      <trkpt lat="43.59841" lon="1.24381">
        <ele>186</ele>
        <time>2023-04-04T15:50:11Z</time>
      </trkpt>
      <trkpt lat="43.59829" lon="1.24396">
        <ele>186</ele>
        <time>2023-04-04T15:50:14Z</time>
      </trkpt>
      <trkpt lat="43.59826" lon="1.24402">
        <ele>185.8</ele>
        <time>2023-04-04T15:50:15Z</time>
      </trkpt>
      <trkpt lat="43.59823" lon="1.24407">
        <ele>185.8</ele>
        <time>2023-04-04T15:50:16Z</time>
      </trkpt>
      <trkpt lat="43.5981" lon="1.24423">
        <ele>185.8</ele>
        <time>2023-04-04T15:50:19Z</time>
      </trkpt>
      <trkpt lat="43.5978" lon="1.24455">
        <ele>185.8</ele>
        <time>2023-04-04T15:50:25Z</time>
      </trkpt>
      <trkpt lat="43.5975" lon="1.24488">
        <ele>186</ele>
        <time>2023-04-04T15:50:31Z</time>
      </trkpt>
      <trkpt lat="43.59745" lon="1.24493">
        <ele>186.2</ele>
        <time>2023-04-04T15:50:32Z</time>
      </trkpt>
      <trkpt lat="43.5973" lon="1.24509">
        <ele>186.2</ele>
        <time>2023-04-04T15:50:35Z</time>
      </trkpt>
      <trkpt lat="43.5972" lon="1.24517">
        <ele>186.4</ele>
        <time>2023-04-04T15:50:37Z</time>
      </trkpt>
      <trkpt lat="43.59681" lon="1.24557">
        <ele>186.8</ele>
        <time>2023-04-04T15:50:45Z</time>
      </trkpt>
      <trkpt lat="43.59635" lon="1.24599">
        <ele>187.2</ele>
        <time>2023-04-04T15:50:53Z</time>
      </trkpt>
      <trkpt lat="43.59628" lon="1.24604">
        <ele>187.2</ele>
        <time>2023-04-04T15:50:54Z</time>
      </trkpt>
      <trkpt lat="43.5958" lon="1.24642">
        <ele>187</ele>
        <time>2023-04-04T15:51:02Z</time>
      </trkpt>
      <trkpt lat="43.59574" lon="1.24647">
        <ele>187</ele>
        <time>2023-04-04T15:51:03Z</time>
      </trkpt>
      <trkpt lat="43.59521" lon="1.24682">
        <ele>186.8</ele>
        <time>2023-04-04T15:51:11Z</time>
      </trkpt>
      <trkpt lat="43.59501" lon="1.24694">
        <ele>187</ele>
        <time>2023-04-04T15:51:14Z</time>
      </trkpt>
      <trkpt lat="43.59448" lon="1.24722">
        <ele>186.8</ele>
        <time>2023-04-04T15:51:22Z</time>
      </trkpt>
      <trkpt lat="43.59442" lon="1.24726">
        <ele>187</ele>
        <time>2023-04-04T15:51:23Z</time>
      </trkpt>
      <trkpt lat="43.59424" lon="1.24739">
        <ele>187</ele>
        <time>2023-04-04T15:51:26Z</time>
      </trkpt>
      <trkpt lat="43.59419" lon="1.24745">
        <ele>187.2</ele>
        <time>2023-04-04T15:51:27Z</time>
      </trkpt>
      <trkpt lat="43.59415" lon="1.24752">
        <ele>187.2</ele>
        <time>2023-04-04T15:51:28Z</time>
      </trkpt>
      <trkpt lat="43.5941" lon="1.24759">
        <ele>187.4</ele>
        <time>2023-04-04T15:51:29Z</time>
      </trkpt>
      <trkpt lat="43.59388" lon="1.24787">
        <ele>187.4</ele>
        <time>2023-04-04T15:51:33Z</time>
      </trkpt>
      <trkpt lat="43.59344" lon="1.24844">
        <ele>187.8</ele>
        <time>2023-04-04T15:51:41Z</time>
      </trkpt>
      <trkpt lat="43.59305" lon="1.249">
        <ele>187.6</ele>
        <time>2023-04-04T15:51:48Z</time>
      </trkpt>
      <trkpt lat="43.59283" lon="1.24932">
        <ele>187.6</ele>
        <time>2023-04-04T15:51:52Z</time>
      </trkpt>
      <trkpt lat="43.59241" lon="1.24988">
        <ele>187.4</ele>
        <time>2023-04-04T15:51:59Z</time>
      </trkpt>
      <trkpt lat="43.59224" lon="1.25011">
        <ele>187.2</ele>
        <time>2023-04-04T15:52:02Z</time>
      </trkpt>
      <trkpt lat="43.59186" lon="1.25067">
        <ele>187</ele>
        <time>2023-04-04T15:52:09Z</time>
      </trkpt>
      <trkpt lat="43.59178" lon="1.25082">
        <ele>187</ele>
        <time>2023-04-04T15:52:11Z</time>
      </trkpt>
      <trkpt lat="43.59174" lon="1.25089">
        <ele>187</ele>
        <time>2023-04-04T15:52:12Z</time>
      </trkpt>
      <trkpt lat="43.59174" lon="1.25098">
        <ele>187</ele>
        <time>2023-04-04T15:52:13Z</time>
      </trkpt>
      <trkpt lat="43.59176" lon="1.25106">
        <ele>187.2</ele>
        <time>2023-04-04T15:52:14Z</time>
      </trkpt>
      <trkpt lat="43.59181" lon="1.25112">
        <ele>187.2</ele>
        <time>2023-04-04T15:52:15Z</time>
      </trkpt>
      <trkpt lat="43.59202" lon="1.25133">
        <ele>187.2</ele>
        <time>2023-04-04T15:52:19Z</time>
      </trkpt>
      <trkpt lat="43.59212" lon="1.25144">
        <ele>187.2</ele>
        <time>2023-04-04T15:52:21Z</time>
      </trkpt>
      <trkpt lat="43.59262" lon="1.25189">
        <ele>187.8</ele>
        <time>2023-04-04T15:52:30Z</time>
      </trkpt>
      <trkpt lat="43.59273" lon="1.252">
        <ele>187.8</ele>
        <time>2023-04-04T15:52:32Z</time>
      </trkpt>
      <trkpt lat="43.59286" lon="1.25209">
        <ele>187.8</ele>
        <time>2023-04-04T15:52:34Z</time>
      </trkpt>
      <trkpt lat="43.59298" lon="1.25219">
        <ele>187.8</ele>
        <time>2023-04-04T15:52:36Z</time>
      </trkpt>
      <trkpt lat="43.59303" lon="1.25225">
        <ele>187.8</ele>
        <time>2023-04-04T15:52:37Z</time>
      </trkpt>
      <trkpt lat="43.59319" lon="1.25244">
        <ele>187.8</ele>
        <time>2023-04-04T15:52:40Z</time>
      </trkpt>
      <trkpt lat="43.5935" lon="1.2527">
        <ele>187.8</ele>
        <time>2023-04-04T15:52:45Z</time>
      </trkpt>
      <trkpt lat="43.59357" lon="1.25273">
        <ele>187.8</ele>
        <time>2023-04-04T15:52:46Z</time>
      </trkpt>
      <trkpt lat="43.5939" lon="1.25288">
        <ele>187.6</ele>
        <time>2023-04-04T15:52:51Z</time>
      </trkpt>
      <trkpt lat="43.59442" lon="1.25307">
        <ele>187.2</ele>
        <time>2023-04-04T15:52:59Z</time>
      </trkpt>
      <trkpt lat="43.59479" lon="1.25317">
        <ele>187.4</ele>
        <time>2023-04-04T15:53:05Z</time>
      </trkpt>
      <trkpt lat="43.59491" lon="1.2532">
        <ele>187.6</ele>
        <time>2023-04-04T15:53:07Z</time>
      </trkpt>
      <trkpt lat="43.59503" lon="1.25326">
        <ele>187.6</ele>
        <time>2023-04-04T15:53:09Z</time>
      </trkpt>
      <trkpt lat="43.59513" lon="1.25335">
        <ele>187.8</ele>
        <time>2023-04-04T15:53:11Z</time>
      </trkpt>
      <trkpt lat="43.59518" lon="1.2534">
        <ele>187.8</ele>
        <time>2023-04-04T15:53:12Z</time>
      </trkpt>
      <trkpt lat="43.59544" lon="1.25376">
        <ele>188.2</ele>
        <time>2023-04-04T15:53:18Z</time>
      </trkpt>
      <trkpt lat="43.59549" lon="1.25382">
        <ele>188.4</ele>
        <time>2023-04-04T15:53:19Z</time>
      </trkpt>
      <trkpt lat="43.59574" lon="1.25406">
        <ele>188.6</ele>
        <time>2023-04-04T15:53:24Z</time>
      </trkpt>
      <trkpt lat="43.59586" lon="1.25412">
        <ele>188.6</ele>
        <time>2023-04-04T15:53:26Z</time>
      </trkpt>
      <trkpt lat="43.59604" lon="1.25416">
        <ele>188.6</ele>
        <time>2023-04-04T15:53:29Z</time>
      </trkpt>
      <trkpt lat="43.59642" lon="1.25425">
        <ele>188</ele>
        <time>2023-04-04T15:53:35Z</time>
      </trkpt>
      <trkpt lat="43.59667" lon="1.25429">
        <ele>187.6</ele>
        <time>2023-04-04T15:53:39Z</time>
      </trkpt>
      <trkpt lat="43.5968" lon="1.25428">
        <ele>187.6</ele>
        <time>2023-04-04T15:53:41Z</time>
      </trkpt>
      <trkpt lat="43.59692" lon="1.2543">
        <ele>187.6</ele>
        <time>2023-04-04T15:53:43Z</time>
      </trkpt>
      <trkpt lat="43.59704" lon="1.25434">
        <ele>187.8</ele>
        <time>2023-04-04T15:53:45Z</time>
      </trkpt>
      <trkpt lat="43.5971" lon="1.25436">
        <ele>187.8</ele>
        <time>2023-04-04T15:53:46Z</time>
      </trkpt>
      <trkpt lat="43.59758" lon="1.25443">
        <ele>187.6</ele>
        <time>2023-04-04T15:53:54Z</time>
      </trkpt>
      <trkpt lat="43.59807" lon="1.25449">
        <ele>187.4</ele>
        <time>2023-04-04T15:54:02Z</time>
      </trkpt>
      <trkpt lat="43.59813" lon="1.2545">
        <ele>187.4</ele>
        <time>2023-04-04T15:54:03Z</time>
      </trkpt>
      <trkpt lat="43.59819" lon="1.25452">
        <ele>187.6</ele>
        <time>2023-04-04T15:54:04Z</time>
      </trkpt>
      <trkpt lat="43.59825" lon="1.25454">
        <ele>187.6</ele>
        <time>2023-04-04T15:54:05Z</time>
      </trkpt>
      <trkpt lat="43.59837" lon="1.25456">
        <ele>187.4</ele>
        <time>2023-04-04T15:54:07Z</time>
      </trkpt>
      <trkpt lat="43.59894" lon="1.25462">
        <ele>187.4</ele>
        <time>2023-04-04T15:54:16Z</time>
      </trkpt>
      <trkpt lat="43.59907" lon="1.25463">
        <ele>187.4</ele>
        <time>2023-04-04T15:54:18Z</time>
      </trkpt>
      <trkpt lat="43.59956" lon="1.2547">
        <ele>187.2</ele>
        <time>2023-04-04T15:54:26Z</time>
      </trkpt>
      <trkpt lat="43.59968" lon="1.25473">
        <ele>187.4</ele>
        <time>2023-04-04T15:54:28Z</time>
      </trkpt>
      <trkpt lat="43.59985" lon="1.25479">
        <ele>187.4</ele>
        <time>2023-04-04T15:54:31Z</time>
      </trkpt>
      <trkpt lat="43.59994" lon="1.25482">
        <ele>187.6</ele>
        <time>2023-04-04T15:54:33Z</time>
      </trkpt>
      <trkpt lat="43.6" lon="1.25491">
        <ele>187.4</ele>
        <time>2023-04-04T15:54:35Z</time>
      </trkpt>
      <trkpt lat="43.60001" lon="1.25497">
        <ele>187.4</ele>
        <time>2023-04-04T15:54:36Z</time>
      </trkpt>
      <trkpt lat="43.60003" lon="1.25519">
        <ele>187.2</ele>
        <time>2023-04-04T15:54:39Z</time>
      </trkpt>
      <trkpt lat="43.60003" lon="1.25564">
        <ele>187.2</ele>
        <time>2023-04-04T15:54:44Z</time>
      </trkpt>
      <trkpt lat="43.59998" lon="1.25635">
        <ele>186.6</ele>
        <time>2023-04-04T15:54:51Z</time>
      </trkpt>
      <trkpt lat="43.59997" lon="1.25646">
        <ele>186.6</ele>
        <time>2023-04-04T15:54:52Z</time>
      </trkpt>
      <trkpt lat="43.59992" lon="1.25709">
        <ele>186.2</ele>
        <time>2023-04-04T15:54:58Z</time>
      </trkpt>
      <trkpt lat="43.59986" lon="1.25771">
        <ele>185.6</ele>
        <time>2023-04-04T15:55:04Z</time>
      </trkpt>
      <trkpt lat="43.5998" lon="1.25832">
        <ele>185.2</ele>
        <time>2023-04-04T15:55:10Z</time>
      </trkpt>
      <trkpt lat="43.5997" lon="1.25912">
        <ele>185.2</ele>
        <time>2023-04-04T15:55:18Z</time>
      </trkpt>
      <trkpt lat="43.59965" lon="1.25943">
        <ele>185.2</ele>
        <time>2023-04-04T15:55:21Z</time>
      </trkpt>
      <trkpt lat="43.59951" lon="1.26025">
        <ele>184.8</ele>
        <time>2023-04-04T15:55:29Z</time>
      </trkpt>
      <trkpt lat="43.59949" lon="1.26035">
        <ele>184.8</ele>
        <time>2023-04-04T15:55:30Z</time>
      </trkpt>
      <trkpt lat="43.59931" lon="1.26116">
        <ele>184.6</ele>
        <time>2023-04-04T15:55:38Z</time>
      </trkpt>
      <trkpt lat="43.59922" lon="1.26158">
        <ele>184.6</ele>
        <time>2023-04-04T15:55:42Z</time>
      </trkpt>
      <trkpt lat="43.59913" lon="1.26223">
        <ele>184</ele>
        <time>2023-04-04T15:55:48Z</time>
      </trkpt>
      <trkpt lat="43.59906" lon="1.26252">
        <ele>183.6</ele>
        <time>2023-04-04T15:55:51Z</time>
      </trkpt>
      <trkpt lat="43.59906" lon="1.26261">
        <ele>183.6</ele>
        <time>2023-04-04T15:55:52Z</time>
      </trkpt>
      <trkpt lat="43.59907" lon="1.26271">
        <ele>183.4</ele>
        <time>2023-04-04T15:55:53Z</time>
      </trkpt>
      <trkpt lat="43.5991" lon="1.26302">
        <ele>183.4</ele>
        <time>2023-04-04T15:55:56Z</time>
      </trkpt>
      <trkpt lat="43.5991" lon="1.26375">
        <ele>183</ele>
        <time>2023-04-04T15:56:03Z</time>
      </trkpt>
      <trkpt lat="43.59911" lon="1.26394">
        <ele>182.4</ele>
        <time>2023-04-04T15:56:05Z</time>
      </trkpt>
      <trkpt lat="43.5991" lon="1.26463">
        <ele>181.6</ele>
        <time>2023-04-04T15:56:11Z</time>
      </trkpt>
      <trkpt lat="43.59909" lon="1.26486">
        <ele>181.4</ele>
        <time>2023-04-04T15:56:13Z</time>
      </trkpt>
      <trkpt lat="43.59906" lon="1.26546">
        <ele>180.8</ele>
        <time>2023-04-04T15:56:18Z</time>
      </trkpt>
      <trkpt lat="43.59904" lon="1.26581">
        <ele>180.4</ele>
        <time>2023-04-04T15:56:21Z</time>
      </trkpt>
      <trkpt lat="43.59905" lon="1.26641">
        <ele>180</ele>
        <time>2023-04-04T15:56:26Z</time>
      </trkpt>
      <trkpt lat="43.59909" lon="1.26726">
        <ele>179.8</ele>
        <time>2023-04-04T15:56:33Z</time>
      </trkpt>
      <trkpt lat="43.5991" lon="1.26764">
        <ele>179.8</ele>
        <time>2023-04-04T15:56:36Z</time>
      </trkpt>
      <trkpt lat="43.59901" lon="1.26824">
        <ele>179.6</ele>
        <time>2023-04-04T15:56:41Z</time>
      </trkpt>
      <trkpt lat="43.59895" lon="1.26847">
        <ele>179.4</ele>
        <time>2023-04-04T15:56:43Z</time>
      </trkpt>
      <trkpt lat="43.59891" lon="1.2687">
        <ele>179.2</ele>
        <time>2023-04-04T15:56:45Z</time>
      </trkpt>
      <trkpt lat="43.59869" lon="1.26946">
        <ele>178.6</ele>
        <time>2023-04-04T15:56:52Z</time>
      </trkpt>
      <trkpt lat="43.59859" lon="1.26974">
        <ele>178.6</ele>
        <time>2023-04-04T15:56:55Z</time>
      </trkpt>
      <trkpt lat="43.59848" lon="1.27002">
        <ele>178.6</ele>
        <time>2023-04-04T15:56:58Z</time>
      </trkpt>
      <trkpt lat="43.59826" lon="1.2707">
        <ele>179</ele>
        <time>2023-04-04T15:57:05Z</time>
      </trkpt>
      <trkpt lat="43.5982" lon="1.27116">
        <ele>179</ele>
        <time>2023-04-04T15:57:09Z</time>
      </trkpt>
      <trkpt lat="43.59813" lon="1.27196">
        <ele>177.8</ele>
        <time>2023-04-04T15:57:15Z</time>
      </trkpt>
      <trkpt lat="43.59807" lon="1.27227">
        <ele>176.8</ele>
        <time>2023-04-04T15:57:17Z</time>
      </trkpt>
      <trkpt lat="43.59803" lon="1.27242">
        <ele>175.8</ele>
        <time>2023-04-04T15:57:18Z</time>
      </trkpt>
      <trkpt lat="43.59798" lon="1.27258">
        <ele>175.2</ele>
        <time>2023-04-04T15:57:19Z</time>
      </trkpt>
      <trkpt lat="43.59793" lon="1.27274">
        <ele>173.8</ele>
        <time>2023-04-04T15:57:20Z</time>
      </trkpt>
      <trkpt lat="43.59783" lon="1.27305">
        <ele>171.6</ele>
        <time>2023-04-04T15:57:22Z</time>
      </trkpt>
      <trkpt lat="43.59778" lon="1.2732">
        <ele>170.4</ele>
        <time>2023-04-04T15:57:23Z</time>
      </trkpt>
      <trkpt lat="43.59773" lon="1.27334">
        <ele>169</ele>
        <time>2023-04-04T15:57:24Z</time>
      </trkpt>
      <trkpt lat="43.59768" lon="1.27349">
        <ele>168</ele>
        <time>2023-04-04T15:57:25Z</time>
      </trkpt>
      <trkpt lat="43.59758" lon="1.27377">
        <ele>166</ele>
        <time>2023-04-04T15:57:27Z</time>
      </trkpt>
      <trkpt lat="43.59748" lon="1.27403">
        <ele>164.6</ele>
        <time>2023-04-04T15:57:29Z</time>
      </trkpt>
      <trkpt lat="43.59744" lon="1.27416">
        <ele>164.4</ele>
        <time>2023-04-04T15:57:30Z</time>
      </trkpt>
      <trkpt lat="43.59739" lon="1.27429">
        <ele>163.6</ele>
        <time>2023-04-04T15:57:31Z</time>
      </trkpt>
      <trkpt lat="43.59727" lon="1.27466">
        <ele>162.4</ele>
        <time>2023-04-04T15:57:34Z</time>
      </trkpt>
      <trkpt lat="43.59715" lon="1.27501">
        <ele>161.4</ele>
        <time>2023-04-04T15:57:37Z</time>
      </trkpt>
      <trkpt lat="43.59711" lon="1.27512">
        <ele>161.2</ele>
        <time>2023-04-04T15:57:38Z</time>
      </trkpt>
      <trkpt lat="43.59692" lon="1.27567">
        <ele>160.8</ele>
        <time>2023-04-04T15:57:43Z</time>
      </trkpt>
      <trkpt lat="43.59677" lon="1.27619">
        <ele>160.2</ele>
        <time>2023-04-04T15:57:49Z</time>
      </trkpt>
      <trkpt lat="43.59668" lon="1.27652">
        <ele>160</ele>
        <time>2023-04-04T15:57:51Z</time>
      </trkpt>
      <trkpt lat="43.59663" lon="1.2767">
        <ele>159.8</ele>
        <time>2023-04-04T15:57:53Z</time>
      </trkpt>
      <trkpt lat="43.59659" lon="1.27677">
        <ele>159.6</ele>
        <time>2023-04-04T15:57:54Z</time>
      </trkpt>
      <trkpt lat="43.59654" lon="1.27681">
        <ele>159.6</ele>
        <time>2023-04-04T15:57:55Z</time>
      </trkpt>
      <trkpt lat="43.59643" lon="1.27681">
        <ele>159.6</ele>
        <time>2023-04-04T15:57:57Z</time>
      </trkpt>
      <trkpt lat="43.59623" lon="1.27675">
        <ele>159.4</ele>
        <time>2023-04-04T15:58:00Z</time>
      </trkpt>
      <trkpt lat="43.59617" lon="1.27676">
        <ele>159.4</ele>
        <time>2023-04-04T15:58:01Z</time>
      </trkpt>
      <trkpt lat="43.59612" lon="1.2768">
        <ele>159.4</ele>
        <time>2023-04-04T15:58:02Z</time>
      </trkpt>
      <trkpt lat="43.59608" lon="1.27687">
        <ele>159.6</ele>
        <time>2023-04-04T15:58:03Z</time>
      </trkpt>
      <trkpt lat="43.59595" lon="1.27728">
        <ele>159.4</ele>
        <time>2023-04-04T15:58:07Z</time>
      </trkpt>
      <trkpt lat="43.59592" lon="1.27738">
        <ele>159.4</ele>
        <time>2023-04-04T15:58:08Z</time>
      </trkpt>
      <trkpt lat="43.59576" lon="1.2778">
        <ele>159.2</ele>
        <time>2023-04-04T15:58:12Z</time>
      </trkpt>
      <trkpt lat="43.59564" lon="1.27812">
        <ele>158.4</ele>
        <time>2023-04-04T15:58:15Z</time>
      </trkpt>
      <trkpt lat="43.5956" lon="1.27824">
        <ele>158</ele>
        <time>2023-04-04T15:58:16Z</time>
      </trkpt>
      <trkpt lat="43.59542" lon="1.27867">
        <ele>156.8</ele>
        <time>2023-04-04T15:58:20Z</time>
      </trkpt>
      <trkpt lat="43.59533" lon="1.27887">
        <ele>156.6</ele>
        <time>2023-04-04T15:58:22Z</time>
      </trkpt>
      <trkpt lat="43.59518" lon="1.27916">
        <ele>155.8</ele>
        <time>2023-04-04T15:58:25Z</time>
      </trkpt>
      <trkpt lat="43.59501" lon="1.27952">
        <ele>155.4</ele>
        <time>2023-04-04T15:58:29Z</time>
      </trkpt>
      <trkpt lat="43.59493" lon="1.27982">
        <ele>155.2</ele>
        <time>2023-04-04T15:58:32Z</time>
      </trkpt>
      <trkpt lat="43.5949" lon="1.28003">
        <ele>155.4</ele>
        <time>2023-04-04T15:58:34Z</time>
      </trkpt>
      <trkpt lat="43.5948" lon="1.28085">
        <ele>155.8</ele>
        <time>2023-04-04T15:58:42Z</time>
      </trkpt>
      <trkpt lat="43.59473" lon="1.2813">
        <ele>156.2</ele>
        <time>2023-04-04T15:58:47Z</time>
      </trkpt>
      <trkpt lat="43.59466" lon="1.28169">
        <ele>157.2</ele>
        <time>2023-04-04T15:58:52Z</time>
      </trkpt>
      <trkpt lat="43.59465" lon="1.28176">
        <ele>157.4</ele>
        <time>2023-04-04T15:58:53Z</time>
      </trkpt>
      <trkpt lat="43.59463" lon="1.28183">
        <ele>157.6</ele>
        <time>2023-04-04T15:58:54Z</time>
      </trkpt>
      <trkpt lat="43.59457" lon="1.28201">
        <ele>158.6</ele>
        <time>2023-04-04T15:58:57Z</time>
      </trkpt>
      <trkpt lat="43.59456" lon="1.28207">
        <ele>158.8</ele>
        <time>2023-04-04T15:58:58Z</time>
      </trkpt>
      <trkpt lat="43.59454" lon="1.28212">
        <ele>159.2</ele>
        <time>2023-04-04T15:58:59Z</time>
      </trkpt>
      <trkpt lat="43.5945" lon="1.28222">
        <ele>159.6</ele>
        <time>2023-04-04T15:59:01Z</time>
      </trkpt>
      <trkpt lat="43.59448" lon="1.2823">
        <ele>160</ele>
        <time>2023-04-04T15:59:03Z</time>
      </trkpt>
      <trkpt lat="43.59443" lon="1.28243">
        <ele>160.6</ele>
        <time>2023-04-04T15:59:06Z</time>
      </trkpt>
      <trkpt lat="43.59438" lon="1.28255">
        <ele>161.6</ele>
        <time>2023-04-04T15:59:09Z</time>
      </trkpt>
      <trkpt lat="43.59436" lon="1.2826">
        <ele>161.8</ele>
        <time>2023-04-04T15:59:10Z</time>
      </trkpt>
      <trkpt lat="43.59429" lon="1.28274">
        <ele>162.8</ele>
        <time>2023-04-04T15:59:13Z</time>
      </trkpt>
      <trkpt lat="43.59427" lon="1.28278">
        <ele>163.2</ele>
        <time>2023-04-04T15:59:14Z</time>
      </trkpt>
      <trkpt lat="43.59419" lon="1.28292">
        <ele>164</ele>
        <time>2023-04-04T15:59:17Z</time>
      </trkpt>
      <trkpt lat="43.59413" lon="1.283">
        <ele>164.4</ele>
        <time>2023-04-04T15:59:19Z</time>
      </trkpt>
      <trkpt lat="43.59402" lon="1.28317">
        <ele>165.2</ele>
        <time>2023-04-04T15:59:22Z</time>
      </trkpt>
      <trkpt lat="43.59396" lon="1.28325">
        <ele>165.6</ele>
        <time>2023-04-04T15:59:24Z</time>
      </trkpt>
      <trkpt lat="43.59382" lon="1.2834">
        <ele>166.4</ele>
        <time>2023-04-04T15:59:28Z</time>
      </trkpt>
      <trkpt lat="43.59378" lon="1.28345">
        <ele>166.6</ele>
        <time>2023-04-04T15:59:29Z</time>
      </trkpt>
      <trkpt lat="43.59364" lon="1.28364">
        <ele>167.6</ele>
        <time>2023-04-04T15:59:33Z</time>
      </trkpt>
      <trkpt lat="43.5936" lon="1.28369">
        <ele>167.6</ele>
        <time>2023-04-04T15:59:34Z</time>
      </trkpt>
      <trkpt lat="43.59348" lon="1.28387">
        <ele>168.6</ele>
        <time>2023-04-04T15:59:37Z</time>
      </trkpt>
      <trkpt lat="43.59337" lon="1.28402">
        <ele>169.2</ele>
        <time>2023-04-04T15:59:40Z</time>
      </trkpt>
      <trkpt lat="43.59333" lon="1.28406">
        <ele>169.4</ele>
        <time>2023-04-04T15:59:41Z</time>
      </trkpt>
      <trkpt lat="43.5933" lon="1.2841">
        <ele>169.6</ele>
        <time>2023-04-04T15:59:42Z</time>
      </trkpt>
      <trkpt lat="43.59314" lon="1.28432">
        <ele>170.6</ele>
        <time>2023-04-04T15:59:47Z</time>
      </trkpt>
      <trkpt lat="43.59312" lon="1.28435">
        <ele>170.8</ele>
        <time>2023-04-04T15:59:48Z</time>
      </trkpt>
      <trkpt lat="43.59297" lon="1.28453">
        <ele>171.6</ele>
        <time>2023-04-04T15:59:52Z</time>
      </trkpt>
      <trkpt lat="43.59283" lon="1.28468">
        <ele>172.4</ele>
        <time>2023-04-04T15:59:56Z</time>
      </trkpt>
      <trkpt lat="43.59276" lon="1.28476">
        <ele>172.8</ele>
        <time>2023-04-04T15:59:58Z</time>
      </trkpt>
      <trkpt lat="43.59259" lon="1.28493">
        <ele>173.8</ele>
        <time>2023-04-04T16:00:03Z</time>
      </trkpt>
      <trkpt lat="43.59253" lon="1.28499">
        <ele>174.4</ele>
        <time>2023-04-04T16:00:05Z</time>
      </trkpt>
      <trkpt lat="43.5925" lon="1.28503">
        <ele>175</ele>
        <time>2023-04-04T16:00:06Z</time>
      </trkpt>
      <trkpt lat="43.5923" lon="1.28522">
        <ele>176</ele>
        <time>2023-04-04T16:00:12Z</time>
      </trkpt>
      <trkpt lat="43.59209" lon="1.28528">
        <ele>177</ele>
        <time>2023-04-04T16:00:17Z</time>
      </trkpt>
      <trkpt lat="43.59204" lon="1.28527">
        <ele>177.2</ele>
        <time>2023-04-04T16:00:18Z</time>
      </trkpt>
      <trkpt lat="43.592" lon="1.28525">
        <ele>177.2</ele>
        <time>2023-04-04T16:00:19Z</time>
      </trkpt>
      <trkpt lat="43.59175" lon="1.2851">
        <ele>177.6</ele>
        <time>2023-04-04T16:00:24Z</time>
      </trkpt>
      <trkpt lat="43.5913" lon="1.28473">
        <ele>177.8</ele>
        <time>2023-04-04T16:00:33Z</time>
      </trkpt>
      <trkpt lat="43.59093" lon="1.28434">
        <ele>178</ele>
        <time>2023-04-04T16:00:41Z</time>
      </trkpt>
      <trkpt lat="43.59078" lon="1.28408">
        <ele>178</ele>
        <time>2023-04-04T16:00:45Z</time>
      </trkpt>
      <trkpt lat="43.59071" lon="1.28393">
        <ele>178.2</ele>
        <time>2023-04-04T16:00:47Z</time>
      </trkpt>
      <trkpt lat="43.59054" lon="1.28345">
        <ele>178.8</ele>
        <time>2023-04-04T16:00:54Z</time>
      </trkpt>
      <trkpt lat="43.59045" lon="1.28314">
        <ele>179.2</ele>
        <time>2023-04-04T16:00:58Z</time>
      </trkpt>
      <trkpt lat="43.59033" lon="1.28278">
        <ele>179.6</ele>
        <time>2023-04-04T16:01:03Z</time>
      </trkpt>
      <trkpt lat="43.59008" lon="1.28216">
        <ele>180</ele>
        <time>2023-04-04T16:01:12Z</time>
      </trkpt>
      <trkpt lat="43.58984" lon="1.28175">
        <ele>180.2</ele>
        <time>2023-04-04T16:01:19Z</time>
      </trkpt>
      <trkpt lat="43.58975" lon="1.28163">
        <ele>180.4</ele>
        <time>2023-04-04T16:01:21Z</time>
      </trkpt>
      <trkpt lat="43.58933" lon="1.28118">
        <ele>180.8</ele>
        <time>2023-04-04T16:01:30Z</time>
      </trkpt>
      <trkpt lat="43.58888" lon="1.28075">
        <ele>181</ele>
        <time>2023-04-04T16:01:39Z</time>
      </trkpt>
      <trkpt lat="43.58883" lon="1.2807">
        <ele>181</ele>
        <time>2023-04-04T16:01:40Z</time>
      </trkpt>
      <trkpt lat="43.58841" lon="1.28044">
        <ele>181</ele>
        <time>2023-04-04T16:01:47Z</time>
      </trkpt>
      <trkpt lat="43.58802" lon="1.28031">
        <ele>180.8</ele>
        <time>2023-04-04T16:01:53Z</time>
      </trkpt>
      <trkpt lat="43.58752" lon="1.28028">
        <ele>180.6</ele>
        <time>2023-04-04T16:02:00Z</time>
      </trkpt>
      <trkpt lat="43.58698" lon="1.28033">
        <ele>180.6</ele>
        <time>2023-04-04T16:02:08Z</time>
      </trkpt>
      <trkpt lat="43.58683" lon="1.28034">
        <ele>180.8</ele>
        <time>2023-04-04T16:02:10Z</time>
      </trkpt>
      <trkpt lat="43.58639" lon="1.28028">
        <ele>180.8</ele>
        <time>2023-04-04T16:02:16Z</time>
      </trkpt>
      <trkpt lat="43.58592" lon="1.28006">
        <ele>180.8</ele>
        <time>2023-04-04T16:02:23Z</time>
      </trkpt>
      <trkpt lat="43.58557" lon="1.27979">
        <ele>181.4</ele>
        <time>2023-04-04T16:02:29Z</time>
      </trkpt>
      <trkpt lat="43.58537" lon="1.27959">
        <ele>181.6</ele>
        <time>2023-04-04T16:02:33Z</time>
      </trkpt>
      <trkpt lat="43.58493" lon="1.27917">
        <ele>181.6</ele>
        <time>2023-04-04T16:02:41Z</time>
      </trkpt>
      <trkpt lat="43.58447" lon="1.27874">
        <ele>181.8</ele>
        <time>2023-04-04T16:02:49Z</time>
      </trkpt>
      <trkpt lat="43.58425" lon="1.27853">
        <ele>182</ele>
        <time>2023-04-04T16:02:53Z</time>
      </trkpt>
      <trkpt lat="43.58377" lon="1.27805">
        <ele>181.8</ele>
        <time>2023-04-04T16:03:02Z</time>
      </trkpt>
      <trkpt lat="43.58372" lon="1.27799">
        <ele>181.8</ele>
        <time>2023-04-04T16:03:03Z</time>
      </trkpt>
      <trkpt lat="43.58359" lon="1.27786">
        <ele>181.6</ele>
        <time>2023-04-04T16:03:06Z</time>
      </trkpt>
      <trkpt lat="43.58349" lon="1.27779">
        <ele>181.4</ele>
        <time>2023-04-04T16:03:08Z</time>
      </trkpt>
      <trkpt lat="43.58341" lon="1.27773">
        <ele>181.2</ele>
        <time>2023-04-04T16:03:10Z</time>
      </trkpt>
      <trkpt lat="43.5833" lon="1.27771">
        <ele>181.2</ele>
        <time>2023-04-04T16:03:12Z</time>
      </trkpt>
      <trkpt lat="43.58327" lon="1.27781">
        <ele>181.2</ele>
        <time>2023-04-04T16:03:14Z</time>
      </trkpt>
      <trkpt lat="43.58327" lon="1.27788">
        <ele>181.2</ele>
        <time>2023-04-04T16:03:15Z</time>
      </trkpt>
      <trkpt lat="43.58328" lon="1.27814">
        <ele>181.4</ele>
        <time>2023-04-04T16:03:18Z</time>
      </trkpt>
      <trkpt lat="43.58329" lon="1.27854">
        <ele>181.6</ele>
        <time>2023-04-04T16:03:22Z</time>
      </trkpt>
      <trkpt lat="43.58326" lon="1.27871">
        <ele>181.6</ele>
        <time>2023-04-04T16:03:24Z</time>
      </trkpt>
      <trkpt lat="43.58318" lon="1.27888">
        <ele>181.4</ele>
        <time>2023-04-04T16:03:26Z</time>
      </trkpt>
      <trkpt lat="43.58313" lon="1.27895">
        <ele>181.4</ele>
        <time>2023-04-04T16:03:27Z</time>
      </trkpt>
      <trkpt lat="43.58279" lon="1.27953">
        <ele>181.4</ele>
        <time>2023-04-04T16:03:35Z</time>
      </trkpt>
      <trkpt lat="43.58269" lon="1.2797">
        <ele>181.6</ele>
        <time>2023-04-04T16:03:37Z</time>
      </trkpt>
      <trkpt lat="43.58231" lon="1.28025">
        <ele>182</ele>
        <time>2023-04-04T16:03:45Z</time>
      </trkpt>
      <trkpt lat="43.58224" lon="1.28034">
        <ele>182</ele>
        <time>2023-04-04T16:03:46Z</time>
      </trkpt>
      <trkpt lat="43.58185" lon="1.28088">
        <ele>182</ele>
        <time>2023-04-04T16:03:54Z</time>
      </trkpt>
      <trkpt lat="43.58171" lon="1.28107">
        <ele>182</ele>
        <time>2023-04-04T16:03:57Z</time>
      </trkpt>
      <trkpt lat="43.58152" lon="1.28135">
        <ele>182</ele>
        <time>2023-04-04T16:04:01Z</time>
      </trkpt>
      <trkpt lat="43.58129" lon="1.28162">
        <ele>182</ele>
        <time>2023-04-04T16:04:05Z</time>
      </trkpt>
      <trkpt lat="43.58084" lon="1.28212">
        <ele>182.2</ele>
        <time>2023-04-04T16:04:13Z</time>
      </trkpt>
      <trkpt lat="43.58069" lon="1.2823">
        <ele>182.2</ele>
        <time>2023-04-04T16:04:16Z</time>
      </trkpt>
      <trkpt lat="43.58057" lon="1.28245">
        <ele>182.2</ele>
        <time>2023-04-04T16:04:18Z</time>
      </trkpt>
      <trkpt lat="43.58045" lon="1.28268">
        <ele>182.2</ele>
        <time>2023-04-04T16:04:21Z</time>
      </trkpt>
      <trkpt lat="43.58015" lon="1.28336">
        <ele>182.4</ele>
        <time>2023-04-04T16:04:29Z</time>
      </trkpt>
      <trkpt lat="43.58005" lon="1.2836">
        <ele>182.6</ele>
        <time>2023-04-04T16:04:32Z</time>
      </trkpt>
      <trkpt lat="43.57997" lon="1.28378">
        <ele>182.6</ele>
        <time>2023-04-04T16:04:34Z</time>
      </trkpt>
      <trkpt lat="43.57967" lon="1.28444">
        <ele>183.2</ele>
        <time>2023-04-04T16:04:42Z</time>
      </trkpt>
      <trkpt lat="43.57949" lon="1.28485">
        <ele>183.2</ele>
        <time>2023-04-04T16:04:47Z</time>
      </trkpt>
      <trkpt lat="43.57932" lon="1.28528">
        <ele>183.2</ele>
        <time>2023-04-04T16:04:52Z</time>
      </trkpt>
      <trkpt lat="43.57931" lon="1.28538">
        <ele>183</ele>
        <time>2023-04-04T16:04:53Z</time>
      </trkpt>
      <trkpt lat="43.57932" lon="1.28547">
        <ele>183</ele>
        <time>2023-04-04T16:04:54Z</time>
      </trkpt>
      <trkpt lat="43.57935" lon="1.28554">
        <ele>182.8</ele>
        <time>2023-04-04T16:04:55Z</time>
      </trkpt>
      <trkpt lat="43.57962" lon="1.286">
        <ele>182.6</ele>
        <time>2023-04-04T16:05:01Z</time>
      </trkpt>
      <trkpt lat="43.57998" lon="1.28662">
        <ele>182.2</ele>
        <time>2023-04-04T16:05:09Z</time>
      </trkpt>
      <trkpt lat="43.58007" lon="1.28676">
        <ele>182.2</ele>
        <time>2023-04-04T16:05:11Z</time>
      </trkpt>
      <trkpt lat="43.58039" lon="1.2874">
        <ele>182.2</ele>
        <time>2023-04-04T16:05:19Z</time>
      </trkpt>
      <trkpt lat="43.58057" lon="1.28794">
        <ele>182.2</ele>
        <time>2023-04-04T16:05:25Z</time>
      </trkpt>
      <trkpt lat="43.58067" lon="1.28858">
        <ele>182</ele>
        <time>2023-04-04T16:05:31Z</time>
      </trkpt>
      <trkpt lat="43.58075" lon="1.28934">
        <ele>181.6</ele>
        <time>2023-04-04T16:05:39Z</time>
      </trkpt>
      <trkpt lat="43.58076" lon="1.28944">
        <ele>181.6</ele>
        <time>2023-04-04T16:05:40Z</time>
      </trkpt>
      <trkpt lat="43.5808" lon="1.28977">
        <ele>181.6</ele>
        <time>2023-04-04T16:05:44Z</time>
      </trkpt>
      <trkpt lat="43.58081" lon="1.28986">
        <ele>181.4</ele>
        <time>2023-04-04T16:05:45Z</time>
      </trkpt>
      <trkpt lat="43.58082" lon="1.29006">
        <ele>181.4</ele>
        <time>2023-04-04T16:05:49Z</time>
      </trkpt>
      <trkpt lat="43.58084" lon="1.29022">
        <ele>181.4</ele>
        <time>2023-04-04T16:05:52Z</time>
      </trkpt>
      <trkpt lat="43.58085" lon="1.29036">
        <ele>181.4</ele>
        <time>2023-04-04T16:05:54Z</time>
      </trkpt>
      <trkpt lat="43.58091" lon="1.29095">
        <ele>181.2</ele>
        <time>2023-04-04T16:06:01Z</time>
      </trkpt>
      <trkpt lat="43.58092" lon="1.2911">
        <ele>181.2</ele>
        <time>2023-04-04T16:06:03Z</time>
      </trkpt>
      <trkpt lat="43.58087" lon="1.29128">
        <ele>181.2</ele>
        <time>2023-04-04T16:06:05Z</time>
      </trkpt>
      <trkpt lat="43.5806" lon="1.29178">
        <ele>181.6</ele>
        <time>2023-04-04T16:06:12Z</time>
      </trkpt>
      <trkpt lat="43.58027" lon="1.29242">
        <ele>181.8</ele>
        <time>2023-04-04T16:06:20Z</time>
      </trkpt>
      <trkpt lat="43.57997" lon="1.29297">
        <ele>182</ele>
        <time>2023-04-04T16:06:27Z</time>
      </trkpt>
      <trkpt lat="43.57965" lon="1.29361">
        <ele>182.4</ele>
        <time>2023-04-04T16:06:35Z</time>
      </trkpt>
      <trkpt lat="43.57952" lon="1.29385">
        <ele>182.4</ele>
        <time>2023-04-04T16:06:38Z</time>
      </trkpt>
      <trkpt lat="43.57938" lon="1.29416">
        <ele>182.2</ele>
        <time>2023-04-04T16:06:42Z</time>
      </trkpt>
      <trkpt lat="43.57935" lon="1.29427">
        <ele>182.2</ele>
        <time>2023-04-04T16:06:43Z</time>
      </trkpt>
      <trkpt lat="43.57932" lon="1.29445">
        <ele>182</ele>
        <time>2023-04-04T16:06:45Z</time>
      </trkpt>
      <trkpt lat="43.57924" lon="1.29455">
        <ele>182</ele>
        <time>2023-04-04T16:06:47Z</time>
      </trkpt>
      <trkpt lat="43.57915" lon="1.29454">
        <ele>182</ele>
        <time>2023-04-04T16:06:49Z</time>
      </trkpt>
      <trkpt lat="43.57911" lon="1.2945">
        <ele>182</ele>
        <time>2023-04-04T16:06:50Z</time>
      </trkpt>
      <trkpt lat="43.579" lon="1.29441">
        <ele>182</ele>
        <time>2023-04-04T16:06:52Z</time>
      </trkpt>
      <trkpt lat="43.57884" lon="1.29429">
        <ele>181.8</ele>
        <time>2023-04-04T16:06:55Z</time>
      </trkpt>
      <trkpt lat="43.57853" lon="1.29404">
        <ele>181.4</ele>
        <time>2023-04-04T16:07:01Z</time>
      </trkpt>
      <trkpt lat="43.57847" lon="1.29398">
        <ele>181.4</ele>
        <time>2023-04-04T16:07:02Z</time>
      </trkpt>
      <trkpt lat="43.57832" lon="1.29383">
        <ele>181.4</ele>
        <time>2023-04-04T16:07:05Z</time>
      </trkpt>
      <trkpt lat="43.57815" lon="1.29368">
        <ele>181.4</ele>
        <time>2023-04-04T16:07:08Z</time>
      </trkpt>
      <trkpt lat="43.57805" lon="1.29362">
        <ele>181.4</ele>
        <time>2023-04-04T16:07:10Z</time>
      </trkpt>
      <trkpt lat="43.57764" lon="1.29331">
        <ele>181.6</ele>
        <time>2023-04-04T16:07:18Z</time>
      </trkpt>
      <trkpt lat="43.5776" lon="1.29329">
        <ele>181.8</ele>
        <time>2023-04-04T16:07:19Z</time>
      </trkpt>
      <trkpt lat="43.57749" lon="1.29329">
        <ele>181.8</ele>
        <time>2023-04-04T16:07:21Z</time>
      </trkpt>
      <trkpt lat="43.57741" lon="1.29339">
        <ele>182</ele>
        <time>2023-04-04T16:07:23Z</time>
      </trkpt>
      <trkpt lat="43.57739" lon="1.29344">
        <ele>181.8</ele>
        <time>2023-04-04T16:07:24Z</time>
      </trkpt>
      <trkpt lat="43.57717" lon="1.29408">
        <ele>181.2</ele>
        <time>2023-04-04T16:07:33Z</time>
      </trkpt>
      <trkpt lat="43.57698" lon="1.29459">
        <ele>180.8</ele>
        <time>2023-04-04T16:07:41Z</time>
      </trkpt>
      <trkpt lat="43.57697" lon="1.29465">
        <ele>180.6</ele>
        <time>2023-04-04T16:07:42Z</time>
      </trkpt>
      <trkpt lat="43.57687" lon="1.29499">
        <ele>180.2</ele>
        <time>2023-04-04T16:07:47Z</time>
      </trkpt>
      <trkpt lat="43.57683" lon="1.29512">
        <ele>179.4</ele>
        <time>2023-04-04T16:07:49Z</time>
      </trkpt>
      <trkpt lat="43.5768" lon="1.29524">
        <ele>179.2</ele>
        <time>2023-04-04T16:07:51Z</time>
      </trkpt>
      <trkpt lat="43.57677" lon="1.29539">
        <ele>179</ele>
        <time>2023-04-04T16:07:53Z</time>
      </trkpt>
      <trkpt lat="43.57675" lon="1.29546">
        <ele>179</ele>
        <time>2023-04-04T16:07:54Z</time>
      </trkpt>
      <trkpt lat="43.57671" lon="1.2956">
        <ele>178.8</ele>
        <time>2023-04-04T16:07:56Z</time>
      </trkpt>
      <trkpt lat="43.57669" lon="1.29573">
        <ele>178.4</ele>
        <time>2023-04-04T16:07:58Z</time>
      </trkpt>
      <trkpt lat="43.57672" lon="1.29578">
        <ele>178</ele>
        <time>2023-04-04T16:08:00Z</time>
      </trkpt>
      <trkpt lat="43.57683" lon="1.29587">
        <ele>177.6</ele>
        <time>2023-04-04T16:08:03Z</time>
      </trkpt>
      <trkpt lat="43.57687" lon="1.2959">
        <ele>177.6</ele>
        <time>2023-04-04T16:08:04Z</time>
      </trkpt>
      <trkpt lat="43.57691" lon="1.29594">
        <ele>177.6</ele>
        <time>2023-04-04T16:08:05Z</time>
      </trkpt>
      <trkpt lat="43.57711" lon="1.29612">
        <ele>177.6</ele>
        <time>2023-04-04T16:08:10Z</time>
      </trkpt>
      <trkpt lat="43.57712" lon="1.29616">
        <ele>177.6</ele>
        <time>2023-04-04T16:08:11Z</time>
      </trkpt>
      <trkpt lat="43.5771" lon="1.29626">
        <ele>178</ele>
        <time>2023-04-04T16:08:13Z</time>
      </trkpt>
      <trkpt lat="43.57706" lon="1.29644">
        <ele>178.2</ele>
        <time>2023-04-04T16:08:16Z</time>
      </trkpt>
      <trkpt lat="43.577" lon="1.29658">
        <ele>178.6</ele>
        <time>2023-04-04T16:08:18Z</time>
      </trkpt>
      <trkpt lat="43.57693" lon="1.29668">
        <ele>178.6</ele>
        <time>2023-04-04T16:08:20Z</time>
      </trkpt>
      <trkpt lat="43.57681" lon="1.29691">
        <ele>178.6</ele>
        <time>2023-04-04T16:08:23Z</time>
      </trkpt>
      <trkpt lat="43.57679" lon="1.29698">
        <ele>178.4</ele>
        <time>2023-04-04T16:08:24Z</time>
      </trkpt>
      <trkpt lat="43.57676" lon="1.29723">
        <ele>178.2</ele>
        <time>2023-04-04T16:08:27Z</time>
      </trkpt>
      <trkpt lat="43.5768" lon="1.29732">
        <ele>177.8</ele>
        <time>2023-04-04T16:08:29Z</time>
      </trkpt>
      <trkpt lat="43.57685" lon="1.29737">
        <ele>177.2</ele>
        <time>2023-04-04T16:08:31Z</time>
      </trkpt>
      <trkpt lat="43.57694" lon="1.29744">
        <ele>177.2</ele>
        <time>2023-04-04T16:08:34Z</time>
      </trkpt>
      <trkpt lat="43.57688" lon="1.29753">
        <ele>177.2</ele>
        <time>2023-04-04T16:08:37Z</time>
      </trkpt>
      <trkpt lat="43.57676" lon="1.29772">
        <ele>177.6</ele>
        <time>2023-04-04T16:08:41Z</time>
      </trkpt>
      <trkpt lat="43.57669" lon="1.29785">
        <ele>177.6</ele>
        <time>2023-04-04T16:08:43Z</time>
      </trkpt>
      <trkpt lat="43.5766" lon="1.298">
        <ele>177.2</ele>
        <time>2023-04-04T16:08:45Z</time>
      </trkpt>
      <trkpt lat="43.57649" lon="1.29825">
        <ele>176.2</ele>
        <time>2023-04-04T16:08:48Z</time>
      </trkpt>
      <trkpt lat="43.5764" lon="1.29845">
        <ele>175.2</ele>
        <time>2023-04-04T16:08:50Z</time>
      </trkpt>
      <trkpt lat="43.57637" lon="1.29853">
        <ele>174.2</ele>
        <time>2023-04-04T16:08:51Z</time>
      </trkpt>
      <trkpt lat="43.57635" lon="1.29867">
        <ele>172.8</ele>
        <time>2023-04-04T16:08:53Z</time>
      </trkpt>
      <trkpt lat="43.57636" lon="1.29876">
        <ele>171.2</ele>
        <time>2023-04-04T16:08:55Z</time>
      </trkpt>
      <trkpt lat="43.57637" lon="1.29879">
        <ele>169.8</ele>
        <time>2023-04-04T16:08:56Z</time>
      </trkpt>
      <trkpt lat="43.57638" lon="1.29885">
        <ele>168</ele>
        <time>2023-04-04T16:08:58Z</time>
      </trkpt>
      <trkpt lat="43.57638" lon="1.29896">
        <ele>167.2</ele>
        <time>2023-04-04T16:09:00Z</time>
      </trkpt>
      <trkpt lat="43.57639" lon="1.29899">
        <ele>166.6</ele>
        <time>2023-04-04T16:09:01Z</time>
      </trkpt>
      <trkpt lat="43.57642" lon="1.29906">
        <ele>165.8</ele>
        <time>2023-04-04T16:09:03Z</time>
      </trkpt>
      <trkpt lat="43.57643" lon="1.29911">
        <ele>165.6</ele>
        <time>2023-04-04T16:09:04Z</time>
      </trkpt>
      <trkpt lat="43.57645" lon="1.29914">
        <ele>165.2</ele>
        <time>2023-04-04T16:09:05Z</time>
      </trkpt>
      <trkpt lat="43.57648" lon="1.29922">
        <ele>165</ele>
        <time>2023-04-04T16:09:07Z</time>
      </trkpt>
      <trkpt lat="43.57647" lon="1.29938">
        <ele>164.6</ele>
        <time>2023-04-04T16:09:10Z</time>
      </trkpt>
      <trkpt lat="43.57648" lon="1.29945">
        <ele>164.6</ele>
        <time>2023-04-04T16:09:11Z</time>
      </trkpt>
      <trkpt lat="43.57647" lon="1.29954">
        <ele>164.4</ele>
        <time>2023-04-04T16:09:13Z</time>
      </trkpt>
      <trkpt lat="43.57647" lon="1.29956">
        <ele>164.2</ele>
        <time>2023-04-04T16:09:14Z</time>
      </trkpt>
      <trkpt lat="43.57643" lon="1.29978">
        <ele>163.8</ele>
        <time>2023-04-04T16:09:17Z</time>
      </trkpt>
      <trkpt lat="43.57645" lon="1.29983">
        <ele>163.4</ele>
        <time>2023-04-04T16:09:18Z</time>
      </trkpt>
      <trkpt lat="43.57648" lon="1.29988">
        <ele>163</ele>
        <time>2023-04-04T16:09:19Z</time>
      </trkpt>
      <trkpt lat="43.57662" lon="1.30005">
        <ele>162.8</ele>
        <time>2023-04-04T16:09:23Z</time>
      </trkpt>
      <trkpt lat="43.57668" lon="1.30019">
        <ele>162.4</ele>
        <time>2023-04-04T16:09:26Z</time>
      </trkpt>
      <trkpt lat="43.57671" lon="1.30022">
        <ele>162</ele>
        <time>2023-04-04T16:09:27Z</time>
      </trkpt>
      <trkpt lat="43.57672" lon="1.30028">
        <ele>161.6</ele>
        <time>2023-04-04T16:09:28Z</time>
      </trkpt>
      <trkpt lat="43.57671" lon="1.30046">
        <ele>161.4</ele>
        <time>2023-04-04T16:09:31Z</time>
      </trkpt>
      <trkpt lat="43.57673" lon="1.3005">
        <ele>161</ele>
        <time>2023-04-04T16:09:32Z</time>
      </trkpt>
      <trkpt lat="43.57674" lon="1.30059">
        <ele>160.6</ele>
        <time>2023-04-04T16:09:34Z</time>
      </trkpt>
      <trkpt lat="43.57673" lon="1.30063">
        <ele>160.6</ele>
        <time>2023-04-04T16:09:35Z</time>
      </trkpt>
      <trkpt lat="43.57666" lon="1.30071">
        <ele>160.2</ele>
        <time>2023-04-04T16:09:37Z</time>
      </trkpt>
      <trkpt lat="43.57661" lon="1.30082">
        <ele>160.2</ele>
        <time>2023-04-04T16:09:39Z</time>
      </trkpt>
      <trkpt lat="43.57646" lon="1.30116">
        <ele>159.8</ele>
        <time>2023-04-04T16:09:44Z</time>
      </trkpt>
      <trkpt lat="43.57631" lon="1.30144">
        <ele>159.2</ele>
        <time>2023-04-04T16:09:48Z</time>
      </trkpt>
      <trkpt lat="43.57623" lon="1.30158">
        <ele>158.8</ele>
        <time>2023-04-04T16:09:50Z</time>
      </trkpt>
      <trkpt lat="43.57615" lon="1.30171">
        <ele>158.2</ele>
        <time>2023-04-04T16:09:52Z</time>
      </trkpt>
      <trkpt lat="43.57606" lon="1.30178">
        <ele>157.8</ele>
        <time>2023-04-04T16:09:54Z</time>
      </trkpt>
      <trkpt lat="43.57597" lon="1.30183">
        <ele>157.4</ele>
        <time>2023-04-04T16:09:58Z</time>
      </trkpt>
      <trkpt lat="43.57595" lon="1.30184">
        <ele>157.4</ele>
        <time>2023-04-04T16:09:59Z</time>
      </trkpt>
      <trkpt lat="43.5759" lon="1.30184">
        <ele>157.2</ele>
        <time>2023-04-04T16:10:01Z</time>
      </trkpt>
      <trkpt lat="43.57588" lon="1.30185">
        <ele>157.2</ele>
        <time>2023-04-04T16:10:02Z</time>
      </trkpt>
      <trkpt lat="43.57587" lon="1.30187">
        <ele>157.2</ele>
        <time>2023-04-04T16:10:03Z</time>
      </trkpt>
      <trkpt lat="43.57588" lon="1.30195">
        <ele>157.2</ele>
        <time>2023-04-04T16:10:05Z</time>
      </trkpt>
      <trkpt lat="43.57589" lon="1.30199">
        <ele>157.2</ele>
        <time>2023-04-04T16:10:06Z</time>
      </trkpt>
      <trkpt lat="43.57586" lon="1.30207">
        <ele>157.2</ele>
        <time>2023-04-04T16:10:08Z</time>
      </trkpt>
      <trkpt lat="43.57579" lon="1.30222">
        <ele>157.2</ele>
        <time>2023-04-04T16:10:12Z</time>
      </trkpt>
      <trkpt lat="43.57579" lon="1.30226">
        <ele>157.2</ele>
        <time>2023-04-04T16:10:13Z</time>
      </trkpt>
      <trkpt lat="43.57578" lon="1.30238">
        <ele>157.2</ele>
        <time>2023-04-04T16:10:15Z</time>
      </trkpt>
      <trkpt lat="43.57575" lon="1.30244">
        <ele>157.2</ele>
        <time>2023-04-04T16:10:16Z</time>
      </trkpt>
      <trkpt lat="43.57572" lon="1.3025">
        <ele>157</ele>
        <time>2023-04-04T16:10:17Z</time>
      </trkpt>
      <trkpt lat="43.57566" lon="1.30263">
        <ele>157</ele>
        <time>2023-04-04T16:10:19Z</time>
      </trkpt>
      <trkpt lat="43.57563" lon="1.30268">
        <ele>157</ele>
        <time>2023-04-04T16:10:20Z</time>
      </trkpt>
      <trkpt lat="43.57531" lon="1.3032">
        <ele>156.8</ele>
        <time>2023-04-04T16:10:28Z</time>
      </trkpt>
      <trkpt lat="43.57508" lon="1.30361">
        <ele>156.6</ele>
        <time>2023-04-04T16:10:34Z</time>
      </trkpt>
      <trkpt lat="43.57508" lon="1.30367">
        <ele>156.6</ele>
        <time>2023-04-04T16:10:35Z</time>
      </trkpt>
      <trkpt lat="43.57517" lon="1.30388">
        <ele>156.2</ele>
        <time>2023-04-04T16:10:39Z</time>
      </trkpt>
      <trkpt lat="43.57519" lon="1.30392">
        <ele>156.2</ele>
        <time>2023-04-04T16:10:40Z</time>
      </trkpt>
      <trkpt lat="43.57519" lon="1.304">
        <ele>156</ele>
        <time>2023-04-04T16:10:42Z</time>
      </trkpt>
      <trkpt lat="43.57513" lon="1.30422">
        <ele>155.8</ele>
        <time>2023-04-04T16:10:47Z</time>
      </trkpt>
      <trkpt lat="43.5751" lon="1.30428">
        <ele>155.8</ele>
        <time>2023-04-04T16:10:48Z</time>
      </trkpt>
      <trkpt lat="43.57501" lon="1.30445">
        <ele>155.8</ele>
        <time>2023-04-04T16:10:51Z</time>
      </trkpt>
      <trkpt lat="43.57477" lon="1.3049">
        <ele>155.4</ele>
        <time>2023-04-04T16:10:58Z</time>
      </trkpt>
      <trkpt lat="43.5745" lon="1.30537">
        <ele>155.4</ele>
        <time>2023-04-04T16:11:05Z</time>
      </trkpt>
      <trkpt lat="43.57443" lon="1.30548">
        <ele>155.4</ele>
        <time>2023-04-04T16:11:07Z</time>
      </trkpt>
      <trkpt lat="43.5744" lon="1.3055">
        <ele>155.4</ele>
        <time>2023-04-04T16:11:08Z</time>
      </trkpt>
      <trkpt lat="43.57436" lon="1.30549">
        <ele>155.4</ele>
        <time>2023-04-04T16:11:09Z</time>
      </trkpt>
      <trkpt lat="43.57432" lon="1.30547">
        <ele>155.2</ele>
        <time>2023-04-04T16:11:10Z</time>
      </trkpt>
      <trkpt lat="43.57429" lon="1.30545">
        <ele>154.8</ele>
        <time>2023-04-04T16:11:11Z</time>
      </trkpt>
      <trkpt lat="43.57422" lon="1.30542">
        <ele>154.4</ele>
        <time>2023-04-04T16:11:14Z</time>
      </trkpt>
      <trkpt lat="43.57423" lon="1.30551">
        <ele>154.2</ele>
        <time>2023-04-04T16:11:17Z</time>
      </trkpt>
      <trkpt lat="43.57432" lon="1.3056">
        <ele>154</ele>
        <time>2023-04-04T16:11:20Z</time>
      </trkpt>
      <trkpt lat="43.57442" lon="1.30573">
        <ele>154</ele>
        <time>2023-04-04T16:11:23Z</time>
      </trkpt>
      <trkpt lat="43.5747" lon="1.30603">
        <ele>154.2</ele>
        <time>2023-04-04T16:11:30Z</time>
      </trkpt>
      <trkpt lat="43.57516" lon="1.30651">
        <ele>154.6</ele>
        <time>2023-04-04T16:11:40Z</time>
      </trkpt>
      <trkpt lat="43.57552" lon="1.30695">
        <ele>154.6</ele>
        <time>2023-04-04T16:11:48Z</time>
      </trkpt>
      <trkpt lat="43.57593" lon="1.30747">
        <ele>154.6</ele>
        <time>2023-04-04T16:11:57Z</time>
      </trkpt>
      <trkpt lat="43.57598" lon="1.30752">
        <ele>154.6</ele>
        <time>2023-04-04T16:11:58Z</time>
      </trkpt>
      <trkpt lat="43.57639" lon="1.30805">
        <ele>154.6</ele>
        <time>2023-04-04T16:12:07Z</time>
      </trkpt>
      <trkpt lat="43.57645" lon="1.30812">
        <ele>154.6</ele>
        <time>2023-04-04T16:12:08Z</time>
      </trkpt>
      <trkpt lat="43.57687" lon="1.30859">
        <ele>154.6</ele>
        <time>2023-04-04T16:12:17Z</time>
      </trkpt>
      <trkpt lat="43.57692" lon="1.30864">
        <ele>154.6</ele>
        <time>2023-04-04T16:12:18Z</time>
      </trkpt>
      <trkpt lat="43.57722" lon="1.30897">
        <ele>154.8</ele>
        <time>2023-04-04T16:12:24Z</time>
      </trkpt>
      <trkpt lat="43.57768" lon="1.30946">
        <ele>154.6</ele>
        <time>2023-04-04T16:12:33Z</time>
      </trkpt>
      <trkpt lat="43.57815" lon="1.30995">
        <ele>154.4</ele>
        <time>2023-04-04T16:12:42Z</time>
      </trkpt>
      <trkpt lat="43.57826" lon="1.31006">
        <ele>154.4</ele>
        <time>2023-04-04T16:12:44Z</time>
      </trkpt>
      <trkpt lat="43.57871" lon="1.31051">
        <ele>154.6</ele>
        <time>2023-04-04T16:12:53Z</time>
      </trkpt>
      <trkpt lat="43.57881" lon="1.31061">
        <ele>154.6</ele>
        <time>2023-04-04T16:12:55Z</time>
      </trkpt>
      <trkpt lat="43.57896" lon="1.31076">
        <ele>154.6</ele>
        <time>2023-04-04T16:12:58Z</time>
      </trkpt>
      <trkpt lat="43.57914" lon="1.31094">
        <ele>154.6</ele>
        <time>2023-04-04T16:13:02Z</time>
      </trkpt>
      <trkpt lat="43.57923" lon="1.311">
        <ele>154.6</ele>
        <time>2023-04-04T16:13:04Z</time>
      </trkpt>
      <trkpt lat="43.57926" lon="1.311">
        <ele>154.6</ele>
        <time>2023-04-04T16:13:05Z</time>
      </trkpt>
      <trkpt lat="43.57932" lon="1.31097">
        <ele>154.4</ele>
        <time>2023-04-04T16:13:07Z</time>
      </trkpt>
      <trkpt lat="43.57934" lon="1.31094">
        <ele>154.4</ele>
        <time>2023-04-04T16:13:08Z</time>
      </trkpt>
      <trkpt lat="43.5795" lon="1.31074">
        <ele>154.4</ele>
        <time>2023-04-04T16:13:13Z</time>
      </trkpt>
      <trkpt lat="43.57972" lon="1.31046">
        <ele>154</ele>
        <time>2023-04-04T16:13:19Z</time>
      </trkpt>
      <trkpt lat="43.57974" lon="1.31042">
        <ele>154.2</ele>
        <time>2023-04-04T16:13:20Z</time>
      </trkpt>
      <trkpt lat="43.57977" lon="1.31037">
        <ele>154.2</ele>
        <time>2023-04-04T16:13:21Z</time>
      </trkpt>
      <trkpt lat="43.57985" lon="1.31031">
        <ele>154.2</ele>
        <time>2023-04-04T16:13:23Z</time>
      </trkpt>
      <trkpt lat="43.57989" lon="1.31029">
        <ele>154.2</ele>
        <time>2023-04-04T16:13:24Z</time>
      </trkpt>
      <trkpt lat="43.57993" lon="1.31028">
        <ele>154.2</ele>
        <time>2023-04-04T16:13:25Z</time>
      </trkpt>
      <trkpt lat="43.58004" lon="1.31021">
        <ele>154.2</ele>
        <time>2023-04-04T16:13:28Z</time>
      </trkpt>
      <trkpt lat="43.58029" lon="1.31006">
        <ele>154.8</ele>
        <time>2023-04-04T16:13:34Z</time>
      </trkpt>
      <trkpt lat="43.58033" lon="1.31005">
        <ele>154.8</ele>
        <time>2023-04-04T16:13:35Z</time>
      </trkpt>
      <trkpt lat="43.58055" lon="1.30998">
        <ele>155.2</ele>
        <time>2023-04-04T16:13:40Z</time>
      </trkpt>
      <trkpt lat="43.58074" lon="1.30992">
        <ele>155.6</ele>
        <time>2023-04-04T16:13:44Z</time>
      </trkpt>
      <trkpt lat="43.58103" lon="1.30985">
        <ele>156.4</ele>
        <time>2023-04-04T16:13:51Z</time>
      </trkpt>
      <trkpt lat="43.58107" lon="1.30984">
        <ele>156.4</ele>
        <time>2023-04-04T16:13:52Z</time>
      </trkpt>
      <trkpt lat="43.58127" lon="1.30975">
        <ele>157.2</ele>
        <time>2023-04-04T16:13:58Z</time>
      </trkpt>
      <trkpt lat="43.5813" lon="1.30973">
        <ele>157.4</ele>
        <time>2023-04-04T16:13:59Z</time>
      </trkpt>
      <trkpt lat="43.5814" lon="1.30968">
        <ele>158.4</ele>
        <time>2023-04-04T16:14:03Z</time>
      </trkpt>
      <trkpt lat="43.58143" lon="1.30967">
        <ele>158.6</ele>
        <time>2023-04-04T16:14:04Z</time>
      </trkpt>
      <trkpt lat="43.58153" lon="1.30962">
        <ele>159.4</ele>
        <time>2023-04-04T16:14:08Z</time>
      </trkpt>
      <trkpt lat="43.5816" lon="1.30957">
        <ele>160.6</ele>
        <time>2023-04-04T16:14:11Z</time>
      </trkpt>
      <trkpt lat="43.58169" lon="1.30951">
        <ele>161.6</ele>
        <time>2023-04-04T16:14:16Z</time>
      </trkpt>
      <trkpt lat="43.58176" lon="1.30947">
        <ele>162.8</ele>
        <time>2023-04-04T16:14:19Z</time>
      </trkpt>
      <trkpt lat="43.58183" lon="1.30943">
        <ele>164</ele>
        <time>2023-04-04T16:14:22Z</time>
      </trkpt>
      <trkpt lat="43.58195" lon="1.30938">
        <ele>165</ele>
        <time>2023-04-04T16:14:26Z</time>
      </trkpt>
      <trkpt lat="43.58203" lon="1.30937">
        <ele>165.4</ele>
        <time>2023-04-04T16:14:29Z</time>
      </trkpt>
      <trkpt lat="43.58209" lon="1.3094">
        <ele>165.8</ele>
        <time>2023-04-04T16:14:31Z</time>
      </trkpt>
      <trkpt lat="43.58211" lon="1.30943">
        <ele>166.2</ele>
        <time>2023-04-04T16:14:32Z</time>
      </trkpt>
      <trkpt lat="43.58223" lon="1.30958">
        <ele>167.2</ele>
        <time>2023-04-04T16:14:37Z</time>
      </trkpt>
      <trkpt lat="43.58226" lon="1.30961">
        <ele>167.2</ele>
        <time>2023-04-04T16:14:38Z</time>
      </trkpt>
      <trkpt lat="43.58239" lon="1.30982">
        <ele>167.8</ele>
        <time>2023-04-04T16:14:44Z</time>
      </trkpt>
      <trkpt lat="43.58247" lon="1.30999">
        <ele>168.2</ele>
        <time>2023-04-04T16:14:48Z</time>
      </trkpt>
      <trkpt lat="43.58259" lon="1.31024">
        <ele>169</ele>
        <time>2023-04-04T16:14:54Z</time>
      </trkpt>
      <trkpt lat="43.58261" lon="1.31029">
        <ele>169.4</ele>
        <time>2023-04-04T16:14:55Z</time>
      </trkpt>
      <trkpt lat="43.58278" lon="1.31065">
        <ele>170.4</ele>
        <time>2023-04-04T16:15:03Z</time>
      </trkpt>
      <trkpt lat="43.58295" lon="1.31098">
        <ele>171.4</ele>
        <time>2023-04-04T16:15:11Z</time>
      </trkpt>
      <trkpt lat="43.58299" lon="1.31107">
        <ele>171.8</ele>
        <time>2023-04-04T16:15:13Z</time>
      </trkpt>
      <trkpt lat="43.58313" lon="1.31137">
        <ele>172.6</ele>
        <time>2023-04-04T16:15:20Z</time>
      </trkpt>
      <trkpt lat="43.5833" lon="1.3117">
        <ele>173.8</ele>
        <time>2023-04-04T16:15:28Z</time>
      </trkpt>
      <trkpt lat="43.58332" lon="1.31174">
        <ele>174.2</ele>
        <time>2023-04-04T16:15:29Z</time>
      </trkpt>
      <trkpt lat="43.58339" lon="1.31189">
        <ele>174.8</ele>
        <time>2023-04-04T16:15:33Z</time>
      </trkpt>
      <trkpt lat="43.58348" lon="1.31207">
        <ele>176</ele>
        <time>2023-04-04T16:15:38Z</time>
      </trkpt>
      <trkpt lat="43.58353" lon="1.31212">
        <ele>176.4</ele>
        <time>2023-04-04T16:15:40Z</time>
      </trkpt>
      <trkpt lat="43.58359" lon="1.31211">
        <ele>176.6</ele>
        <time>2023-04-04T16:15:42Z</time>
      </trkpt>
      <trkpt lat="43.58365" lon="1.31206">
        <ele>177</ele>
        <time>2023-04-04T16:15:44Z</time>
      </trkpt>
      <trkpt lat="43.58376" lon="1.31196">
        <ele>177.6</ele>
        <time>2023-04-04T16:15:47Z</time>
      </trkpt>
      <trkpt lat="43.58397" lon="1.31177">
        <ele>178</ele>
        <time>2023-04-04T16:15:53Z</time>
      </trkpt>
      <trkpt lat="43.58404" lon="1.3117">
        <ele>178</ele>
        <time>2023-04-04T16:15:55Z</time>
      </trkpt>
      <trkpt lat="43.58419" lon="1.31154">
        <ele>178.2</ele>
        <time>2023-04-04T16:15:59Z</time>
      </trkpt>
      <trkpt lat="43.5846" lon="1.31108">
        <ele>178.4</ele>
        <time>2023-04-04T16:16:09Z</time>
      </trkpt>
      <trkpt lat="43.58465" lon="1.31102">
        <ele>178.6</ele>
        <time>2023-04-04T16:16:10Z</time>
      </trkpt>
      <trkpt lat="43.58485" lon="1.31079">
        <ele>178.6</ele>
        <time>2023-04-04T16:16:15Z</time>
      </trkpt>
      <trkpt lat="43.58499" lon="1.31064">
        <ele>178.6</ele>
        <time>2023-04-04T16:16:19Z</time>
      </trkpt>
      <trkpt lat="43.58502" lon="1.31061">
        <ele>178.6</ele>
        <time>2023-04-04T16:16:21Z</time>
      </trkpt>
      <trkpt lat="43.58506" lon="1.31063">
        <ele>178.4</ele>
        <time>2023-04-04T16:16:25Z</time>
      </trkpt>
      <trkpt lat="43.58513" lon="1.3108">
        <ele>178.2</ele>
        <time>2023-04-04T16:16:29Z</time>
      </trkpt>
      <trkpt lat="43.58526" lon="1.31108">
        <ele>178.2</ele>
        <time>2023-04-04T16:16:34Z</time>
      </trkpt>
      <trkpt lat="43.58545" lon="1.31146">
        <ele>178</ele>
        <time>2023-04-04T16:16:40Z</time>
      </trkpt>
      <trkpt lat="43.58553" lon="1.31161">
        <ele>177.8</ele>
        <time>2023-04-04T16:16:43Z</time>
      </trkpt>
      <trkpt lat="43.58556" lon="1.31164">
        <ele>177.6</ele>
        <time>2023-04-04T16:16:44Z</time>
      </trkpt>
      <trkpt lat="43.58559" lon="1.31163">
        <ele>177.6</ele>
        <time>2023-04-04T16:16:45Z</time>
      </trkpt>
      <trkpt lat="43.58564" lon="1.31162">
        <ele>177.4</ele>
        <time>2023-04-04T16:16:47Z</time>
      </trkpt>
      <trkpt lat="43.58574" lon="1.31179">
        <ele>177.2</ele>
        <time>2023-04-04T16:16:51Z</time>
      </trkpt>
      <trkpt lat="43.58596" lon="1.31222">
        <ele>177.2</ele>
        <time>2023-04-04T16:16:58Z</time>
      </trkpt>
      <trkpt lat="43.58601" lon="1.31232">
        <ele>177.2</ele>
        <time>2023-04-04T16:17:00Z</time>
      </trkpt>
      <trkpt lat="43.58606" lon="1.31235">
        <ele>177.2</ele>
        <time>2023-04-04T16:17:01Z</time>
      </trkpt>
      <trkpt lat="43.58612" lon="1.31238">
        <ele>177.2</ele>
        <time>2023-04-04T16:17:02Z</time>
      </trkpt>
      <trkpt lat="43.58631" lon="1.31244">
        <ele>177.8</ele>
        <time>2023-04-04T16:17:06Z</time>
      </trkpt>
      <trkpt lat="43.58634" lon="1.31247">
        <ele>177.8</ele>
        <time>2023-04-04T16:17:07Z</time>
      </trkpt>
      <trkpt lat="43.58637" lon="1.31252">
        <ele>178</ele>
        <time>2023-04-04T16:17:08Z</time>
      </trkpt>
      <trkpt lat="43.5864" lon="1.31266">
        <ele>178</ele>
        <time>2023-04-04T16:17:10Z</time>
      </trkpt>
      <trkpt lat="43.58647" lon="1.31274">
        <ele>178.2</ele>
        <time>2023-04-04T16:17:12Z</time>
      </trkpt>
      <trkpt lat="43.58653" lon="1.31277">
        <ele>178.2</ele>
        <time>2023-04-04T16:17:13Z</time>
      </trkpt>
      <trkpt lat="43.58681" lon="1.31288">
        <ele>178.6</ele>
        <time>2023-04-04T16:17:18Z</time>
      </trkpt>
      <trkpt lat="43.587" lon="1.31293">
        <ele>178.8</ele>
        <time>2023-04-04T16:17:23Z</time>
      </trkpt>
      <trkpt lat="43.58705" lon="1.31291">
        <ele>178.8</ele>
        <time>2023-04-04T16:17:25Z</time>
      </trkpt>
      <trkpt lat="43.58706" lon="1.31287">
        <ele>178.6</ele>
        <time>2023-04-04T16:17:26Z</time>
      </trkpt>
      <trkpt lat="43.58707" lon="1.31271">
        <ele>178.6</ele>
        <time>2023-04-04T16:17:29Z</time>
      </trkpt>
      <trkpt lat="43.58708" lon="1.31263">
        <ele>178.4</ele>
        <time>2023-04-04T16:17:30Z</time>
      </trkpt>
      <trkpt lat="43.5871" lon="1.31229">
        <ele>178</ele>
        <time>2023-04-04T16:17:35Z</time>
      </trkpt>
      <trkpt lat="43.5871" lon="1.31219">
        <ele>177.8</ele>
        <time>2023-04-04T16:17:36Z</time>
      </trkpt>
      <trkpt lat="43.58713" lon="1.31181">
        <ele>177.6</ele>
        <time>2023-04-04T16:17:41Z</time>
      </trkpt>
      <trkpt lat="43.58714" lon="1.31141">
        <ele>177.4</ele>
        <time>2023-04-04T16:17:46Z</time>
      </trkpt>
      <trkpt lat="43.58713" lon="1.31134">
        <ele>177.4</ele>
        <time>2023-04-04T16:17:47Z</time>
      </trkpt>
      <trkpt lat="43.58712" lon="1.3111">
        <ele>177.4</ele>
        <time>2023-04-04T16:17:50Z</time>
      </trkpt>
      <trkpt lat="43.58712" lon="1.31086">
        <ele>177.8</ele>
        <time>2023-04-04T16:17:53Z</time>
      </trkpt>
      <trkpt lat="43.58715" lon="1.31051">
        <ele>178.2</ele>
        <time>2023-04-04T16:17:58Z</time>
      </trkpt>
      <trkpt lat="43.58716" lon="1.31047">
        <ele>178.2</ele>
        <time>2023-04-04T16:17:59Z</time>
      </trkpt>
      <trkpt lat="43.5872" lon="1.31044">
        <ele>178.2</ele>
        <time>2023-04-04T16:18:00Z</time>
      </trkpt>
      <trkpt lat="43.58723" lon="1.31046">
        <ele>178.2</ele>
        <time>2023-04-04T16:18:01Z</time>
      </trkpt>
      <trkpt lat="43.58735" lon="1.31056">
        <ele>178.4</ele>
        <time>2023-04-04T16:18:04Z</time>
      </trkpt>
      <trkpt lat="43.5874" lon="1.3106">
        <ele>178.4</ele>
        <time>2023-04-04T16:18:05Z</time>
      </trkpt>
      <trkpt lat="43.5875" lon="1.31063">
        <ele>178.2</ele>
        <time>2023-04-04T16:18:07Z</time>
      </trkpt>
      <trkpt lat="43.58762" lon="1.31066">
        <ele>178.2</ele>
        <time>2023-04-04T16:18:09Z</time>
      </trkpt>
      <trkpt lat="43.58768" lon="1.31066">
        <ele>178.4</ele>
        <time>2023-04-04T16:18:10Z</time>
      </trkpt>
      <trkpt lat="43.58778" lon="1.31066">
        <ele>178.4</ele>
        <time>2023-04-04T16:18:12Z</time>
      </trkpt>
      <trkpt lat="43.5879" lon="1.31071">
        <ele>178.8</ele>
        <time>2023-04-04T16:18:14Z</time>
      </trkpt>
      <trkpt lat="43.58801" lon="1.3108">
        <ele>178.6</ele>
        <time>2023-04-04T16:18:16Z</time>
      </trkpt>
      <trkpt lat="43.58829" lon="1.31103">
        <ele>178.6</ele>
        <time>2023-04-04T16:18:21Z</time>
      </trkpt>
      <trkpt lat="43.58875" lon="1.31148">
        <ele>178.4</ele>
        <time>2023-04-04T16:18:29Z</time>
      </trkpt>
      <trkpt lat="43.58923" lon="1.31191">
        <ele>178.2</ele>
        <time>2023-04-04T16:18:38Z</time>
      </trkpt>
      <trkpt lat="43.58931" lon="1.31194">
        <ele>178.2</ele>
        <time>2023-04-04T16:18:41Z</time>
      </trkpt>
      <trkpt lat="43.58937" lon="1.31191">
        <ele>178.2</ele>
        <time>2023-04-04T16:18:43Z</time>
      </trkpt>
      <trkpt lat="43.58943" lon="1.31183">
        <ele>178.2</ele>
        <time>2023-04-04T16:18:45Z</time>
      </trkpt>
      <trkpt lat="43.58945" lon="1.31178">
        <ele>178.2</ele>
        <time>2023-04-04T16:18:46Z</time>
      </trkpt>
      <trkpt lat="43.5895" lon="1.31166">
        <ele>178.2</ele>
        <time>2023-04-04T16:18:48Z</time>
      </trkpt>
      <trkpt lat="43.58953" lon="1.3116">
        <ele>178.2</ele>
        <time>2023-04-04T16:18:49Z</time>
      </trkpt>
      <trkpt lat="43.58971" lon="1.31124">
        <ele>178</ele>
        <time>2023-04-04T16:18:55Z</time>
      </trkpt>
      <trkpt lat="43.58974" lon="1.31118">
        <ele>178</ele>
        <time>2023-04-04T16:18:56Z</time>
      </trkpt>
      <trkpt lat="43.58985" lon="1.31099">
        <ele>178</ele>
        <time>2023-04-04T16:18:59Z</time>
      </trkpt>
      <trkpt lat="43.58993" lon="1.31092">
        <ele>178</ele>
        <time>2023-04-04T16:19:01Z</time>
      </trkpt>
      <trkpt lat="43.59004" lon="1.3109">
        <ele>178</ele>
        <time>2023-04-04T16:19:03Z</time>
      </trkpt>
      <trkpt lat="43.59008" lon="1.31091">
        <ele>178</ele>
        <time>2023-04-04T16:19:04Z</time>
      </trkpt>
      <trkpt lat="43.59013" lon="1.31094">
        <ele>178.2</ele>
        <time>2023-04-04T16:19:05Z</time>
      </trkpt>
      <trkpt lat="43.59029" lon="1.31109">
        <ele>178.4</ele>
        <time>2023-04-04T16:19:08Z</time>
      </trkpt>
      <trkpt lat="43.59068" lon="1.31149">
        <ele>178.2</ele>
        <time>2023-04-04T16:19:16Z</time>
      </trkpt>
      <trkpt lat="43.59077" lon="1.31169">
        <ele>178</ele>
        <time>2023-04-04T16:19:19Z</time>
      </trkpt>
      <trkpt lat="43.59081" lon="1.31175">
        <ele>178</ele>
        <time>2023-04-04T16:19:20Z</time>
      </trkpt>
      <trkpt lat="43.59087" lon="1.3118">
        <ele>178</ele>
        <time>2023-04-04T16:19:21Z</time>
      </trkpt>
      <trkpt lat="43.59098" lon="1.31176">
        <ele>178</ele>
        <time>2023-04-04T16:19:23Z</time>
      </trkpt>
      <trkpt lat="43.59104" lon="1.31163">
        <ele>178</ele>
        <time>2023-04-04T16:19:25Z</time>
      </trkpt>
      <trkpt lat="43.59105" lon="1.31152">
        <ele>178</ele>
        <time>2023-04-04T16:19:26Z</time>
      </trkpt>
      <trkpt lat="43.59106" lon="1.31143">
        <ele>178</ele>
        <time>2023-04-04T16:19:27Z</time>
      </trkpt>
      <trkpt lat="43.5911" lon="1.31129">
        <ele>178</ele>
        <time>2023-04-04T16:19:29Z</time>
      </trkpt>
      <trkpt lat="43.59113" lon="1.31122">
        <ele>178</ele>
        <time>2023-04-04T16:19:30Z</time>
      </trkpt>
      <trkpt lat="43.59146" lon="1.31057">
        <ele>178</ele>
        <time>2023-04-04T16:19:39Z</time>
      </trkpt>
      <trkpt lat="43.5916" lon="1.31039">
        <ele>178</ele>
        <time>2023-04-04T16:19:42Z</time>
      </trkpt>
      <trkpt lat="43.59163" lon="1.31033">
        <ele>178</ele>
        <time>2023-04-04T16:19:43Z</time>
      </trkpt>
      <trkpt lat="43.59188" lon="1.30986">
        <ele>178.4</ele>
        <time>2023-04-04T16:19:50Z</time>
      </trkpt>
      <trkpt lat="43.59196" lon="1.30979">
        <ele>178.6</ele>
        <time>2023-04-04T16:19:52Z</time>
      </trkpt>
      <trkpt lat="43.59207" lon="1.30973">
        <ele>178.4</ele>
        <time>2023-04-04T16:19:54Z</time>
      </trkpt>
      <trkpt lat="43.59215" lon="1.30962">
        <ele>178.4</ele>
        <time>2023-04-04T16:19:56Z</time>
      </trkpt>
      <trkpt lat="43.59217" lon="1.30947">
        <ele>178.2</ele>
        <time>2023-04-04T16:19:58Z</time>
      </trkpt>
      <trkpt lat="43.59217" lon="1.30939">
        <ele>178.2</ele>
        <time>2023-04-04T16:19:59Z</time>
      </trkpt>
      <trkpt lat="43.59216" lon="1.30922">
        <ele>178</ele>
        <time>2023-04-04T16:20:01Z</time>
      </trkpt>
      <trkpt lat="43.59219" lon="1.30908">
        <ele>177.8</ele>
        <time>2023-04-04T16:20:03Z</time>
      </trkpt>
      <trkpt lat="43.5923" lon="1.30886">
        <ele>177.8</ele>
        <time>2023-04-04T16:20:06Z</time>
      </trkpt>
      <trkpt lat="43.59239" lon="1.30876">
        <ele>177.8</ele>
        <time>2023-04-04T16:20:08Z</time>
      </trkpt>
      <trkpt lat="43.5925" lon="1.30871">
        <ele>178</ele>
        <time>2023-04-04T16:20:10Z</time>
      </trkpt>
      <trkpt lat="43.59256" lon="1.30871">
        <ele>178</ele>
        <time>2023-04-04T16:20:11Z</time>
      </trkpt>
      <trkpt lat="43.59261" lon="1.30871">
        <ele>178</ele>
        <time>2023-04-04T16:20:12Z</time>
      </trkpt>
      <trkpt lat="43.59283" lon="1.30874">
        <ele>178.2</ele>
        <time>2023-04-04T16:20:16Z</time>
      </trkpt>
      <trkpt lat="43.59321" lon="1.3088">
        <ele>178.2</ele>
        <time>2023-04-04T16:20:22Z</time>
      </trkpt>
      <trkpt lat="43.59376" lon="1.30891">
        <ele>178.2</ele>
        <time>2023-04-04T16:20:31Z</time>
      </trkpt>
      <trkpt lat="43.5943" lon="1.309">
        <ele>178</ele>
        <time>2023-04-04T16:20:40Z</time>
      </trkpt>
      <trkpt lat="43.5948" lon="1.30909">
        <ele>177.8</ele>
        <time>2023-04-04T16:20:48Z</time>
      </trkpt>
      <trkpt lat="43.59502" lon="1.30913">
        <ele>177.6</ele>
        <time>2023-04-04T16:20:52Z</time>
      </trkpt>
      <trkpt lat="43.59507" lon="1.30916">
        <ele>177.6</ele>
        <time>2023-04-04T16:20:53Z</time>
      </trkpt>
      <trkpt lat="43.59508" lon="1.3092">
        <ele>177.6</ele>
        <time>2023-04-04T16:20:54Z</time>
      </trkpt>
      <trkpt lat="43.59508" lon="1.30927">
        <ele>177.6</ele>
        <time>2023-04-04T16:20:55Z</time>
      </trkpt>
      <trkpt lat="43.59505" lon="1.30976">
        <ele>177.6</ele>
        <time>2023-04-04T16:21:02Z</time>
      </trkpt>
      <trkpt lat="43.59503" lon="1.31008">
        <ele>177.6</ele>
        <time>2023-04-04T16:21:06Z</time>
      </trkpt>
      <trkpt lat="43.59501" lon="1.31015">
        <ele>177.6</ele>
        <time>2023-04-04T16:21:07Z</time>
      </trkpt>
      <trkpt lat="43.59499" lon="1.31023">
        <ele>177.6</ele>
        <time>2023-04-04T16:21:08Z</time>
      </trkpt>
      <trkpt lat="43.59498" lon="1.31039">
        <ele>177.6</ele>
        <time>2023-04-04T16:21:10Z</time>
      </trkpt>
      <trkpt lat="43.59497" lon="1.31056">
        <ele>177.6</ele>
        <time>2023-04-04T16:21:12Z</time>
      </trkpt>
      <trkpt lat="43.59497" lon="1.31127">
        <ele>178</ele>
        <time>2023-04-04T16:21:20Z</time>
      </trkpt>
      <trkpt lat="43.59496" lon="1.31204">
        <ele>178.4</ele>
        <time>2023-04-04T16:21:28Z</time>
      </trkpt>
      <trkpt lat="43.59496" lon="1.31214">
        <ele>178.4</ele>
        <time>2023-04-04T16:21:29Z</time>
      </trkpt>
      <trkpt lat="43.59494" lon="1.31292">
        <ele>178.2</ele>
        <time>2023-04-04T16:21:37Z</time>
      </trkpt>
      <trkpt lat="43.59493" lon="1.31322">
        <ele>178.4</ele>
        <time>2023-04-04T16:21:40Z</time>
      </trkpt>
      <trkpt lat="43.59491" lon="1.31402">
        <ele>178.4</ele>
        <time>2023-04-04T16:21:48Z</time>
      </trkpt>
      <trkpt lat="43.59491" lon="1.31412">
        <ele>178.4</ele>
        <time>2023-04-04T16:21:49Z</time>
      </trkpt>
      <trkpt lat="43.5949" lon="1.31491">
        <ele>178</ele>
        <time>2023-04-04T16:21:57Z</time>
      </trkpt>
      <trkpt lat="43.5949" lon="1.31521">
        <ele>178</ele>
        <time>2023-04-04T16:22:00Z</time>
      </trkpt>
      <trkpt lat="43.59489" lon="1.31602">
        <ele>177.6</ele>
        <time>2023-04-04T16:22:08Z</time>
      </trkpt>
      <trkpt lat="43.5949" lon="1.31612">
        <ele>177.6</ele>
        <time>2023-04-04T16:22:09Z</time>
      </trkpt>
      <trkpt lat="43.59488" lon="1.31671">
        <ele>177.4</ele>
        <time>2023-04-04T16:22:15Z</time>
      </trkpt>
      <trkpt lat="43.59488" lon="1.31736">
        <ele>177.4</ele>
        <time>2023-04-04T16:22:22Z</time>
      </trkpt>
      <trkpt lat="43.59488" lon="1.31801">
        <ele>177.4</ele>
        <time>2023-04-04T16:22:29Z</time>
      </trkpt>
      <trkpt lat="43.59487" lon="1.31877">
        <ele>177.2</ele>
        <time>2023-04-04T16:22:37Z</time>
      </trkpt>
      <trkpt lat="43.59487" lon="1.31887">
        <ele>177.2</ele>
        <time>2023-04-04T16:22:38Z</time>
      </trkpt>
      <trkpt lat="43.59487" lon="1.31897">
        <ele>177</ele>
        <time>2023-04-04T16:22:39Z</time>
      </trkpt>
      <trkpt lat="43.59483" lon="1.31936">
        <ele>177</ele>
        <time>2023-04-04T16:22:43Z</time>
      </trkpt>
      <trkpt lat="43.59481" lon="1.31995">
        <ele>177</ele>
        <time>2023-04-04T16:22:49Z</time>
      </trkpt>
      <trkpt lat="43.59481" lon="1.32076">
        <ele>177</ele>
        <time>2023-04-04T16:22:57Z</time>
      </trkpt>
      <trkpt lat="43.59481" lon="1.32098">
        <ele>176.8</ele>
        <time>2023-04-04T16:22:59Z</time>
      </trkpt>
      <trkpt lat="43.5948" lon="1.3218">
        <ele>176.4</ele>
        <time>2023-04-04T16:23:07Z</time>
      </trkpt>
      <trkpt lat="43.5948" lon="1.3219">
        <ele>176</ele>
        <time>2023-04-04T16:23:08Z</time>
      </trkpt>
      <trkpt lat="43.5948" lon="1.32236">
        <ele>175.8</ele>
        <time>2023-04-04T16:23:13Z</time>
      </trkpt>
      <trkpt lat="43.59481" lon="1.32245">
        <ele>175.6</ele>
        <time>2023-04-04T16:23:14Z</time>
      </trkpt>
      <trkpt lat="43.59483" lon="1.32254">
        <ele>175.6</ele>
        <time>2023-04-04T16:23:15Z</time>
      </trkpt>
      <trkpt lat="43.59486" lon="1.32272">
        <ele>175.6</ele>
        <time>2023-04-04T16:23:17Z</time>
      </trkpt>
      <trkpt lat="43.59486" lon="1.32281">
        <ele>175.6</ele>
        <time>2023-04-04T16:23:18Z</time>
      </trkpt>
      <trkpt lat="43.59485" lon="1.32333">
        <ele>175.6</ele>
        <time>2023-04-04T16:23:24Z</time>
      </trkpt>
      <trkpt lat="43.59483" lon="1.32415">
        <ele>175.8</ele>
        <time>2023-04-04T16:23:33Z</time>
      </trkpt>
      <trkpt lat="43.59483" lon="1.32424">
        <ele>175.8</ele>
        <time>2023-04-04T16:23:34Z</time>
      </trkpt>
      <trkpt lat="43.59483" lon="1.32507">
        <ele>176</ele>
        <time>2023-04-04T16:23:43Z</time>
      </trkpt>
      <trkpt lat="43.59483" lon="1.32515">
        <ele>176.2</ele>
        <time>2023-04-04T16:23:44Z</time>
      </trkpt>
      <trkpt lat="43.59483" lon="1.32523">
        <ele>176.2</ele>
        <time>2023-04-04T16:23:45Z</time>
      </trkpt>
      <trkpt lat="43.59483" lon="1.32537">
        <ele>176.2</ele>
        <time>2023-04-04T16:23:47Z</time>
      </trkpt>
      <trkpt lat="43.59483" lon="1.3255">
        <ele>176.2</ele>
        <time>2023-04-04T16:23:49Z</time>
      </trkpt>
      <trkpt lat="43.59482" lon="1.32556">
        <ele>176.2</ele>
        <time>2023-04-04T16:23:50Z</time>
      </trkpt>
      <trkpt lat="43.59479" lon="1.3256">
        <ele>176.2</ele>
        <time>2023-04-04T16:23:51Z</time>
      </trkpt>
      <trkpt lat="43.59474" lon="1.32561">
        <ele>176.2</ele>
        <time>2023-04-04T16:23:53Z</time>
      </trkpt>
      <trkpt lat="43.59469" lon="1.32559">
        <ele>176.2</ele>
        <time>2023-04-04T16:23:57Z</time>
      </trkpt>
      <trkpt lat="43.59469" lon="1.32559">
        <ele>176.2</ele>
        <time>2023-04-04T16:23:58Z</time>
      </trkpt>
      <trkpt lat="43.59466" lon="1.32562">
        <ele>176.2</ele>
        <time>2023-04-04T16:24:02Z</time>
      </trkpt>
      <trkpt lat="43.59462" lon="1.32564">
        <ele>176.2</ele>
        <time>2023-04-04T16:24:04Z</time>
      </trkpt>
      <trkpt lat="43.59449" lon="1.32549">
        <ele>176.2</ele>
        <time>2023-04-04T16:24:09Z</time>
      </trkpt>
      <trkpt lat="43.59426" lon="1.32524">
        <ele>176.2</ele>
        <time>2023-04-04T16:24:15Z</time>
      </trkpt>
      <trkpt lat="43.59421" lon="1.3252">
        <ele>176.2</ele>
        <time>2023-04-04T16:24:16Z</time>
      </trkpt>
      <trkpt lat="43.59408" lon="1.32512">
        <ele>176.2</ele>
        <time>2023-04-04T16:24:19Z</time>
      </trkpt>
      <trkpt lat="43.59404" lon="1.3251">
        <ele>176.2</ele>
        <time>2023-04-04T16:24:20Z</time>
      </trkpt>
      <trkpt lat="43.5939" lon="1.32503">
        <ele>176</ele>
        <time>2023-04-04T16:24:23Z</time>
      </trkpt>
      <trkpt lat="43.59379" lon="1.32496">
        <ele>176</ele>
        <time>2023-04-04T16:24:25Z</time>
      </trkpt>
      <trkpt lat="43.59374" lon="1.32492">
        <ele>176</ele>
        <time>2023-04-04T16:24:26Z</time>
      </trkpt>
      <trkpt lat="43.59343" lon="1.32474">
        <ele>175.6</ele>
        <time>2023-04-04T16:24:32Z</time>
      </trkpt>
      <trkpt lat="43.59335" lon="1.32474">
        <ele>175.6</ele>
        <time>2023-04-04T16:24:34Z</time>
      </trkpt>
      <trkpt lat="43.59332" lon="1.32476">
        <ele>175.6</ele>
        <time>2023-04-04T16:24:35Z</time>
      </trkpt>
      <trkpt lat="43.5933" lon="1.32479">
        <ele>175.6</ele>
        <time>2023-04-04T16:24:36Z</time>
      </trkpt>
      <trkpt lat="43.59324" lon="1.32492">
        <ele>175.6</ele>
        <time>2023-04-04T16:24:38Z</time>
      </trkpt>
      <trkpt lat="43.59321" lon="1.32499">
        <ele>175.6</ele>
        <time>2023-04-04T16:24:39Z</time>
      </trkpt>
      <trkpt lat="43.59313" lon="1.32532">
        <ele>175.6</ele>
        <time>2023-04-04T16:24:43Z</time>
      </trkpt>
      <trkpt lat="43.59302" lon="1.32585">
        <ele>175.6</ele>
        <time>2023-04-04T16:24:49Z</time>
      </trkpt>
      <trkpt lat="43.59286" lon="1.32629">
        <ele>175.6</ele>
        <time>2023-04-04T16:24:54Z</time>
      </trkpt>
      <trkpt lat="43.59276" lon="1.32645">
        <ele>176</ele>
        <time>2023-04-04T16:24:56Z</time>
      </trkpt>
      <trkpt lat="43.59265" lon="1.32659">
        <ele>176</ele>
        <time>2023-04-04T16:24:58Z</time>
      </trkpt>
      <trkpt lat="43.59259" lon="1.32665">
        <ele>176</ele>
        <time>2023-04-04T16:24:59Z</time>
      </trkpt>
      <trkpt lat="43.5924" lon="1.32679">
        <ele>176.2</ele>
        <time>2023-04-04T16:25:02Z</time>
      </trkpt>
      <trkpt lat="43.59227" lon="1.32684">
        <ele>175.8</ele>
        <time>2023-04-04T16:25:04Z</time>
      </trkpt>
      <trkpt lat="43.59214" lon="1.32684">
        <ele>175.8</ele>
        <time>2023-04-04T16:25:06Z</time>
      </trkpt>
      <trkpt lat="43.592" lon="1.32681">
        <ele>176</ele>
        <time>2023-04-04T16:25:08Z</time>
      </trkpt>
      <trkpt lat="43.59193" lon="1.3268">
        <ele>176.2</ele>
        <time>2023-04-04T16:25:09Z</time>
      </trkpt>
      <trkpt lat="43.59179" lon="1.32681">
        <ele>176.4</ele>
        <time>2023-04-04T16:25:11Z</time>
      </trkpt>
      <trkpt lat="43.59173" lon="1.32683">
        <ele>176.4</ele>
        <time>2023-04-04T16:25:12Z</time>
      </trkpt>
      <trkpt lat="43.5916" lon="1.32691">
        <ele>176.4</ele>
        <time>2023-04-04T16:25:14Z</time>
      </trkpt>
      <trkpt lat="43.59148" lon="1.32705">
        <ele>176.4</ele>
        <time>2023-04-04T16:25:16Z</time>
      </trkpt>
      <trkpt lat="43.59139" lon="1.32722">
        <ele>176.2</ele>
        <time>2023-04-04T16:25:18Z</time>
      </trkpt>
      <trkpt lat="43.59133" lon="1.3274">
        <ele>176.2</ele>
        <time>2023-04-04T16:25:20Z</time>
      </trkpt>
      <trkpt lat="43.59116" lon="1.32803">
        <ele>176</ele>
        <time>2023-04-04T16:25:27Z</time>
      </trkpt>
      <trkpt lat="43.59104" lon="1.32849">
        <ele>176.2</ele>
        <time>2023-04-04T16:25:33Z</time>
      </trkpt>
      <trkpt lat="43.591" lon="1.32858">
        <ele>176</ele>
        <time>2023-04-04T16:25:36Z</time>
      </trkpt>
      <trkpt lat="43.59097" lon="1.32864">
        <ele>176</ele>
        <time>2023-04-04T16:25:38Z</time>
      </trkpt>
      <trkpt lat="43.59091" lon="1.32863">
        <ele>175.8</ele>
        <time>2023-04-04T16:25:40Z</time>
      </trkpt>
      <trkpt lat="43.59083" lon="1.32857">
        <ele>175.8</ele>
        <time>2023-04-04T16:25:42Z</time>
      </trkpt>
      <trkpt lat="43.59074" lon="1.32851">
        <ele>175.8</ele>
        <time>2023-04-04T16:25:44Z</time>
      </trkpt>
      <trkpt lat="43.59039" lon="1.32823">
        <ele>175.6</ele>
        <time>2023-04-04T16:25:51Z</time>
      </trkpt>
      <trkpt lat="43.5899" lon="1.32785">
        <ele>176.6</ele>
        <time>2023-04-04T16:26:00Z</time>
      </trkpt>
      <trkpt lat="43.58953" lon="1.32756">
        <ele>176.6</ele>
        <time>2023-04-04T16:26:07Z</time>
      </trkpt>
      <trkpt lat="43.58938" lon="1.32744">
        <ele>176.8</ele>
        <time>2023-04-04T16:26:10Z</time>
      </trkpt>
      <trkpt lat="43.58927" lon="1.32737">
        <ele>176.8</ele>
        <time>2023-04-04T16:26:12Z</time>
      </trkpt>
      <trkpt lat="43.58923" lon="1.32733">
        <ele>176.8</ele>
        <time>2023-04-04T16:26:13Z</time>
      </trkpt>
      <trkpt lat="43.5892" lon="1.32732">
        <ele>176.8</ele>
        <time>2023-04-04T16:26:14Z</time>
      </trkpt>
      <trkpt lat="43.58918" lon="1.32734">
        <ele>176.8</ele>
        <time>2023-04-04T16:26:16Z</time>
      </trkpt>
      <trkpt lat="43.58909" lon="1.32747">
        <ele>176.8</ele>
        <time>2023-04-04T16:26:20Z</time>
      </trkpt>
      <trkpt lat="43.58905" lon="1.32757">
        <ele>176.8</ele>
        <time>2023-04-04T16:26:22Z</time>
      </trkpt>
      <trkpt lat="43.58899" lon="1.32774">
        <ele>176.8</ele>
        <time>2023-04-04T16:26:25Z</time>
      </trkpt>
      <trkpt lat="43.58884" lon="1.32803">
        <ele>177</ele>
        <time>2023-04-04T16:26:30Z</time>
      </trkpt>
      <trkpt lat="43.58873" lon="1.32824">
        <ele>177</ele>
        <time>2023-04-04T16:26:33Z</time>
      </trkpt>
      <trkpt lat="43.58863" lon="1.32842">
        <ele>177</ele>
        <time>2023-04-04T16:26:36Z</time>
      </trkpt>
      <trkpt lat="43.58855" lon="1.32857">
        <ele>177</ele>
        <time>2023-04-04T16:26:38Z</time>
      </trkpt>
      <trkpt lat="43.58846" lon="1.32868">
        <ele>177.2</ele>
        <time>2023-04-04T16:26:40Z</time>
      </trkpt>
      <trkpt lat="43.58836" lon="1.3288">
        <ele>177.2</ele>
        <time>2023-04-04T16:26:42Z</time>
      </trkpt>
      <trkpt lat="43.58832" lon="1.32885">
        <ele>177.2</ele>
        <time>2023-04-04T16:26:43Z</time>
      </trkpt>
      <trkpt lat="43.58827" lon="1.32891">
        <ele>177.4</ele>
        <time>2023-04-04T16:26:44Z</time>
      </trkpt>
      <trkpt lat="43.58812" lon="1.32908">
        <ele>177.4</ele>
        <time>2023-04-04T16:26:47Z</time>
      </trkpt>
      <trkpt lat="43.58809" lon="1.32914">
        <ele>177.4</ele>
        <time>2023-04-04T16:26:48Z</time>
      </trkpt>
      <trkpt lat="43.58801" lon="1.32932">
        <ele>177.4</ele>
        <time>2023-04-04T16:26:51Z</time>
      </trkpt>
      <trkpt lat="43.58806" lon="1.32945">
        <ele>177</ele>
        <time>2023-04-04T16:26:53Z</time>
      </trkpt>
      <trkpt lat="43.58819" lon="1.32955">
        <ele>176.8</ele>
        <time>2023-04-04T16:26:56Z</time>
      </trkpt>
      <trkpt lat="43.58834" lon="1.32967">
        <ele>176.6</ele>
        <time>2023-04-04T16:26:59Z</time>
      </trkpt>
      <trkpt lat="43.58843" lon="1.32982">
        <ele>176.6</ele>
        <time>2023-04-04T16:27:02Z</time>
      </trkpt>
      <trkpt lat="43.58847" lon="1.32987">
        <ele>176.6</ele>
        <time>2023-04-04T16:27:03Z</time>
      </trkpt>
      <trkpt lat="43.58851" lon="1.32991">
        <ele>176.8</ele>
        <time>2023-04-04T16:27:06Z</time>
      </trkpt>
      <trkpt lat="43.58849" lon="1.3299">
        <ele>176.8</ele>
        <time>2023-04-04T16:27:08Z</time>
      </trkpt>
      <trkpt lat="43.58845" lon="1.32987">
        <ele>176.8</ele>
        <time>2023-04-04T16:27:10Z</time>
      </trkpt>
      <trkpt lat="43.58838" lon="1.32972">
        <ele>176.6</ele>
        <time>2023-04-04T16:27:15Z</time>
      </trkpt>
      <trkpt lat="43.58831" lon="1.32966">
        <ele>176.6</ele>
        <time>2023-04-04T16:27:18Z</time>
      </trkpt>
      <trkpt lat="43.58831" lon="1.32966">
        <ele>176.6</ele>
        <time>2023-04-04T16:27:19Z</time>
      </trkpt>
      <trkpt lat="43.58831" lon="1.32966">
        <ele>176.6</ele>
        <time>2023-04-04T16:27:20Z</time>
      </trkpt>
      <trkpt lat="43.58835" lon="1.32972">
        <ele>176.6</ele>
        <time>2023-04-04T16:27:27Z</time>
      </trkpt>
      <trkpt lat="43.58838" lon="1.32979">
        <ele>176.6</ele>
        <time>2023-04-04T16:27:30Z</time>
      </trkpt>
      <trkpt lat="43.58846" lon="1.32992">
        <ele>176.4</ele>
        <time>2023-04-04T16:27:34Z</time>
      </trkpt>
      <trkpt lat="43.58864" lon="1.33">
        <ele>176.4</ele>
        <time>2023-04-04T16:27:39Z</time>
      </trkpt>
      <trkpt lat="43.58869" lon="1.33002">
        <ele>176.4</ele>
        <time>2023-04-04T16:27:40Z</time>
      </trkpt>
      <trkpt lat="43.58878" lon="1.33006">
        <ele>176.4</ele>
        <time>2023-04-04T16:27:42Z</time>
      </trkpt>
      <trkpt lat="43.58886" lon="1.33016">
        <ele>176.4</ele>
        <time>2023-04-04T16:27:44Z</time>
      </trkpt>
      <trkpt lat="43.58893" lon="1.33027">
        <ele>176.6</ele>
        <time>2023-04-04T16:27:46Z</time>
      </trkpt>
      <trkpt lat="43.58905" lon="1.33041">
        <ele>176.8</ele>
        <time>2023-04-04T16:27:49Z</time>
      </trkpt>
      <trkpt lat="43.58912" lon="1.33054">
        <ele>177</ele>
        <time>2023-04-04T16:27:51Z</time>
      </trkpt>
      <trkpt lat="43.58914" lon="1.3307">
        <ele>177</ele>
        <time>2023-04-04T16:27:53Z</time>
      </trkpt>
      <trkpt lat="43.58917" lon="1.33094">
        <ele>177</ele>
        <time>2023-04-04T16:27:56Z</time>
      </trkpt>
      <trkpt lat="43.58919" lon="1.33102">
        <ele>177</ele>
        <time>2023-04-04T16:27:57Z</time>
      </trkpt>
      <trkpt lat="43.58923" lon="1.3311">
        <ele>177</ele>
        <time>2023-04-04T16:27:58Z</time>
      </trkpt>
      <trkpt lat="43.58939" lon="1.33136">
        <ele>176.4</ele>
        <time>2023-04-04T16:28:02Z</time>
      </trkpt>
      <trkpt lat="43.58945" lon="1.33141">
        <ele>176</ele>
        <time>2023-04-04T16:28:05Z</time>
      </trkpt>
      <trkpt lat="43.58946" lon="1.3314">
        <ele>176</ele>
        <time>2023-04-04T16:28:06Z</time>
      </trkpt>
      <trkpt lat="43.58951" lon="1.33133">
        <ele>176</ele>
        <time>2023-04-04T16:28:09Z</time>
      </trkpt>
      <trkpt lat="43.58953" lon="1.33132">
        <ele>176</ele>
        <time>2023-04-04T16:28:10Z</time>
      </trkpt>
      <trkpt lat="43.58959" lon="1.33138">
        <ele>175.8</ele>
        <time>2023-04-04T16:28:12Z</time>
      </trkpt>
      <trkpt lat="43.58969" lon="1.33159">
        <ele>175.6</ele>
        <time>2023-04-04T16:28:16Z</time>
      </trkpt>
      <trkpt lat="43.58971" lon="1.33174">
        <ele>175.4</ele>
        <time>2023-04-04T16:28:18Z</time>
      </trkpt>
      <trkpt lat="43.5897" lon="1.3319">
        <ele>175.4</ele>
        <time>2023-04-04T16:28:20Z</time>
      </trkpt>
      <trkpt lat="43.58969" lon="1.33205">
        <ele>175.4</ele>
        <time>2023-04-04T16:28:22Z</time>
      </trkpt>
      <trkpt lat="43.58971" lon="1.3322">
        <ele>175.2</ele>
        <time>2023-04-04T16:28:24Z</time>
      </trkpt>
      <trkpt lat="43.58968" lon="1.33235">
        <ele>175.2</ele>
        <time>2023-04-04T16:28:26Z</time>
      </trkpt>
      <trkpt lat="43.58965" lon="1.33241">
        <ele>175.2</ele>
        <time>2023-04-04T16:28:27Z</time>
      </trkpt>
      <trkpt lat="43.58963" lon="1.33248">
        <ele>175.2</ele>
        <time>2023-04-04T16:28:28Z</time>
      </trkpt>
      <trkpt lat="43.5896" lon="1.33261">
        <ele>175.2</ele>
        <time>2023-04-04T16:28:30Z</time>
      </trkpt>
      <trkpt lat="43.5896" lon="1.33266">
        <ele>175.2</ele>
        <time>2023-04-04T16:28:31Z</time>
      </trkpt>
      <trkpt lat="43.58959" lon="1.33274">
        <ele>175</ele>
        <time>2023-04-04T16:28:32Z</time>
      </trkpt>
      <trkpt lat="43.58952" lon="1.33298">
        <ele>174.4</ele>
        <time>2023-04-04T16:28:35Z</time>
      </trkpt>
      <trkpt lat="43.58949" lon="1.33304">
        <ele>174.2</ele>
        <time>2023-04-04T16:28:36Z</time>
      </trkpt>
      <trkpt lat="43.58944" lon="1.33311">
        <ele>173.8</ele>
        <time>2023-04-04T16:28:37Z</time>
      </trkpt>
      <trkpt lat="43.58936" lon="1.33314">
        <ele>172.4</ele>
        <time>2023-04-04T16:28:39Z</time>
      </trkpt>
      <trkpt lat="43.58927" lon="1.33317">
        <ele>170.6</ele>
        <time>2023-04-04T16:28:41Z</time>
      </trkpt>
      <trkpt lat="43.58923" lon="1.3332">
        <ele>170.2</ele>
        <time>2023-04-04T16:28:42Z</time>
      </trkpt>
      <trkpt lat="43.58917" lon="1.33324">
        <ele>169.8</ele>
        <time>2023-04-04T16:28:43Z</time>
      </trkpt>
      <trkpt lat="43.5891" lon="1.33331">
        <ele>169.4</ele>
        <time>2023-04-04T16:28:44Z</time>
      </trkpt>
      <trkpt lat="43.58905" lon="1.33343">
        <ele>168.6</ele>
        <time>2023-04-04T16:28:46Z</time>
      </trkpt>
      <trkpt lat="43.58901" lon="1.33348">
        <ele>168.4</ele>
        <time>2023-04-04T16:28:47Z</time>
      </trkpt>
      <trkpt lat="43.58896" lon="1.33353">
        <ele>167.8</ele>
        <time>2023-04-04T16:28:48Z</time>
      </trkpt>
      <trkpt lat="43.58892" lon="1.33358">
        <ele>167.4</ele>
        <time>2023-04-04T16:28:49Z</time>
      </trkpt>
      <trkpt lat="43.5889" lon="1.33363">
        <ele>166.4</ele>
        <time>2023-04-04T16:28:50Z</time>
      </trkpt>
      <trkpt lat="43.5889" lon="1.33369">
        <ele>165.4</ele>
        <time>2023-04-04T16:28:51Z</time>
      </trkpt>
      <trkpt lat="43.58889" lon="1.33375">
        <ele>164.8</ele>
        <time>2023-04-04T16:28:52Z</time>
      </trkpt>
      <trkpt lat="43.58888" lon="1.33382">
        <ele>163.8</ele>
        <time>2023-04-04T16:28:53Z</time>
      </trkpt>
      <trkpt lat="43.5889" lon="1.33391">
        <ele>162.2</ele>
        <time>2023-04-04T16:28:55Z</time>
      </trkpt>
      <trkpt lat="43.58891" lon="1.33395">
        <ele>161.8</ele>
        <time>2023-04-04T16:28:56Z</time>
      </trkpt>
      <trkpt lat="43.58891" lon="1.33398">
        <ele>161.2</ele>
        <time>2023-04-04T16:28:57Z</time>
      </trkpt>
      <trkpt lat="43.58894" lon="1.33412">
        <ele>160</ele>
        <time>2023-04-04T16:29:00Z</time>
      </trkpt>
      <trkpt lat="43.58896" lon="1.33415">
        <ele>159.6</ele>
        <time>2023-04-04T16:29:01Z</time>
      </trkpt>
      <trkpt lat="43.58903" lon="1.33422">
        <ele>158.8</ele>
        <time>2023-04-04T16:29:03Z</time>
      </trkpt>
      <trkpt lat="43.58914" lon="1.3344">
        <ele>158.6</ele>
        <time>2023-04-04T16:29:07Z</time>
      </trkpt>
      <trkpt lat="43.58917" lon="1.33445">
        <ele>158.4</ele>
        <time>2023-04-04T16:29:08Z</time>
      </trkpt>
      <trkpt lat="43.58927" lon="1.33459">
        <ele>158.4</ele>
        <time>2023-04-04T16:29:11Z</time>
      </trkpt>
      <trkpt lat="43.5893" lon="1.33464">
        <ele>158.4</ele>
        <time>2023-04-04T16:29:12Z</time>
      </trkpt>
      <trkpt lat="43.58933" lon="1.33469">
        <ele>158.4</ele>
        <time>2023-04-04T16:29:13Z</time>
      </trkpt>
      <trkpt lat="43.5894" lon="1.33477">
        <ele>158.4</ele>
        <time>2023-04-04T16:29:15Z</time>
      </trkpt>
      <trkpt lat="43.58942" lon="1.33483">
        <ele>158.4</ele>
        <time>2023-04-04T16:29:16Z</time>
      </trkpt>
      <trkpt lat="43.58947" lon="1.33496">
        <ele>158.6</ele>
        <time>2023-04-04T16:29:18Z</time>
      </trkpt>
      <trkpt lat="43.5895" lon="1.33506">
        <ele>158.6</ele>
        <time>2023-04-04T16:29:20Z</time>
      </trkpt>
      <trkpt lat="43.58955" lon="1.33519">
        <ele>158.6</ele>
        <time>2023-04-04T16:29:23Z</time>
      </trkpt>
      <trkpt lat="43.58965" lon="1.33524">
        <ele>158.4</ele>
        <time>2023-04-04T16:29:26Z</time>
      </trkpt>
      <trkpt lat="43.58968" lon="1.33526">
        <ele>158.4</ele>
        <time>2023-04-04T16:29:27Z</time>
      </trkpt>
      <trkpt lat="43.58975" lon="1.33534">
        <ele>158.2</ele>
        <time>2023-04-04T16:29:29Z</time>
      </trkpt>
      <trkpt lat="43.58978" lon="1.33545">
        <ele>158.4</ele>
        <time>2023-04-04T16:29:31Z</time>
      </trkpt>
      <trkpt lat="43.58985" lon="1.33556">
        <ele>158.8</ele>
        <time>2023-04-04T16:29:34Z</time>
      </trkpt>
      <trkpt lat="43.58988" lon="1.3356">
        <ele>158.8</ele>
        <time>2023-04-04T16:29:35Z</time>
      </trkpt>
      <trkpt lat="43.58997" lon="1.33569">
        <ele>159.2</ele>
        <time>2023-04-04T16:29:39Z</time>
      </trkpt>
      <trkpt lat="43.58995" lon="1.3358">
        <ele>159.4</ele>
        <time>2023-04-04T16:29:42Z</time>
      </trkpt>
      <trkpt lat="43.58985" lon="1.33603">
        <ele>159.6</ele>
        <time>2023-04-04T16:29:45Z</time>
      </trkpt>
      <trkpt lat="43.58962" lon="1.33651">
        <ele>158.2</ele>
        <time>2023-04-04T16:29:52Z</time>
      </trkpt>
      <trkpt lat="43.58958" lon="1.33659">
        <ele>157.2</ele>
        <time>2023-04-04T16:29:53Z</time>
      </trkpt>
      <trkpt lat="43.58949" lon="1.33674">
        <ele>156.2</ele>
        <time>2023-04-04T16:29:55Z</time>
      </trkpt>
      <trkpt lat="43.58945" lon="1.33682">
        <ele>155.8</ele>
        <time>2023-04-04T16:29:56Z</time>
      </trkpt>
      <trkpt lat="43.58933" lon="1.33707">
        <ele>154.6</ele>
        <time>2023-04-04T16:29:59Z</time>
      </trkpt>
      <trkpt lat="43.5892" lon="1.3373">
        <ele>153.4</ele>
        <time>2023-04-04T16:30:02Z</time>
      </trkpt>
      <trkpt lat="43.58913" lon="1.33742">
        <ele>152.8</ele>
        <time>2023-04-04T16:30:04Z</time>
      </trkpt>
      <trkpt lat="43.58909" lon="1.33745">
        <ele>152.6</ele>
        <time>2023-04-04T16:30:05Z</time>
      </trkpt>
      <trkpt lat="43.58899" lon="1.33739">
        <ele>152.4</ele>
        <time>2023-04-04T16:30:07Z</time>
      </trkpt>
      <trkpt lat="43.58895" lon="1.33734">
        <ele>152.4</ele>
        <time>2023-04-04T16:30:08Z</time>
      </trkpt>
      <trkpt lat="43.5886" lon="1.3369">
        <ele>151.6</ele>
        <time>2023-04-04T16:30:16Z</time>
      </trkpt>
      <trkpt lat="43.58825" lon="1.3365">
        <ele>151.8</ele>
        <time>2023-04-04T16:30:23Z</time>
      </trkpt>
      <trkpt lat="43.58804" lon="1.33628">
        <ele>152</ele>
        <time>2023-04-04T16:30:27Z</time>
      </trkpt>
      <trkpt lat="43.58799" lon="1.33626">
        <ele>152</ele>
        <time>2023-04-04T16:30:28Z</time>
      </trkpt>
      <trkpt lat="43.58781" lon="1.33623">
        <ele>152</ele>
        <time>2023-04-04T16:30:31Z</time>
      </trkpt>
      <trkpt lat="43.58772" lon="1.33617">
        <ele>151.8</ele>
        <time>2023-04-04T16:30:33Z</time>
      </trkpt>
      <trkpt lat="43.58764" lon="1.33611">
        <ele>151.8</ele>
        <time>2023-04-04T16:30:35Z</time>
      </trkpt>
      <trkpt lat="43.5876" lon="1.3361">
        <ele>151.6</ele>
        <time>2023-04-04T16:30:36Z</time>
      </trkpt>
      <trkpt lat="43.58757" lon="1.33606">
        <ele>151.6</ele>
        <time>2023-04-04T16:30:37Z</time>
      </trkpt>
      <trkpt lat="43.58751" lon="1.33597">
        <ele>151.4</ele>
        <time>2023-04-04T16:30:39Z</time>
      </trkpt>
      <trkpt lat="43.58748" lon="1.33592">
        <ele>151.4</ele>
        <time>2023-04-04T16:30:40Z</time>
      </trkpt>
      <trkpt lat="43.58729" lon="1.33564">
        <ele>151.2</ele>
        <time>2023-04-04T16:30:45Z</time>
      </trkpt>
      <trkpt lat="43.5872" lon="1.3355">
        <ele>151</ele>
        <time>2023-04-04T16:30:48Z</time>
      </trkpt>
      <trkpt lat="43.58717" lon="1.33545">
        <ele>151</ele>
        <time>2023-04-04T16:30:50Z</time>
      </trkpt>
      <trkpt lat="43.58703" lon="1.33529">
        <ele>150.8</ele>
        <time>2023-04-04T16:30:55Z</time>
      </trkpt>
      <trkpt lat="43.58685" lon="1.33504">
        <ele>150.8</ele>
        <time>2023-04-04T16:31:00Z</time>
      </trkpt>
      <trkpt lat="43.58675" lon="1.33489">
        <ele>150.8</ele>
        <time>2023-04-04T16:31:03Z</time>
      </trkpt>
      <trkpt lat="43.58673" lon="1.33482">
        <ele>150.6</ele>
        <time>2023-04-04T16:31:05Z</time>
      </trkpt>
      <trkpt lat="43.58674" lon="1.33473">
        <ele>150.6</ele>
        <time>2023-04-04T16:31:08Z</time>
      </trkpt>
      <trkpt lat="43.58676" lon="1.3347">
        <ele>150.6</ele>
        <time>2023-04-04T16:31:09Z</time>
      </trkpt>
      <trkpt lat="43.58689" lon="1.33454">
        <ele>150.6</ele>
        <time>2023-04-04T16:31:13Z</time>
      </trkpt>
      <trkpt lat="43.58691" lon="1.3345">
        <ele>150.4</ele>
        <time>2023-04-04T16:31:14Z</time>
      </trkpt>
      <trkpt lat="43.58694" lon="1.33444">
        <ele>150.4</ele>
        <time>2023-04-04T16:31:17Z</time>
      </trkpt>
      <trkpt lat="43.58694" lon="1.33444">
        <ele>150.4</ele>
        <time>2023-04-04T16:31:18Z</time>
      </trkpt>
      <trkpt lat="43.58698" lon="1.3344">
        <ele>150.6</ele>
        <time>2023-04-04T16:31:22Z</time>
      </trkpt>
      <trkpt lat="43.58703" lon="1.33434">
        <ele>150.4</ele>
        <time>2023-04-04T16:31:24Z</time>
      </trkpt>
      <trkpt lat="43.58711" lon="1.33421">
        <ele>150.4</ele>
        <time>2023-04-04T16:31:27Z</time>
      </trkpt>
      <trkpt lat="43.58714" lon="1.33416">
        <ele>150.4</ele>
        <time>2023-04-04T16:31:28Z</time>
      </trkpt>
      <trkpt lat="43.58715" lon="1.3341">
        <ele>150.4</ele>
        <time>2023-04-04T16:31:29Z</time>
      </trkpt>
      <trkpt lat="43.58716" lon="1.33405">
        <ele>150.4</ele>
        <time>2023-04-04T16:31:30Z</time>
      </trkpt>
      <trkpt lat="43.58714" lon="1.33401">
        <ele>150.6</ele>
        <time>2023-04-04T16:31:31Z</time>
      </trkpt>
      <trkpt lat="43.58698" lon="1.33379">
        <ele>150.8</ele>
        <time>2023-04-04T16:31:36Z</time>
      </trkpt>
      <trkpt lat="43.5867" lon="1.3334">
        <ele>151.2</ele>
        <time>2023-04-04T16:31:43Z</time>
      </trkpt>
      <trkpt lat="43.58666" lon="1.33334">
        <ele>151.2</ele>
        <time>2023-04-04T16:31:44Z</time>
      </trkpt>
      <trkpt lat="43.58648" lon="1.33314">
        <ele>151.2</ele>
        <time>2023-04-04T16:31:48Z</time>
      </trkpt>
      <trkpt lat="43.58632" lon="1.33291">
        <ele>151</ele>
        <time>2023-04-04T16:31:53Z</time>
      </trkpt>
      <trkpt lat="43.5863" lon="1.33288">
        <ele>151</ele>
        <time>2023-04-04T16:31:55Z</time>
      </trkpt>
      <trkpt lat="43.5863" lon="1.33287">
        <ele>151.2</ele>
        <time>2023-04-04T16:31:56Z</time>
      </trkpt>
      <trkpt lat="43.58631" lon="1.33284">
        <ele>151.2</ele>
        <time>2023-04-04T16:31:59Z</time>
      </trkpt>
      <trkpt lat="43.5863" lon="1.33284">
        <ele>151.2</ele>
        <time>2023-04-04T16:32:00Z</time>
      </trkpt>
      <trkpt lat="43.58624" lon="1.33289">
        <ele>151.2</ele>
        <time>2023-04-04T16:32:03Z</time>
      </trkpt>
      <trkpt lat="43.58622" lon="1.33288">
        <ele>151.2</ele>
        <time>2023-04-04T16:32:04Z</time>
      </trkpt>
      <trkpt lat="43.58609" lon="1.33274">
        <ele>151.2</ele>
        <time>2023-04-04T16:32:09Z</time>
      </trkpt>
      <trkpt lat="43.58593" lon="1.33259">
        <ele>151.6</ele>
        <time>2023-04-04T16:32:14Z</time>
      </trkpt>
      <trkpt lat="43.58568" lon="1.33236">
        <ele>151.6</ele>
        <time>2023-04-04T16:32:20Z</time>
      </trkpt>
      <trkpt lat="43.58564" lon="1.33234">
        <ele>151.6</ele>
        <time>2023-04-04T16:32:21Z</time>
      </trkpt>
      <trkpt lat="43.58559" lon="1.33234">
        <ele>151.6</ele>
        <time>2023-04-04T16:32:23Z</time>
      </trkpt>
      <trkpt lat="43.58546" lon="1.33244">
        <ele>151</ele>
        <time>2023-04-04T16:32:27Z</time>
      </trkpt>
      <trkpt lat="43.58528" lon="1.33262">
        <ele>150.8</ele>
        <time>2023-04-04T16:32:31Z</time>
      </trkpt>
      <trkpt lat="43.58502" lon="1.33286">
        <ele>150.6</ele>
        <time>2023-04-04T16:32:36Z</time>
      </trkpt>
      <trkpt lat="43.58491" lon="1.33296">
        <ele>150.4</ele>
        <time>2023-04-04T16:32:38Z</time>
      </trkpt>
      <trkpt lat="43.58457" lon="1.33332">
        <ele>150</ele>
        <time>2023-04-04T16:32:45Z</time>
      </trkpt>
      <trkpt lat="43.58451" lon="1.33344">
        <ele>150</ele>
        <time>2023-04-04T16:32:47Z</time>
      </trkpt>
      <trkpt lat="43.58448" lon="1.33345">
        <ele>150</ele>
        <time>2023-04-04T16:32:48Z</time>
      </trkpt>
      <trkpt lat="43.5844" lon="1.33346">
        <ele>149.8</ele>
        <time>2023-04-04T16:32:50Z</time>
      </trkpt>
      <trkpt lat="43.58431" lon="1.33352">
        <ele>149.8</ele>
        <time>2023-04-04T16:32:52Z</time>
      </trkpt>
      <trkpt lat="43.58418" lon="1.33364">
        <ele>149.8</ele>
        <time>2023-04-04T16:32:55Z</time>
      </trkpt>
      <trkpt lat="43.58411" lon="1.3337">
        <ele>149.8</ele>
        <time>2023-04-04T16:32:58Z</time>
      </trkpt>
      <trkpt lat="43.58407" lon="1.33375">
        <ele>149.8</ele>
        <time>2023-04-04T16:33:01Z</time>
      </trkpt>
      <trkpt lat="43.58404" lon="1.33378">
        <ele>149.8</ele>
        <time>2023-04-04T16:33:02Z</time>
      </trkpt>
      <trkpt lat="43.58398" lon="1.33379">
        <ele>149.6</ele>
        <time>2023-04-04T16:33:04Z</time>
      </trkpt>
      <trkpt lat="43.58395" lon="1.33376">
        <ele>149.6</ele>
        <time>2023-04-04T16:33:05Z</time>
      </trkpt>
      <trkpt lat="43.58379" lon="1.33361">
        <ele>149.4</ele>
        <time>2023-04-04T16:33:09Z</time>
      </trkpt>
      <trkpt lat="43.58373" lon="1.33351">
        <ele>149.4</ele>
        <time>2023-04-04T16:33:11Z</time>
      </trkpt>
      <trkpt lat="43.58373" lon="1.33344">
        <ele>149.4</ele>
        <time>2023-04-04T16:33:12Z</time>
      </trkpt>
      <trkpt lat="43.58374" lon="1.33304">
        <ele>149.8</ele>
        <time>2023-04-04T16:33:17Z</time>
      </trkpt>
      <trkpt lat="43.58373" lon="1.33231">
        <ele>150</ele>
        <time>2023-04-04T16:33:26Z</time>
      </trkpt>
      <trkpt lat="43.58371" lon="1.33168">
        <ele>150.2</ele>
        <time>2023-04-04T16:33:34Z</time>
      </trkpt>
      <trkpt lat="43.58371" lon="1.33121">
        <ele>150.6</ele>
        <time>2023-04-04T16:33:41Z</time>
      </trkpt>
      <trkpt lat="43.58371" lon="1.33116">
        <ele>150.6</ele>
        <time>2023-04-04T16:33:42Z</time>
      </trkpt>
      <trkpt lat="43.58369" lon="1.33085">
        <ele>150.6</ele>
        <time>2023-04-04T16:33:48Z</time>
      </trkpt>
      <trkpt lat="43.5837" lon="1.33074">
        <ele>150.6</ele>
        <time>2023-04-04T16:33:50Z</time>
      </trkpt>
      <trkpt lat="43.58372" lon="1.33061">
        <ele>150.6</ele>
        <time>2023-04-04T16:33:52Z</time>
      </trkpt>
      <trkpt lat="43.58373" lon="1.33019">
        <ele>150.6</ele>
        <time>2023-04-04T16:33:58Z</time>
      </trkpt>
      <trkpt lat="43.58373" lon="1.32961">
        <ele>151.2</ele>
        <time>2023-04-04T16:34:06Z</time>
      </trkpt>
      <trkpt lat="43.58372" lon="1.32947">
        <ele>151.4</ele>
        <time>2023-04-04T16:34:08Z</time>
      </trkpt>
      <trkpt lat="43.58373" lon="1.32925">
        <ele>151.6</ele>
        <time>2023-04-04T16:34:11Z</time>
      </trkpt>
      <trkpt lat="43.58374" lon="1.32917">
        <ele>151.6</ele>
        <time>2023-04-04T16:34:12Z</time>
      </trkpt>
      <trkpt lat="43.58376" lon="1.32872">
        <ele>151.8</ele>
        <time>2023-04-04T16:34:18Z</time>
      </trkpt>
      <trkpt lat="43.58377" lon="1.32806">
        <ele>151.8</ele>
        <time>2023-04-04T16:34:27Z</time>
      </trkpt>
      <trkpt lat="43.58378" lon="1.32778">
        <ele>152.2</ele>
        <time>2023-04-04T16:34:31Z</time>
      </trkpt>
      <trkpt lat="43.58375" lon="1.32766">
        <ele>152.2</ele>
        <time>2023-04-04T16:34:33Z</time>
      </trkpt>
      <trkpt lat="43.58366" lon="1.32762">
        <ele>152.4</ele>
        <time>2023-04-04T16:34:36Z</time>
      </trkpt>
      <trkpt lat="43.58362" lon="1.32755">
        <ele>152.4</ele>
        <time>2023-04-04T16:34:38Z</time>
      </trkpt>
      <trkpt lat="43.58362" lon="1.3275">
        <ele>152.4</ele>
        <time>2023-04-04T16:34:39Z</time>
      </trkpt>
      <trkpt lat="43.58361" lon="1.32745">
        <ele>152.4</ele>
        <time>2023-04-04T16:34:40Z</time>
      </trkpt>
      <trkpt lat="43.58361" lon="1.32735">
        <ele>152.4</ele>
        <time>2023-04-04T16:34:42Z</time>
      </trkpt>
      <trkpt lat="43.58369" lon="1.32724">
        <ele>152.6</ele>
        <time>2023-04-04T16:34:45Z</time>
      </trkpt>
      <trkpt lat="43.58384" lon="1.32714">
        <ele>152.8</ele>
        <time>2023-04-04T16:34:49Z</time>
      </trkpt>
      <trkpt lat="43.5839" lon="1.32703">
        <ele>152.8</ele>
        <time>2023-04-04T16:34:51Z</time>
      </trkpt>
      <trkpt lat="43.58391" lon="1.32697">
        <ele>152.8</ele>
        <time>2023-04-04T16:34:52Z</time>
      </trkpt>
      <trkpt lat="43.58394" lon="1.32691">
        <ele>152.8</ele>
        <time>2023-04-04T16:34:53Z</time>
      </trkpt>
      <trkpt lat="43.58403" lon="1.32674">
        <ele>152.8</ele>
        <time>2023-04-04T16:34:56Z</time>
      </trkpt>
      <trkpt lat="43.58406" lon="1.32669">
        <ele>152.8</ele>
        <time>2023-04-04T16:34:57Z</time>
      </trkpt>
      <trkpt lat="43.58409" lon="1.32663">
        <ele>153</ele>
        <time>2023-04-04T16:34:58Z</time>
      </trkpt>
      <trkpt lat="43.58424" lon="1.32635">
        <ele>153.2</ele>
        <time>2023-04-04T16:35:03Z</time>
      </trkpt>
      <trkpt lat="43.58437" lon="1.32613">
        <ele>153.6</ele>
        <time>2023-04-04T16:35:07Z</time>
      </trkpt>
      <trkpt lat="43.58458" lon="1.32575">
        <ele>154.6</ele>
        <time>2023-04-04T16:35:14Z</time>
      </trkpt>
      <trkpt lat="43.58461" lon="1.32563">
        <ele>154.6</ele>
        <time>2023-04-04T16:35:16Z</time>
      </trkpt>
      <trkpt lat="43.58462" lon="1.32557">
        <ele>154.8</ele>
        <time>2023-04-04T16:35:17Z</time>
      </trkpt>
      <trkpt lat="43.58461" lon="1.32551">
        <ele>154.8</ele>
        <time>2023-04-04T16:35:18Z</time>
      </trkpt>
      <trkpt lat="43.58457" lon="1.32526">
        <ele>155.6</ele>
        <time>2023-04-04T16:35:23Z</time>
      </trkpt>
      <trkpt lat="43.58457" lon="1.3252">
        <ele>155.8</ele>
        <time>2023-04-04T16:35:26Z</time>
      </trkpt>
      <trkpt lat="43.58459" lon="1.32518">
        <ele>156</ele>
        <time>2023-04-04T16:35:27Z</time>
      </trkpt>
      <trkpt lat="43.58471" lon="1.32513">
        <ele>156</ele>
        <time>2023-04-04T16:35:31Z</time>
      </trkpt>
      <trkpt lat="43.58485" lon="1.32513">
        <ele>156</ele>
        <time>2023-04-04T16:35:35Z</time>
      </trkpt>
      <trkpt lat="43.58493" lon="1.32508">
        <ele>156.2</ele>
        <time>2023-04-04T16:35:37Z</time>
      </trkpt>
      <trkpt lat="43.58503" lon="1.32497">
        <ele>156.6</ele>
        <time>2023-04-04T16:35:40Z</time>
      </trkpt>
      <trkpt lat="43.58516" lon="1.32479">
        <ele>157.4</ele>
        <time>2023-04-04T16:35:45Z</time>
      </trkpt>
      <trkpt lat="43.58519" lon="1.32475">
        <ele>157.8</ele>
        <time>2023-04-04T16:35:46Z</time>
      </trkpt>
      <trkpt lat="43.58533" lon="1.32457">
        <ele>158.8</ele>
        <time>2023-04-04T16:35:51Z</time>
      </trkpt>
      <trkpt lat="43.58539" lon="1.3245">
        <ele>159.4</ele>
        <time>2023-04-04T16:35:53Z</time>
      </trkpt>
      <trkpt lat="43.5855" lon="1.32436">
        <ele>159.8</ele>
        <time>2023-04-04T16:35:57Z</time>
      </trkpt>
      <trkpt lat="43.58571" lon="1.32412">
        <ele>161</ele>
        <time>2023-04-04T16:36:04Z</time>
      </trkpt>
      <trkpt lat="43.58574" lon="1.32408">
        <ele>161</ele>
        <time>2023-04-04T16:36:05Z</time>
      </trkpt>
      <trkpt lat="43.58592" lon="1.32387">
        <ele>162.2</ele>
        <time>2023-04-04T16:36:11Z</time>
      </trkpt>
      <trkpt lat="43.58599" lon="1.32381">
        <ele>162.6</ele>
        <time>2023-04-04T16:36:13Z</time>
      </trkpt>
      <trkpt lat="43.58608" lon="1.3237">
        <ele>163.4</ele>
        <time>2023-04-04T16:36:16Z</time>
      </trkpt>
      <trkpt lat="43.58622" lon="1.32353">
        <ele>164.6</ele>
        <time>2023-04-04T16:36:21Z</time>
      </trkpt>
      <trkpt lat="43.58625" lon="1.3235">
        <ele>164.8</ele>
        <time>2023-04-04T16:36:22Z</time>
      </trkpt>
      <trkpt lat="43.58636" lon="1.32338">
        <ele>165.6</ele>
        <time>2023-04-04T16:36:26Z</time>
      </trkpt>
      <trkpt lat="43.58648" lon="1.32326">
        <ele>166.6</ele>
        <time>2023-04-04T16:36:30Z</time>
      </trkpt>
      <trkpt lat="43.5865" lon="1.32323">
        <ele>167</ele>
        <time>2023-04-04T16:36:31Z</time>
      </trkpt>
      <trkpt lat="43.58661" lon="1.32311">
        <ele>168</ele>
        <time>2023-04-04T16:36:35Z</time>
      </trkpt>
      <trkpt lat="43.58668" lon="1.32304">
        <ele>169.2</ele>
        <time>2023-04-04T16:36:38Z</time>
      </trkpt>
      <trkpt lat="43.5867" lon="1.323">
        <ele>169.6</ele>
        <time>2023-04-04T16:36:39Z</time>
      </trkpt>
      <trkpt lat="43.58671" lon="1.32296">
        <ele>169.8</ele>
        <time>2023-04-04T16:36:40Z</time>
      </trkpt>
      <trkpt lat="43.58672" lon="1.32289">
        <ele>170.4</ele>
        <time>2023-04-04T16:36:42Z</time>
      </trkpt>
      <trkpt lat="43.58672" lon="1.32283">
        <ele>170.6</ele>
        <time>2023-04-04T16:36:43Z</time>
      </trkpt>
      <trkpt lat="43.58673" lon="1.3227">
        <ele>171.6</ele>
        <time>2023-04-04T16:36:46Z</time>
      </trkpt>
      <trkpt lat="43.58675" lon="1.32248">
        <ele>172.8</ele>
        <time>2023-04-04T16:36:51Z</time>
      </trkpt>
      <trkpt lat="43.58675" lon="1.3224">
        <ele>173.2</ele>
        <time>2023-04-04T16:36:53Z</time>
      </trkpt>
      <trkpt lat="43.58677" lon="1.32235">
        <ele>173.4</ele>
        <time>2023-04-04T16:36:55Z</time>
      </trkpt>
      <trkpt lat="43.58677" lon="1.32231">
        <ele>173.6</ele>
        <time>2023-04-04T16:36:57Z</time>
      </trkpt>
      <trkpt lat="43.58677" lon="1.32229">
        <ele>173.8</ele>
        <time>2023-04-04T16:37:00Z</time>
      </trkpt>
    </trkseg>
  </trk>
</gpx>